<?xml version="1.0" encoding="UTF-8"?>
<gpx version="1.1" creator="Endomondo.com" xsi:schemaLocation="http://www.topografix.com/GPX/1/1 http://www.topografix.com/GPX/1/1/gpx.xsd http://www.garmin.com/xmlschemas/GpxExtensions/v3 http://www.garmin.com/xmlschemas/GpxExtensionsv3.xsd http://www.garmin.com/xmlschemas/TrackPointExtension/v1 http://www.garmin.com/xmlschemas/TrackPointExtensionv1.xsd" xmlns="http://www.topografix.com/GPX/1/1" xmlns:gpxtpx="http://www.garmin.com/xmlschemas/TrackPointExtension/v1" xmlns:gpxx="http://www.garmin.com/xmlschemas/GpxExtensions/v3" xmlns:xsi="http://www.w3.org/2001/XMLSchema-instance">
  <metadata>
    <author>
      <name>Pablo Pravia Fernadez</name>
      <email id="praporvertesonreir" domain="gmail.com"/>
    </author>
    <link href="http://www.endomondo.com">
      <text>Endomondo</text>
    </link>
    <time>2012-06-14T16:34:37Z</time>
    <bounds minlat="43.383665" minlon="-6.066741" maxlat="43.388299" maxlon="-6.07265"/>
  </metadata>
  <trk>
    <name>112 Km Duros</name>
    <cmt>Grado, San Pedro, Alto de Maravio 1040m ( 10,8 Km al 6.9% ), Teverga, Alto de San Lorenzo 1347m ( 11,2 Km al 7.9% ), La Riera, Aguasmestas, Agüerina, San Martin de Ondes, Alto de la Corredoria 897m ( 8 Km al 8.4% ), Dolia, Las Cruces, San Pedro, Grado. 112 Km.</cmt>
    <src>http://www.endomondo.com/</src>
    <link href="http://www.endomondo.com/workouts/u7uIWhOtuW0">
      <text>112 Km Duros</text>
    </link>
    <type>CYCLING_SPORT</type>
    <trkseg>
      <trkpt lat="43.383665" lon="-6.066741">
        <time>2012-06-14T06:59:48Z</time>
      </trkpt>
      <trkpt lat="43.383665" lon="-6.066741">
        <ele>136.0</ele>
        <time>2012-06-14T07:01:44Z</time>
      </trkpt>
      <trkpt lat="43.3836" lon="-6.066738">
        <ele>129.0</ele>
        <time>2012-06-14T07:01:48Z</time>
      </trkpt>
      <trkpt lat="43.383421" lon="-6.066554">
        <ele>132.0</ele>
        <time>2012-06-14T07:01:55Z</time>
      </trkpt>
      <trkpt lat="43.383169" lon="-6.066236">
        <ele>138.0</ele>
        <time>2012-06-14T07:01:59Z</time>
      </trkpt>
      <trkpt lat="43.382965" lon="-6.065996">
        <ele>146.0</ele>
        <time>2012-06-14T07:02:03Z</time>
      </trkpt>
      <trkpt lat="43.382753" lon="-6.065707">
        <ele>155.0</ele>
        <time>2012-06-14T07:02:07Z</time>
      </trkpt>
      <trkpt lat="43.38253" lon="-6.065431">
        <ele>155.0</ele>
        <time>2012-06-14T07:02:11Z</time>
      </trkpt>
      <trkpt lat="43.38232" lon="-6.065169">
        <ele>153.0</ele>
        <time>2012-06-14T07:02:15Z</time>
      </trkpt>
      <trkpt lat="43.382133" lon="-6.064894">
        <ele>152.0</ele>
        <time>2012-06-14T07:02:19Z</time>
      </trkpt>
      <trkpt lat="43.381993" lon="-6.064703">
        <ele>150.0</ele>
        <time>2012-06-14T07:02:22Z</time>
      </trkpt>
      <trkpt lat="43.381817" lon="-6.064467">
        <ele>148.0</ele>
        <time>2012-06-14T07:02:26Z</time>
      </trkpt>
      <trkpt lat="43.381654" lon="-6.064251">
        <ele>145.0</ele>
        <time>2012-06-14T07:02:30Z</time>
      </trkpt>
      <trkpt lat="43.381486" lon="-6.064045">
        <ele>141.0</ele>
        <time>2012-06-14T07:02:34Z</time>
      </trkpt>
      <trkpt lat="43.381315" lon="-6.063836">
        <ele>139.0</ele>
        <time>2012-06-14T07:02:38Z</time>
      </trkpt>
      <trkpt lat="43.381148" lon="-6.063623">
        <ele>138.0</ele>
        <time>2012-06-14T07:02:42Z</time>
      </trkpt>
      <trkpt lat="43.380985" lon="-6.063426">
        <ele>137.0</ele>
        <time>2012-06-14T07:02:46Z</time>
      </trkpt>
      <trkpt lat="43.380804" lon="-6.063208">
        <ele>138.0</ele>
        <time>2012-06-14T07:02:50Z</time>
      </trkpt>
      <trkpt lat="43.380621" lon="-6.06301">
        <ele>139.0</ele>
        <time>2012-06-14T07:02:54Z</time>
      </trkpt>
      <trkpt lat="43.380451" lon="-6.062824">
        <ele>137.0</ele>
        <time>2012-06-14T07:02:58Z</time>
      </trkpt>
      <trkpt lat="43.380266" lon="-6.062664">
        <ele>136.0</ele>
        <time>2012-06-14T07:03:02Z</time>
      </trkpt>
      <trkpt lat="43.380107" lon="-6.062509">
        <ele>136.0</ele>
        <time>2012-06-14T07:03:06Z</time>
      </trkpt>
      <trkpt lat="43.379946" lon="-6.062357">
        <ele>137.0</ele>
        <time>2012-06-14T07:03:10Z</time>
      </trkpt>
      <trkpt lat="43.379858" lon="-6.062288">
        <ele>137.0</ele>
        <time>2012-06-14T07:03:12Z</time>
      </trkpt>
      <trkpt lat="43.379572" lon="-6.062195">
        <ele>138.0</ele>
        <time>2012-06-14T07:03:18Z</time>
      </trkpt>
      <trkpt lat="43.379375" lon="-6.06224">
        <ele>138.0</ele>
        <time>2012-06-14T07:03:22Z</time>
      </trkpt>
      <trkpt lat="43.379166" lon="-6.062287">
        <ele>138.0</ele>
        <time>2012-06-14T07:03:26Z</time>
      </trkpt>
      <trkpt lat="43.378951" lon="-6.062325">
        <ele>137.0</ele>
        <time>2012-06-14T07:03:30Z</time>
      </trkpt>
      <trkpt lat="43.378509" lon="-6.062396">
        <ele>137.0</ele>
        <time>2012-06-14T07:03:38Z</time>
      </trkpt>
      <trkpt lat="43.378403" lon="-6.06245">
        <ele>138.0</ele>
        <time>2012-06-14T07:03:40Z</time>
      </trkpt>
      <trkpt lat="43.378076" lon="-6.062594">
        <ele>138.0</ele>
        <time>2012-06-14T07:03:46Z</time>
      </trkpt>
      <trkpt lat="43.377858" lon="-6.062672">
        <ele>138.0</ele>
        <time>2012-06-14T07:03:50Z</time>
      </trkpt>
      <trkpt lat="43.377664" lon="-6.062827">
        <ele>138.0</ele>
        <time>2012-06-14T07:03:54Z</time>
      </trkpt>
      <trkpt lat="43.377582" lon="-6.062936">
        <ele>138.0</ele>
        <time>2012-06-14T07:03:56Z</time>
      </trkpt>
      <trkpt lat="43.377278" lon="-6.06305">
        <ele>137.0</ele>
        <time>2012-06-14T07:04:02Z</time>
      </trkpt>
      <trkpt lat="43.37718" lon="-6.063041">
        <ele>137.0</ele>
        <time>2012-06-14T07:04:04Z</time>
      </trkpt>
      <trkpt lat="43.376908" lon="-6.063243">
        <ele>136.0</ele>
        <time>2012-06-14T07:04:10Z</time>
      </trkpt>
      <trkpt lat="43.376721" lon="-6.063427">
        <ele>135.0</ele>
        <time>2012-06-14T07:04:14Z</time>
      </trkpt>
      <trkpt lat="43.37662" lon="-6.063513">
        <ele>135.0</ele>
        <time>2012-06-14T07:04:16Z</time>
      </trkpt>
      <trkpt lat="43.376306" lon="-6.063657">
        <ele>134.0</ele>
        <time>2012-06-14T07:04:22Z</time>
      </trkpt>
      <trkpt lat="43.376108" lon="-6.063709">
        <ele>134.0</ele>
        <time>2012-06-14T07:04:26Z</time>
      </trkpt>
      <trkpt lat="43.375812" lon="-6.063548">
        <ele>134.0</ele>
        <time>2012-06-14T07:04:31Z</time>
      </trkpt>
      <trkpt lat="43.375567" lon="-6.063443">
        <ele>134.0</ele>
        <time>2012-06-14T07:04:34Z</time>
      </trkpt>
      <trkpt lat="43.37529" lon="-6.063401">
        <ele>134.0</ele>
        <time>2012-06-14T07:04:38Z</time>
      </trkpt>
      <trkpt lat="43.374979" lon="-6.063504">
        <ele>135.0</ele>
        <time>2012-06-14T07:04:43Z</time>
      </trkpt>
      <trkpt lat="43.37474" lon="-6.063596">
        <ele>136.0</ele>
        <time>2012-06-14T07:04:47Z</time>
      </trkpt>
      <trkpt lat="43.374499" lon="-6.063674">
        <ele>137.0</ele>
        <time>2012-06-14T07:04:51Z</time>
      </trkpt>
      <trkpt lat="43.374378" lon="-6.063711">
        <ele>137.0</ele>
        <time>2012-06-14T07:04:53Z</time>
      </trkpt>
      <trkpt lat="43.374005" lon="-6.063861">
        <ele>138.0</ele>
        <time>2012-06-14T07:04:59Z</time>
      </trkpt>
      <trkpt lat="43.373766" lon="-6.064036">
        <ele>138.0</ele>
        <time>2012-06-14T07:05:03Z</time>
      </trkpt>
      <trkpt lat="43.373548" lon="-6.064263">
        <ele>137.0</ele>
        <time>2012-06-14T07:05:07Z</time>
      </trkpt>
      <trkpt lat="43.373348" lon="-6.064531">
        <ele>138.0</ele>
        <time>2012-06-14T07:05:11Z</time>
      </trkpt>
      <trkpt lat="43.373203" lon="-6.064897">
        <ele>138.0</ele>
        <time>2012-06-14T07:05:15Z</time>
      </trkpt>
      <trkpt lat="43.373116" lon="-6.065386">
        <ele>138.0</ele>
        <time>2012-06-14T07:05:19Z</time>
      </trkpt>
      <trkpt lat="43.372968" lon="-6.065847">
        <ele>138.0</ele>
        <time>2012-06-14T07:05:23Z</time>
      </trkpt>
      <trkpt lat="43.372794" lon="-6.066236">
        <ele>139.0</ele>
        <time>2012-06-14T07:05:27Z</time>
      </trkpt>
      <trkpt lat="43.372644" lon="-6.066462">
        <ele>139.0</ele>
        <time>2012-06-14T07:05:30Z</time>
      </trkpt>
      <trkpt lat="43.372373" lon="-6.066744">
        <ele>140.0</ele>
        <time>2012-06-14T07:05:35Z</time>
      </trkpt>
      <trkpt lat="43.372243" lon="-6.066926">
        <ele>139.0</ele>
        <time>2012-06-14T07:05:38Z</time>
      </trkpt>
      <trkpt lat="43.372029" lon="-6.067335">
        <ele>139.0</ele>
        <time>2012-06-14T07:05:44Z</time>
      </trkpt>
      <trkpt lat="43.371923" lon="-6.067572">
        <ele>139.0</ele>
        <time>2012-06-14T07:05:47Z</time>
      </trkpt>
      <trkpt lat="43.371741" lon="-6.067848">
        <ele>139.0</ele>
        <time>2012-06-14T07:05:51Z</time>
      </trkpt>
      <trkpt lat="43.371519" lon="-6.068051">
        <ele>139.0</ele>
        <time>2012-06-14T07:05:55Z</time>
      </trkpt>
      <trkpt lat="43.371283" lon="-6.068097">
        <ele>139.0</ele>
        <time>2012-06-14T07:05:59Z</time>
      </trkpt>
      <trkpt lat="43.370943" lon="-6.067921">
        <ele>139.0</ele>
        <time>2012-06-14T07:06:04Z</time>
      </trkpt>
      <trkpt lat="43.370651" lon="-6.06785">
        <ele>140.0</ele>
        <time>2012-06-14T07:06:08Z</time>
      </trkpt>
      <trkpt lat="43.370365" lon="-6.067839">
        <ele>141.0</ele>
        <time>2012-06-14T07:06:12Z</time>
      </trkpt>
      <trkpt lat="43.370084" lon="-6.067836">
        <ele>141.0</ele>
        <time>2012-06-14T07:06:16Z</time>
      </trkpt>
      <trkpt lat="43.369947" lon="-6.067834">
        <ele>141.0</ele>
        <time>2012-06-14T07:06:18Z</time>
      </trkpt>
      <trkpt lat="43.369559" lon="-6.067813">
        <ele>141.0</ele>
        <time>2012-06-14T07:06:24Z</time>
      </trkpt>
      <trkpt lat="43.369312" lon="-6.067832">
        <ele>142.0</ele>
        <time>2012-06-14T07:06:28Z</time>
      </trkpt>
      <trkpt lat="43.369061" lon="-6.067917">
        <ele>142.0</ele>
        <time>2012-06-14T07:06:32Z</time>
      </trkpt>
      <trkpt lat="43.368887" lon="-6.068027">
        <ele>142.0</ele>
        <time>2012-06-14T07:06:35Z</time>
      </trkpt>
      <trkpt lat="43.368703" lon="-6.068228">
        <ele>142.0</ele>
        <time>2012-06-14T07:06:39Z</time>
      </trkpt>
      <trkpt lat="43.368526" lon="-6.068442">
        <ele>142.0</ele>
        <time>2012-06-14T07:06:43Z</time>
      </trkpt>
      <trkpt lat="43.368339" lon="-6.068651">
        <ele>142.0</ele>
        <time>2012-06-14T07:06:47Z</time>
      </trkpt>
      <trkpt lat="43.368134" lon="-6.068796">
        <ele>142.0</ele>
        <time>2012-06-14T07:06:51Z</time>
      </trkpt>
      <trkpt lat="43.367911" lon="-6.068898">
        <ele>142.0</ele>
        <time>2012-06-14T07:06:55Z</time>
      </trkpt>
      <trkpt lat="43.367671" lon="-6.06895">
        <ele>142.0</ele>
        <time>2012-06-14T07:06:59Z</time>
      </trkpt>
      <trkpt lat="43.367426" lon="-6.068869">
        <ele>142.0</ele>
        <time>2012-06-14T07:07:03Z</time>
      </trkpt>
      <trkpt lat="43.367231" lon="-6.068833">
        <ele>143.0</ele>
        <time>2012-06-14T07:07:07Z</time>
      </trkpt>
      <trkpt lat="43.367028" lon="-6.068762">
        <ele>144.0</ele>
        <time>2012-06-14T07:07:11Z</time>
      </trkpt>
      <trkpt lat="43.366805" lon="-6.068715">
        <ele>144.0</ele>
        <time>2012-06-14T07:07:15Z</time>
      </trkpt>
      <trkpt lat="43.366336" lon="-6.068571">
        <ele>145.0</ele>
        <time>2012-06-14T07:07:23Z</time>
      </trkpt>
      <trkpt lat="43.365853" lon="-6.068571">
        <ele>146.0</ele>
        <time>2012-06-14T07:07:31Z</time>
      </trkpt>
      <trkpt lat="43.36554" lon="-6.068607">
        <ele>145.0</ele>
        <time>2012-06-14T07:07:36Z</time>
      </trkpt>
      <trkpt lat="43.365274" lon="-6.068635">
        <ele>145.0</ele>
        <time>2012-06-14T07:07:40Z</time>
      </trkpt>
      <trkpt lat="43.364994" lon="-6.068689">
        <ele>145.0</ele>
        <time>2012-06-14T07:07:44Z</time>
      </trkpt>
      <trkpt lat="43.364712" lon="-6.068756">
        <ele>145.0</ele>
        <time>2012-06-14T07:07:48Z</time>
      </trkpt>
      <trkpt lat="43.36444" lon="-6.068867">
        <ele>145.0</ele>
        <time>2012-06-14T07:07:52Z</time>
      </trkpt>
      <trkpt lat="43.364182" lon="-6.069014">
        <ele>145.0</ele>
        <time>2012-06-14T07:07:56Z</time>
      </trkpt>
      <trkpt lat="43.363985" lon="-6.069103">
        <ele>146.0</ele>
        <time>2012-06-14T07:07:59Z</time>
      </trkpt>
      <trkpt lat="43.363658" lon="-6.069275">
        <ele>146.0</ele>
        <time>2012-06-14T07:08:04Z</time>
      </trkpt>
      <trkpt lat="43.363415" lon="-6.069501">
        <ele>146.0</ele>
        <time>2012-06-14T07:08:08Z</time>
      </trkpt>
      <trkpt lat="43.363186" lon="-6.069705">
        <ele>146.0</ele>
        <time>2012-06-14T07:08:12Z</time>
      </trkpt>
      <trkpt lat="43.362728" lon="-6.069959">
        <ele>145.0</ele>
        <time>2012-06-14T07:08:20Z</time>
      </trkpt>
      <trkpt lat="43.362456" lon="-6.070045">
        <ele>146.0</ele>
        <time>2012-06-14T07:08:24Z</time>
      </trkpt>
      <trkpt lat="43.362193" lon="-6.070134">
        <ele>146.0</ele>
        <time>2012-06-14T07:08:28Z</time>
      </trkpt>
      <trkpt lat="43.361916" lon="-6.070182">
        <ele>146.0</ele>
        <time>2012-06-14T07:08:32Z</time>
      </trkpt>
      <trkpt lat="43.361634" lon="-6.070223">
        <ele>145.0</ele>
        <time>2012-06-14T07:08:36Z</time>
      </trkpt>
      <trkpt lat="43.361361" lon="-6.070288">
        <ele>146.0</ele>
        <time>2012-06-14T07:08:40Z</time>
      </trkpt>
      <trkpt lat="43.361113" lon="-6.070372">
        <ele>147.0</ele>
        <time>2012-06-14T07:08:44Z</time>
      </trkpt>
      <trkpt lat="43.360874" lon="-6.070473">
        <ele>147.0</ele>
        <time>2012-06-14T07:08:48Z</time>
      </trkpt>
      <trkpt lat="43.360637" lon="-6.070603">
        <ele>148.0</ele>
        <time>2012-06-14T07:08:52Z</time>
      </trkpt>
      <trkpt lat="43.360526" lon="-6.070679">
        <ele>148.0</ele>
        <time>2012-06-14T07:08:54Z</time>
      </trkpt>
      <trkpt lat="43.360233" lon="-6.071028">
        <ele>150.0</ele>
        <time>2012-06-14T07:09:00Z</time>
      </trkpt>
      <trkpt lat="43.360069" lon="-6.071321">
        <ele>150.0</ele>
        <time>2012-06-14T07:09:04Z</time>
      </trkpt>
      <trkpt lat="43.359913" lon="-6.071597">
        <ele>151.0</ele>
        <time>2012-06-14T07:09:08Z</time>
      </trkpt>
      <trkpt lat="43.359751" lon="-6.071842">
        <ele>151.0</ele>
        <time>2012-06-14T07:09:12Z</time>
      </trkpt>
      <trkpt lat="43.359585" lon="-6.072092">
        <ele>151.0</ele>
        <time>2012-06-14T07:09:16Z</time>
      </trkpt>
      <trkpt lat="43.359414" lon="-6.072357">
        <ele>151.0</ele>
        <time>2012-06-14T07:09:20Z</time>
      </trkpt>
      <trkpt lat="43.359271" lon="-6.07252">
        <ele>151.0</ele>
        <time>2012-06-14T07:09:23Z</time>
      </trkpt>
      <trkpt lat="43.359077" lon="-6.072727">
        <ele>151.0</ele>
        <time>2012-06-14T07:09:27Z</time>
      </trkpt>
      <trkpt lat="43.35898" lon="-6.07283">
        <ele>151.0</ele>
        <time>2012-06-14T07:09:29Z</time>
      </trkpt>
      <trkpt lat="43.35898" lon="-6.07283">
        <time>2012-06-14T07:09:40Z</time>
      </trkpt>
    </trkseg>
    <trkseg>
      <trkpt lat="43.35898" lon="-6.07283">
        <time>2012-06-14T07:09:46Z</time>
      </trkpt>
      <trkpt lat="43.358863" lon="-6.075697">
        <ele>156.0</ele>
        <time>2012-06-14T07:09:54Z</time>
      </trkpt>
      <trkpt lat="43.357825" lon="-6.074043">
        <ele>163.0</ele>
        <time>2012-06-14T07:09:58Z</time>
      </trkpt>
      <trkpt lat="43.357613" lon="-6.073995">
        <ele>163.0</ele>
        <time>2012-06-14T07:10:01Z</time>
      </trkpt>
      <trkpt lat="43.35739" lon="-6.074035">
        <ele>163.0</ele>
        <time>2012-06-14T07:10:05Z</time>
      </trkpt>
      <trkpt lat="43.357298" lon="-6.074062">
        <ele>163.0</ele>
        <time>2012-06-14T07:10:07Z</time>
      </trkpt>
      <trkpt lat="43.356916" lon="-6.074088">
        <ele>163.0</ele>
        <time>2012-06-14T07:10:14Z</time>
      </trkpt>
      <trkpt lat="43.356575" lon="-6.074087">
        <ele>165.0</ele>
        <time>2012-06-14T07:10:18Z</time>
      </trkpt>
      <trkpt lat="43.356324" lon="-6.074071">
        <ele>166.0</ele>
        <time>2012-06-14T07:10:21Z</time>
      </trkpt>
      <trkpt lat="43.35597" lon="-6.074159">
        <ele>168.0</ele>
        <time>2012-06-14T07:10:26Z</time>
      </trkpt>
      <trkpt lat="43.35575" lon="-6.074506">
        <ele>168.0</ele>
        <time>2012-06-14T07:10:30Z</time>
      </trkpt>
      <trkpt lat="43.355618" lon="-6.074914">
        <ele>170.0</ele>
        <time>2012-06-14T07:10:34Z</time>
      </trkpt>
      <trkpt lat="43.355524" lon="-6.075153">
        <ele>170.0</ele>
        <time>2012-06-14T07:10:37Z</time>
      </trkpt>
      <trkpt lat="43.355411" lon="-6.075565">
        <ele>170.0</ele>
        <time>2012-06-14T07:10:42Z</time>
      </trkpt>
      <trkpt lat="43.355274" lon="-6.075893">
        <ele>169.0</ele>
        <time>2012-06-14T07:10:46Z</time>
      </trkpt>
      <trkpt lat="43.355097" lon="-6.076207">
        <ele>169.0</ele>
        <time>2012-06-14T07:10:50Z</time>
      </trkpt>
      <trkpt lat="43.354911" lon="-6.076526">
        <ele>169.0</ele>
        <time>2012-06-14T07:10:54Z</time>
      </trkpt>
      <trkpt lat="43.354789" lon="-6.076906">
        <ele>168.0</ele>
        <time>2012-06-14T07:10:58Z</time>
      </trkpt>
      <trkpt lat="43.354685" lon="-6.07732">
        <ele>166.0</ele>
        <time>2012-06-14T07:11:02Z</time>
      </trkpt>
      <trkpt lat="43.35457" lon="-6.077717">
        <ele>164.0</ele>
        <time>2012-06-14T07:11:06Z</time>
      </trkpt>
      <trkpt lat="43.354422" lon="-6.078089">
        <ele>164.0</ele>
        <time>2012-06-14T07:11:10Z</time>
      </trkpt>
      <trkpt lat="43.354224" lon="-6.078405">
        <ele>163.0</ele>
        <time>2012-06-14T07:11:14Z</time>
      </trkpt>
      <trkpt lat="43.345818" lon="-6.084527">
        <ele>192.0</ele>
        <time>2012-06-14T07:14:10Z</time>
      </trkpt>
      <trkpt lat="43.345756" lon="-6.084928">
        <ele>190.0</ele>
        <time>2012-06-14T07:14:14Z</time>
      </trkpt>
      <trkpt lat="43.345733" lon="-6.085517">
        <ele>184.0</ele>
        <time>2012-06-14T07:14:18Z</time>
      </trkpt>
      <trkpt lat="43.345708" lon="-6.086138">
        <ele>178.0</ele>
        <time>2012-06-14T07:14:22Z</time>
      </trkpt>
      <trkpt lat="43.345675" lon="-6.086615">
        <ele>175.0</ele>
        <time>2012-06-14T07:14:26Z</time>
      </trkpt>
      <trkpt lat="43.345635" lon="-6.08704">
        <ele>174.0</ele>
        <time>2012-06-14T07:14:30Z</time>
      </trkpt>
      <trkpt lat="43.34561" lon="-6.087237">
        <ele>174.0</ele>
        <time>2012-06-14T07:14:32Z</time>
      </trkpt>
      <trkpt lat="43.345525" lon="-6.087778">
        <ele>174.0</ele>
        <time>2012-06-14T07:14:38Z</time>
      </trkpt>
      <trkpt lat="43.345457" lon="-6.088128">
        <ele>174.0</ele>
        <time>2012-06-14T07:14:42Z</time>
      </trkpt>
      <trkpt lat="43.345386" lon="-6.088481">
        <ele>175.0</ele>
        <time>2012-06-14T07:14:46Z</time>
      </trkpt>
      <trkpt lat="43.345326" lon="-6.088736">
        <ele>175.0</ele>
        <time>2012-06-14T07:14:49Z</time>
      </trkpt>
      <trkpt lat="43.345085" lon="-6.089131">
        <ele>176.0</ele>
        <time>2012-06-14T07:14:57Z</time>
      </trkpt>
      <trkpt lat="43.344996" lon="-6.089289">
        <ele>177.0</ele>
        <time>2012-06-14T07:15:01Z</time>
      </trkpt>
      <trkpt lat="43.344915" lon="-6.089451">
        <ele>177.0</ele>
        <time>2012-06-14T07:15:05Z</time>
      </trkpt>
      <trkpt lat="43.344887" lon="-6.089671">
        <ele>179.0</ele>
        <time>2012-06-14T07:15:09Z</time>
      </trkpt>
      <trkpt lat="43.344897" lon="-6.089906">
        <ele>180.0</ele>
        <time>2012-06-14T07:15:13Z</time>
      </trkpt>
      <trkpt lat="43.344904" lon="-6.090024">
        <ele>180.0</ele>
        <time>2012-06-14T07:15:15Z</time>
      </trkpt>
      <trkpt lat="43.344909" lon="-6.090554">
        <ele>182.0</ele>
        <time>2012-06-14T07:15:22Z</time>
      </trkpt>
      <trkpt lat="43.344915" lon="-6.09094">
        <ele>182.0</ele>
        <time>2012-06-14T07:15:26Z</time>
      </trkpt>
      <trkpt lat="43.344868" lon="-6.091498">
        <ele>183.0</ele>
        <time>2012-06-14T07:15:30Z</time>
      </trkpt>
      <trkpt lat="43.34484" lon="-6.091978">
        <ele>184.0</ele>
        <time>2012-06-14T07:15:34Z</time>
      </trkpt>
      <trkpt lat="43.344829" lon="-6.092401">
        <ele>184.0</ele>
        <time>2012-06-14T07:15:38Z</time>
      </trkpt>
      <trkpt lat="43.344839" lon="-6.092793">
        <ele>186.0</ele>
        <time>2012-06-14T07:15:42Z</time>
      </trkpt>
      <trkpt lat="43.344902" lon="-6.093166">
        <ele>187.0</ele>
        <time>2012-06-14T07:15:46Z</time>
      </trkpt>
      <trkpt lat="43.344942" lon="-6.093469">
        <ele>187.0</ele>
        <time>2012-06-14T07:15:50Z</time>
      </trkpt>
      <trkpt lat="43.344991" lon="-6.093819">
        <ele>188.0</ele>
        <time>2012-06-14T07:15:54Z</time>
      </trkpt>
      <trkpt lat="43.345015" lon="-6.09398">
        <ele>188.0</ele>
        <time>2012-06-14T07:15:56Z</time>
      </trkpt>
      <trkpt lat="43.345086" lon="-6.094452">
        <ele>189.0</ele>
        <time>2012-06-14T07:16:02Z</time>
      </trkpt>
      <trkpt lat="43.345104" lon="-6.094619">
        <ele>189.0</ele>
        <time>2012-06-14T07:16:04Z</time>
      </trkpt>
      <trkpt lat="43.345121" lon="-6.095114">
        <ele>189.0</ele>
        <time>2012-06-14T07:16:10Z</time>
      </trkpt>
      <trkpt lat="43.3451" lon="-6.095458">
        <ele>189.0</ele>
        <time>2012-06-14T07:16:14Z</time>
      </trkpt>
      <trkpt lat="43.34498" lon="-6.095772">
        <ele>192.0</ele>
        <time>2012-06-14T07:16:18Z</time>
      </trkpt>
      <trkpt lat="43.344814" lon="-6.09606">
        <ele>196.0</ele>
        <time>2012-06-14T07:16:22Z</time>
      </trkpt>
      <trkpt lat="43.344657" lon="-6.096348">
        <ele>198.0</ele>
        <time>2012-06-14T07:16:26Z</time>
      </trkpt>
      <trkpt lat="43.344556" lon="-6.096559">
        <ele>198.0</ele>
        <time>2012-06-14T07:16:29Z</time>
      </trkpt>
      <trkpt lat="43.344435" lon="-6.096846">
        <ele>199.0</ele>
        <time>2012-06-14T07:16:33Z</time>
      </trkpt>
      <trkpt lat="43.344309" lon="-6.097147">
        <ele>199.0</ele>
        <time>2012-06-14T07:16:37Z</time>
      </trkpt>
      <trkpt lat="43.344175" lon="-6.097427">
        <ele>199.0</ele>
        <time>2012-06-14T07:16:41Z</time>
      </trkpt>
      <trkpt lat="43.344036" lon="-6.097676">
        <ele>199.0</ele>
        <time>2012-06-14T07:16:45Z</time>
      </trkpt>
      <trkpt lat="43.34391" lon="-6.097931">
        <ele>199.0</ele>
        <time>2012-06-14T07:16:49Z</time>
      </trkpt>
      <trkpt lat="43.343788" lon="-6.09818">
        <ele>198.0</ele>
        <time>2012-06-14T07:16:53Z</time>
      </trkpt>
      <trkpt lat="43.34367" lon="-6.098436">
        <ele>198.0</ele>
        <time>2012-06-14T07:16:57Z</time>
      </trkpt>
      <trkpt lat="43.343543" lon="-6.098674">
        <ele>199.0</ele>
        <time>2012-06-14T07:17:01Z</time>
      </trkpt>
      <trkpt lat="43.343407" lon="-6.098907">
        <ele>200.0</ele>
        <time>2012-06-14T07:17:05Z</time>
      </trkpt>
      <trkpt lat="43.343257" lon="-6.09915">
        <ele>200.0</ele>
        <time>2012-06-14T07:17:09Z</time>
      </trkpt>
      <trkpt lat="43.34312" lon="-6.099388">
        <ele>200.0</ele>
        <time>2012-06-14T07:17:13Z</time>
      </trkpt>
      <trkpt lat="43.343012" lon="-6.099671">
        <ele>201.0</ele>
        <time>2012-06-14T07:17:17Z</time>
      </trkpt>
      <trkpt lat="43.342945" lon="-6.100041">
        <ele>203.0</ele>
        <time>2012-06-14T07:17:21Z</time>
      </trkpt>
      <trkpt lat="43.342855" lon="-6.100475">
        <ele>205.0</ele>
        <time>2012-06-14T07:17:26Z</time>
      </trkpt>
      <trkpt lat="43.34278" lon="-6.100817">
        <ele>206.0</ele>
        <time>2012-06-14T07:17:30Z</time>
      </trkpt>
      <trkpt lat="43.34266" lon="-6.101143">
        <ele>209.0</ele>
        <time>2012-06-14T07:17:34Z</time>
      </trkpt>
      <trkpt lat="43.34259" lon="-6.101394">
        <ele>212.0</ele>
        <time>2012-06-14T07:17:37Z</time>
      </trkpt>
      <trkpt lat="43.34251" lon="-6.101707">
        <ele>214.0</ele>
        <time>2012-06-14T07:17:41Z</time>
      </trkpt>
      <trkpt lat="43.342458" lon="-6.102037">
        <ele>216.0</ele>
        <time>2012-06-14T07:17:45Z</time>
      </trkpt>
      <trkpt lat="43.342348" lon="-6.102438">
        <ele>218.0</ele>
        <time>2012-06-14T07:17:50Z</time>
      </trkpt>
      <trkpt lat="43.342275" lon="-6.102745">
        <ele>219.0</ele>
        <time>2012-06-14T07:17:54Z</time>
      </trkpt>
      <trkpt lat="43.342209" lon="-6.103021">
        <ele>220.0</ele>
        <time>2012-06-14T07:17:58Z</time>
      </trkpt>
      <trkpt lat="43.34215" lon="-6.103304">
        <ele>220.0</ele>
        <time>2012-06-14T07:18:02Z</time>
      </trkpt>
      <trkpt lat="43.342085" lon="-6.103637">
        <ele>220.0</ele>
        <time>2012-06-14T07:18:06Z</time>
      </trkpt>
      <trkpt lat="43.342059" lon="-6.104085">
        <ele>220.0</ele>
        <time>2012-06-14T07:18:10Z</time>
      </trkpt>
      <trkpt lat="43.34201" lon="-6.104498">
        <ele>222.0</ele>
        <time>2012-06-14T07:18:14Z</time>
      </trkpt>
      <trkpt lat="43.341936" lon="-6.104868">
        <ele>222.0</ele>
        <time>2012-06-14T07:18:18Z</time>
      </trkpt>
      <trkpt lat="43.341835" lon="-6.105224">
        <ele>222.0</ele>
        <time>2012-06-14T07:18:22Z</time>
      </trkpt>
      <trkpt lat="43.341699" lon="-6.105561">
        <ele>222.0</ele>
        <time>2012-06-14T07:18:26Z</time>
      </trkpt>
      <trkpt lat="43.341568" lon="-6.105884">
        <ele>221.0</ele>
        <time>2012-06-14T07:18:30Z</time>
      </trkpt>
      <trkpt lat="43.341444" lon="-6.106195">
        <ele>221.0</ele>
        <time>2012-06-14T07:18:34Z</time>
      </trkpt>
      <trkpt lat="43.341266" lon="-6.10651">
        <ele>220.0</ele>
        <time>2012-06-14T07:18:38Z</time>
      </trkpt>
      <trkpt lat="43.34104" lon="-6.106765">
        <ele>219.0</ele>
        <time>2012-06-14T07:18:42Z</time>
      </trkpt>
      <trkpt lat="43.340795" lon="-6.106916">
        <ele>218.0</ele>
        <time>2012-06-14T07:18:46Z</time>
      </trkpt>
      <trkpt lat="43.340605" lon="-6.107101">
        <ele>218.0</ele>
        <time>2012-06-14T07:18:50Z</time>
      </trkpt>
      <trkpt lat="43.340432" lon="-6.107281">
        <ele>219.0</ele>
        <time>2012-06-14T07:18:54Z</time>
      </trkpt>
      <trkpt lat="43.340192" lon="-6.107407">
        <ele>220.0</ele>
        <time>2012-06-14T07:18:58Z</time>
      </trkpt>
      <trkpt lat="43.339958" lon="-6.107501">
        <ele>222.0</ele>
        <time>2012-06-14T07:19:02Z</time>
      </trkpt>
      <trkpt lat="43.339732" lon="-6.107564">
        <ele>222.0</ele>
        <time>2012-06-14T07:19:06Z</time>
      </trkpt>
      <trkpt lat="43.339503" lon="-6.107629">
        <ele>220.0</ele>
        <time>2012-06-14T07:19:10Z</time>
      </trkpt>
      <trkpt lat="43.339266" lon="-6.107713">
        <ele>220.0</ele>
        <time>2012-06-14T07:19:14Z</time>
      </trkpt>
      <trkpt lat="43.339035" lon="-6.107835">
        <ele>220.0</ele>
        <time>2012-06-14T07:19:18Z</time>
      </trkpt>
      <trkpt lat="43.338806" lon="-6.107957">
        <ele>220.0</ele>
        <time>2012-06-14T07:19:22Z</time>
      </trkpt>
      <trkpt lat="43.338575" lon="-6.108175">
        <ele>221.0</ele>
        <time>2012-06-14T07:19:26Z</time>
      </trkpt>
      <trkpt lat="43.338365" lon="-6.108653">
        <ele>222.0</ele>
        <time>2012-06-14T07:19:30Z</time>
      </trkpt>
      <trkpt lat="43.338186" lon="-6.109209">
        <ele>223.0</ele>
        <time>2012-06-14T07:19:34Z</time>
      </trkpt>
      <trkpt lat="43.338014" lon="-6.10961">
        <ele>224.0</ele>
        <time>2012-06-14T07:19:38Z</time>
      </trkpt>
      <trkpt lat="43.337906" lon="-6.110013">
        <ele>224.0</ele>
        <time>2012-06-14T07:19:42Z</time>
      </trkpt>
      <trkpt lat="43.337903" lon="-6.110496">
        <ele>222.0</ele>
        <time>2012-06-14T07:19:46Z</time>
      </trkpt>
      <trkpt lat="43.337884" lon="-6.110918">
        <ele>221.0</ele>
        <time>2012-06-14T07:19:50Z</time>
      </trkpt>
      <trkpt lat="43.337852" lon="-6.11121">
        <ele>220.0</ele>
        <time>2012-06-14T07:19:53Z</time>
      </trkpt>
      <trkpt lat="43.337772" lon="-6.111656">
        <ele>220.0</ele>
        <time>2012-06-14T07:19:58Z</time>
      </trkpt>
      <trkpt lat="43.337633" lon="-6.111967">
        <ele>219.0</ele>
        <time>2012-06-14T07:20:02Z</time>
      </trkpt>
      <trkpt lat="43.337469" lon="-6.112243">
        <ele>218.0</ele>
        <time>2012-06-14T07:20:06Z</time>
      </trkpt>
      <trkpt lat="43.337268" lon="-6.112491">
        <ele>217.0</ele>
        <time>2012-06-14T07:20:10Z</time>
      </trkpt>
      <trkpt lat="43.337041" lon="-6.112723">
        <ele>217.0</ele>
        <time>2012-06-14T07:20:14Z</time>
      </trkpt>
      <trkpt lat="43.336849" lon="-6.113005">
        <ele>217.0</ele>
        <time>2012-06-14T07:20:18Z</time>
      </trkpt>
      <trkpt lat="43.336741" lon="-6.113358">
        <ele>216.0</ele>
        <time>2012-06-14T07:20:22Z</time>
      </trkpt>
      <trkpt lat="43.336672" lon="-6.113729">
        <ele>215.0</ele>
        <time>2012-06-14T07:20:26Z</time>
      </trkpt>
      <trkpt lat="43.336583" lon="-6.113988">
        <ele>215.0</ele>
        <time>2012-06-14T07:20:29Z</time>
      </trkpt>
      <trkpt lat="43.336295" lon="-6.114078">
        <ele>215.0</ele>
        <time>2012-06-14T07:20:34Z</time>
      </trkpt>
      <trkpt lat="43.336103" lon="-6.113973">
        <ele>215.0</ele>
        <time>2012-06-14T07:20:38Z</time>
      </trkpt>
      <trkpt lat="43.335951" lon="-6.113892">
        <ele>215.0</ele>
        <time>2012-06-14T07:20:42Z</time>
      </trkpt>
      <trkpt lat="43.335877" lon="-6.113836">
        <ele>215.0</ele>
        <time>2012-06-14T07:20:44Z</time>
      </trkpt>
      <trkpt lat="43.335813" lon="-6.113742">
        <ele>216.0</ele>
        <time>2012-06-14T07:20:47Z</time>
      </trkpt>
      <trkpt lat="43.335673" lon="-6.113504">
        <ele>217.0</ele>
        <time>2012-06-14T07:20:54Z</time>
      </trkpt>
      <trkpt lat="43.335486" lon="-6.113407">
        <ele>220.0</ele>
        <time>2012-06-14T07:20:58Z</time>
      </trkpt>
      <trkpt lat="43.335283" lon="-6.113315">
        <ele>224.0</ele>
        <time>2012-06-14T07:21:02Z</time>
      </trkpt>
      <trkpt lat="43.335111" lon="-6.113172">
        <ele>224.0</ele>
        <time>2012-06-14T07:21:06Z</time>
      </trkpt>
      <trkpt lat="43.334982" lon="-6.112951">
        <ele>227.0</ele>
        <time>2012-06-14T07:21:10Z</time>
      </trkpt>
      <trkpt lat="43.33487" lon="-6.112723">
        <ele>228.0</ele>
        <time>2012-06-14T07:21:14Z</time>
      </trkpt>
      <trkpt lat="43.334803" lon="-6.112609">
        <ele>229.0</ele>
        <time>2012-06-14T07:21:16Z</time>
      </trkpt>
      <trkpt lat="43.334451" lon="-6.112449">
        <ele>233.0</ele>
        <time>2012-06-14T07:21:22Z</time>
      </trkpt>
      <trkpt lat="43.334192" lon="-6.112623">
        <ele>234.0</ele>
        <time>2012-06-14T07:21:26Z</time>
      </trkpt>
      <trkpt lat="43.334057" lon="-6.112708">
        <ele>235.0</ele>
        <time>2012-06-14T07:21:28Z</time>
      </trkpt>
      <trkpt lat="43.333792" lon="-6.112904">
        <ele>236.0</ele>
        <time>2012-06-14T07:21:33Z</time>
      </trkpt>
      <trkpt lat="43.333622" lon="-6.113095">
        <ele>237.0</ele>
        <time>2012-06-14T07:21:37Z</time>
      </trkpt>
      <trkpt lat="43.333332" lon="-6.113512">
        <ele>237.0</ele>
        <time>2012-06-14T07:21:45Z</time>
      </trkpt>
      <trkpt lat="43.333217" lon="-6.113735">
        <ele>237.0</ele>
        <time>2012-06-14T07:21:49Z</time>
      </trkpt>
      <trkpt lat="43.333054" lon="-6.113951">
        <ele>237.0</ele>
        <time>2012-06-14T07:21:53Z</time>
      </trkpt>
      <trkpt lat="43.33296" lon="-6.114045">
        <ele>237.0</ele>
        <time>2012-06-14T07:21:55Z</time>
      </trkpt>
      <trkpt lat="43.33265" lon="-6.114281">
        <ele>238.0</ele>
        <time>2012-06-14T07:22:01Z</time>
      </trkpt>
      <trkpt lat="43.332541" lon="-6.114334">
        <ele>239.0</ele>
        <time>2012-06-14T07:22:03Z</time>
      </trkpt>
      <trkpt lat="43.332209" lon="-6.114418">
        <ele>240.0</ele>
        <time>2012-06-14T07:22:09Z</time>
      </trkpt>
      <trkpt lat="43.331981" lon="-6.114396">
        <ele>240.0</ele>
        <time>2012-06-14T07:22:13Z</time>
      </trkpt>
      <trkpt lat="43.331781" lon="-6.114364">
        <ele>240.0</ele>
        <time>2012-06-14T07:22:17Z</time>
      </trkpt>
      <trkpt lat="43.331564" lon="-6.114306">
        <ele>241.0</ele>
        <time>2012-06-14T07:22:21Z</time>
      </trkpt>
      <trkpt lat="43.331326" lon="-6.11423">
        <ele>242.0</ele>
        <time>2012-06-14T07:22:25Z</time>
      </trkpt>
      <trkpt lat="43.331018" lon="-6.114174">
        <ele>243.0</ele>
        <time>2012-06-14T07:22:30Z</time>
      </trkpt>
      <trkpt lat="43.330756" lon="-6.114162">
        <ele>244.0</ele>
        <time>2012-06-14T07:22:34Z</time>
      </trkpt>
      <trkpt lat="43.330488" lon="-6.114138">
        <ele>244.0</ele>
        <time>2012-06-14T07:22:38Z</time>
      </trkpt>
      <trkpt lat="43.330289" lon="-6.114091">
        <ele>244.0</ele>
        <time>2012-06-14T07:22:41Z</time>
      </trkpt>
      <trkpt lat="43.33005" lon="-6.113938">
        <ele>244.0</ele>
        <time>2012-06-14T07:22:45Z</time>
      </trkpt>
      <trkpt lat="43.329817" lon="-6.113852">
        <ele>243.0</ele>
        <time>2012-06-14T07:22:49Z</time>
      </trkpt>
      <trkpt lat="43.329591" lon="-6.1138">
        <ele>244.0</ele>
        <time>2012-06-14T07:22:53Z</time>
      </trkpt>
      <trkpt lat="43.329368" lon="-6.113844">
        <ele>243.0</ele>
        <time>2012-06-14T07:22:57Z</time>
      </trkpt>
      <trkpt lat="43.329183" lon="-6.113964">
        <ele>243.0</ele>
        <time>2012-06-14T07:23:01Z</time>
      </trkpt>
      <trkpt lat="43.329054" lon="-6.1141">
        <ele>243.0</ele>
        <time>2012-06-14T07:23:05Z</time>
      </trkpt>
      <trkpt lat="43.328979" lon="-6.114301">
        <ele>243.0</ele>
        <time>2012-06-14T07:23:09Z</time>
      </trkpt>
      <trkpt lat="43.328936" lon="-6.11455">
        <ele>244.0</ele>
        <time>2012-06-14T07:23:13Z</time>
      </trkpt>
      <trkpt lat="43.328867" lon="-6.114763">
        <ele>245.0</ele>
        <time>2012-06-14T07:23:17Z</time>
      </trkpt>
      <trkpt lat="43.328778" lon="-6.114963">
        <ele>246.0</ele>
        <time>2012-06-14T07:23:21Z</time>
      </trkpt>
      <trkpt lat="43.32869" lon="-6.115155">
        <ele>246.0</ele>
        <time>2012-06-14T07:23:25Z</time>
      </trkpt>
      <trkpt lat="43.328591" lon="-6.115324">
        <ele>247.0</ele>
        <time>2012-06-14T07:23:29Z</time>
      </trkpt>
      <trkpt lat="43.328484" lon="-6.115473">
        <ele>247.0</ele>
        <time>2012-06-14T07:23:33Z</time>
      </trkpt>
      <trkpt lat="43.328427" lon="-6.115541">
        <ele>248.0</ele>
        <time>2012-06-14T07:23:35Z</time>
      </trkpt>
      <trkpt lat="43.328236" lon="-6.115697">
        <ele>248.0</ele>
        <time>2012-06-14T07:23:41Z</time>
      </trkpt>
      <trkpt lat="43.328106" lon="-6.115765">
        <ele>248.0</ele>
        <time>2012-06-14T07:23:45Z</time>
      </trkpt>
      <trkpt lat="43.327958" lon="-6.11583">
        <ele>249.0</ele>
        <time>2012-06-14T07:23:50Z</time>
      </trkpt>
      <trkpt lat="43.327875" lon="-6.115768">
        <ele>249.0</ele>
        <time>2012-06-14T07:23:53Z</time>
      </trkpt>
      <trkpt lat="43.327822" lon="-6.115674">
        <ele>249.0</ele>
        <time>2012-06-14T07:23:56Z</time>
      </trkpt>
      <trkpt lat="43.327773" lon="-6.115456">
        <ele>249.0</ele>
        <time>2012-06-14T07:24:02Z</time>
      </trkpt>
      <trkpt lat="43.327721" lon="-6.115353">
        <ele>249.0</ele>
        <time>2012-06-14T07:24:05Z</time>
      </trkpt>
      <trkpt lat="43.327596" lon="-6.115306">
        <ele>250.0</ele>
        <time>2012-06-14T07:24:09Z</time>
      </trkpt>
      <trkpt lat="43.327461" lon="-6.115192">
        <ele>252.0</ele>
        <time>2012-06-14T07:24:14Z</time>
      </trkpt>
      <trkpt lat="43.327274" lon="-6.114879">
        <ele>254.0</ele>
        <time>2012-06-14T07:24:24Z</time>
      </trkpt>
      <trkpt lat="43.327172" lon="-6.114689">
        <ele>255.0</ele>
        <time>2012-06-14T07:24:30Z</time>
      </trkpt>
      <trkpt lat="43.327139" lon="-6.114573">
        <ele>256.0</ele>
        <time>2012-06-14T07:24:33Z</time>
      </trkpt>
      <trkpt lat="43.327143" lon="-6.114447">
        <ele>256.0</ele>
        <time>2012-06-14T07:24:36Z</time>
      </trkpt>
      <trkpt lat="43.327149" lon="-6.114234">
        <ele>258.0</ele>
        <time>2012-06-14T07:24:41Z</time>
      </trkpt>
      <trkpt lat="43.327142" lon="-6.114116">
        <ele>259.0</ele>
        <time>2012-06-14T07:24:44Z</time>
      </trkpt>
      <trkpt lat="43.32707" lon="-6.113911">
        <ele>261.0</ele>
        <time>2012-06-14T07:24:50Z</time>
      </trkpt>
      <trkpt lat="43.326991" lon="-6.113842">
        <ele>262.0</ele>
        <time>2012-06-14T07:24:53Z</time>
      </trkpt>
      <trkpt lat="43.326807" lon="-6.113886">
        <ele>263.0</ele>
        <time>2012-06-14T07:24:57Z</time>
      </trkpt>
      <trkpt lat="43.3266" lon="-6.114002">
        <ele>264.0</ele>
        <time>2012-06-14T07:25:01Z</time>
      </trkpt>
      <trkpt lat="43.326498" lon="-6.11406">
        <ele>264.0</ele>
        <time>2012-06-14T07:25:03Z</time>
      </trkpt>
      <trkpt lat="43.326207" lon="-6.114201">
        <ele>265.0</ele>
        <time>2012-06-14T07:25:09Z</time>
      </trkpt>
      <trkpt lat="43.325934" lon="-6.114345">
        <ele>266.0</ele>
        <time>2012-06-14T07:25:17Z</time>
      </trkpt>
      <trkpt lat="43.325787" lon="-6.114427">
        <ele>267.0</ele>
        <time>2012-06-14T07:25:22Z</time>
      </trkpt>
      <trkpt lat="43.325707" lon="-6.114471">
        <ele>267.0</ele>
        <time>2012-06-14T07:25:25Z</time>
      </trkpt>
      <trkpt lat="43.325619" lon="-6.114504">
        <ele>267.0</ele>
        <time>2012-06-14T07:25:28Z</time>
      </trkpt>
      <trkpt lat="43.325459" lon="-6.114568">
        <ele>268.0</ele>
        <time>2012-06-14T07:25:33Z</time>
      </trkpt>
      <trkpt lat="43.325305" lon="-6.114602">
        <ele>269.0</ele>
        <time>2012-06-14T07:25:37Z</time>
      </trkpt>
      <trkpt lat="43.325169" lon="-6.114628">
        <ele>269.0</ele>
        <time>2012-06-14T07:25:41Z</time>
      </trkpt>
      <trkpt lat="43.32508" lon="-6.114617">
        <ele>270.0</ele>
        <time>2012-06-14T07:25:44Z</time>
      </trkpt>
      <trkpt lat="43.324932" lon="-6.114556">
        <ele>270.0</ele>
        <time>2012-06-14T07:25:50Z</time>
      </trkpt>
      <trkpt lat="43.324874" lon="-6.11446">
        <ele>270.0</ele>
        <time>2012-06-14T07:25:53Z</time>
      </trkpt>
      <trkpt lat="43.324761" lon="-6.114355">
        <ele>271.0</ele>
        <time>2012-06-14T07:25:57Z</time>
      </trkpt>
      <trkpt lat="43.324632" lon="-6.114281">
        <ele>271.0</ele>
        <time>2012-06-14T07:26:01Z</time>
      </trkpt>
      <trkpt lat="43.324352" lon="-6.114316">
        <ele>272.0</ele>
        <time>2012-06-14T07:26:10Z</time>
      </trkpt>
      <trkpt lat="43.324267" lon="-6.114333">
        <ele>273.0</ele>
        <time>2012-06-14T07:26:13Z</time>
      </trkpt>
      <trkpt lat="43.32418" lon="-6.114345">
        <ele>273.0</ele>
        <time>2012-06-14T07:26:16Z</time>
      </trkpt>
      <trkpt lat="43.324091" lon="-6.114353">
        <ele>273.0</ele>
        <time>2012-06-14T07:26:19Z</time>
      </trkpt>
      <trkpt lat="43.323926" lon="-6.114386">
        <ele>274.0</ele>
        <time>2012-06-14T07:26:25Z</time>
      </trkpt>
      <trkpt lat="43.323845" lon="-6.114402">
        <ele>274.0</ele>
        <time>2012-06-14T07:26:28Z</time>
      </trkpt>
      <trkpt lat="43.323622" lon="-6.114575">
        <ele>274.0</ele>
        <time>2012-06-14T07:26:34Z</time>
      </trkpt>
      <trkpt lat="43.323352" lon="-6.114614">
        <ele>275.0</ele>
        <time>2012-06-14T07:26:38Z</time>
      </trkpt>
      <trkpt lat="43.323184" lon="-6.114705">
        <ele>277.0</ele>
        <time>2012-06-14T07:26:42Z</time>
      </trkpt>
      <trkpt lat="43.323079" lon="-6.114868">
        <ele>278.0</ele>
        <time>2012-06-14T07:26:46Z</time>
      </trkpt>
      <trkpt lat="43.322978" lon="-6.115043">
        <ele>279.0</ele>
        <time>2012-06-14T07:26:50Z</time>
      </trkpt>
      <trkpt lat="43.322867" lon="-6.115188">
        <ele>280.0</ele>
        <time>2012-06-14T07:26:54Z</time>
      </trkpt>
      <trkpt lat="43.322737" lon="-6.115294">
        <ele>281.0</ele>
        <time>2012-06-14T07:26:58Z</time>
      </trkpt>
      <trkpt lat="43.322604" lon="-6.115387">
        <ele>283.0</ele>
        <time>2012-06-14T07:27:02Z</time>
      </trkpt>
      <trkpt lat="43.32248" lon="-6.115484">
        <ele>284.0</ele>
        <time>2012-06-14T07:27:06Z</time>
      </trkpt>
      <trkpt lat="43.322368" lon="-6.1156">
        <ele>285.0</ele>
        <time>2012-06-14T07:27:10Z</time>
      </trkpt>
      <trkpt lat="43.32226" lon="-6.115721">
        <ele>286.0</ele>
        <time>2012-06-14T07:27:14Z</time>
      </trkpt>
      <trkpt lat="43.322153" lon="-6.115843">
        <ele>287.0</ele>
        <time>2012-06-14T07:27:18Z</time>
      </trkpt>
      <trkpt lat="43.322046" lon="-6.11597">
        <ele>288.0</ele>
        <time>2012-06-14T07:27:22Z</time>
      </trkpt>
      <trkpt lat="43.321942" lon="-6.1161">
        <ele>289.0</ele>
        <time>2012-06-14T07:27:26Z</time>
      </trkpt>
      <trkpt lat="43.321738" lon="-6.116346">
        <ele>291.0</ele>
        <time>2012-06-14T07:27:34Z</time>
      </trkpt>
      <trkpt lat="43.32163" lon="-6.116445">
        <ele>292.0</ele>
        <time>2012-06-14T07:27:38Z</time>
      </trkpt>
      <trkpt lat="43.32152" lon="-6.116568">
        <ele>293.0</ele>
        <time>2012-06-14T07:27:42Z</time>
      </trkpt>
      <trkpt lat="43.321421" lon="-6.116736">
        <ele>294.0</ele>
        <time>2012-06-14T07:27:46Z</time>
      </trkpt>
      <trkpt lat="43.321339" lon="-6.116941">
        <ele>295.0</ele>
        <time>2012-06-14T07:27:50Z</time>
      </trkpt>
      <trkpt lat="43.32127" lon="-6.117154">
        <ele>296.0</ele>
        <time>2012-06-14T07:27:54Z</time>
      </trkpt>
      <trkpt lat="43.321185" lon="-6.117345">
        <ele>296.0</ele>
        <time>2012-06-14T07:27:58Z</time>
      </trkpt>
      <trkpt lat="43.32108" lon="-6.11751">
        <ele>297.0</ele>
        <time>2012-06-14T07:28:02Z</time>
      </trkpt>
      <trkpt lat="43.320949" lon="-6.117669">
        <ele>302.0</ele>
        <time>2012-06-14T07:28:06Z</time>
      </trkpt>
      <trkpt lat="43.320762" lon="-6.117735">
        <ele>305.0</ele>
        <time>2012-06-14T07:28:10Z</time>
      </trkpt>
      <trkpt lat="43.320532" lon="-6.117807">
        <ele>306.0</ele>
        <time>2012-06-14T07:28:14Z</time>
      </trkpt>
      <trkpt lat="43.32033" lon="-6.117949">
        <ele>307.0</ele>
        <time>2012-06-14T07:28:18Z</time>
      </trkpt>
      <trkpt lat="43.320242" lon="-6.118021">
        <ele>307.0</ele>
        <time>2012-06-14T07:28:20Z</time>
      </trkpt>
      <trkpt lat="43.319992" lon="-6.118235">
        <ele>309.0</ele>
        <time>2012-06-14T07:28:26Z</time>
      </trkpt>
      <trkpt lat="43.319855" lon="-6.118455">
        <ele>310.0</ele>
        <time>2012-06-14T07:28:30Z</time>
      </trkpt>
      <trkpt lat="43.319719" lon="-6.118662">
        <ele>311.0</ele>
        <time>2012-06-14T07:28:34Z</time>
      </trkpt>
      <trkpt lat="43.31943" lon="-6.119003">
        <ele>312.0</ele>
        <time>2012-06-14T07:28:42Z</time>
      </trkpt>
      <trkpt lat="43.319279" lon="-6.119161">
        <ele>314.0</ele>
        <time>2012-06-14T07:28:46Z</time>
      </trkpt>
      <trkpt lat="43.319107" lon="-6.119271">
        <ele>315.0</ele>
        <time>2012-06-14T07:28:50Z</time>
      </trkpt>
      <trkpt lat="43.319003" lon="-6.119257">
        <ele>315.0</ele>
        <time>2012-06-14T07:28:52Z</time>
      </trkpt>
      <trkpt lat="43.318732" lon="-6.119133">
        <ele>314.0</ele>
        <time>2012-06-14T07:28:58Z</time>
      </trkpt>
      <trkpt lat="43.318556" lon="-6.119005">
        <ele>315.0</ele>
        <time>2012-06-14T07:29:02Z</time>
      </trkpt>
      <trkpt lat="43.318401" lon="-6.118859">
        <ele>318.0</ele>
        <time>2012-06-14T07:29:06Z</time>
      </trkpt>
      <trkpt lat="43.318266" lon="-6.118676">
        <ele>320.0</ele>
        <time>2012-06-14T07:29:10Z</time>
      </trkpt>
      <trkpt lat="43.318162" lon="-6.118431">
        <ele>322.0</ele>
        <time>2012-06-14T07:29:14Z</time>
      </trkpt>
      <trkpt lat="43.318041" lon="-6.118252">
        <ele>325.0</ele>
        <time>2012-06-14T07:29:18Z</time>
      </trkpt>
      <trkpt lat="43.317905" lon="-6.118143">
        <ele>326.0</ele>
        <time>2012-06-14T07:29:22Z</time>
      </trkpt>
      <trkpt lat="43.317758" lon="-6.118064">
        <ele>326.0</ele>
        <time>2012-06-14T07:29:26Z</time>
      </trkpt>
      <trkpt lat="43.317595" lon="-6.117972">
        <ele>326.0</ele>
        <time>2012-06-14T07:29:30Z</time>
      </trkpt>
      <trkpt lat="43.31743" lon="-6.117841">
        <ele>329.0</ele>
        <time>2012-06-14T07:29:34Z</time>
      </trkpt>
      <trkpt lat="43.317219" lon="-6.117747">
        <ele>332.0</ele>
        <time>2012-06-14T07:29:38Z</time>
      </trkpt>
      <trkpt lat="43.317036" lon="-6.117856">
        <ele>335.0</ele>
        <time>2012-06-14T07:29:41Z</time>
      </trkpt>
      <trkpt lat="43.316937" lon="-6.118336">
        <ele>334.0</ele>
        <time>2012-06-14T07:29:46Z</time>
      </trkpt>
      <trkpt lat="43.316862" lon="-6.118781">
        <ele>331.0</ele>
        <time>2012-06-14T07:29:50Z</time>
      </trkpt>
      <trkpt lat="43.316723" lon="-6.119189">
        <ele>328.0</ele>
        <time>2012-06-14T07:29:54Z</time>
      </trkpt>
      <trkpt lat="43.316531" lon="-6.119541">
        <ele>326.0</ele>
        <time>2012-06-14T07:29:58Z</time>
      </trkpt>
      <trkpt lat="43.31633" lon="-6.119868">
        <ele>325.0</ele>
        <time>2012-06-14T07:30:02Z</time>
      </trkpt>
      <trkpt lat="43.316039" lon="-6.119878">
        <ele>326.0</ele>
        <time>2012-06-14T07:30:06Z</time>
      </trkpt>
      <trkpt lat="43.315822" lon="-6.119449">
        <ele>329.0</ele>
        <time>2012-06-14T07:30:10Z</time>
      </trkpt>
      <trkpt lat="43.315868" lon="-6.119203">
        <ele>331.0</ele>
        <time>2012-06-14T07:30:13Z</time>
      </trkpt>
      <trkpt lat="43.315942" lon="-6.118926">
        <ele>331.0</ele>
        <time>2012-06-14T07:30:17Z</time>
      </trkpt>
      <trkpt lat="43.315913" lon="-6.11867">
        <ele>332.0</ele>
        <time>2012-06-14T07:30:21Z</time>
      </trkpt>
      <trkpt lat="43.31586" lon="-6.118526">
        <ele>332.0</ele>
        <time>2012-06-14T07:30:23Z</time>
      </trkpt>
      <trkpt lat="43.315735" lon="-6.118074">
        <ele>333.0</ele>
        <time>2012-06-14T07:30:29Z</time>
      </trkpt>
      <trkpt lat="43.315415" lon="-6.117982">
        <ele>335.0</ele>
        <time>2012-06-14T07:30:34Z</time>
      </trkpt>
      <trkpt lat="43.315023" lon="-6.118145">
        <ele>334.0</ele>
        <time>2012-06-14T07:30:41Z</time>
      </trkpt>
      <trkpt lat="43.314831" lon="-6.118295">
        <ele>332.0</ele>
        <time>2012-06-14T07:30:45Z</time>
      </trkpt>
      <trkpt lat="43.314632" lon="-6.118345">
        <ele>330.0</ele>
        <time>2012-06-14T07:30:49Z</time>
      </trkpt>
      <trkpt lat="43.314414" lon="-6.118328">
        <ele>329.0</ele>
        <time>2012-06-14T07:30:53Z</time>
      </trkpt>
      <trkpt lat="43.314192" lon="-6.118226">
        <ele>329.0</ele>
        <time>2012-06-14T07:30:57Z</time>
      </trkpt>
      <trkpt lat="43.314002" lon="-6.118048">
        <ele>330.0</ele>
        <time>2012-06-14T07:31:01Z</time>
      </trkpt>
      <trkpt lat="43.313768" lon="-6.118034">
        <ele>330.0</ele>
        <time>2012-06-14T07:31:05Z</time>
      </trkpt>
      <trkpt lat="43.313531" lon="-6.118102">
        <ele>330.0</ele>
        <time>2012-06-14T07:31:09Z</time>
      </trkpt>
      <trkpt lat="43.313424" lon="-6.118127">
        <ele>330.0</ele>
        <time>2012-06-14T07:31:11Z</time>
      </trkpt>
      <trkpt lat="43.31299" lon="-6.117848">
        <ele>332.0</ele>
        <time>2012-06-14T07:31:18Z</time>
      </trkpt>
      <trkpt lat="43.312781" lon="-6.117559">
        <ele>333.0</ele>
        <time>2012-06-14T07:31:22Z</time>
      </trkpt>
      <trkpt lat="43.312567" lon="-6.117351">
        <ele>336.0</ele>
        <time>2012-06-14T07:31:26Z</time>
      </trkpt>
      <trkpt lat="43.312393" lon="-6.117391">
        <ele>339.0</ele>
        <time>2012-06-14T07:31:30Z</time>
      </trkpt>
      <trkpt lat="43.312253" lon="-6.117452">
        <ele>339.0</ele>
        <time>2012-06-14T07:31:34Z</time>
      </trkpt>
      <trkpt lat="43.312183" lon="-6.117501">
        <ele>339.0</ele>
        <time>2012-06-14T07:31:36Z</time>
      </trkpt>
      <trkpt lat="43.311984" lon="-6.117688">
        <ele>339.0</ele>
        <time>2012-06-14T07:31:42Z</time>
      </trkpt>
      <trkpt lat="43.311701" lon="-6.11792">
        <ele>339.0</ele>
        <time>2012-06-14T07:31:50Z</time>
      </trkpt>
      <trkpt lat="43.311537" lon="-6.117966">
        <ele>340.0</ele>
        <time>2012-06-14T07:31:54Z</time>
      </trkpt>
      <trkpt lat="43.311376" lon="-6.11803">
        <ele>341.0</ele>
        <time>2012-06-14T07:31:58Z</time>
      </trkpt>
      <trkpt lat="43.311302" lon="-6.11808">
        <ele>342.0</ele>
        <time>2012-06-14T07:32:00Z</time>
      </trkpt>
      <trkpt lat="43.311095" lon="-6.118271">
        <ele>342.0</ele>
        <time>2012-06-14T07:32:06Z</time>
      </trkpt>
      <trkpt lat="43.31097" lon="-6.118434">
        <ele>341.0</ele>
        <time>2012-06-14T07:32:10Z</time>
      </trkpt>
      <trkpt lat="43.310908" lon="-6.118519">
        <ele>341.0</ele>
        <time>2012-06-14T07:32:12Z</time>
      </trkpt>
      <trkpt lat="43.310701" lon="-6.118728">
        <ele>340.0</ele>
        <time>2012-06-14T07:32:18Z</time>
      </trkpt>
      <trkpt lat="43.310403" lon="-6.11892">
        <ele>341.0</ele>
        <time>2012-06-14T07:32:26Z</time>
      </trkpt>
      <trkpt lat="43.310318" lon="-6.118931">
        <ele>341.0</ele>
        <time>2012-06-14T07:32:28Z</time>
      </trkpt>
      <trkpt lat="43.310077" lon="-6.119002">
        <ele>341.0</ele>
        <time>2012-06-14T07:32:34Z</time>
      </trkpt>
      <trkpt lat="43.309957" lon="-6.119142">
        <ele>342.0</ele>
        <time>2012-06-14T07:32:38Z</time>
      </trkpt>
      <trkpt lat="43.309835" lon="-6.119298">
        <ele>342.0</ele>
        <time>2012-06-14T07:32:42Z</time>
      </trkpt>
      <trkpt lat="43.309521" lon="-6.119434">
        <ele>344.0</ele>
        <time>2012-06-14T07:32:50Z</time>
      </trkpt>
      <trkpt lat="43.309356" lon="-6.119509">
        <ele>345.0</ele>
        <time>2012-06-14T07:32:54Z</time>
      </trkpt>
      <trkpt lat="43.309226" lon="-6.119669">
        <ele>345.0</ele>
        <time>2012-06-14T07:32:58Z</time>
      </trkpt>
      <trkpt lat="43.309183" lon="-6.119787">
        <ele>345.0</ele>
        <time>2012-06-14T07:33:00Z</time>
      </trkpt>
      <trkpt lat="43.309026" lon="-6.120105">
        <ele>345.0</ele>
        <time>2012-06-14T07:33:06Z</time>
      </trkpt>
      <trkpt lat="43.308701" lon="-6.120389">
        <ele>346.0</ele>
        <time>2012-06-14T07:33:14Z</time>
      </trkpt>
      <trkpt lat="43.308536" lon="-6.120558">
        <ele>347.0</ele>
        <time>2012-06-14T07:33:18Z</time>
      </trkpt>
      <trkpt lat="43.308369" lon="-6.120736">
        <ele>348.0</ele>
        <time>2012-06-14T07:33:22Z</time>
      </trkpt>
      <trkpt lat="43.3082" lon="-6.120899">
        <ele>349.0</ele>
        <time>2012-06-14T07:33:26Z</time>
      </trkpt>
      <trkpt lat="43.308015" lon="-6.121025">
        <ele>349.0</ele>
        <time>2012-06-14T07:33:30Z</time>
      </trkpt>
      <trkpt lat="43.307914" lon="-6.121064">
        <ele>350.0</ele>
        <time>2012-06-14T07:33:32Z</time>
      </trkpt>
      <trkpt lat="43.307634" lon="-6.121213">
        <ele>351.0</ele>
        <time>2012-06-14T07:33:38Z</time>
      </trkpt>
      <trkpt lat="43.30747" lon="-6.121366">
        <ele>352.0</ele>
        <time>2012-06-14T07:33:42Z</time>
      </trkpt>
      <trkpt lat="43.307361" lon="-6.121621">
        <ele>352.0</ele>
        <time>2012-06-14T07:33:46Z</time>
      </trkpt>
      <trkpt lat="43.307311" lon="-6.121894">
        <ele>353.0</ele>
        <time>2012-06-14T07:33:50Z</time>
      </trkpt>
      <trkpt lat="43.307168" lon="-6.122414">
        <ele>353.0</ele>
        <time>2012-06-14T07:33:58Z</time>
      </trkpt>
      <trkpt lat="43.307108" lon="-6.12253">
        <ele>354.0</ele>
        <time>2012-06-14T07:34:00Z</time>
      </trkpt>
      <trkpt lat="43.306844" lon="-6.122627">
        <ele>356.0</ele>
        <time>2012-06-14T07:34:09Z</time>
      </trkpt>
      <trkpt lat="43.306679" lon="-6.122183">
        <ele>358.0</ele>
        <time>2012-06-14T07:34:17Z</time>
      </trkpt>
      <trkpt lat="43.306519" lon="-6.121929">
        <ele>361.0</ele>
        <time>2012-06-14T07:34:23Z</time>
      </trkpt>
      <trkpt lat="43.306148" lon="-6.122011">
        <ele>366.0</ele>
        <time>2012-06-14T07:34:29Z</time>
      </trkpt>
      <trkpt lat="43.305941" lon="-6.122169">
        <ele>368.0</ele>
        <time>2012-06-14T07:34:33Z</time>
      </trkpt>
      <trkpt lat="43.30577" lon="-6.122355">
        <ele>369.0</ele>
        <time>2012-06-14T07:34:37Z</time>
      </trkpt>
      <trkpt lat="43.305602" lon="-6.122516">
        <ele>369.0</ele>
        <time>2012-06-14T07:34:41Z</time>
      </trkpt>
      <trkpt lat="43.305452" lon="-6.12268">
        <ele>368.0</ele>
        <time>2012-06-14T07:34:45Z</time>
      </trkpt>
      <trkpt lat="43.30532" lon="-6.122886">
        <ele>369.0</ele>
        <time>2012-06-14T07:34:49Z</time>
      </trkpt>
      <trkpt lat="43.305182" lon="-6.123095">
        <ele>370.0</ele>
        <time>2012-06-14T07:34:53Z</time>
      </trkpt>
      <trkpt lat="43.304935" lon="-6.123061">
        <ele>371.0</ele>
        <time>2012-06-14T07:34:58Z</time>
      </trkpt>
      <trkpt lat="43.304752" lon="-6.122798">
        <ele>370.0</ele>
        <time>2012-06-14T07:35:02Z</time>
      </trkpt>
      <trkpt lat="43.30464" lon="-6.122558">
        <ele>370.0</ele>
        <time>2012-06-14T07:35:06Z</time>
      </trkpt>
      <trkpt lat="43.30461" lon="-6.12233">
        <ele>371.0</ele>
        <time>2012-06-14T07:35:10Z</time>
      </trkpt>
      <trkpt lat="43.304582" lon="-6.122111">
        <ele>372.0</ele>
        <time>2012-06-14T07:35:14Z</time>
      </trkpt>
      <trkpt lat="43.304457" lon="-6.121971">
        <ele>375.0</ele>
        <time>2012-06-14T07:35:18Z</time>
      </trkpt>
      <trkpt lat="43.304278" lon="-6.121916">
        <ele>378.0</ele>
        <time>2012-06-14T07:35:22Z</time>
      </trkpt>
      <trkpt lat="43.304128" lon="-6.121887">
        <ele>381.0</ele>
        <time>2012-06-14T07:35:26Z</time>
      </trkpt>
      <trkpt lat="43.303946" lon="-6.121892">
        <ele>383.0</ele>
        <time>2012-06-14T07:35:30Z</time>
      </trkpt>
      <trkpt lat="43.30376" lon="-6.122012">
        <ele>385.0</ele>
        <time>2012-06-14T07:35:34Z</time>
      </trkpt>
      <trkpt lat="43.303571" lon="-6.122112">
        <ele>385.0</ele>
        <time>2012-06-14T07:35:38Z</time>
      </trkpt>
      <trkpt lat="43.303147" lon="-6.122032">
        <ele>387.0</ele>
        <time>2012-06-14T07:35:46Z</time>
      </trkpt>
      <trkpt lat="43.303036" lon="-6.121971">
        <ele>388.0</ele>
        <time>2012-06-14T07:35:48Z</time>
      </trkpt>
      <trkpt lat="43.302711" lon="-6.121998">
        <ele>389.0</ele>
        <time>2012-06-14T07:35:54Z</time>
      </trkpt>
      <trkpt lat="43.302595" lon="-6.122272">
        <ele>389.0</ele>
        <time>2012-06-14T07:35:58Z</time>
      </trkpt>
      <trkpt lat="43.302539" lon="-6.122398">
        <ele>388.0</ele>
        <time>2012-06-14T07:36:00Z</time>
      </trkpt>
      <trkpt lat="43.302418" lon="-6.122808">
        <ele>387.0</ele>
        <time>2012-06-14T07:36:06Z</time>
      </trkpt>
      <trkpt lat="43.302287" lon="-6.123056">
        <ele>387.0</ele>
        <time>2012-06-14T07:36:10Z</time>
      </trkpt>
      <trkpt lat="43.302212" lon="-6.123161">
        <ele>387.0</ele>
        <time>2012-06-14T07:36:12Z</time>
      </trkpt>
      <trkpt lat="43.301949" lon="-6.123379">
        <ele>388.0</ele>
        <time>2012-06-14T07:36:18Z</time>
      </trkpt>
      <trkpt lat="43.30186" lon="-6.123438">
        <ele>388.0</ele>
        <time>2012-06-14T07:36:20Z</time>
      </trkpt>
      <trkpt lat="43.30168" lon="-6.123551">
        <ele>389.0</ele>
        <time>2012-06-14T07:36:24Z</time>
      </trkpt>
      <trkpt lat="43.301394" lon="-6.123683">
        <ele>389.0</ele>
        <time>2012-06-14T07:36:30Z</time>
      </trkpt>
      <trkpt lat="43.301185" lon="-6.123718">
        <ele>389.0</ele>
        <time>2012-06-14T07:36:34Z</time>
      </trkpt>
      <trkpt lat="43.300991" lon="-6.123868">
        <ele>389.0</ele>
        <time>2012-06-14T07:36:38Z</time>
      </trkpt>
      <trkpt lat="43.300903" lon="-6.123964">
        <ele>389.0</ele>
        <time>2012-06-14T07:36:40Z</time>
      </trkpt>
      <trkpt lat="43.300665" lon="-6.124189">
        <ele>389.0</ele>
        <time>2012-06-14T07:36:46Z</time>
      </trkpt>
      <trkpt lat="43.300577" lon="-6.124262">
        <ele>390.0</ele>
        <time>2012-06-14T07:36:48Z</time>
      </trkpt>
      <trkpt lat="43.300337" lon="-6.124502">
        <ele>391.0</ele>
        <time>2012-06-14T07:36:54Z</time>
      </trkpt>
      <trkpt lat="43.300249" lon="-6.124744">
        <ele>393.0</ele>
        <time>2012-06-14T07:36:58Z</time>
      </trkpt>
      <trkpt lat="43.30018" lon="-6.124833">
        <ele>393.0</ele>
        <time>2012-06-14T07:37:00Z</time>
      </trkpt>
      <trkpt lat="43.299785" lon="-6.124578">
        <ele>394.0</ele>
        <time>2012-06-14T07:37:10Z</time>
      </trkpt>
      <trkpt lat="43.2997" lon="-6.124282">
        <ele>394.0</ele>
        <time>2012-06-14T07:37:14Z</time>
      </trkpt>
      <trkpt lat="43.299557" lon="-6.12396">
        <ele>398.0</ele>
        <time>2012-06-14T07:37:18Z</time>
      </trkpt>
      <trkpt lat="43.299362" lon="-6.123738">
        <ele>399.0</ele>
        <time>2012-06-14T07:37:22Z</time>
      </trkpt>
      <trkpt lat="43.299154" lon="-6.123778">
        <ele>399.0</ele>
        <time>2012-06-14T07:37:26Z</time>
      </trkpt>
      <trkpt lat="43.299023" lon="-6.123977">
        <ele>397.0</ele>
        <time>2012-06-14T07:37:30Z</time>
      </trkpt>
      <trkpt lat="43.29893" lon="-6.12421">
        <ele>397.0</ele>
        <time>2012-06-14T07:37:34Z</time>
      </trkpt>
      <trkpt lat="43.298823" lon="-6.124422">
        <ele>396.0</ele>
        <time>2012-06-14T07:37:38Z</time>
      </trkpt>
      <trkpt lat="43.298673" lon="-6.124586">
        <ele>397.0</ele>
        <time>2012-06-14T07:37:42Z</time>
      </trkpt>
      <trkpt lat="43.298274" lon="-6.124565">
        <ele>398.0</ele>
        <time>2012-06-14T07:37:50Z</time>
      </trkpt>
      <trkpt lat="43.298183" lon="-6.124619">
        <ele>398.0</ele>
        <time>2012-06-14T07:37:52Z</time>
      </trkpt>
      <trkpt lat="43.29794" lon="-6.12479">
        <ele>400.0</ele>
        <time>2012-06-14T07:37:58Z</time>
      </trkpt>
      <trkpt lat="43.297772" lon="-6.124887">
        <ele>402.0</ele>
        <time>2012-06-14T07:38:02Z</time>
      </trkpt>
      <trkpt lat="43.297641" lon="-6.124995">
        <ele>403.0</ele>
        <time>2012-06-14T07:38:06Z</time>
      </trkpt>
      <trkpt lat="43.297445" lon="-6.124999">
        <ele>404.0</ele>
        <time>2012-06-14T07:38:10Z</time>
      </trkpt>
      <trkpt lat="43.297252" lon="-6.125059">
        <ele>405.0</ele>
        <time>2012-06-14T07:38:14Z</time>
      </trkpt>
      <trkpt lat="43.297162" lon="-6.125127">
        <ele>406.0</ele>
        <time>2012-06-14T07:38:16Z</time>
      </trkpt>
      <trkpt lat="43.296899" lon="-6.125335">
        <ele>407.0</ele>
        <time>2012-06-14T07:38:22Z</time>
      </trkpt>
      <trkpt lat="43.296715" lon="-6.125446">
        <ele>407.0</ele>
        <time>2012-06-14T07:38:26Z</time>
      </trkpt>
      <trkpt lat="43.29655" lon="-6.125593">
        <ele>408.0</ele>
        <time>2012-06-14T07:38:30Z</time>
      </trkpt>
      <trkpt lat="43.296475" lon="-6.125685">
        <ele>408.0</ele>
        <time>2012-06-14T07:38:32Z</time>
      </trkpt>
      <trkpt lat="43.296252" lon="-6.125915">
        <ele>409.0</ele>
        <time>2012-06-14T07:38:38Z</time>
      </trkpt>
      <trkpt lat="43.296101" lon="-6.12608">
        <ele>409.0</ele>
        <time>2012-06-14T07:38:42Z</time>
      </trkpt>
      <trkpt lat="43.296016" lon="-6.126153">
        <ele>409.0</ele>
        <time>2012-06-14T07:38:44Z</time>
      </trkpt>
      <trkpt lat="43.295691" lon="-6.126101">
        <ele>409.0</ele>
        <time>2012-06-14T07:38:50Z</time>
      </trkpt>
      <trkpt lat="43.295586" lon="-6.126074">
        <ele>409.0</ele>
        <time>2012-06-14T07:38:52Z</time>
      </trkpt>
      <trkpt lat="43.295265" lon="-6.125984">
        <ele>409.0</ele>
        <time>2012-06-14T07:38:58Z</time>
      </trkpt>
      <trkpt lat="43.29505" lon="-6.126004">
        <ele>409.0</ele>
        <time>2012-06-14T07:39:02Z</time>
      </trkpt>
      <trkpt lat="43.294855" lon="-6.126121">
        <ele>409.0</ele>
        <time>2012-06-14T07:39:06Z</time>
      </trkpt>
      <trkpt lat="43.294691" lon="-6.126318">
        <ele>409.0</ele>
        <time>2012-06-14T07:39:10Z</time>
      </trkpt>
      <trkpt lat="43.294528" lon="-6.126532">
        <ele>410.0</ele>
        <time>2012-06-14T07:39:14Z</time>
      </trkpt>
      <trkpt lat="43.294451" lon="-6.126644">
        <ele>410.0</ele>
        <time>2012-06-14T07:39:16Z</time>
      </trkpt>
      <trkpt lat="43.294361" lon="-6.12692">
        <ele>410.0</ele>
        <time>2012-06-14T07:39:20Z</time>
      </trkpt>
      <trkpt lat="43.294225" lon="-6.12731">
        <ele>411.0</ele>
        <time>2012-06-14T07:39:26Z</time>
      </trkpt>
      <trkpt lat="43.294117" lon="-6.127531">
        <ele>412.0</ele>
        <time>2012-06-14T07:39:30Z</time>
      </trkpt>
      <trkpt lat="43.294005" lon="-6.127768">
        <ele>413.0</ele>
        <time>2012-06-14T07:39:34Z</time>
      </trkpt>
      <trkpt lat="43.293879" lon="-6.127831">
        <ele>413.0</ele>
        <time>2012-06-14T07:39:38Z</time>
      </trkpt>
      <trkpt lat="43.293851" lon="-6.127702">
        <ele>414.0</ele>
        <time>2012-06-14T07:39:41Z</time>
      </trkpt>
      <trkpt lat="43.293874" lon="-6.127464">
        <ele>416.0</ele>
        <time>2012-06-14T07:39:45Z</time>
      </trkpt>
      <trkpt lat="43.293834" lon="-6.127242">
        <ele>417.0</ele>
        <time>2012-06-14T07:39:50Z</time>
      </trkpt>
      <trkpt lat="43.29366" lon="-6.127145">
        <ele>423.0</ele>
        <time>2012-06-14T07:39:54Z</time>
      </trkpt>
      <trkpt lat="43.293595" lon="-6.127146">
        <ele>425.0</ele>
        <time>2012-06-14T07:39:55Z</time>
      </trkpt>
      <trkpt lat="43.293367" lon="-6.127169">
        <ele>428.0</ele>
        <time>2012-06-14T07:39:59Z</time>
      </trkpt>
      <trkpt lat="43.293079" lon="-6.1271">
        <ele>429.0</ele>
        <time>2012-06-14T07:40:05Z</time>
      </trkpt>
      <trkpt lat="43.292892" lon="-6.127065">
        <ele>429.0</ele>
        <time>2012-06-14T07:40:09Z</time>
      </trkpt>
      <trkpt lat="43.292519" lon="-6.127135">
        <ele>429.0</ele>
        <time>2012-06-14T07:40:17Z</time>
      </trkpt>
      <trkpt lat="43.292142" lon="-6.127238">
        <ele>428.0</ele>
        <time>2012-06-14T07:40:25Z</time>
      </trkpt>
      <trkpt lat="43.291945" lon="-6.127087">
        <ele>428.0</ele>
        <time>2012-06-14T07:40:29Z</time>
      </trkpt>
      <trkpt lat="43.291788" lon="-6.126873">
        <ele>428.0</ele>
        <time>2012-06-14T07:40:33Z</time>
      </trkpt>
      <trkpt lat="43.291583" lon="-6.126794">
        <ele>428.0</ele>
        <time>2012-06-14T07:40:37Z</time>
      </trkpt>
      <trkpt lat="43.291475" lon="-6.126798">
        <ele>428.0</ele>
        <time>2012-06-14T07:40:39Z</time>
      </trkpt>
      <trkpt lat="43.291148" lon="-6.126823">
        <ele>428.0</ele>
        <time>2012-06-14T07:40:45Z</time>
      </trkpt>
      <trkpt lat="43.291045" lon="-6.126869">
        <ele>428.0</ele>
        <time>2012-06-14T07:40:47Z</time>
      </trkpt>
      <trkpt lat="43.290666" lon="-6.127134">
        <ele>427.0</ele>
        <time>2012-06-14T07:40:54Z</time>
      </trkpt>
      <trkpt lat="43.290431" lon="-6.127267">
        <ele>425.0</ele>
        <time>2012-06-14T07:40:58Z</time>
      </trkpt>
      <trkpt lat="43.290176" lon="-6.127462">
        <ele>424.0</ele>
        <time>2012-06-14T07:41:02Z</time>
      </trkpt>
      <trkpt lat="43.289857" lon="-6.127597">
        <ele>422.0</ele>
        <time>2012-06-14T07:41:06Z</time>
      </trkpt>
      <trkpt lat="43.289517" lon="-6.127659">
        <ele>421.0</ele>
        <time>2012-06-14T07:41:10Z</time>
      </trkpt>
      <trkpt lat="43.289144" lon="-6.127738">
        <ele>421.0</ele>
        <time>2012-06-14T07:41:14Z</time>
      </trkpt>
      <trkpt lat="43.288738" lon="-6.127874">
        <ele>421.0</ele>
        <time>2012-06-14T07:41:18Z</time>
      </trkpt>
      <trkpt lat="43.288397" lon="-6.128224">
        <ele>422.0</ele>
        <time>2012-06-14T07:41:22Z</time>
      </trkpt>
      <trkpt lat="43.288181" lon="-6.128761">
        <ele>422.0</ele>
        <time>2012-06-14T07:41:26Z</time>
      </trkpt>
      <trkpt lat="43.287941" lon="-6.129265">
        <ele>421.0</ele>
        <time>2012-06-14T07:41:30Z</time>
      </trkpt>
      <trkpt lat="43.287652" lon="-6.129692">
        <ele>419.0</ele>
        <time>2012-06-14T07:41:34Z</time>
      </trkpt>
      <trkpt lat="43.287632" lon="-6.130254">
        <ele>418.0</ele>
        <time>2012-06-14T07:41:38Z</time>
      </trkpt>
      <trkpt lat="43.287499" lon="-6.130865">
        <ele>415.0</ele>
        <time>2012-06-14T07:41:42Z</time>
      </trkpt>
      <trkpt lat="43.287257" lon="-6.130938">
        <ele>415.0</ele>
        <time>2012-06-14T07:41:44Z</time>
      </trkpt>
      <trkpt lat="43.286842" lon="-6.131585">
        <ele>415.0</ele>
        <time>2012-06-14T07:41:50Z</time>
      </trkpt>
      <trkpt lat="43.286592" lon="-6.132044">
        <ele>414.0</ele>
        <time>2012-06-14T07:41:54Z</time>
      </trkpt>
      <trkpt lat="43.286339" lon="-6.132497">
        <ele>414.0</ele>
        <time>2012-06-14T07:41:58Z</time>
      </trkpt>
      <trkpt lat="43.286042" lon="-6.132908">
        <ele>413.0</ele>
        <time>2012-06-14T07:42:02Z</time>
      </trkpt>
      <trkpt lat="43.285716" lon="-6.133274">
        <ele>412.0</ele>
        <time>2012-06-14T07:42:06Z</time>
      </trkpt>
      <trkpt lat="43.285318" lon="-6.133534">
        <ele>412.0</ele>
        <time>2012-06-14T07:42:10Z</time>
      </trkpt>
      <trkpt lat="43.284951" lon="-6.133874">
        <ele>413.0</ele>
        <time>2012-06-14T07:42:14Z</time>
      </trkpt>
      <trkpt lat="43.284658" lon="-6.134378">
        <ele>411.0</ele>
        <time>2012-06-14T07:42:18Z</time>
      </trkpt>
      <trkpt lat="43.284332" lon="-6.134851">
        <ele>409.0</ele>
        <time>2012-06-14T07:42:22Z</time>
      </trkpt>
      <trkpt lat="43.283989" lon="-6.135245">
        <ele>406.0</ele>
        <time>2012-06-14T07:42:26Z</time>
      </trkpt>
      <trkpt lat="43.284089" lon="-6.136025">
        <ele>401.0</ele>
        <time>2012-06-14T07:42:30Z</time>
      </trkpt>
      <trkpt lat="43.284377" lon="-6.136616">
        <ele>390.0</ele>
        <time>2012-06-14T07:42:34Z</time>
      </trkpt>
      <trkpt lat="43.284616" lon="-6.137058">
        <ele>383.0</ele>
        <time>2012-06-14T07:42:38Z</time>
      </trkpt>
      <trkpt lat="43.284635" lon="-6.137567">
        <ele>382.0</ele>
        <time>2012-06-14T07:42:42Z</time>
      </trkpt>
      <trkpt lat="43.284498" lon="-6.138101">
        <ele>382.0</ele>
        <time>2012-06-14T07:42:46Z</time>
      </trkpt>
      <trkpt lat="43.284335" lon="-6.138426">
        <ele>383.0</ele>
        <time>2012-06-14T07:42:49Z</time>
      </trkpt>
      <trkpt lat="43.28388" lon="-6.13826">
        <ele>382.0</ele>
        <time>2012-06-14T07:42:54Z</time>
      </trkpt>
      <trkpt lat="43.28337" lon="-6.1381">
        <ele>374.0</ele>
        <time>2012-06-14T07:42:58Z</time>
      </trkpt>
      <trkpt lat="43.282994" lon="-6.138178">
        <ele>366.0</ele>
        <time>2012-06-14T07:43:02Z</time>
      </trkpt>
      <trkpt lat="43.28288" lon="-6.138448">
        <ele>360.0</ele>
        <time>2012-06-14T07:43:05Z</time>
      </trkpt>
      <trkpt lat="43.282566" lon="-6.138794">
        <ele>353.0</ele>
        <time>2012-06-14T07:43:10Z</time>
      </trkpt>
      <trkpt lat="43.282263" lon="-6.138836">
        <ele>351.0</ele>
        <time>2012-06-14T07:43:14Z</time>
      </trkpt>
      <trkpt lat="43.282201" lon="-6.138764">
        <ele>352.0</ele>
        <time>2012-06-14T07:43:15Z</time>
      </trkpt>
      <trkpt lat="43.282017" lon="-6.138367">
        <ele>352.0</ele>
        <time>2012-06-14T07:43:21Z</time>
      </trkpt>
      <trkpt lat="43.281982" lon="-6.138178">
        <ele>352.0</ele>
        <time>2012-06-14T07:43:25Z</time>
      </trkpt>
      <trkpt lat="43.28194" lon="-6.137989">
        <ele>353.0</ele>
        <time>2012-06-14T07:43:29Z</time>
      </trkpt>
      <trkpt lat="43.281945" lon="-6.137781">
        <ele>354.0</ele>
        <time>2012-06-14T07:43:33Z</time>
      </trkpt>
      <trkpt lat="43.281989" lon="-6.137576">
        <ele>357.0</ele>
        <time>2012-06-14T07:43:37Z</time>
      </trkpt>
      <trkpt lat="43.282044" lon="-6.137392">
        <ele>358.0</ele>
        <time>2012-06-14T07:43:41Z</time>
      </trkpt>
      <trkpt lat="43.282112" lon="-6.137112">
        <ele>358.0</ele>
        <time>2012-06-14T07:43:48Z</time>
      </trkpt>
      <trkpt lat="43.282176" lon="-6.136912">
        <ele>358.0</ele>
        <time>2012-06-14T07:43:54Z</time>
      </trkpt>
      <trkpt lat="43.282239" lon="-6.136724">
        <ele>359.0</ele>
        <time>2012-06-14T07:44:00Z</time>
      </trkpt>
      <trkpt lat="43.282332" lon="-6.136468">
        <ele>361.0</ele>
        <time>2012-06-14T07:44:09Z</time>
      </trkpt>
      <trkpt lat="43.282463" lon="-6.136214">
        <ele>364.0</ele>
        <time>2012-06-14T07:44:18Z</time>
      </trkpt>
      <trkpt lat="43.282554" lon="-6.136043">
        <ele>366.0</ele>
        <time>2012-06-14T07:44:24Z</time>
      </trkpt>
      <trkpt lat="43.282654" lon="-6.135854">
        <ele>370.0</ele>
        <time>2012-06-14T07:44:30Z</time>
      </trkpt>
      <trkpt lat="43.282707" lon="-6.135598">
        <ele>372.0</ele>
        <time>2012-06-14T07:44:34Z</time>
      </trkpt>
      <trkpt lat="43.282755" lon="-6.135296">
        <ele>375.0</ele>
        <time>2012-06-14T07:44:38Z</time>
      </trkpt>
      <trkpt lat="43.282796" lon="-6.135047">
        <ele>377.0</ele>
        <time>2012-06-14T07:44:42Z</time>
      </trkpt>
      <trkpt lat="43.282867" lon="-6.134837">
        <ele>379.0</ele>
        <time>2012-06-14T07:44:46Z</time>
      </trkpt>
      <trkpt lat="43.282947" lon="-6.13466">
        <ele>381.0</ele>
        <time>2012-06-14T07:44:50Z</time>
      </trkpt>
      <trkpt lat="43.282997" lon="-6.13444">
        <ele>383.0</ele>
        <time>2012-06-14T07:44:54Z</time>
      </trkpt>
      <trkpt lat="43.283016" lon="-6.134197">
        <ele>385.0</ele>
        <time>2012-06-14T07:44:58Z</time>
      </trkpt>
      <trkpt lat="43.283005" lon="-6.133964">
        <ele>387.0</ele>
        <time>2012-06-14T07:45:02Z</time>
      </trkpt>
      <trkpt lat="43.282947" lon="-6.133749">
        <ele>388.0</ele>
        <time>2012-06-14T07:45:06Z</time>
      </trkpt>
      <trkpt lat="43.282847" lon="-6.133547">
        <ele>389.0</ele>
        <time>2012-06-14T07:45:10Z</time>
      </trkpt>
      <trkpt lat="43.282723" lon="-6.133392">
        <ele>388.0</ele>
        <time>2012-06-14T07:45:14Z</time>
      </trkpt>
      <trkpt lat="43.282592" lon="-6.133293">
        <ele>388.0</ele>
        <time>2012-06-14T07:45:18Z</time>
      </trkpt>
      <trkpt lat="43.282535" lon="-6.133242">
        <ele>388.0</ele>
        <time>2012-06-14T07:45:20Z</time>
      </trkpt>
      <trkpt lat="43.28243" lon="-6.133041">
        <ele>388.0</ele>
        <time>2012-06-14T07:45:26Z</time>
      </trkpt>
      <trkpt lat="43.282426" lon="-6.13295">
        <ele>389.0</ele>
        <time>2012-06-14T07:45:28Z</time>
      </trkpt>
      <trkpt lat="43.282518" lon="-6.132799">
        <ele>389.0</ele>
        <time>2012-06-14T07:45:33Z</time>
      </trkpt>
      <trkpt lat="43.282644" lon="-6.132725">
        <ele>390.0</ele>
        <time>2012-06-14T07:45:37Z</time>
      </trkpt>
      <trkpt lat="43.282709" lon="-6.132682">
        <ele>390.0</ele>
        <time>2012-06-14T07:45:39Z</time>
      </trkpt>
      <trkpt lat="43.282902" lon="-6.132559">
        <ele>392.0</ele>
        <time>2012-06-14T07:45:45Z</time>
      </trkpt>
      <trkpt lat="43.283019" lon="-6.132426">
        <ele>393.0</ele>
        <time>2012-06-14T07:45:49Z</time>
      </trkpt>
      <trkpt lat="43.2831" lon="-6.132214">
        <ele>394.0</ele>
        <time>2012-06-14T07:45:53Z</time>
      </trkpt>
      <trkpt lat="43.283175" lon="-6.131991">
        <ele>394.0</ele>
        <time>2012-06-14T07:45:57Z</time>
      </trkpt>
      <trkpt lat="43.283241" lon="-6.131783">
        <ele>395.0</ele>
        <time>2012-06-14T07:46:01Z</time>
      </trkpt>
      <trkpt lat="43.283302" lon="-6.131581">
        <ele>398.0</ele>
        <time>2012-06-14T07:46:05Z</time>
      </trkpt>
      <trkpt lat="43.283349" lon="-6.131337">
        <ele>401.0</ele>
        <time>2012-06-14T07:46:09Z</time>
      </trkpt>
      <trkpt lat="43.28341" lon="-6.131124">
        <ele>404.0</ele>
        <time>2012-06-14T07:46:13Z</time>
      </trkpt>
      <trkpt lat="43.283492" lon="-6.130928">
        <ele>406.0</ele>
        <time>2012-06-14T07:46:17Z</time>
      </trkpt>
      <trkpt lat="43.283575" lon="-6.130747">
        <ele>407.0</ele>
        <time>2012-06-14T07:46:21Z</time>
      </trkpt>
      <trkpt lat="43.283615" lon="-6.130655">
        <ele>408.0</ele>
        <time>2012-06-14T07:46:23Z</time>
      </trkpt>
      <trkpt lat="43.283723" lon="-6.130409">
        <ele>409.0</ele>
        <time>2012-06-14T07:46:29Z</time>
      </trkpt>
      <trkpt lat="43.283919" lon="-6.130135">
        <ele>409.0</ele>
        <time>2012-06-14T07:46:37Z</time>
      </trkpt>
      <trkpt lat="43.284034" lon="-6.129982">
        <ele>410.0</ele>
        <time>2012-06-14T07:46:41Z</time>
      </trkpt>
      <trkpt lat="43.284087" lon="-6.129899">
        <ele>412.0</ele>
        <time>2012-06-14T07:46:43Z</time>
      </trkpt>
      <trkpt lat="43.284178" lon="-6.129621">
        <ele>412.0</ele>
        <time>2012-06-14T07:46:49Z</time>
      </trkpt>
      <trkpt lat="43.284176" lon="-6.129393">
        <ele>412.0</ele>
        <time>2012-06-14T07:46:54Z</time>
      </trkpt>
      <trkpt lat="43.284143" lon="-6.129163">
        <ele>412.0</ele>
        <time>2012-06-14T07:46:58Z</time>
      </trkpt>
      <trkpt lat="43.284148" lon="-6.128941">
        <ele>412.0</ele>
        <time>2012-06-14T07:47:02Z</time>
      </trkpt>
      <trkpt lat="43.284185" lon="-6.128756">
        <ele>412.0</ele>
        <time>2012-06-14T07:47:06Z</time>
      </trkpt>
      <trkpt lat="43.284261" lon="-6.128688">
        <ele>411.0</ele>
        <time>2012-06-14T07:47:09Z</time>
      </trkpt>
      <trkpt lat="43.284336" lon="-6.128637">
        <ele>412.0</ele>
        <time>2012-06-14T07:47:12Z</time>
      </trkpt>
      <trkpt lat="43.284467" lon="-6.128565">
        <ele>412.0</ele>
        <time>2012-06-14T07:47:18Z</time>
      </trkpt>
      <trkpt lat="43.284531" lon="-6.12853">
        <ele>413.0</ele>
        <time>2012-06-14T07:47:21Z</time>
      </trkpt>
      <trkpt lat="43.28462" lon="-6.128402">
        <ele>414.0</ele>
        <time>2012-06-14T07:47:25Z</time>
      </trkpt>
      <trkpt lat="43.284724" lon="-6.128267">
        <ele>414.0</ele>
        <time>2012-06-14T07:47:29Z</time>
      </trkpt>
      <trkpt lat="43.284838" lon="-6.128119">
        <ele>418.0</ele>
        <time>2012-06-14T07:47:33Z</time>
      </trkpt>
      <trkpt lat="43.284953" lon="-6.127939">
        <ele>422.0</ele>
        <time>2012-06-14T07:47:37Z</time>
      </trkpt>
      <trkpt lat="43.28501" lon="-6.127841">
        <ele>423.0</ele>
        <time>2012-06-14T07:47:39Z</time>
      </trkpt>
      <trkpt lat="43.285081" lon="-6.127497">
        <ele>424.0</ele>
        <time>2012-06-14T07:47:45Z</time>
      </trkpt>
      <trkpt lat="43.285045" lon="-6.127276">
        <ele>424.0</ele>
        <time>2012-06-14T07:47:49Z</time>
      </trkpt>
      <trkpt lat="43.285024" lon="-6.127073">
        <ele>424.0</ele>
        <time>2012-06-14T07:47:53Z</time>
      </trkpt>
      <trkpt lat="43.284995" lon="-6.126863">
        <ele>424.0</ele>
        <time>2012-06-14T07:47:57Z</time>
      </trkpt>
      <trkpt lat="43.284965" lon="-6.126644">
        <ele>424.0</ele>
        <time>2012-06-14T07:48:01Z</time>
      </trkpt>
      <trkpt lat="43.28465" lon="-6.126499">
        <ele>422.0</ele>
        <time>2012-06-14T07:48:09Z</time>
      </trkpt>
      <trkpt lat="43.284454" lon="-6.126542">
        <ele>423.0</ele>
        <time>2012-06-14T07:48:13Z</time>
      </trkpt>
      <trkpt lat="43.284283" lon="-6.126561">
        <ele>424.0</ele>
        <time>2012-06-14T07:48:17Z</time>
      </trkpt>
      <trkpt lat="43.284119" lon="-6.126506">
        <ele>425.0</ele>
        <time>2012-06-14T07:48:21Z</time>
      </trkpt>
      <trkpt lat="43.283971" lon="-6.126399">
        <ele>426.0</ele>
        <time>2012-06-14T07:48:25Z</time>
      </trkpt>
      <trkpt lat="43.283812" lon="-6.126344">
        <ele>427.0</ele>
        <time>2012-06-14T07:48:29Z</time>
      </trkpt>
      <trkpt lat="43.28373" lon="-6.126359">
        <ele>427.0</ele>
        <time>2012-06-14T07:48:31Z</time>
      </trkpt>
      <trkpt lat="43.283569" lon="-6.12641">
        <ele>428.0</ele>
        <time>2012-06-14T07:48:35Z</time>
      </trkpt>
      <trkpt lat="43.283397" lon="-6.126654">
        <ele>429.0</ele>
        <time>2012-06-14T07:48:41Z</time>
      </trkpt>
      <trkpt lat="43.283265" lon="-6.126787">
        <ele>431.0</ele>
        <time>2012-06-14T07:48:45Z</time>
      </trkpt>
      <trkpt lat="43.283201" lon="-6.126854">
        <ele>432.0</ele>
        <time>2012-06-14T07:48:47Z</time>
      </trkpt>
      <trkpt lat="43.283068" lon="-6.127135">
        <ele>434.0</ele>
        <time>2012-06-14T07:48:53Z</time>
      </trkpt>
      <trkpt lat="43.283007" lon="-6.127337">
        <ele>435.0</ele>
        <time>2012-06-14T07:48:57Z</time>
      </trkpt>
      <trkpt lat="43.282976" lon="-6.127427">
        <ele>435.0</ele>
        <time>2012-06-14T07:48:59Z</time>
      </trkpt>
      <trkpt lat="43.282915" lon="-6.127732">
        <ele>435.0</ele>
        <time>2012-06-14T07:49:05Z</time>
      </trkpt>
      <trkpt lat="43.282881" lon="-6.127947">
        <ele>435.0</ele>
        <time>2012-06-14T07:49:09Z</time>
      </trkpt>
      <trkpt lat="43.28283" lon="-6.128149">
        <ele>435.0</ele>
        <time>2012-06-14T07:49:13Z</time>
      </trkpt>
      <trkpt lat="43.282717" lon="-6.128296">
        <ele>436.0</ele>
        <time>2012-06-14T07:49:17Z</time>
      </trkpt>
      <trkpt lat="43.282581" lon="-6.128386">
        <ele>436.0</ele>
        <time>2012-06-14T07:49:21Z</time>
      </trkpt>
      <trkpt lat="43.282427" lon="-6.12841">
        <ele>436.0</ele>
        <time>2012-06-14T07:49:25Z</time>
      </trkpt>
      <trkpt lat="43.282346" lon="-6.128414">
        <ele>436.0</ele>
        <time>2012-06-14T07:49:27Z</time>
      </trkpt>
      <trkpt lat="43.282111" lon="-6.128388">
        <ele>437.0</ele>
        <time>2012-06-14T07:49:33Z</time>
      </trkpt>
      <trkpt lat="43.28197" lon="-6.128402">
        <ele>437.0</ele>
        <time>2012-06-14T07:49:37Z</time>
      </trkpt>
      <trkpt lat="43.28183" lon="-6.128427">
        <ele>440.0</ele>
        <time>2012-06-14T07:49:41Z</time>
      </trkpt>
      <trkpt lat="43.281681" lon="-6.128466">
        <ele>445.0</ele>
        <time>2012-06-14T07:49:45Z</time>
      </trkpt>
      <trkpt lat="43.281533" lon="-6.128509">
        <ele>447.0</ele>
        <time>2012-06-14T07:49:49Z</time>
      </trkpt>
      <trkpt lat="43.281458" lon="-6.128523">
        <ele>448.0</ele>
        <time>2012-06-14T07:49:51Z</time>
      </trkpt>
      <trkpt lat="43.281226" lon="-6.128524">
        <ele>448.0</ele>
        <time>2012-06-14T07:49:57Z</time>
      </trkpt>
      <trkpt lat="43.281069" lon="-6.128527">
        <ele>448.0</ele>
        <time>2012-06-14T07:50:01Z</time>
      </trkpt>
      <trkpt lat="43.28091" lon="-6.128548">
        <ele>448.0</ele>
        <time>2012-06-14T07:50:05Z</time>
      </trkpt>
      <trkpt lat="43.280754" lon="-6.128619">
        <ele>448.0</ele>
        <time>2012-06-14T07:50:09Z</time>
      </trkpt>
      <trkpt lat="43.280606" lon="-6.128711">
        <ele>447.0</ele>
        <time>2012-06-14T07:50:13Z</time>
      </trkpt>
      <trkpt lat="43.28045" lon="-6.128787">
        <ele>447.0</ele>
        <time>2012-06-14T07:50:17Z</time>
      </trkpt>
      <trkpt lat="43.280286" lon="-6.128827">
        <ele>447.0</ele>
        <time>2012-06-14T07:50:21Z</time>
      </trkpt>
      <trkpt lat="43.280123" lon="-6.128764">
        <ele>447.0</ele>
        <time>2012-06-14T07:50:25Z</time>
      </trkpt>
      <trkpt lat="43.279968" lon="-6.12867">
        <ele>447.0</ele>
        <time>2012-06-14T07:50:29Z</time>
      </trkpt>
      <trkpt lat="43.279846" lon="-6.128553">
        <ele>447.0</ele>
        <time>2012-06-14T07:50:33Z</time>
      </trkpt>
      <trkpt lat="43.27978" lon="-6.128469">
        <ele>447.0</ele>
        <time>2012-06-14T07:50:36Z</time>
      </trkpt>
      <trkpt lat="43.279696" lon="-6.12829">
        <ele>448.0</ele>
        <time>2012-06-14T07:50:42Z</time>
      </trkpt>
      <trkpt lat="43.279636" lon="-6.127986">
        <ele>448.0</ele>
        <time>2012-06-14T07:50:50Z</time>
      </trkpt>
      <trkpt lat="43.279564" lon="-6.127806">
        <ele>448.0</ele>
        <time>2012-06-14T07:50:54Z</time>
      </trkpt>
      <trkpt lat="43.279466" lon="-6.12766">
        <ele>449.0</ele>
        <time>2012-06-14T07:50:58Z</time>
      </trkpt>
      <trkpt lat="43.279419" lon="-6.127599">
        <ele>449.0</ele>
        <time>2012-06-14T07:51:00Z</time>
      </trkpt>
      <trkpt lat="43.279245" lon="-6.127529">
        <ele>450.0</ele>
        <time>2012-06-14T07:51:06Z</time>
      </trkpt>
      <trkpt lat="43.279109" lon="-6.127536">
        <ele>453.0</ele>
        <time>2012-06-14T07:51:10Z</time>
      </trkpt>
      <trkpt lat="43.278958" lon="-6.12755">
        <ele>453.0</ele>
        <time>2012-06-14T07:51:14Z</time>
      </trkpt>
      <trkpt lat="43.278958" lon="-6.12755">
        <time>2012-06-14T07:51:25Z</time>
      </trkpt>
    </trkseg>
    <trkseg>
      <trkpt lat="43.278958" lon="-6.12755">
        <time>2012-06-14T07:51:32Z</time>
      </trkpt>
      <trkpt lat="43.277233" lon="-6.126345">
        <ele>437.0</ele>
        <time>2012-06-14T07:51:56Z</time>
      </trkpt>
      <trkpt lat="43.277022" lon="-6.126369">
        <ele>427.0</ele>
        <time>2012-06-14T07:52:00Z</time>
      </trkpt>
      <trkpt lat="43.276818" lon="-6.126398">
        <ele>423.0</ele>
        <time>2012-06-14T07:52:04Z</time>
      </trkpt>
      <trkpt lat="43.276621" lon="-6.126427">
        <ele>421.0</ele>
        <time>2012-06-14T07:52:08Z</time>
      </trkpt>
      <trkpt lat="43.276427" lon="-6.126442">
        <ele>420.0</ele>
        <time>2012-06-14T07:52:12Z</time>
      </trkpt>
      <trkpt lat="43.276239" lon="-6.126423">
        <ele>420.0</ele>
        <time>2012-06-14T07:52:16Z</time>
      </trkpt>
      <trkpt lat="43.276083" lon="-6.1264">
        <ele>420.0</ele>
        <time>2012-06-14T07:52:20Z</time>
      </trkpt>
      <trkpt lat="43.275942" lon="-6.12636">
        <ele>420.0</ele>
        <time>2012-06-14T07:52:24Z</time>
      </trkpt>
      <trkpt lat="43.275791" lon="-6.126312">
        <ele>420.0</ele>
        <time>2012-06-14T07:52:28Z</time>
      </trkpt>
      <trkpt lat="43.275647" lon="-6.126285">
        <ele>421.0</ele>
        <time>2012-06-14T07:52:32Z</time>
      </trkpt>
      <trkpt lat="43.275503" lon="-6.126259">
        <ele>422.0</ele>
        <time>2012-06-14T07:52:36Z</time>
      </trkpt>
      <trkpt lat="43.275358" lon="-6.126234">
        <ele>423.0</ele>
        <time>2012-06-14T07:52:40Z</time>
      </trkpt>
      <trkpt lat="43.275215" lon="-6.12621">
        <ele>423.0</ele>
        <time>2012-06-14T07:52:44Z</time>
      </trkpt>
      <trkpt lat="43.275069" lon="-6.126172">
        <ele>424.0</ele>
        <time>2012-06-14T07:52:48Z</time>
      </trkpt>
      <trkpt lat="43.274924" lon="-6.126133">
        <ele>424.0</ele>
        <time>2012-06-14T07:52:52Z</time>
      </trkpt>
      <trkpt lat="43.274778" lon="-6.126098">
        <ele>424.0</ele>
        <time>2012-06-14T07:52:56Z</time>
      </trkpt>
      <trkpt lat="43.274633" lon="-6.126072">
        <ele>424.0</ele>
        <time>2012-06-14T07:53:00Z</time>
      </trkpt>
      <trkpt lat="43.274494" lon="-6.126054">
        <ele>424.0</ele>
        <time>2012-06-14T07:53:04Z</time>
      </trkpt>
      <trkpt lat="43.27434" lon="-6.126069">
        <ele>424.0</ele>
        <time>2012-06-14T07:53:09Z</time>
      </trkpt>
      <trkpt lat="43.274271" lon="-6.126146">
        <ele>424.0</ele>
        <time>2012-06-14T07:53:12Z</time>
      </trkpt>
      <trkpt lat="43.274196" lon="-6.126181">
        <ele>424.0</ele>
        <time>2012-06-14T07:53:15Z</time>
      </trkpt>
      <trkpt lat="43.274035" lon="-6.126167">
        <ele>424.0</ele>
        <time>2012-06-14T07:53:21Z</time>
      </trkpt>
      <trkpt lat="43.273945" lon="-6.126144">
        <ele>424.0</ele>
        <time>2012-06-14T07:53:24Z</time>
      </trkpt>
      <trkpt lat="43.27386" lon="-6.126109">
        <ele>425.0</ele>
        <time>2012-06-14T07:53:27Z</time>
      </trkpt>
      <trkpt lat="43.273689" lon="-6.126046">
        <ele>426.0</ele>
        <time>2012-06-14T07:53:33Z</time>
      </trkpt>
      <trkpt lat="43.273602" lon="-6.126032">
        <ele>427.0</ele>
        <time>2012-06-14T07:53:36Z</time>
      </trkpt>
      <trkpt lat="43.273513" lon="-6.126017">
        <ele>428.0</ele>
        <time>2012-06-14T07:53:39Z</time>
      </trkpt>
      <trkpt lat="43.273361" lon="-6.125958">
        <ele>429.0</ele>
        <time>2012-06-14T07:53:44Z</time>
      </trkpt>
      <trkpt lat="43.273223" lon="-6.125854">
        <ele>430.0</ele>
        <time>2012-06-14T07:53:49Z</time>
      </trkpt>
      <trkpt lat="43.27314" lon="-6.125801">
        <ele>430.0</ele>
        <time>2012-06-14T07:53:52Z</time>
      </trkpt>
      <trkpt lat="43.273062" lon="-6.125753">
        <ele>430.0</ele>
        <time>2012-06-14T07:53:55Z</time>
      </trkpt>
      <trkpt lat="43.272904" lon="-6.12562">
        <ele>431.0</ele>
        <time>2012-06-14T07:54:01Z</time>
      </trkpt>
      <trkpt lat="43.272791" lon="-6.125509">
        <ele>432.0</ele>
        <time>2012-06-14T07:54:05Z</time>
      </trkpt>
      <trkpt lat="43.272694" lon="-6.125385">
        <ele>432.0</ele>
        <time>2012-06-14T07:54:09Z</time>
      </trkpt>
      <trkpt lat="43.272634" lon="-6.12529">
        <ele>433.0</ele>
        <time>2012-06-14T07:54:12Z</time>
      </trkpt>
      <trkpt lat="43.272582" lon="-6.125193">
        <ele>433.0</ele>
        <time>2012-06-14T07:54:15Z</time>
      </trkpt>
      <trkpt lat="43.272537" lon="-6.124989">
        <ele>434.0</ele>
        <time>2012-06-14T07:54:21Z</time>
      </trkpt>
      <trkpt lat="43.272467" lon="-6.1247">
        <ele>437.0</ele>
        <time>2012-06-14T07:54:29Z</time>
      </trkpt>
      <trkpt lat="43.272391" lon="-6.124547">
        <ele>439.0</ele>
        <time>2012-06-14T07:54:33Z</time>
      </trkpt>
      <trkpt lat="43.272315" lon="-6.124397">
        <ele>441.0</ele>
        <time>2012-06-14T07:54:37Z</time>
      </trkpt>
      <trkpt lat="43.272274" lon="-6.124326">
        <ele>442.0</ele>
        <time>2012-06-14T07:54:39Z</time>
      </trkpt>
      <trkpt lat="43.27214" lon="-6.124109">
        <ele>446.0</ele>
        <time>2012-06-14T07:54:45Z</time>
      </trkpt>
      <trkpt lat="43.272087" lon="-6.124053">
        <ele>447.0</ele>
        <time>2012-06-14T07:54:47Z</time>
      </trkpt>
      <trkpt lat="43.271928" lon="-6.123872">
        <ele>451.0</ele>
        <time>2012-06-14T07:54:53Z</time>
      </trkpt>
      <trkpt lat="43.271822" lon="-6.12375">
        <ele>454.0</ele>
        <time>2012-06-14T07:54:57Z</time>
      </trkpt>
      <trkpt lat="43.271726" lon="-6.123628">
        <ele>456.0</ele>
        <time>2012-06-14T07:55:01Z</time>
      </trkpt>
      <trkpt lat="43.271631" lon="-6.123508">
        <ele>459.0</ele>
        <time>2012-06-14T07:55:05Z</time>
      </trkpt>
      <trkpt lat="43.271542" lon="-6.123374">
        <ele>462.0</ele>
        <time>2012-06-14T07:55:09Z</time>
      </trkpt>
      <trkpt lat="43.271478" lon="-6.123284">
        <ele>463.0</ele>
        <time>2012-06-14T07:55:12Z</time>
      </trkpt>
      <trkpt lat="43.271371" lon="-6.123137">
        <ele>466.0</ele>
        <time>2012-06-14T07:55:17Z</time>
      </trkpt>
      <trkpt lat="43.27133" lon="-6.123071">
        <ele>468.0</ele>
        <time>2012-06-14T07:55:19Z</time>
      </trkpt>
      <trkpt lat="43.271188" lon="-6.122925">
        <ele>471.0</ele>
        <time>2012-06-14T07:55:25Z</time>
      </trkpt>
      <trkpt lat="43.271119" lon="-6.122874">
        <ele>473.0</ele>
        <time>2012-06-14T07:55:28Z</time>
      </trkpt>
      <trkpt lat="43.271047" lon="-6.12284">
        <ele>475.0</ele>
        <time>2012-06-14T07:55:31Z</time>
      </trkpt>
      <trkpt lat="43.270896" lon="-6.122767">
        <ele>477.0</ele>
        <time>2012-06-14T07:55:37Z</time>
      </trkpt>
      <trkpt lat="43.27082" lon="-6.122716">
        <ele>479.0</ele>
        <time>2012-06-14T07:55:40Z</time>
      </trkpt>
      <trkpt lat="43.270743" lon="-6.122657">
        <ele>480.0</ele>
        <time>2012-06-14T07:55:43Z</time>
      </trkpt>
      <trkpt lat="43.270596" lon="-6.122537">
        <ele>482.0</ele>
        <time>2012-06-14T07:55:49Z</time>
      </trkpt>
      <trkpt lat="43.270532" lon="-6.12249">
        <ele>483.0</ele>
        <time>2012-06-14T07:55:52Z</time>
      </trkpt>
      <trkpt lat="43.270459" lon="-6.122445">
        <ele>484.0</ele>
        <time>2012-06-14T07:55:55Z</time>
      </trkpt>
      <trkpt lat="43.270311" lon="-6.12236">
        <ele>485.0</ele>
        <time>2012-06-14T07:56:00Z</time>
      </trkpt>
      <trkpt lat="43.270181" lon="-6.122307">
        <ele>486.0</ele>
        <time>2012-06-14T07:56:04Z</time>
      </trkpt>
      <trkpt lat="43.269976" lon="-6.12222">
        <ele>488.0</ele>
        <time>2012-06-14T07:56:10Z</time>
      </trkpt>
      <trkpt lat="43.269765" lon="-6.122219">
        <ele>491.0</ele>
        <time>2012-06-14T07:56:16Z</time>
      </trkpt>
      <trkpt lat="43.269614" lon="-6.12228">
        <ele>493.0</ele>
        <time>2012-06-14T07:56:21Z</time>
      </trkpt>
      <trkpt lat="43.269484" lon="-6.122312">
        <ele>495.0</ele>
        <time>2012-06-14T07:56:25Z</time>
      </trkpt>
      <trkpt lat="43.26939" lon="-6.12231">
        <ele>496.0</ele>
        <time>2012-06-14T07:56:28Z</time>
      </trkpt>
      <trkpt lat="43.269299" lon="-6.122286">
        <ele>497.0</ele>
        <time>2012-06-14T07:56:31Z</time>
      </trkpt>
      <trkpt lat="43.269136" lon="-6.122245">
        <ele>499.0</ele>
        <time>2012-06-14T07:56:37Z</time>
      </trkpt>
      <trkpt lat="43.269048" lon="-6.12222">
        <ele>500.0</ele>
        <time>2012-06-14T07:56:40Z</time>
      </trkpt>
      <trkpt lat="43.268892" lon="-6.12221">
        <ele>501.0</ele>
        <time>2012-06-14T07:56:45Z</time>
      </trkpt>
      <trkpt lat="43.268706" lon="-6.122244">
        <ele>504.0</ele>
        <time>2012-06-14T07:56:51Z</time>
      </trkpt>
      <trkpt lat="43.268536" lon="-6.122333">
        <ele>506.0</ele>
        <time>2012-06-14T07:56:57Z</time>
      </trkpt>
      <trkpt lat="43.268448" lon="-6.122376">
        <ele>506.0</ele>
        <time>2012-06-14T07:57:00Z</time>
      </trkpt>
      <trkpt lat="43.268387" lon="-6.122196">
        <ele>529.0</ele>
        <time>2012-06-14T07:57:04Z</time>
      </trkpt>
      <trkpt lat="43.268299" lon="-6.122052">
        <ele>548.0</ele>
        <time>2012-06-14T07:57:08Z</time>
      </trkpt>
      <trkpt lat="43.268242" lon="-6.121982">
        <ele>562.0</ele>
        <time>2012-06-14T07:57:11Z</time>
      </trkpt>
      <trkpt lat="43.268178" lon="-6.121967">
        <ele>581.0</ele>
        <time>2012-06-14T07:57:16Z</time>
      </trkpt>
      <trkpt lat="43.268111" lon="-6.121994">
        <ele>597.0</ele>
        <time>2012-06-14T07:57:21Z</time>
      </trkpt>
      <trkpt lat="43.268043" lon="-6.122048">
        <ele>608.0</ele>
        <time>2012-06-14T07:57:25Z</time>
      </trkpt>
      <trkpt lat="43.267981" lon="-6.122095">
        <ele>614.0</ele>
        <time>2012-06-14T07:57:28Z</time>
      </trkpt>
      <trkpt lat="43.267909" lon="-6.122134">
        <ele>620.0</ele>
        <time>2012-06-14T07:57:31Z</time>
      </trkpt>
      <trkpt lat="43.26773" lon="-6.122153">
        <ele>650.0</ele>
        <time>2012-06-14T07:57:37Z</time>
      </trkpt>
      <trkpt lat="43.267592" lon="-6.122144">
        <ele>670.0</ele>
        <time>2012-06-14T07:57:41Z</time>
      </trkpt>
      <trkpt lat="43.267446" lon="-6.122146">
        <ele>674.0</ele>
        <time>2012-06-14T07:57:45Z</time>
      </trkpt>
      <trkpt lat="43.267295" lon="-6.122144">
        <ele>670.0</ele>
        <time>2012-06-14T07:57:49Z</time>
      </trkpt>
      <trkpt lat="43.267138" lon="-6.122083">
        <ele>665.0</ele>
        <time>2012-06-14T07:57:53Z</time>
      </trkpt>
      <trkpt lat="43.26699" lon="-6.12198">
        <ele>659.0</ele>
        <time>2012-06-14T07:57:57Z</time>
      </trkpt>
      <trkpt lat="43.266838" lon="-6.121877">
        <ele>653.0</ele>
        <time>2012-06-14T07:58:01Z</time>
      </trkpt>
      <trkpt lat="43.266682" lon="-6.121804">
        <ele>646.0</ele>
        <time>2012-06-14T07:58:05Z</time>
      </trkpt>
      <trkpt lat="43.266521" lon="-6.12176">
        <ele>642.0</ele>
        <time>2012-06-14T07:58:09Z</time>
      </trkpt>
      <trkpt lat="43.266354" lon="-6.12175">
        <ele>639.0</ele>
        <time>2012-06-14T07:58:13Z</time>
      </trkpt>
      <trkpt lat="43.266189" lon="-6.121809">
        <ele>638.0</ele>
        <time>2012-06-14T07:58:17Z</time>
      </trkpt>
      <trkpt lat="43.26603" lon="-6.121888">
        <ele>637.0</ele>
        <time>2012-06-14T07:58:21Z</time>
      </trkpt>
      <trkpt lat="43.265885" lon="-6.121965">
        <ele>637.0</ele>
        <time>2012-06-14T07:58:25Z</time>
      </trkpt>
      <trkpt lat="43.26559" lon="-6.122026">
        <ele>640.0</ele>
        <time>2012-06-14T07:58:33Z</time>
      </trkpt>
      <trkpt lat="43.265525" lon="-6.122071">
        <ele>640.0</ele>
        <time>2012-06-14T07:58:35Z</time>
      </trkpt>
      <trkpt lat="43.265221" lon="-6.122318">
        <ele>640.0</ele>
        <time>2012-06-14T07:58:45Z</time>
      </trkpt>
      <trkpt lat="43.26508" lon="-6.122365">
        <ele>640.0</ele>
        <time>2012-06-14T07:58:49Z</time>
      </trkpt>
      <trkpt lat="43.264939" lon="-6.122425">
        <ele>640.0</ele>
        <time>2012-06-14T07:58:53Z</time>
      </trkpt>
      <trkpt lat="43.264801" lon="-6.122463">
        <ele>640.0</ele>
        <time>2012-06-14T07:58:57Z</time>
      </trkpt>
      <trkpt lat="43.264659" lon="-6.122433">
        <ele>640.0</ele>
        <time>2012-06-14T07:59:01Z</time>
      </trkpt>
      <trkpt lat="43.264519" lon="-6.122364">
        <ele>641.0</ele>
        <time>2012-06-14T07:59:05Z</time>
      </trkpt>
      <trkpt lat="43.264375" lon="-6.122274">
        <ele>641.0</ele>
        <time>2012-06-14T07:59:09Z</time>
      </trkpt>
      <trkpt lat="43.264232" lon="-6.122203">
        <ele>641.0</ele>
        <time>2012-06-14T07:59:13Z</time>
      </trkpt>
      <trkpt lat="43.26394" lon="-6.122097">
        <ele>642.0</ele>
        <time>2012-06-14T07:59:21Z</time>
      </trkpt>
      <trkpt lat="43.263876" lon="-6.122051">
        <ele>643.0</ele>
        <time>2012-06-14T07:59:23Z</time>
      </trkpt>
      <trkpt lat="43.263686" lon="-6.121922">
        <ele>644.0</ele>
        <time>2012-06-14T07:59:29Z</time>
      </trkpt>
      <trkpt lat="43.26356" lon="-6.121832">
        <ele>643.0</ele>
        <time>2012-06-14T07:59:33Z</time>
      </trkpt>
      <trkpt lat="43.263429" lon="-6.121758">
        <ele>643.0</ele>
        <time>2012-06-14T07:59:37Z</time>
      </trkpt>
      <trkpt lat="43.263294" lon="-6.121692">
        <ele>642.0</ele>
        <time>2012-06-14T07:59:41Z</time>
      </trkpt>
      <trkpt lat="43.263156" lon="-6.121607">
        <ele>642.0</ele>
        <time>2012-06-14T07:59:45Z</time>
      </trkpt>
      <trkpt lat="43.262863" lon="-6.121581">
        <ele>642.0</ele>
        <time>2012-06-14T07:59:53Z</time>
      </trkpt>
      <trkpt lat="43.262711" lon="-6.121582">
        <ele>643.0</ele>
        <time>2012-06-14T07:59:57Z</time>
      </trkpt>
      <trkpt lat="43.262553" lon="-6.121581">
        <ele>643.0</ele>
        <time>2012-06-14T08:00:01Z</time>
      </trkpt>
      <trkpt lat="43.26247" lon="-6.12158">
        <ele>644.0</ele>
        <time>2012-06-14T08:00:03Z</time>
      </trkpt>
      <trkpt lat="43.262218" lon="-6.121566">
        <ele>644.0</ele>
        <time>2012-06-14T08:00:09Z</time>
      </trkpt>
      <trkpt lat="43.262054" lon="-6.121552">
        <ele>645.0</ele>
        <time>2012-06-14T08:00:13Z</time>
      </trkpt>
      <trkpt lat="43.261894" lon="-6.121547">
        <ele>645.0</ele>
        <time>2012-06-14T08:00:17Z</time>
      </trkpt>
      <trkpt lat="43.261748" lon="-6.121584">
        <ele>645.0</ele>
        <time>2012-06-14T08:00:21Z</time>
      </trkpt>
      <trkpt lat="43.261487" lon="-6.121811">
        <ele>647.0</ele>
        <time>2012-06-14T08:00:29Z</time>
      </trkpt>
      <trkpt lat="43.261355" lon="-6.121925">
        <ele>648.0</ele>
        <time>2012-06-14T08:00:33Z</time>
      </trkpt>
      <trkpt lat="43.261217" lon="-6.122032">
        <ele>647.0</ele>
        <time>2012-06-14T08:00:37Z</time>
      </trkpt>
      <trkpt lat="43.261077" lon="-6.122144">
        <ele>646.0</ele>
        <time>2012-06-14T08:00:41Z</time>
      </trkpt>
      <trkpt lat="43.260961" lon="-6.122301">
        <ele>646.0</ele>
        <time>2012-06-14T08:00:45Z</time>
      </trkpt>
      <trkpt lat="43.26074" lon="-6.122637">
        <ele>645.0</ele>
        <time>2012-06-14T08:00:53Z</time>
      </trkpt>
      <trkpt lat="43.260622" lon="-6.122798">
        <ele>646.0</ele>
        <time>2012-06-14T08:00:57Z</time>
      </trkpt>
      <trkpt lat="43.260492" lon="-6.12293">
        <ele>646.0</ele>
        <time>2012-06-14T08:01:01Z</time>
      </trkpt>
      <trkpt lat="43.260359" lon="-6.123046">
        <ele>647.0</ele>
        <time>2012-06-14T08:01:05Z</time>
      </trkpt>
      <trkpt lat="43.26022" lon="-6.123141">
        <ele>647.0</ele>
        <time>2012-06-14T08:01:09Z</time>
      </trkpt>
      <trkpt lat="43.260074" lon="-6.123203">
        <ele>647.0</ele>
        <time>2012-06-14T08:01:13Z</time>
      </trkpt>
      <trkpt lat="43.260004" lon="-6.123235">
        <ele>647.0</ele>
        <time>2012-06-14T08:01:15Z</time>
      </trkpt>
      <trkpt lat="43.259792" lon="-6.123265">
        <ele>648.0</ele>
        <time>2012-06-14T08:01:21Z</time>
      </trkpt>
      <trkpt lat="43.259652" lon="-6.123259">
        <ele>648.0</ele>
        <time>2012-06-14T08:01:25Z</time>
      </trkpt>
      <trkpt lat="43.259515" lon="-6.123258">
        <ele>648.0</ele>
        <time>2012-06-14T08:01:29Z</time>
      </trkpt>
      <trkpt lat="43.259447" lon="-6.123276">
        <ele>648.0</ele>
        <time>2012-06-14T08:01:31Z</time>
      </trkpt>
      <trkpt lat="43.259253" lon="-6.123381">
        <ele>649.0</ele>
        <time>2012-06-14T08:01:37Z</time>
      </trkpt>
      <trkpt lat="43.259127" lon="-6.123472">
        <ele>649.0</ele>
        <time>2012-06-14T08:01:41Z</time>
      </trkpt>
      <trkpt lat="43.258999" lon="-6.123557">
        <ele>649.0</ele>
        <time>2012-06-14T08:01:45Z</time>
      </trkpt>
      <trkpt lat="43.258867" lon="-6.123611">
        <ele>649.0</ele>
        <time>2012-06-14T08:01:49Z</time>
      </trkpt>
      <trkpt lat="43.258798" lon="-6.123605">
        <ele>649.0</ele>
        <time>2012-06-14T08:01:51Z</time>
      </trkpt>
      <trkpt lat="43.258629" lon="-6.123457">
        <ele>650.0</ele>
        <time>2012-06-14T08:01:57Z</time>
      </trkpt>
      <trkpt lat="43.258579" lon="-6.123395">
        <ele>650.0</ele>
        <time>2012-06-14T08:01:59Z</time>
      </trkpt>
      <trkpt lat="43.258394" lon="-6.123269">
        <ele>652.0</ele>
        <time>2012-06-14T08:02:05Z</time>
      </trkpt>
      <trkpt lat="43.258238" lon="-6.123265">
        <ele>657.0</ele>
        <time>2012-06-14T08:02:09Z</time>
      </trkpt>
      <trkpt lat="43.258097" lon="-6.123351">
        <ele>660.0</ele>
        <time>2012-06-14T08:02:13Z</time>
      </trkpt>
      <trkpt lat="43.258" lon="-6.123508">
        <ele>660.0</ele>
        <time>2012-06-14T08:02:17Z</time>
      </trkpt>
      <trkpt lat="43.257892" lon="-6.123626">
        <ele>661.0</ele>
        <time>2012-06-14T08:02:21Z</time>
      </trkpt>
      <trkpt lat="43.257774" lon="-6.123728">
        <ele>661.0</ele>
        <time>2012-06-14T08:02:25Z</time>
      </trkpt>
      <trkpt lat="43.25765" lon="-6.123801">
        <ele>661.0</ele>
        <time>2012-06-14T08:02:29Z</time>
      </trkpt>
      <trkpt lat="43.257585" lon="-6.123782">
        <ele>661.0</ele>
        <time>2012-06-14T08:02:31Z</time>
      </trkpt>
      <trkpt lat="43.257467" lon="-6.123652">
        <ele>662.0</ele>
        <time>2012-06-14T08:02:36Z</time>
      </trkpt>
      <trkpt lat="43.257362" lon="-6.123489">
        <ele>666.0</ele>
        <time>2012-06-14T08:02:40Z</time>
      </trkpt>
      <trkpt lat="43.257247" lon="-6.12338">
        <ele>670.0</ele>
        <time>2012-06-14T08:02:44Z</time>
      </trkpt>
      <trkpt lat="43.25711" lon="-6.12331">
        <ele>672.0</ele>
        <time>2012-06-14T08:02:48Z</time>
      </trkpt>
      <trkpt lat="43.256967" lon="-6.123219">
        <ele>672.0</ele>
        <time>2012-06-14T08:02:52Z</time>
      </trkpt>
      <trkpt lat="43.25683" lon="-6.123136">
        <ele>673.0</ele>
        <time>2012-06-14T08:02:56Z</time>
      </trkpt>
      <trkpt lat="43.256618" lon="-6.123051">
        <ele>674.0</ele>
        <time>2012-06-14T08:03:02Z</time>
      </trkpt>
      <trkpt lat="43.256386" lon="-6.123079">
        <ele>675.0</ele>
        <time>2012-06-14T08:03:08Z</time>
      </trkpt>
      <trkpt lat="43.256091" lon="-6.12327">
        <ele>674.0</ele>
        <time>2012-06-14T08:03:16Z</time>
      </trkpt>
      <trkpt lat="43.256004" lon="-6.123475">
        <ele>674.0</ele>
        <time>2012-06-14T08:03:20Z</time>
      </trkpt>
      <trkpt lat="43.255936" lon="-6.123681">
        <ele>675.0</ele>
        <time>2012-06-14T08:03:24Z</time>
      </trkpt>
      <trkpt lat="43.255888" lon="-6.123905">
        <ele>675.0</ele>
        <time>2012-06-14T08:03:28Z</time>
      </trkpt>
      <trkpt lat="43.255861" lon="-6.12401">
        <ele>676.0</ele>
        <time>2012-06-14T08:03:30Z</time>
      </trkpt>
      <trkpt lat="43.255762" lon="-6.124337">
        <ele>676.0</ele>
        <time>2012-06-14T08:03:36Z</time>
      </trkpt>
      <trkpt lat="43.255556" lon="-6.124384">
        <ele>678.0</ele>
        <time>2012-06-14T08:03:44Z</time>
      </trkpt>
      <trkpt lat="43.255427" lon="-6.1242">
        <ele>681.0</ele>
        <time>2012-06-14T08:03:48Z</time>
      </trkpt>
      <trkpt lat="43.255358" lon="-6.124126">
        <ele>681.0</ele>
        <time>2012-06-14T08:03:50Z</time>
      </trkpt>
      <trkpt lat="43.2551" lon="-6.124023">
        <ele>682.0</ele>
        <time>2012-06-14T08:03:56Z</time>
      </trkpt>
      <trkpt lat="43.254965" lon="-6.124044">
        <ele>683.0</ele>
        <time>2012-06-14T08:04:00Z</time>
      </trkpt>
      <trkpt lat="43.254847" lon="-6.124147">
        <ele>684.0</ele>
        <time>2012-06-14T08:04:04Z</time>
      </trkpt>
      <trkpt lat="43.25474" lon="-6.124277">
        <ele>684.0</ele>
        <time>2012-06-14T08:04:08Z</time>
      </trkpt>
      <trkpt lat="43.254635" lon="-6.124424">
        <ele>685.0</ele>
        <time>2012-06-14T08:04:12Z</time>
      </trkpt>
      <trkpt lat="43.254529" lon="-6.124583">
        <ele>685.0</ele>
        <time>2012-06-14T08:04:16Z</time>
      </trkpt>
      <trkpt lat="43.254437" lon="-6.124766">
        <ele>685.0</ele>
        <time>2012-06-14T08:04:20Z</time>
      </trkpt>
      <trkpt lat="43.254338" lon="-6.124944">
        <ele>686.0</ele>
        <time>2012-06-14T08:04:24Z</time>
      </trkpt>
      <trkpt lat="43.254283" lon="-6.125027">
        <ele>686.0</ele>
        <time>2012-06-14T08:04:26Z</time>
      </trkpt>
      <trkpt lat="43.25415" lon="-6.125329">
        <ele>686.0</ele>
        <time>2012-06-14T08:04:32Z</time>
      </trkpt>
      <trkpt lat="43.254098" lon="-6.125583">
        <ele>687.0</ele>
        <time>2012-06-14T08:04:36Z</time>
      </trkpt>
      <trkpt lat="43.254109" lon="-6.125694">
        <ele>687.0</ele>
        <time>2012-06-14T08:04:38Z</time>
      </trkpt>
      <trkpt lat="43.254124" lon="-6.12601">
        <ele>687.0</ele>
        <time>2012-06-14T08:04:44Z</time>
      </trkpt>
      <trkpt lat="43.254086" lon="-6.1261">
        <ele>687.0</ele>
        <time>2012-06-14T08:04:46Z</time>
      </trkpt>
      <trkpt lat="43.25396" lon="-6.126336">
        <ele>687.0</ele>
        <time>2012-06-14T08:04:52Z</time>
      </trkpt>
      <trkpt lat="43.25385" lon="-6.126461">
        <ele>688.0</ele>
        <time>2012-06-14T08:04:56Z</time>
      </trkpt>
      <trkpt lat="43.253717" lon="-6.126568">
        <ele>687.0</ele>
        <time>2012-06-14T08:05:00Z</time>
      </trkpt>
      <trkpt lat="43.253595" lon="-6.1267">
        <ele>687.0</ele>
        <time>2012-06-14T08:05:04Z</time>
      </trkpt>
      <trkpt lat="43.253555" lon="-6.126794">
        <ele>687.0</ele>
        <time>2012-06-14T08:05:06Z</time>
      </trkpt>
      <trkpt lat="43.253477" lon="-6.127119">
        <ele>687.0</ele>
        <time>2012-06-14T08:05:12Z</time>
      </trkpt>
      <trkpt lat="43.253493" lon="-6.127319">
        <ele>687.0</ele>
        <time>2012-06-14T08:05:16Z</time>
      </trkpt>
      <trkpt lat="43.253504" lon="-6.127497">
        <ele>687.0</ele>
        <time>2012-06-14T08:05:20Z</time>
      </trkpt>
      <trkpt lat="43.253503" lon="-6.127586">
        <ele>687.0</ele>
        <time>2012-06-14T08:05:22Z</time>
      </trkpt>
      <trkpt lat="43.253336" lon="-6.127952">
        <ele>688.0</ele>
        <time>2012-06-14T08:05:33Z</time>
      </trkpt>
      <trkpt lat="43.253277" lon="-6.127991">
        <ele>688.0</ele>
        <time>2012-06-14T08:05:35Z</time>
      </trkpt>
      <trkpt lat="43.253089" lon="-6.128099">
        <ele>690.0</ele>
        <time>2012-06-14T08:05:41Z</time>
      </trkpt>
      <trkpt lat="43.252966" lon="-6.128192">
        <ele>691.0</ele>
        <time>2012-06-14T08:05:45Z</time>
      </trkpt>
      <trkpt lat="43.252907" lon="-6.128251">
        <ele>692.0</ele>
        <time>2012-06-14T08:05:47Z</time>
      </trkpt>
      <trkpt lat="43.252724" lon="-6.128409">
        <ele>694.0</ele>
        <time>2012-06-14T08:05:53Z</time>
      </trkpt>
      <trkpt lat="43.252612" lon="-6.128512">
        <ele>694.0</ele>
        <time>2012-06-14T08:05:57Z</time>
      </trkpt>
      <trkpt lat="43.252557" lon="-6.128559">
        <ele>694.0</ele>
        <time>2012-06-14T08:05:59Z</time>
      </trkpt>
      <trkpt lat="43.252427" lon="-6.12868">
        <ele>694.0</ele>
        <time>2012-06-14T08:06:04Z</time>
      </trkpt>
      <trkpt lat="43.252327" lon="-6.128788">
        <ele>695.0</ele>
        <time>2012-06-14T08:06:08Z</time>
      </trkpt>
      <trkpt lat="43.252256" lon="-6.128869">
        <ele>695.0</ele>
        <time>2012-06-14T08:06:11Z</time>
      </trkpt>
      <trkpt lat="43.252125" lon="-6.129012">
        <ele>695.0</ele>
        <time>2012-06-14T08:06:17Z</time>
      </trkpt>
      <trkpt lat="43.252062" lon="-6.129088">
        <ele>696.0</ele>
        <time>2012-06-14T08:06:20Z</time>
      </trkpt>
      <trkpt lat="43.252001" lon="-6.129163">
        <ele>696.0</ele>
        <time>2012-06-14T08:06:23Z</time>
      </trkpt>
      <trkpt lat="43.25187" lon="-6.129291">
        <ele>696.0</ele>
        <time>2012-06-14T08:06:29Z</time>
      </trkpt>
      <trkpt lat="43.251813" lon="-6.129353">
        <ele>697.0</ele>
        <time>2012-06-14T08:06:32Z</time>
      </trkpt>
      <trkpt lat="43.25176" lon="-6.129418">
        <ele>697.0</ele>
        <time>2012-06-14T08:06:35Z</time>
      </trkpt>
      <trkpt lat="43.251568" lon="-6.129606">
        <ele>698.0</ele>
        <time>2012-06-14T08:06:44Z</time>
      </trkpt>
      <trkpt lat="43.251494" lon="-6.129662">
        <ele>698.0</ele>
        <time>2012-06-14T08:06:47Z</time>
      </trkpt>
      <trkpt lat="43.251339" lon="-6.129799">
        <ele>699.0</ele>
        <time>2012-06-14T08:06:53Z</time>
      </trkpt>
      <trkpt lat="43.251266" lon="-6.129881">
        <ele>699.0</ele>
        <time>2012-06-14T08:06:56Z</time>
      </trkpt>
      <trkpt lat="43.251169" lon="-6.130005">
        <ele>700.0</ele>
        <time>2012-06-14T08:07:00Z</time>
      </trkpt>
      <trkpt lat="43.251067" lon="-6.130132">
        <ele>700.0</ele>
        <time>2012-06-14T08:07:04Z</time>
      </trkpt>
      <trkpt lat="43.250961" lon="-6.130269">
        <ele>701.0</ele>
        <time>2012-06-14T08:07:08Z</time>
      </trkpt>
      <trkpt lat="43.250845" lon="-6.13043">
        <ele>705.0</ele>
        <time>2012-06-14T08:07:12Z</time>
      </trkpt>
      <trkpt lat="43.25074" lon="-6.130616">
        <ele>708.0</ele>
        <time>2012-06-14T08:07:16Z</time>
      </trkpt>
      <trkpt lat="43.25054" lon="-6.130948">
        <ele>710.0</ele>
        <time>2012-06-14T08:07:24Z</time>
      </trkpt>
      <trkpt lat="43.250474" lon="-6.131025">
        <ele>710.0</ele>
        <time>2012-06-14T08:07:27Z</time>
      </trkpt>
      <trkpt lat="43.250358" lon="-6.131174">
        <ele>711.0</ele>
        <time>2012-06-14T08:07:33Z</time>
      </trkpt>
      <trkpt lat="43.250311" lon="-6.131243">
        <ele>711.0</ele>
        <time>2012-06-14T08:07:36Z</time>
      </trkpt>
      <trkpt lat="43.250264" lon="-6.131314">
        <ele>711.0</ele>
        <time>2012-06-14T08:07:39Z</time>
      </trkpt>
      <trkpt lat="43.250177" lon="-6.131459">
        <ele>711.0</ele>
        <time>2012-06-14T08:07:45Z</time>
      </trkpt>
      <trkpt lat="43.250139" lon="-6.131538">
        <ele>712.0</ele>
        <time>2012-06-14T08:07:48Z</time>
      </trkpt>
      <trkpt lat="43.250103" lon="-6.131615">
        <ele>712.0</ele>
        <time>2012-06-14T08:07:51Z</time>
      </trkpt>
      <trkpt lat="43.25005" lon="-6.131701">
        <ele>713.0</ele>
        <time>2012-06-14T08:07:55Z</time>
      </trkpt>
      <trkpt lat="43.24999" lon="-6.131747">
        <ele>713.0</ele>
        <time>2012-06-14T08:07:59Z</time>
      </trkpt>
      <trkpt lat="43.249911" lon="-6.131783">
        <ele>714.0</ele>
        <time>2012-06-14T08:08:03Z</time>
      </trkpt>
      <trkpt lat="43.249786" lon="-6.13186">
        <ele>715.0</ele>
        <time>2012-06-14T08:08:09Z</time>
      </trkpt>
      <trkpt lat="43.249723" lon="-6.131899">
        <ele>715.0</ele>
        <time>2012-06-14T08:08:12Z</time>
      </trkpt>
      <trkpt lat="43.249658" lon="-6.131938">
        <ele>716.0</ele>
        <time>2012-06-14T08:08:15Z</time>
      </trkpt>
      <trkpt lat="43.249531" lon="-6.132034">
        <ele>716.0</ele>
        <time>2012-06-14T08:08:21Z</time>
      </trkpt>
      <trkpt lat="43.249463" lon="-6.132139">
        <ele>717.0</ele>
        <time>2012-06-14T08:08:25Z</time>
      </trkpt>
      <trkpt lat="43.249396" lon="-6.132205">
        <ele>717.0</ele>
        <time>2012-06-14T08:08:29Z</time>
      </trkpt>
      <trkpt lat="43.249166" lon="-6.132244">
        <ele>719.0</ele>
        <time>2012-06-14T08:08:40Z</time>
      </trkpt>
      <trkpt lat="43.249095" lon="-6.132249">
        <ele>719.0</ele>
        <time>2012-06-14T08:08:43Z</time>
      </trkpt>
      <trkpt lat="43.248957" lon="-6.132269">
        <ele>720.0</ele>
        <time>2012-06-14T08:08:49Z</time>
      </trkpt>
      <trkpt lat="43.248821" lon="-6.13229">
        <ele>720.0</ele>
        <time>2012-06-14T08:08:55Z</time>
      </trkpt>
      <trkpt lat="43.248642" lon="-6.132426">
        <ele>721.0</ele>
        <time>2012-06-14T08:09:04Z</time>
      </trkpt>
      <trkpt lat="43.248591" lon="-6.132496">
        <ele>721.0</ele>
        <time>2012-06-14T08:09:07Z</time>
      </trkpt>
      <trkpt lat="43.248497" lon="-6.132655">
        <ele>722.0</ele>
        <time>2012-06-14T08:09:12Z</time>
      </trkpt>
      <trkpt lat="43.248411" lon="-6.13283">
        <ele>723.0</ele>
        <time>2012-06-14T08:09:17Z</time>
      </trkpt>
      <trkpt lat="43.248347" lon="-6.132871">
        <ele>724.0</ele>
        <time>2012-06-14T08:09:20Z</time>
      </trkpt>
      <trkpt lat="43.24829" lon="-6.132923">
        <ele>724.0</ele>
        <time>2012-06-14T08:09:23Z</time>
      </trkpt>
      <trkpt lat="43.248232" lon="-6.132959">
        <ele>725.0</ele>
        <time>2012-06-14T08:09:26Z</time>
      </trkpt>
      <trkpt lat="43.248165" lon="-6.133002">
        <ele>725.0</ele>
        <time>2012-06-14T08:09:30Z</time>
      </trkpt>
      <trkpt lat="43.24795" lon="-6.13303">
        <ele>727.0</ele>
        <time>2012-06-14T08:09:41Z</time>
      </trkpt>
      <trkpt lat="43.247882" lon="-6.133031">
        <ele>727.0</ele>
        <time>2012-06-14T08:09:44Z</time>
      </trkpt>
      <trkpt lat="43.247813" lon="-6.133005">
        <ele>727.0</ele>
        <time>2012-06-14T08:09:47Z</time>
      </trkpt>
      <trkpt lat="43.247665" lon="-6.132966">
        <ele>728.0</ele>
        <time>2012-06-14T08:09:53Z</time>
      </trkpt>
      <trkpt lat="43.247505" lon="-6.132972">
        <ele>729.0</ele>
        <time>2012-06-14T08:09:59Z</time>
      </trkpt>
      <trkpt lat="43.247342" lon="-6.133004">
        <ele>730.0</ele>
        <time>2012-06-14T08:10:05Z</time>
      </trkpt>
      <trkpt lat="43.247257" lon="-6.133021">
        <ele>730.0</ele>
        <time>2012-06-14T08:10:08Z</time>
      </trkpt>
      <trkpt lat="43.247174" lon="-6.133041">
        <ele>731.0</ele>
        <time>2012-06-14T08:10:11Z</time>
      </trkpt>
      <trkpt lat="43.24701" lon="-6.133064">
        <ele>732.0</ele>
        <time>2012-06-14T08:10:17Z</time>
      </trkpt>
      <trkpt lat="43.246928" lon="-6.13308">
        <ele>732.0</ele>
        <time>2012-06-14T08:10:20Z</time>
      </trkpt>
      <trkpt lat="43.246849" lon="-6.133115">
        <ele>733.0</ele>
        <time>2012-06-14T08:10:23Z</time>
      </trkpt>
      <trkpt lat="43.246773" lon="-6.133153">
        <ele>734.0</ele>
        <time>2012-06-14T08:10:27Z</time>
      </trkpt>
      <trkpt lat="43.246633" lon="-6.133219">
        <ele>735.0</ele>
        <time>2012-06-14T08:10:33Z</time>
      </trkpt>
      <trkpt lat="43.246561" lon="-6.133232">
        <ele>735.0</ele>
        <time>2012-06-14T08:10:36Z</time>
      </trkpt>
      <trkpt lat="43.246487" lon="-6.133246">
        <ele>736.0</ele>
        <time>2012-06-14T08:10:39Z</time>
      </trkpt>
      <trkpt lat="43.246339" lon="-6.133281">
        <ele>737.0</ele>
        <time>2012-06-14T08:10:45Z</time>
      </trkpt>
      <trkpt lat="43.246268" lon="-6.133301">
        <ele>737.0</ele>
        <time>2012-06-14T08:10:48Z</time>
      </trkpt>
      <trkpt lat="43.246202" lon="-6.133332">
        <ele>737.0</ele>
        <time>2012-06-14T08:10:51Z</time>
      </trkpt>
      <trkpt lat="43.246146" lon="-6.133373">
        <ele>738.0</ele>
        <time>2012-06-14T08:10:54Z</time>
      </trkpt>
      <trkpt lat="43.246082" lon="-6.13341">
        <ele>739.0</ele>
        <time>2012-06-14T08:10:58Z</time>
      </trkpt>
      <trkpt lat="43.246018" lon="-6.133426">
        <ele>740.0</ele>
        <time>2012-06-14T08:11:03Z</time>
      </trkpt>
      <trkpt lat="43.245881" lon="-6.133441">
        <ele>743.0</ele>
        <time>2012-06-14T08:11:11Z</time>
      </trkpt>
      <trkpt lat="43.2458" lon="-6.133528">
        <ele>744.0</ele>
        <time>2012-06-14T08:11:15Z</time>
      </trkpt>
      <trkpt lat="43.245675" lon="-6.133613">
        <ele>745.0</ele>
        <time>2012-06-14T08:11:21Z</time>
      </trkpt>
      <trkpt lat="43.245536" lon="-6.133667">
        <ele>746.0</ele>
        <time>2012-06-14T08:11:27Z</time>
      </trkpt>
      <trkpt lat="43.245405" lon="-6.133707">
        <ele>747.0</ele>
        <time>2012-06-14T08:11:33Z</time>
      </trkpt>
      <trkpt lat="43.245346" lon="-6.133739">
        <ele>748.0</ele>
        <time>2012-06-14T08:11:36Z</time>
      </trkpt>
      <trkpt lat="43.245276" lon="-6.133787">
        <ele>750.0</ele>
        <time>2012-06-14T08:11:40Z</time>
      </trkpt>
      <trkpt lat="43.245212" lon="-6.133827">
        <ele>751.0</ele>
        <time>2012-06-14T08:11:44Z</time>
      </trkpt>
      <trkpt lat="43.245141" lon="-6.133851">
        <ele>752.0</ele>
        <time>2012-06-14T08:11:48Z</time>
      </trkpt>
      <trkpt lat="43.24507" lon="-6.133887">
        <ele>753.0</ele>
        <time>2012-06-14T08:11:52Z</time>
      </trkpt>
      <trkpt lat="43.244996" lon="-6.133906">
        <ele>755.0</ele>
        <time>2012-06-14T08:11:56Z</time>
      </trkpt>
      <trkpt lat="43.244931" lon="-6.133915">
        <ele>756.0</ele>
        <time>2012-06-14T08:11:59Z</time>
      </trkpt>
      <trkpt lat="43.244799" lon="-6.133921">
        <ele>758.0</ele>
        <time>2012-06-14T08:12:05Z</time>
      </trkpt>
      <trkpt lat="43.244733" lon="-6.133917">
        <ele>759.0</ele>
        <time>2012-06-14T08:12:08Z</time>
      </trkpt>
      <trkpt lat="43.244658" lon="-6.133961">
        <ele>761.0</ele>
        <time>2012-06-14T08:12:12Z</time>
      </trkpt>
      <trkpt lat="43.244585" lon="-6.133987">
        <ele>762.0</ele>
        <time>2012-06-14T08:12:16Z</time>
      </trkpt>
      <trkpt lat="43.244454" lon="-6.134198">
        <ele>767.0</ele>
        <time>2012-06-14T08:12:25Z</time>
      </trkpt>
      <trkpt lat="43.244406" lon="-6.134262">
        <ele>768.0</ele>
        <time>2012-06-14T08:12:28Z</time>
      </trkpt>
      <trkpt lat="43.244356" lon="-6.134315">
        <ele>770.0</ele>
        <time>2012-06-14T08:12:31Z</time>
      </trkpt>
      <trkpt lat="43.24425" lon="-6.134423">
        <ele>773.0</ele>
        <time>2012-06-14T08:12:37Z</time>
      </trkpt>
      <trkpt lat="43.244202" lon="-6.134491">
        <ele>775.0</ele>
        <time>2012-06-14T08:12:40Z</time>
      </trkpt>
      <trkpt lat="43.24416" lon="-6.134571">
        <ele>776.0</ele>
        <time>2012-06-14T08:12:43Z</time>
      </trkpt>
      <trkpt lat="43.244119" lon="-6.134641">
        <ele>778.0</ele>
        <time>2012-06-14T08:12:46Z</time>
      </trkpt>
      <trkpt lat="43.244022" lon="-6.134807">
        <ele>782.0</ele>
        <time>2012-06-14T08:12:53Z</time>
      </trkpt>
      <trkpt lat="43.243983" lon="-6.134885">
        <ele>784.0</ele>
        <time>2012-06-14T08:12:56Z</time>
      </trkpt>
      <trkpt lat="43.243948" lon="-6.134977">
        <ele>785.0</ele>
        <time>2012-06-14T08:12:59Z</time>
      </trkpt>
      <trkpt lat="43.243857" lon="-6.135131">
        <ele>788.0</ele>
        <time>2012-06-14T08:13:05Z</time>
      </trkpt>
      <trkpt lat="43.243802" lon="-6.135185">
        <ele>790.0</ele>
        <time>2012-06-14T08:13:08Z</time>
      </trkpt>
      <trkpt lat="43.24374" lon="-6.135228">
        <ele>791.0</ele>
        <time>2012-06-14T08:13:11Z</time>
      </trkpt>
      <trkpt lat="43.243605" lon="-6.13531">
        <ele>793.0</ele>
        <time>2012-06-14T08:13:17Z</time>
      </trkpt>
      <trkpt lat="43.243534" lon="-6.135345">
        <ele>794.0</ele>
        <time>2012-06-14T08:13:20Z</time>
      </trkpt>
      <trkpt lat="43.243458" lon="-6.135364">
        <ele>794.0</ele>
        <time>2012-06-14T08:13:23Z</time>
      </trkpt>
      <trkpt lat="43.243302" lon="-6.135401">
        <ele>795.0</ele>
        <time>2012-06-14T08:13:29Z</time>
      </trkpt>
      <trkpt lat="43.243222" lon="-6.135407">
        <ele>795.0</ele>
        <time>2012-06-14T08:13:32Z</time>
      </trkpt>
      <trkpt lat="43.243003" lon="-6.135418">
        <ele>796.0</ele>
        <time>2012-06-14T08:13:41Z</time>
      </trkpt>
      <trkpt lat="43.242938" lon="-6.135442">
        <ele>797.0</ele>
        <time>2012-06-14T08:13:44Z</time>
      </trkpt>
      <trkpt lat="43.24286" lon="-6.135476">
        <ele>798.0</ele>
        <time>2012-06-14T08:13:48Z</time>
      </trkpt>
      <trkpt lat="43.242789" lon="-6.135523">
        <ele>799.0</ele>
        <time>2012-06-14T08:13:52Z</time>
      </trkpt>
      <trkpt lat="43.242723" lon="-6.135583">
        <ele>801.0</ele>
        <time>2012-06-14T08:13:56Z</time>
      </trkpt>
      <trkpt lat="43.242661" lon="-6.135639">
        <ele>803.0</ele>
        <time>2012-06-14T08:14:00Z</time>
      </trkpt>
      <trkpt lat="43.242601" lon="-6.135698">
        <ele>805.0</ele>
        <time>2012-06-14T08:14:04Z</time>
      </trkpt>
      <trkpt lat="43.242541" lon="-6.135745">
        <ele>807.0</ele>
        <time>2012-06-14T08:14:08Z</time>
      </trkpt>
      <trkpt lat="43.242479" lon="-6.135776">
        <ele>809.0</ele>
        <time>2012-06-14T08:14:12Z</time>
      </trkpt>
      <trkpt lat="43.242416" lon="-6.135808">
        <ele>810.0</ele>
        <time>2012-06-14T08:14:16Z</time>
      </trkpt>
      <trkpt lat="43.242356" lon="-6.135844">
        <ele>812.0</ele>
        <time>2012-06-14T08:14:20Z</time>
      </trkpt>
      <trkpt lat="43.242301" lon="-6.135905">
        <ele>814.0</ele>
        <time>2012-06-14T08:14:24Z</time>
      </trkpt>
      <trkpt lat="43.242251" lon="-6.136082">
        <ele>816.0</ele>
        <time>2012-06-14T08:14:30Z</time>
      </trkpt>
      <trkpt lat="43.242218" lon="-6.136169">
        <ele>818.0</ele>
        <time>2012-06-14T08:14:34Z</time>
      </trkpt>
      <trkpt lat="43.242096" lon="-6.136301">
        <ele>822.0</ele>
        <time>2012-06-14T08:14:44Z</time>
      </trkpt>
      <trkpt lat="43.242028" lon="-6.136334">
        <ele>824.0</ele>
        <time>2012-06-14T08:14:49Z</time>
      </trkpt>
      <trkpt lat="43.242028" lon="-6.136334">
        <time>2012-06-14T08:15:00Z</time>
      </trkpt>
    </trkseg>
    <trkseg>
      <trkpt lat="43.242028" lon="-6.136334">
        <time>2012-06-14T08:15:23Z</time>
      </trkpt>
      <trkpt lat="43.242132" lon="-6.136352">
        <ele>818.0</ele>
        <time>2012-06-14T08:15:32Z</time>
      </trkpt>
      <trkpt lat="43.242098" lon="-6.136437">
        <ele>816.0</ele>
        <time>2012-06-14T08:15:37Z</time>
      </trkpt>
      <trkpt lat="43.242065" lon="-6.136517">
        <ele>814.0</ele>
        <time>2012-06-14T08:15:41Z</time>
      </trkpt>
      <trkpt lat="43.242024" lon="-6.136592">
        <ele>813.0</ele>
        <time>2012-06-14T08:15:45Z</time>
      </trkpt>
      <trkpt lat="43.241981" lon="-6.136672">
        <ele>811.0</ele>
        <time>2012-06-14T08:15:49Z</time>
      </trkpt>
      <trkpt lat="43.241942" lon="-6.136754">
        <ele>810.0</ele>
        <time>2012-06-14T08:15:53Z</time>
      </trkpt>
      <trkpt lat="43.241899" lon="-6.136825">
        <ele>809.0</ele>
        <time>2012-06-14T08:15:57Z</time>
      </trkpt>
      <trkpt lat="43.241863" lon="-6.136899">
        <ele>809.0</ele>
        <time>2012-06-14T08:16:01Z</time>
      </trkpt>
      <trkpt lat="43.241834" lon="-6.136991">
        <ele>809.0</ele>
        <time>2012-06-14T08:16:05Z</time>
      </trkpt>
      <trkpt lat="43.241802" lon="-6.137087">
        <ele>809.0</ele>
        <time>2012-06-14T08:16:09Z</time>
      </trkpt>
      <trkpt lat="43.241755" lon="-6.137173">
        <ele>809.0</ele>
        <time>2012-06-14T08:16:13Z</time>
      </trkpt>
      <trkpt lat="43.241652" lon="-6.137319">
        <ele>810.0</ele>
        <time>2012-06-14T08:16:20Z</time>
      </trkpt>
      <trkpt lat="43.241608" lon="-6.137386">
        <ele>810.0</ele>
        <time>2012-06-14T08:16:23Z</time>
      </trkpt>
      <trkpt lat="43.24156" lon="-6.137451">
        <ele>810.0</ele>
        <time>2012-06-14T08:16:26Z</time>
      </trkpt>
      <trkpt lat="43.241451" lon="-6.137564">
        <ele>810.0</ele>
        <time>2012-06-14T08:16:32Z</time>
      </trkpt>
      <trkpt lat="43.241389" lon="-6.137609">
        <ele>810.0</ele>
        <time>2012-06-14T08:16:35Z</time>
      </trkpt>
      <trkpt lat="43.241325" lon="-6.137652">
        <ele>810.0</ele>
        <time>2012-06-14T08:16:38Z</time>
      </trkpt>
      <trkpt lat="43.241258" lon="-6.137692">
        <ele>810.0</ele>
        <time>2012-06-14T08:16:41Z</time>
      </trkpt>
      <trkpt lat="43.241048" lon="-6.137828">
        <ele>811.0</ele>
        <time>2012-06-14T08:16:50Z</time>
      </trkpt>
      <trkpt lat="43.240894" lon="-6.137915">
        <ele>811.0</ele>
        <time>2012-06-14T08:16:56Z</time>
      </trkpt>
      <trkpt lat="43.240814" lon="-6.137958">
        <ele>811.0</ele>
        <time>2012-06-14T08:16:59Z</time>
      </trkpt>
      <trkpt lat="43.240733" lon="-6.137998">
        <ele>811.0</ele>
        <time>2012-06-14T08:17:02Z</time>
      </trkpt>
      <trkpt lat="43.24057" lon="-6.138071">
        <ele>811.0</ele>
        <time>2012-06-14T08:17:08Z</time>
      </trkpt>
      <trkpt lat="43.240488" lon="-6.138109">
        <ele>811.0</ele>
        <time>2012-06-14T08:17:11Z</time>
      </trkpt>
      <trkpt lat="43.240404" lon="-6.138141">
        <ele>811.0</ele>
        <time>2012-06-14T08:17:14Z</time>
      </trkpt>
      <trkpt lat="43.240238" lon="-6.138193">
        <ele>812.0</ele>
        <time>2012-06-14T08:17:20Z</time>
      </trkpt>
      <trkpt lat="43.240157" lon="-6.138222">
        <ele>812.0</ele>
        <time>2012-06-14T08:17:23Z</time>
      </trkpt>
      <trkpt lat="43.24008" lon="-6.138263">
        <ele>812.0</ele>
        <time>2012-06-14T08:17:26Z</time>
      </trkpt>
      <trkpt lat="43.239929" lon="-6.138348">
        <ele>812.0</ele>
        <time>2012-06-14T08:17:32Z</time>
      </trkpt>
      <trkpt lat="43.239854" lon="-6.138394">
        <ele>812.0</ele>
        <time>2012-06-14T08:17:35Z</time>
      </trkpt>
      <trkpt lat="43.239778" lon="-6.138445">
        <ele>812.0</ele>
        <time>2012-06-14T08:17:38Z</time>
      </trkpt>
      <trkpt lat="43.239624" lon="-6.13855">
        <ele>813.0</ele>
        <time>2012-06-14T08:17:44Z</time>
      </trkpt>
      <trkpt lat="43.239546" lon="-6.138601">
        <ele>813.0</ele>
        <time>2012-06-14T08:17:47Z</time>
      </trkpt>
      <trkpt lat="43.239468" lon="-6.138648">
        <ele>813.0</ele>
        <time>2012-06-14T08:17:50Z</time>
      </trkpt>
      <trkpt lat="43.239225" lon="-6.138774">
        <ele>813.0</ele>
        <time>2012-06-14T08:17:59Z</time>
      </trkpt>
      <trkpt lat="43.239144" lon="-6.138815">
        <ele>813.0</ele>
        <time>2012-06-14T08:18:02Z</time>
      </trkpt>
      <trkpt lat="43.238987" lon="-6.138896">
        <ele>814.0</ele>
        <time>2012-06-14T08:18:08Z</time>
      </trkpt>
      <trkpt lat="43.238912" lon="-6.138932">
        <ele>814.0</ele>
        <time>2012-06-14T08:18:11Z</time>
      </trkpt>
      <trkpt lat="43.238837" lon="-6.138958">
        <ele>814.0</ele>
        <time>2012-06-14T08:18:14Z</time>
      </trkpt>
      <trkpt lat="43.23869" lon="-6.139">
        <ele>815.0</ele>
        <time>2012-06-14T08:18:20Z</time>
      </trkpt>
      <trkpt lat="43.238615" lon="-6.139008">
        <ele>815.0</ele>
        <time>2012-06-14T08:18:23Z</time>
      </trkpt>
      <trkpt lat="43.238391" lon="-6.13902">
        <ele>815.0</ele>
        <time>2012-06-14T08:18:32Z</time>
      </trkpt>
      <trkpt lat="43.238293" lon="-6.139015">
        <ele>816.0</ele>
        <time>2012-06-14T08:18:35Z</time>
      </trkpt>
      <trkpt lat="43.238218" lon="-6.139009">
        <ele>816.0</ele>
        <time>2012-06-14T08:18:38Z</time>
      </trkpt>
      <trkpt lat="43.238141" lon="-6.138997">
        <ele>816.0</ele>
        <time>2012-06-14T08:18:41Z</time>
      </trkpt>
      <trkpt lat="43.237907" lon="-6.138953">
        <ele>816.0</ele>
        <time>2012-06-14T08:18:50Z</time>
      </trkpt>
      <trkpt lat="43.237749" lon="-6.138906">
        <ele>817.0</ele>
        <time>2012-06-14T08:18:56Z</time>
      </trkpt>
      <trkpt lat="43.237673" lon="-6.13888">
        <ele>817.0</ele>
        <time>2012-06-14T08:18:59Z</time>
      </trkpt>
      <trkpt lat="43.237595" lon="-6.138864">
        <ele>817.0</ele>
        <time>2012-06-14T08:19:02Z</time>
      </trkpt>
      <trkpt lat="43.23752" lon="-6.138847">
        <ele>818.0</ele>
        <time>2012-06-14T08:19:05Z</time>
      </trkpt>
      <trkpt lat="43.237301" lon="-6.138772">
        <ele>818.0</ele>
        <time>2012-06-14T08:19:14Z</time>
      </trkpt>
      <trkpt lat="43.237225" lon="-6.138744">
        <ele>819.0</ele>
        <time>2012-06-14T08:19:17Z</time>
      </trkpt>
      <trkpt lat="43.237072" lon="-6.138686">
        <ele>819.0</ele>
        <time>2012-06-14T08:19:23Z</time>
      </trkpt>
      <trkpt lat="43.236991" lon="-6.138655">
        <ele>819.0</ele>
        <time>2012-06-14T08:19:26Z</time>
      </trkpt>
      <trkpt lat="43.236904" lon="-6.138633">
        <ele>820.0</ele>
        <time>2012-06-14T08:19:29Z</time>
      </trkpt>
      <trkpt lat="43.236682" lon="-6.138636">
        <ele>820.0</ele>
        <time>2012-06-14T08:19:36Z</time>
      </trkpt>
      <trkpt lat="43.236546" lon="-6.138669">
        <ele>821.0</ele>
        <time>2012-06-14T08:19:40Z</time>
      </trkpt>
      <trkpt lat="43.236409" lon="-6.13871">
        <ele>821.0</ele>
        <time>2012-06-14T08:19:44Z</time>
      </trkpt>
      <trkpt lat="43.23634" lon="-6.138726">
        <ele>822.0</ele>
        <time>2012-06-14T08:19:46Z</time>
      </trkpt>
      <trkpt lat="43.236137" lon="-6.138765">
        <ele>822.0</ele>
        <time>2012-06-14T08:19:52Z</time>
      </trkpt>
      <trkpt lat="43.235876" lon="-6.138746">
        <ele>823.0</ele>
        <time>2012-06-14T08:20:00Z</time>
      </trkpt>
      <trkpt lat="43.235748" lon="-6.138717">
        <ele>823.0</ele>
        <time>2012-06-14T08:20:04Z</time>
      </trkpt>
      <trkpt lat="43.235685" lon="-6.138699">
        <ele>824.0</ele>
        <time>2012-06-14T08:20:06Z</time>
      </trkpt>
      <trkpt lat="43.235528" lon="-6.138623">
        <ele>824.0</ele>
        <time>2012-06-14T08:20:12Z</time>
      </trkpt>
      <trkpt lat="43.235452" lon="-6.138603">
        <ele>825.0</ele>
        <time>2012-06-14T08:20:15Z</time>
      </trkpt>
      <trkpt lat="43.235378" lon="-6.13861">
        <ele>825.0</ele>
        <time>2012-06-14T08:20:18Z</time>
      </trkpt>
      <trkpt lat="43.235303" lon="-6.138624">
        <ele>826.0</ele>
        <time>2012-06-14T08:20:21Z</time>
      </trkpt>
      <trkpt lat="43.235075" lon="-6.138679">
        <ele>827.0</ele>
        <time>2012-06-14T08:20:30Z</time>
      </trkpt>
      <trkpt lat="43.234919" lon="-6.138734">
        <ele>827.0</ele>
        <time>2012-06-14T08:20:36Z</time>
      </trkpt>
      <trkpt lat="43.234839" lon="-6.138758">
        <ele>827.0</ele>
        <time>2012-06-14T08:20:39Z</time>
      </trkpt>
      <trkpt lat="43.234757" lon="-6.138775">
        <ele>828.0</ele>
        <time>2012-06-14T08:20:42Z</time>
      </trkpt>
      <trkpt lat="43.234588" lon="-6.138786">
        <ele>828.0</ele>
        <time>2012-06-14T08:20:48Z</time>
      </trkpt>
      <trkpt lat="43.234503" lon="-6.138789">
        <ele>828.0</ele>
        <time>2012-06-14T08:20:51Z</time>
      </trkpt>
      <trkpt lat="43.234416" lon="-6.138804">
        <ele>829.0</ele>
        <time>2012-06-14T08:20:54Z</time>
      </trkpt>
      <trkpt lat="43.234239" lon="-6.138824">
        <ele>829.0</ele>
        <time>2012-06-14T08:21:00Z</time>
      </trkpt>
      <trkpt lat="43.234147" lon="-6.138845">
        <ele>829.0</ele>
        <time>2012-06-14T08:21:03Z</time>
      </trkpt>
      <trkpt lat="43.23402" lon="-6.138892">
        <ele>830.0</ele>
        <time>2012-06-14T08:21:07Z</time>
      </trkpt>
      <trkpt lat="43.233741" lon="-6.138995">
        <ele>830.0</ele>
        <time>2012-06-14T08:21:15Z</time>
      </trkpt>
      <trkpt lat="43.233592" lon="-6.139055">
        <ele>830.0</ele>
        <time>2012-06-14T08:21:19Z</time>
      </trkpt>
      <trkpt lat="43.233442" lon="-6.1391">
        <ele>831.0</ele>
        <time>2012-06-14T08:21:23Z</time>
      </trkpt>
      <trkpt lat="43.233298" lon="-6.139136">
        <ele>831.0</ele>
        <time>2012-06-14T08:21:27Z</time>
      </trkpt>
      <trkpt lat="43.233165" lon="-6.139176">
        <ele>831.0</ele>
        <time>2012-06-14T08:21:31Z</time>
      </trkpt>
      <trkpt lat="43.233033" lon="-6.139203">
        <ele>832.0</ele>
        <time>2012-06-14T08:21:35Z</time>
      </trkpt>
      <trkpt lat="43.232878" lon="-6.139221">
        <ele>832.0</ele>
        <time>2012-06-14T08:21:40Z</time>
      </trkpt>
      <trkpt lat="43.23279" lon="-6.139235">
        <ele>832.0</ele>
        <time>2012-06-14T08:21:43Z</time>
      </trkpt>
      <trkpt lat="43.232523" lon="-6.139212">
        <ele>833.0</ele>
        <time>2012-06-14T08:21:52Z</time>
      </trkpt>
      <trkpt lat="43.232431" lon="-6.139183">
        <ele>833.0</ele>
        <time>2012-06-14T08:21:55Z</time>
      </trkpt>
      <trkpt lat="43.232342" lon="-6.139145">
        <ele>834.0</ele>
        <time>2012-06-14T08:21:58Z</time>
      </trkpt>
      <trkpt lat="43.232169" lon="-6.139087">
        <ele>834.0</ele>
        <time>2012-06-14T08:22:04Z</time>
      </trkpt>
      <trkpt lat="43.23209" lon="-6.13904">
        <ele>835.0</ele>
        <time>2012-06-14T08:22:07Z</time>
      </trkpt>
      <trkpt lat="43.23201" lon="-6.138986">
        <ele>835.0</ele>
        <time>2012-06-14T08:22:10Z</time>
      </trkpt>
      <trkpt lat="43.231861" lon="-6.138849">
        <ele>836.0</ele>
        <time>2012-06-14T08:22:16Z</time>
      </trkpt>
      <trkpt lat="43.231783" lon="-6.138782">
        <ele>836.0</ele>
        <time>2012-06-14T08:22:19Z</time>
      </trkpt>
      <trkpt lat="43.231704" lon="-6.138717">
        <ele>836.0</ele>
        <time>2012-06-14T08:22:22Z</time>
      </trkpt>
      <trkpt lat="43.231541" lon="-6.1386">
        <ele>837.0</ele>
        <time>2012-06-14T08:22:28Z</time>
      </trkpt>
      <trkpt lat="43.231464" lon="-6.138531">
        <ele>837.0</ele>
        <time>2012-06-14T08:22:31Z</time>
      </trkpt>
      <trkpt lat="43.231342" lon="-6.138397">
        <ele>838.0</ele>
        <time>2012-06-14T08:22:36Z</time>
      </trkpt>
      <trkpt lat="43.231292" lon="-6.138344">
        <ele>839.0</ele>
        <time>2012-06-14T08:22:38Z</time>
      </trkpt>
      <trkpt lat="43.231138" lon="-6.138196">
        <ele>839.0</ele>
        <time>2012-06-14T08:22:44Z</time>
      </trkpt>
      <trkpt lat="43.231039" lon="-6.138075">
        <ele>840.0</ele>
        <time>2012-06-14T08:22:48Z</time>
      </trkpt>
      <trkpt lat="43.230946" lon="-6.13793">
        <ele>841.0</ele>
        <time>2012-06-14T08:22:52Z</time>
      </trkpt>
      <trkpt lat="43.230845" lon="-6.137803">
        <ele>842.0</ele>
        <time>2012-06-14T08:22:56Z</time>
      </trkpt>
      <trkpt lat="43.230726" lon="-6.137703">
        <ele>842.0</ele>
        <time>2012-06-14T08:23:00Z</time>
      </trkpt>
      <trkpt lat="43.230597" lon="-6.137625">
        <ele>843.0</ele>
        <time>2012-06-14T08:23:04Z</time>
      </trkpt>
      <trkpt lat="43.230467" lon="-6.137544">
        <ele>844.0</ele>
        <time>2012-06-14T08:23:08Z</time>
      </trkpt>
      <trkpt lat="43.230346" lon="-6.13745">
        <ele>845.0</ele>
        <time>2012-06-14T08:23:12Z</time>
      </trkpt>
      <trkpt lat="43.230225" lon="-6.137349">
        <ele>850.0</ele>
        <time>2012-06-14T08:23:16Z</time>
      </trkpt>
      <trkpt lat="43.230105" lon="-6.137214">
        <ele>853.0</ele>
        <time>2012-06-14T08:23:20Z</time>
      </trkpt>
      <trkpt lat="43.229988" lon="-6.137048">
        <ele>854.0</ele>
        <time>2012-06-14T08:23:24Z</time>
      </trkpt>
      <trkpt lat="43.229865" lon="-6.136873">
        <ele>855.0</ele>
        <time>2012-06-14T08:23:28Z</time>
      </trkpt>
      <trkpt lat="43.229736" lon="-6.136679">
        <ele>855.0</ele>
        <time>2012-06-14T08:23:32Z</time>
      </trkpt>
      <trkpt lat="43.229604" lon="-6.136489">
        <ele>856.0</ele>
        <time>2012-06-14T08:23:36Z</time>
      </trkpt>
      <trkpt lat="43.22948" lon="-6.136295">
        <ele>856.0</ele>
        <time>2012-06-14T08:23:40Z</time>
      </trkpt>
      <trkpt lat="43.2294" lon="-6.136073">
        <ele>858.0</ele>
        <time>2012-06-14T08:23:44Z</time>
      </trkpt>
      <trkpt lat="43.229294" lon="-6.135889">
        <ele>859.0</ele>
        <time>2012-06-14T08:23:48Z</time>
      </trkpt>
      <trkpt lat="43.229166" lon="-6.135786">
        <ele>860.0</ele>
        <time>2012-06-14T08:23:52Z</time>
      </trkpt>
      <trkpt lat="43.229021" lon="-6.135735">
        <ele>861.0</ele>
        <time>2012-06-14T08:23:56Z</time>
      </trkpt>
      <trkpt lat="43.228857" lon="-6.135695">
        <ele>861.0</ele>
        <time>2012-06-14T08:24:00Z</time>
      </trkpt>
      <trkpt lat="43.22868" lon="-6.13566">
        <ele>862.0</ele>
        <time>2012-06-14T08:24:04Z</time>
      </trkpt>
      <trkpt lat="43.228506" lon="-6.13562">
        <ele>862.0</ele>
        <time>2012-06-14T08:24:08Z</time>
      </trkpt>
      <trkpt lat="43.228331" lon="-6.135573">
        <ele>862.0</ele>
        <time>2012-06-14T08:24:12Z</time>
      </trkpt>
      <trkpt lat="43.228155" lon="-6.13553">
        <ele>862.0</ele>
        <time>2012-06-14T08:24:16Z</time>
      </trkpt>
      <trkpt lat="43.227983" lon="-6.135497">
        <ele>863.0</ele>
        <time>2012-06-14T08:24:20Z</time>
      </trkpt>
      <trkpt lat="43.227825" lon="-6.135479">
        <ele>864.0</ele>
        <time>2012-06-14T08:24:24Z</time>
      </trkpt>
      <trkpt lat="43.227683" lon="-6.13546">
        <ele>865.0</ele>
        <time>2012-06-14T08:24:28Z</time>
      </trkpt>
      <trkpt lat="43.22755" lon="-6.135428">
        <ele>865.0</ele>
        <time>2012-06-14T08:24:32Z</time>
      </trkpt>
      <trkpt lat="43.227418" lon="-6.13538">
        <ele>865.0</ele>
        <time>2012-06-14T08:24:36Z</time>
      </trkpt>
      <trkpt lat="43.227284" lon="-6.135334">
        <ele>866.0</ele>
        <time>2012-06-14T08:24:40Z</time>
      </trkpt>
      <trkpt lat="43.227154" lon="-6.135292">
        <ele>866.0</ele>
        <time>2012-06-14T08:24:44Z</time>
      </trkpt>
      <trkpt lat="43.227021" lon="-6.135251">
        <ele>866.0</ele>
        <time>2012-06-14T08:24:48Z</time>
      </trkpt>
      <trkpt lat="43.226888" lon="-6.135202">
        <ele>866.0</ele>
        <time>2012-06-14T08:24:52Z</time>
      </trkpt>
      <trkpt lat="43.226755" lon="-6.13516">
        <ele>866.0</ele>
        <time>2012-06-14T08:24:56Z</time>
      </trkpt>
      <trkpt lat="43.226619" lon="-6.135114">
        <ele>867.0</ele>
        <time>2012-06-14T08:25:00Z</time>
      </trkpt>
      <trkpt lat="43.226493" lon="-6.135037">
        <ele>867.0</ele>
        <time>2012-06-14T08:25:04Z</time>
      </trkpt>
      <trkpt lat="43.226401" lon="-6.134876">
        <ele>869.0</ele>
        <time>2012-06-14T08:25:08Z</time>
      </trkpt>
      <trkpt lat="43.226319" lon="-6.134693">
        <ele>870.0</ele>
        <time>2012-06-14T08:25:12Z</time>
      </trkpt>
      <trkpt lat="43.226232" lon="-6.134505">
        <ele>871.0</ele>
        <time>2012-06-14T08:25:16Z</time>
      </trkpt>
      <trkpt lat="43.226149" lon="-6.134315">
        <ele>872.0</ele>
        <time>2012-06-14T08:25:20Z</time>
      </trkpt>
      <trkpt lat="43.226056" lon="-6.134129">
        <ele>873.0</ele>
        <time>2012-06-14T08:25:24Z</time>
      </trkpt>
      <trkpt lat="43.225971" lon="-6.133935">
        <ele>874.0</ele>
        <time>2012-06-14T08:25:28Z</time>
      </trkpt>
      <trkpt lat="43.225894" lon="-6.133748">
        <ele>875.0</ele>
        <time>2012-06-14T08:25:32Z</time>
      </trkpt>
      <trkpt lat="43.225787" lon="-6.133603">
        <ele>875.0</ele>
        <time>2012-06-14T08:25:36Z</time>
      </trkpt>
      <trkpt lat="43.225634" lon="-6.133514">
        <ele>876.0</ele>
        <time>2012-06-14T08:25:40Z</time>
      </trkpt>
      <trkpt lat="43.225465" lon="-6.133511">
        <ele>877.0</ele>
        <time>2012-06-14T08:25:44Z</time>
      </trkpt>
      <trkpt lat="43.225306" lon="-6.133533">
        <ele>877.0</ele>
        <time>2012-06-14T08:25:48Z</time>
      </trkpt>
      <trkpt lat="43.225146" lon="-6.133543">
        <ele>878.0</ele>
        <time>2012-06-14T08:25:52Z</time>
      </trkpt>
      <trkpt lat="43.22499" lon="-6.133549">
        <ele>878.0</ele>
        <time>2012-06-14T08:25:56Z</time>
      </trkpt>
      <trkpt lat="43.224831" lon="-6.133536">
        <ele>879.0</ele>
        <time>2012-06-14T08:26:00Z</time>
      </trkpt>
      <trkpt lat="43.224677" lon="-6.133526">
        <ele>879.0</ele>
        <time>2012-06-14T08:26:04Z</time>
      </trkpt>
      <trkpt lat="43.22452" lon="-6.133534">
        <ele>880.0</ele>
        <time>2012-06-14T08:26:08Z</time>
      </trkpt>
      <trkpt lat="43.224362" lon="-6.133555">
        <ele>880.0</ele>
        <time>2012-06-14T08:26:12Z</time>
      </trkpt>
      <trkpt lat="43.224201" lon="-6.133604">
        <ele>881.0</ele>
        <time>2012-06-14T08:26:16Z</time>
      </trkpt>
      <trkpt lat="43.224041" lon="-6.133675">
        <ele>881.0</ele>
        <time>2012-06-14T08:26:20Z</time>
      </trkpt>
      <trkpt lat="43.22376" lon="-6.133705">
        <ele>891.0</ele>
        <time>2012-06-14T08:26:27Z</time>
      </trkpt>
      <trkpt lat="43.223597" lon="-6.133653">
        <ele>913.0</ele>
        <time>2012-06-14T08:26:31Z</time>
      </trkpt>
      <trkpt lat="43.223437" lon="-6.133575">
        <ele>922.0</ele>
        <time>2012-06-14T08:26:35Z</time>
      </trkpt>
      <trkpt lat="43.223286" lon="-6.133491">
        <ele>927.0</ele>
        <time>2012-06-14T08:26:39Z</time>
      </trkpt>
      <trkpt lat="43.223148" lon="-6.133403">
        <ele>930.0</ele>
        <time>2012-06-14T08:26:43Z</time>
      </trkpt>
      <trkpt lat="43.223024" lon="-6.133305">
        <ele>933.0</ele>
        <time>2012-06-14T08:26:47Z</time>
      </trkpt>
      <trkpt lat="43.222906" lon="-6.133207">
        <ele>934.0</ele>
        <time>2012-06-14T08:26:51Z</time>
      </trkpt>
      <trkpt lat="43.222765" lon="-6.133123">
        <ele>936.0</ele>
        <time>2012-06-14T08:26:56Z</time>
      </trkpt>
      <trkpt lat="43.222686" lon="-6.133094">
        <ele>937.0</ele>
        <time>2012-06-14T08:26:59Z</time>
      </trkpt>
      <trkpt lat="43.222606" lon="-6.133075">
        <ele>937.0</ele>
        <time>2012-06-14T08:27:02Z</time>
      </trkpt>
      <trkpt lat="43.222444" lon="-6.133052">
        <ele>939.0</ele>
        <time>2012-06-14T08:27:08Z</time>
      </trkpt>
      <trkpt lat="43.222362" lon="-6.133049">
        <ele>940.0</ele>
        <time>2012-06-14T08:27:11Z</time>
      </trkpt>
      <trkpt lat="43.22228" lon="-6.13305">
        <ele>941.0</ele>
        <time>2012-06-14T08:27:14Z</time>
      </trkpt>
      <trkpt lat="43.222119" lon="-6.133025">
        <ele>943.0</ele>
        <time>2012-06-14T08:27:20Z</time>
      </trkpt>
      <trkpt lat="43.222036" lon="-6.133013">
        <ele>944.0</ele>
        <time>2012-06-14T08:27:23Z</time>
      </trkpt>
      <trkpt lat="43.221869" lon="-6.133004">
        <ele>944.0</ele>
        <time>2012-06-14T08:27:28Z</time>
      </trkpt>
      <trkpt lat="43.221709" lon="-6.133023">
        <ele>945.0</ele>
        <time>2012-06-14T08:27:32Z</time>
      </trkpt>
      <trkpt lat="43.221545" lon="-6.133053">
        <ele>947.0</ele>
        <time>2012-06-14T08:27:36Z</time>
      </trkpt>
      <trkpt lat="43.221401" lon="-6.133129">
        <ele>949.0</ele>
        <time>2012-06-14T08:27:40Z</time>
      </trkpt>
      <trkpt lat="43.221244" lon="-6.133185">
        <ele>951.0</ele>
        <time>2012-06-14T08:27:44Z</time>
      </trkpt>
      <trkpt lat="43.221098" lon="-6.133238">
        <ele>951.0</ele>
        <time>2012-06-14T08:27:48Z</time>
      </trkpt>
      <trkpt lat="43.220966" lon="-6.133218">
        <ele>952.0</ele>
        <time>2012-06-14T08:27:52Z</time>
      </trkpt>
      <trkpt lat="43.220874" lon="-6.133068">
        <ele>955.0</ele>
        <time>2012-06-14T08:27:56Z</time>
      </trkpt>
      <trkpt lat="43.220847" lon="-6.132971">
        <ele>963.0</ele>
        <time>2012-06-14T08:27:59Z</time>
      </trkpt>
      <trkpt lat="43.220858" lon="-6.132879">
        <ele>972.0</ele>
        <time>2012-06-14T08:28:02Z</time>
      </trkpt>
      <trkpt lat="43.220869" lon="-6.132788">
        <ele>978.0</ele>
        <time>2012-06-14T08:28:05Z</time>
      </trkpt>
      <trkpt lat="43.220819" lon="-6.132726">
        <ele>984.0</ele>
        <time>2012-06-14T08:28:10Z</time>
      </trkpt>
      <trkpt lat="43.22073" lon="-6.132867">
        <ele>987.0</ele>
        <time>2012-06-14T08:28:15Z</time>
      </trkpt>
      <trkpt lat="43.220677" lon="-6.133026">
        <ele>988.0</ele>
        <time>2012-06-14T08:28:19Z</time>
      </trkpt>
      <trkpt lat="43.220633" lon="-6.133133">
        <ele>989.0</ele>
        <time>2012-06-14T08:28:22Z</time>
      </trkpt>
      <trkpt lat="43.220521" lon="-6.133307">
        <ele>991.0</ele>
        <time>2012-06-14T08:28:28Z</time>
      </trkpt>
      <trkpt lat="43.220448" lon="-6.133372">
        <ele>991.0</ele>
        <time>2012-06-14T08:28:31Z</time>
      </trkpt>
      <trkpt lat="43.220303" lon="-6.133447">
        <ele>992.0</ele>
        <time>2012-06-14T08:28:36Z</time>
      </trkpt>
      <trkpt lat="43.22024" lon="-6.13346">
        <ele>992.0</ele>
        <time>2012-06-14T08:28:38Z</time>
      </trkpt>
      <trkpt lat="43.220068" lon="-6.133386">
        <ele>992.0</ele>
        <time>2012-06-14T08:28:44Z</time>
      </trkpt>
      <trkpt lat="43.219899" lon="-6.133394">
        <ele>993.0</ele>
        <time>2012-06-14T08:28:48Z</time>
      </trkpt>
      <trkpt lat="43.219718" lon="-6.133485">
        <ele>993.0</ele>
        <time>2012-06-14T08:28:52Z</time>
      </trkpt>
      <trkpt lat="43.21953" lon="-6.133558">
        <ele>993.0</ele>
        <time>2012-06-14T08:28:56Z</time>
      </trkpt>
      <trkpt lat="43.219332" lon="-6.133596">
        <ele>993.0</ele>
        <time>2012-06-14T08:29:00Z</time>
      </trkpt>
      <trkpt lat="43.219138" lon="-6.133616">
        <ele>994.0</ele>
        <time>2012-06-14T08:29:04Z</time>
      </trkpt>
      <trkpt lat="43.218943" lon="-6.133626">
        <ele>994.0</ele>
        <time>2012-06-14T08:29:08Z</time>
      </trkpt>
      <trkpt lat="43.218756" lon="-6.13364">
        <ele>994.0</ele>
        <time>2012-06-14T08:29:12Z</time>
      </trkpt>
      <trkpt lat="43.21857" lon="-6.133657">
        <ele>995.0</ele>
        <time>2012-06-14T08:29:16Z</time>
      </trkpt>
      <trkpt lat="43.218383" lon="-6.133673">
        <ele>995.0</ele>
        <time>2012-06-14T08:29:20Z</time>
      </trkpt>
      <trkpt lat="43.218193" lon="-6.13367">
        <ele>994.0</ele>
        <time>2012-06-14T08:29:24Z</time>
      </trkpt>
      <trkpt lat="43.218006" lon="-6.133626">
        <ele>995.0</ele>
        <time>2012-06-14T08:29:28Z</time>
      </trkpt>
      <trkpt lat="43.217829" lon="-6.133572">
        <ele>996.0</ele>
        <time>2012-06-14T08:29:32Z</time>
      </trkpt>
      <trkpt lat="43.217656" lon="-6.133514">
        <ele>996.0</ele>
        <time>2012-06-14T08:29:36Z</time>
      </trkpt>
      <trkpt lat="43.217491" lon="-6.133529">
        <ele>997.0</ele>
        <time>2012-06-14T08:29:40Z</time>
      </trkpt>
      <trkpt lat="43.217334" lon="-6.133582">
        <ele>998.0</ele>
        <time>2012-06-14T08:29:44Z</time>
      </trkpt>
      <trkpt lat="43.217185" lon="-6.133668">
        <ele>999.0</ele>
        <time>2012-06-14T08:29:48Z</time>
      </trkpt>
      <trkpt lat="43.217055" lon="-6.133795">
        <ele>1000.0</ele>
        <time>2012-06-14T08:29:52Z</time>
      </trkpt>
      <trkpt lat="43.216939" lon="-6.133941">
        <ele>1002.0</ele>
        <time>2012-06-14T08:29:56Z</time>
      </trkpt>
      <trkpt lat="43.21684" lon="-6.134112">
        <ele>1003.0</ele>
        <time>2012-06-14T08:30:00Z</time>
      </trkpt>
      <trkpt lat="43.21676" lon="-6.134297">
        <ele>1004.0</ele>
        <time>2012-06-14T08:30:04Z</time>
      </trkpt>
      <trkpt lat="43.216706" lon="-6.134506">
        <ele>1005.0</ele>
        <time>2012-06-14T08:30:08Z</time>
      </trkpt>
      <trkpt lat="43.216629" lon="-6.134684">
        <ele>1006.0</ele>
        <time>2012-06-14T08:30:12Z</time>
      </trkpt>
      <trkpt lat="43.216501" lon="-6.134737">
        <ele>1007.0</ele>
        <time>2012-06-14T08:30:16Z</time>
      </trkpt>
      <trkpt lat="43.216445" lon="-6.134682">
        <ele>1007.0</ele>
        <time>2012-06-14T08:30:18Z</time>
      </trkpt>
      <trkpt lat="43.216394" lon="-6.134589">
        <ele>1009.0</ele>
        <time>2012-06-14T08:30:21Z</time>
      </trkpt>
      <trkpt lat="43.216283" lon="-6.134424">
        <ele>1016.0</ele>
        <time>2012-06-14T08:30:28Z</time>
      </trkpt>
      <trkpt lat="43.216166" lon="-6.134321">
        <ele>1018.0</ele>
        <time>2012-06-14T08:30:32Z</time>
      </trkpt>
      <trkpt lat="43.216024" lon="-6.134194">
        <ele>1019.0</ele>
        <time>2012-06-14T08:30:36Z</time>
      </trkpt>
      <trkpt lat="43.21587" lon="-6.134089">
        <ele>1020.0</ele>
        <time>2012-06-14T08:30:40Z</time>
      </trkpt>
      <trkpt lat="43.215692" lon="-6.134062">
        <ele>1021.0</ele>
        <time>2012-06-14T08:30:44Z</time>
      </trkpt>
      <trkpt lat="43.21552" lon="-6.134173">
        <ele>1022.0</ele>
        <time>2012-06-14T08:30:48Z</time>
      </trkpt>
      <trkpt lat="43.21539" lon="-6.134318">
        <ele>1024.0</ele>
        <time>2012-06-14T08:30:52Z</time>
      </trkpt>
      <trkpt lat="43.215297" lon="-6.134489">
        <ele>1025.0</ele>
        <time>2012-06-14T08:30:56Z</time>
      </trkpt>
      <trkpt lat="43.215216" lon="-6.134658">
        <ele>1027.0</ele>
        <time>2012-06-14T08:31:00Z</time>
      </trkpt>
      <trkpt lat="43.215106" lon="-6.134703">
        <ele>1028.0</ele>
        <time>2012-06-14T08:31:04Z</time>
      </trkpt>
      <trkpt lat="43.215051" lon="-6.134631">
        <ele>1029.0</ele>
        <time>2012-06-14T08:31:07Z</time>
      </trkpt>
      <trkpt lat="43.215084" lon="-6.13453">
        <ele>1030.0</ele>
        <time>2012-06-14T08:31:11Z</time>
      </trkpt>
      <trkpt lat="43.215119" lon="-6.134444">
        <ele>1030.0</ele>
        <time>2012-06-14T08:31:14Z</time>
      </trkpt>
      <trkpt lat="43.215213" lon="-6.134288">
        <ele>1031.0</ele>
        <time>2012-06-14T08:31:20Z</time>
      </trkpt>
      <trkpt lat="43.215224" lon="-6.134198">
        <ele>1032.0</ele>
        <time>2012-06-14T08:31:23Z</time>
      </trkpt>
      <trkpt lat="43.215209" lon="-6.134098">
        <ele>1033.0</ele>
        <time>2012-06-14T08:31:26Z</time>
      </trkpt>
      <trkpt lat="43.215104" lon="-6.133897">
        <ele>1034.0</ele>
        <time>2012-06-14T08:31:32Z</time>
      </trkpt>
      <trkpt lat="43.214971" lon="-6.133784">
        <ele>1043.0</ele>
        <time>2012-06-14T08:31:36Z</time>
      </trkpt>
      <trkpt lat="43.214816" lon="-6.133596">
        <ele>1046.0</ele>
        <time>2012-06-14T08:31:40Z</time>
      </trkpt>
      <trkpt lat="43.21473" lon="-6.133276">
        <ele>1047.0</ele>
        <time>2012-06-14T08:31:44Z</time>
      </trkpt>
      <trkpt lat="43.214701" lon="-6.132929">
        <ele>1048.0</ele>
        <time>2012-06-14T08:31:48Z</time>
      </trkpt>
      <trkpt lat="43.214718" lon="-6.132565">
        <ele>1049.0</ele>
        <time>2012-06-14T08:31:52Z</time>
      </trkpt>
      <trkpt lat="43.214857" lon="-6.132148">
        <ele>1050.0</ele>
        <time>2012-06-14T08:31:56Z</time>
      </trkpt>
      <trkpt lat="43.21495" lon="-6.131695">
        <ele>1052.0</ele>
        <time>2012-06-14T08:32:00Z</time>
      </trkpt>
      <trkpt lat="43.215039" lon="-6.131153">
        <ele>1053.0</ele>
        <time>2012-06-14T08:32:04Z</time>
      </trkpt>
      <trkpt lat="43.215213" lon="-6.130603">
        <ele>1054.0</ele>
        <time>2012-06-14T08:32:08Z</time>
      </trkpt>
      <trkpt lat="43.215537" lon="-6.130132">
        <ele>1055.0</ele>
        <time>2012-06-14T08:32:12Z</time>
      </trkpt>
      <trkpt lat="43.215993" lon="-6.129792">
        <ele>1058.0</ele>
        <time>2012-06-14T08:32:16Z</time>
      </trkpt>
      <trkpt lat="43.216166" lon="-6.129679">
        <ele>1059.0</ele>
        <time>2012-06-14T08:32:19Z</time>
      </trkpt>
      <trkpt lat="43.216049" lon="-6.129493">
        <ele>1061.0</ele>
        <time>2012-06-14T08:32:24Z</time>
      </trkpt>
      <trkpt lat="43.215808" lon="-6.129239">
        <ele>1063.0</ele>
        <time>2012-06-14T08:32:28Z</time>
      </trkpt>
      <trkpt lat="43.215585" lon="-6.128898">
        <ele>1064.0</ele>
        <time>2012-06-14T08:32:32Z</time>
      </trkpt>
      <trkpt lat="43.215428" lon="-6.128412">
        <ele>1065.0</ele>
        <time>2012-06-14T08:32:36Z</time>
      </trkpt>
      <trkpt lat="43.215325" lon="-6.127686">
        <ele>1066.0</ele>
        <time>2012-06-14T08:32:40Z</time>
      </trkpt>
      <trkpt lat="43.215352" lon="-6.127024">
        <ele>1067.0</ele>
        <time>2012-06-14T08:32:44Z</time>
      </trkpt>
      <trkpt lat="43.215547" lon="-6.126463">
        <ele>1067.0</ele>
        <time>2012-06-14T08:32:48Z</time>
      </trkpt>
      <trkpt lat="43.21581" lon="-6.126099">
        <ele>1068.0</ele>
        <time>2012-06-14T08:32:52Z</time>
      </trkpt>
      <trkpt lat="43.215985" lon="-6.125786">
        <ele>1068.0</ele>
        <time>2012-06-14T08:32:56Z</time>
      </trkpt>
      <trkpt lat="43.216108" lon="-6.125244">
        <ele>1068.0</ele>
        <time>2012-06-14T08:33:00Z</time>
      </trkpt>
      <trkpt lat="43.216223" lon="-6.124674">
        <ele>1068.0</ele>
        <time>2012-06-14T08:33:04Z</time>
      </trkpt>
      <trkpt lat="43.216365" lon="-6.124133">
        <ele>1067.0</ele>
        <time>2012-06-14T08:33:08Z</time>
      </trkpt>
      <trkpt lat="43.216557" lon="-6.12364">
        <ele>1067.0</ele>
        <time>2012-06-14T08:33:12Z</time>
      </trkpt>
      <trkpt lat="43.216772" lon="-6.123285">
        <ele>1066.0</ele>
        <time>2012-06-14T08:33:16Z</time>
      </trkpt>
      <trkpt lat="43.217061" lon="-6.123058">
        <ele>1066.0</ele>
        <time>2012-06-14T08:33:20Z</time>
      </trkpt>
      <trkpt lat="43.217404" lon="-6.122939">
        <ele>1066.0</ele>
        <time>2012-06-14T08:33:24Z</time>
      </trkpt>
      <trkpt lat="43.217715" lon="-6.122836">
        <ele>1065.0</ele>
        <time>2012-06-14T08:33:28Z</time>
      </trkpt>
      <trkpt lat="43.218052" lon="-6.122814">
        <ele>1064.0</ele>
        <time>2012-06-14T08:33:32Z</time>
      </trkpt>
      <trkpt lat="43.218251" lon="-6.122839">
        <ele>1064.0</ele>
        <time>2012-06-14T08:33:35Z</time>
      </trkpt>
      <trkpt lat="43.21832" lon="-6.12285">
        <ele>1064.0</ele>
        <time>2012-06-14T08:33:38Z</time>
      </trkpt>
      <trkpt lat="43.218168" lon="-6.122628">
        <ele>1063.0</ele>
        <time>2012-06-14T08:33:43Z</time>
      </trkpt>
      <trkpt lat="43.218015" lon="-6.122387">
        <ele>1062.0</ele>
        <time>2012-06-14T08:33:47Z</time>
      </trkpt>
      <trkpt lat="43.217876" lon="-6.122183">
        <ele>1061.0</ele>
        <time>2012-06-14T08:33:51Z</time>
      </trkpt>
      <trkpt lat="43.217734" lon="-6.121983">
        <ele>1060.0</ele>
        <time>2012-06-14T08:33:55Z</time>
      </trkpt>
      <trkpt lat="43.217572" lon="-6.121778">
        <ele>1059.0</ele>
        <time>2012-06-14T08:33:59Z</time>
      </trkpt>
      <trkpt lat="43.217411" lon="-6.121575">
        <ele>1059.0</ele>
        <time>2012-06-14T08:34:03Z</time>
      </trkpt>
      <trkpt lat="43.217244" lon="-6.121379">
        <ele>1059.0</ele>
        <time>2012-06-14T08:34:07Z</time>
      </trkpt>
      <trkpt lat="43.217079" lon="-6.121185">
        <ele>1059.0</ele>
        <time>2012-06-14T08:34:11Z</time>
      </trkpt>
      <trkpt lat="43.216921" lon="-6.120977">
        <ele>1059.0</ele>
        <time>2012-06-14T08:34:15Z</time>
      </trkpt>
      <trkpt lat="43.216818" lon="-6.120705">
        <ele>1059.0</ele>
        <time>2012-06-14T08:34:19Z</time>
      </trkpt>
      <trkpt lat="43.216799" lon="-6.120156">
        <ele>1059.0</ele>
        <time>2012-06-14T08:34:24Z</time>
      </trkpt>
      <trkpt lat="43.217031" lon="-6.119808">
        <ele>1059.0</ele>
        <time>2012-06-14T08:34:28Z</time>
      </trkpt>
      <trkpt lat="43.217259" lon="-6.119499">
        <ele>1060.0</ele>
        <time>2012-06-14T08:34:32Z</time>
      </trkpt>
      <trkpt lat="43.217399" lon="-6.119166">
        <ele>1060.0</ele>
        <time>2012-06-14T08:34:36Z</time>
      </trkpt>
      <trkpt lat="43.2173" lon="-6.118926">
        <ele>1061.0</ele>
        <time>2012-06-14T08:34:40Z</time>
      </trkpt>
      <trkpt lat="43.217098" lon="-6.118804">
        <ele>1060.0</ele>
        <time>2012-06-14T08:34:44Z</time>
      </trkpt>
      <trkpt lat="43.216963" lon="-6.118571">
        <ele>1060.0</ele>
        <time>2012-06-14T08:34:48Z</time>
      </trkpt>
      <trkpt lat="43.216905" lon="-6.11828">
        <ele>1059.0</ele>
        <time>2012-06-14T08:34:52Z</time>
      </trkpt>
      <trkpt lat="43.216886" lon="-6.117972">
        <ele>1058.0</ele>
        <time>2012-06-14T08:34:56Z</time>
      </trkpt>
      <trkpt lat="43.216873" lon="-6.117629">
        <ele>1058.0</ele>
        <time>2012-06-14T08:35:00Z</time>
      </trkpt>
      <trkpt lat="43.216882" lon="-6.117262">
        <ele>1059.0</ele>
        <time>2012-06-14T08:35:04Z</time>
      </trkpt>
      <trkpt lat="43.216936" lon="-6.116882">
        <ele>1059.0</ele>
        <time>2012-06-14T08:35:08Z</time>
      </trkpt>
      <trkpt lat="43.216919" lon="-6.116557">
        <ele>1059.0</ele>
        <time>2012-06-14T08:35:12Z</time>
      </trkpt>
      <trkpt lat="43.216875" lon="-6.116232">
        <ele>1059.0</ele>
        <time>2012-06-14T08:35:16Z</time>
      </trkpt>
      <trkpt lat="43.216976" lon="-6.115998">
        <ele>1059.0</ele>
        <time>2012-06-14T08:35:19Z</time>
      </trkpt>
      <trkpt lat="43.217083" lon="-6.115712">
        <ele>1060.0</ele>
        <time>2012-06-14T08:35:23Z</time>
      </trkpt>
      <trkpt lat="43.217175" lon="-6.11545">
        <ele>1060.0</ele>
        <time>2012-06-14T08:35:27Z</time>
      </trkpt>
      <trkpt lat="43.2173" lon="-6.115205">
        <ele>1060.0</ele>
        <time>2012-06-14T08:35:31Z</time>
      </trkpt>
      <trkpt lat="43.217488" lon="-6.115008">
        <ele>1060.0</ele>
        <time>2012-06-14T08:35:35Z</time>
      </trkpt>
      <trkpt lat="43.217677" lon="-6.11465">
        <ele>1060.0</ele>
        <time>2012-06-14T08:35:40Z</time>
      </trkpt>
      <trkpt lat="43.217774" lon="-6.114316">
        <ele>1060.0</ele>
        <time>2012-06-14T08:35:44Z</time>
      </trkpt>
      <trkpt lat="43.217782" lon="-6.113952">
        <ele>1060.0</ele>
        <time>2012-06-14T08:35:48Z</time>
      </trkpt>
      <trkpt lat="43.217697" lon="-6.11364">
        <ele>1060.0</ele>
        <time>2012-06-14T08:35:52Z</time>
      </trkpt>
      <trkpt lat="43.217359" lon="-6.113568">
        <ele>1060.0</ele>
        <time>2012-06-14T08:35:59Z</time>
      </trkpt>
      <trkpt lat="43.217147" lon="-6.113454">
        <ele>1060.0</ele>
        <time>2012-06-14T08:36:03Z</time>
      </trkpt>
      <trkpt lat="43.217023" lon="-6.113012">
        <ele>1061.0</ele>
        <time>2012-06-14T08:36:08Z</time>
      </trkpt>
      <trkpt lat="43.216983" lon="-6.112484">
        <ele>1062.0</ele>
        <time>2012-06-14T08:36:12Z</time>
      </trkpt>
      <trkpt lat="43.216944" lon="-6.111916">
        <ele>1062.0</ele>
        <time>2012-06-14T08:36:16Z</time>
      </trkpt>
      <trkpt lat="43.216844" lon="-6.111455">
        <ele>1062.0</ele>
        <time>2012-06-14T08:36:20Z</time>
      </trkpt>
      <trkpt lat="43.216717" lon="-6.111194">
        <ele>1062.0</ele>
        <time>2012-06-14T08:36:24Z</time>
      </trkpt>
      <trkpt lat="43.216606" lon="-6.110959">
        <ele>1061.0</ele>
        <time>2012-06-14T08:36:28Z</time>
      </trkpt>
      <trkpt lat="43.216524" lon="-6.110763">
        <ele>1060.0</ele>
        <time>2012-06-14T08:36:32Z</time>
      </trkpt>
      <trkpt lat="43.216428" lon="-6.110551">
        <ele>1058.0</ele>
        <time>2012-06-14T08:36:36Z</time>
      </trkpt>
      <trkpt lat="43.216366" lon="-6.110444">
        <ele>1059.0</ele>
        <time>2012-06-14T08:36:38Z</time>
      </trkpt>
      <trkpt lat="43.21615" lon="-6.11013">
        <ele>1057.0</ele>
        <time>2012-06-14T08:36:44Z</time>
      </trkpt>
      <trkpt lat="43.215965" lon="-6.109983">
        <ele>1057.0</ele>
        <time>2012-06-14T08:36:48Z</time>
      </trkpt>
      <trkpt lat="43.215744" lon="-6.109979">
        <ele>1058.0</ele>
        <time>2012-06-14T08:36:52Z</time>
      </trkpt>
      <trkpt lat="43.215529" lon="-6.110051">
        <ele>1058.0</ele>
        <time>2012-06-14T08:36:56Z</time>
      </trkpt>
      <trkpt lat="43.215418" lon="-6.110078">
        <ele>1059.0</ele>
        <time>2012-06-14T08:36:58Z</time>
      </trkpt>
      <trkpt lat="43.215077" lon="-6.110108">
        <ele>1059.0</ele>
        <time>2012-06-14T08:37:04Z</time>
      </trkpt>
      <trkpt lat="43.214854" lon="-6.110048">
        <ele>1059.0</ele>
        <time>2012-06-14T08:37:08Z</time>
      </trkpt>
      <trkpt lat="43.214646" lon="-6.10989">
        <ele>1058.0</ele>
        <time>2012-06-14T08:37:12Z</time>
      </trkpt>
      <trkpt lat="43.214545" lon="-6.109673">
        <ele>1058.0</ele>
        <time>2012-06-14T08:37:15Z</time>
      </trkpt>
      <trkpt lat="43.214421" lon="-6.109143">
        <ele>1056.0</ele>
        <time>2012-06-14T08:37:20Z</time>
      </trkpt>
      <trkpt lat="43.214364" lon="-6.108531">
        <ele>1054.0</ele>
        <time>2012-06-14T08:37:24Z</time>
      </trkpt>
      <trkpt lat="43.214319" lon="-6.10796">
        <ele>1053.0</ele>
        <time>2012-06-14T08:37:28Z</time>
      </trkpt>
      <trkpt lat="43.214169" lon="-6.107691">
        <ele>1053.0</ele>
        <time>2012-06-14T08:37:32Z</time>
      </trkpt>
      <trkpt lat="43.214092" lon="-6.107616">
        <ele>1052.0</ele>
        <time>2012-06-14T08:37:34Z</time>
      </trkpt>
      <trkpt lat="43.213954" lon="-6.107477">
        <ele>1049.0</ele>
        <time>2012-06-14T08:37:40Z</time>
      </trkpt>
      <trkpt lat="43.213817" lon="-6.107376">
        <ele>1047.0</ele>
        <time>2012-06-14T08:37:44Z</time>
      </trkpt>
      <trkpt lat="43.213666" lon="-6.107284">
        <ele>1045.0</ele>
        <time>2012-06-14T08:37:48Z</time>
      </trkpt>
      <trkpt lat="43.213501" lon="-6.107221">
        <ele>1043.0</ele>
        <time>2012-06-14T08:37:52Z</time>
      </trkpt>
      <trkpt lat="43.213343" lon="-6.107137">
        <ele>1042.0</ele>
        <time>2012-06-14T08:37:56Z</time>
      </trkpt>
      <trkpt lat="43.213211" lon="-6.107007">
        <ele>1041.0</ele>
        <time>2012-06-14T08:38:00Z</time>
      </trkpt>
      <trkpt lat="43.213067" lon="-6.106815">
        <ele>1040.0</ele>
        <time>2012-06-14T08:38:04Z</time>
      </trkpt>
      <trkpt lat="43.212885" lon="-6.106698">
        <ele>1038.0</ele>
        <time>2012-06-14T08:38:08Z</time>
      </trkpt>
      <trkpt lat="43.212674" lon="-6.106728">
        <ele>1038.0</ele>
        <time>2012-06-14T08:38:12Z</time>
      </trkpt>
      <trkpt lat="43.212491" lon="-6.106807">
        <ele>1037.0</ele>
        <time>2012-06-14T08:38:16Z</time>
      </trkpt>
      <trkpt lat="43.212313" lon="-6.106835">
        <ele>1037.0</ele>
        <time>2012-06-14T08:38:20Z</time>
      </trkpt>
      <trkpt lat="43.212133" lon="-6.106783">
        <ele>1037.0</ele>
        <time>2012-06-14T08:38:24Z</time>
      </trkpt>
      <trkpt lat="43.21195" lon="-6.106672">
        <ele>1036.0</ele>
        <time>2012-06-14T08:38:28Z</time>
      </trkpt>
      <trkpt lat="43.21181" lon="-6.106475">
        <ele>1036.0</ele>
        <time>2012-06-14T08:38:32Z</time>
      </trkpt>
      <trkpt lat="43.211664" lon="-6.106275">
        <ele>1035.0</ele>
        <time>2012-06-14T08:38:36Z</time>
      </trkpt>
      <trkpt lat="43.211428" lon="-6.106222">
        <ele>1036.0</ele>
        <time>2012-06-14T08:38:40Z</time>
      </trkpt>
      <trkpt lat="43.211188" lon="-6.106244">
        <ele>1036.0</ele>
        <time>2012-06-14T08:38:44Z</time>
      </trkpt>
      <trkpt lat="43.21092" lon="-6.106328">
        <ele>1036.0</ele>
        <time>2012-06-14T08:38:48Z</time>
      </trkpt>
      <trkpt lat="43.210657" lon="-6.106476">
        <ele>1035.0</ele>
        <time>2012-06-14T08:38:52Z</time>
      </trkpt>
      <trkpt lat="43.210401" lon="-6.106587">
        <ele>1035.0</ele>
        <time>2012-06-14T08:38:56Z</time>
      </trkpt>
      <trkpt lat="43.210139" lon="-6.106643">
        <ele>1035.0</ele>
        <time>2012-06-14T08:39:00Z</time>
      </trkpt>
      <trkpt lat="43.209883" lon="-6.106662">
        <ele>1034.0</ele>
        <time>2012-06-14T08:39:04Z</time>
      </trkpt>
      <trkpt lat="43.20969" lon="-6.106673">
        <ele>1033.0</ele>
        <time>2012-06-14T08:39:07Z</time>
      </trkpt>
      <trkpt lat="43.209441" lon="-6.106682">
        <ele>1032.0</ele>
        <time>2012-06-14T08:39:11Z</time>
      </trkpt>
      <trkpt lat="43.2092" lon="-6.106684">
        <ele>1032.0</ele>
        <time>2012-06-14T08:39:15Z</time>
      </trkpt>
      <trkpt lat="43.208973" lon="-6.106702">
        <ele>1031.0</ele>
        <time>2012-06-14T08:39:19Z</time>
      </trkpt>
      <trkpt lat="43.208736" lon="-6.106772">
        <ele>1030.0</ele>
        <time>2012-06-14T08:39:23Z</time>
      </trkpt>
      <trkpt lat="43.20845" lon="-6.106933">
        <ele>1030.0</ele>
        <time>2012-06-14T08:39:28Z</time>
      </trkpt>
      <trkpt lat="43.208269" lon="-6.107006">
        <ele>1030.0</ele>
        <time>2012-06-14T08:39:31Z</time>
      </trkpt>
      <trkpt lat="43.208043" lon="-6.107121">
        <ele>1029.0</ele>
        <time>2012-06-14T08:39:35Z</time>
      </trkpt>
      <trkpt lat="43.207833" lon="-6.107258">
        <ele>1029.0</ele>
        <time>2012-06-14T08:39:39Z</time>
      </trkpt>
      <trkpt lat="43.207633" lon="-6.107399">
        <ele>1028.0</ele>
        <time>2012-06-14T08:39:43Z</time>
      </trkpt>
      <trkpt lat="43.207431" lon="-6.107537">
        <ele>1028.0</ele>
        <time>2012-06-14T08:39:47Z</time>
      </trkpt>
      <trkpt lat="43.20722" lon="-6.107673">
        <ele>1027.0</ele>
        <time>2012-06-14T08:39:51Z</time>
      </trkpt>
      <trkpt lat="43.207009" lon="-6.107825">
        <ele>1027.0</ele>
        <time>2012-06-14T08:39:55Z</time>
      </trkpt>
      <trkpt lat="43.206826" lon="-6.108">
        <ele>1026.0</ele>
        <time>2012-06-14T08:39:59Z</time>
      </trkpt>
      <trkpt lat="43.206643" lon="-6.108143">
        <ele>1026.0</ele>
        <time>2012-06-14T08:40:03Z</time>
      </trkpt>
      <trkpt lat="43.20645" lon="-6.108259">
        <ele>1026.0</ele>
        <time>2012-06-14T08:40:07Z</time>
      </trkpt>
      <trkpt lat="43.20626" lon="-6.108348">
        <ele>1026.0</ele>
        <time>2012-06-14T08:40:11Z</time>
      </trkpt>
      <trkpt lat="43.20609" lon="-6.108393">
        <ele>1026.0</ele>
        <time>2012-06-14T08:40:15Z</time>
      </trkpt>
      <trkpt lat="43.20594" lon="-6.108421">
        <ele>1026.0</ele>
        <time>2012-06-14T08:40:19Z</time>
      </trkpt>
      <trkpt lat="43.205803" lon="-6.108474">
        <ele>1026.0</ele>
        <time>2012-06-14T08:40:23Z</time>
      </trkpt>
      <trkpt lat="43.205655" lon="-6.108526">
        <ele>1026.0</ele>
        <time>2012-06-14T08:40:27Z</time>
      </trkpt>
      <trkpt lat="43.20551" lon="-6.108616">
        <ele>1025.0</ele>
        <time>2012-06-14T08:40:31Z</time>
      </trkpt>
      <trkpt lat="43.205358" lon="-6.10871">
        <ele>1025.0</ele>
        <time>2012-06-14T08:40:35Z</time>
      </trkpt>
      <trkpt lat="43.205207" lon="-6.108806">
        <ele>1026.0</ele>
        <time>2012-06-14T08:40:39Z</time>
      </trkpt>
      <trkpt lat="43.205064" lon="-6.108912">
        <ele>1026.0</ele>
        <time>2012-06-14T08:40:43Z</time>
      </trkpt>
      <trkpt lat="43.205009" lon="-6.109004">
        <ele>1026.0</ele>
        <time>2012-06-14T08:40:46Z</time>
      </trkpt>
      <trkpt lat="43.204871" lon="-6.109163">
        <ele>1026.0</ele>
        <time>2012-06-14T08:40:52Z</time>
      </trkpt>
      <trkpt lat="43.204741" lon="-6.109256">
        <ele>1026.0</ele>
        <time>2012-06-14T08:40:56Z</time>
      </trkpt>
      <trkpt lat="43.204599" lon="-6.109299">
        <ele>1026.0</ele>
        <time>2012-06-14T08:41:00Z</time>
      </trkpt>
      <trkpt lat="43.204453" lon="-6.10933">
        <ele>1026.0</ele>
        <time>2012-06-14T08:41:04Z</time>
      </trkpt>
      <trkpt lat="43.204305" lon="-6.109345">
        <ele>1027.0</ele>
        <time>2012-06-14T08:41:08Z</time>
      </trkpt>
      <trkpt lat="43.204149" lon="-6.109349">
        <ele>1027.0</ele>
        <time>2012-06-14T08:41:12Z</time>
      </trkpt>
      <trkpt lat="43.203996" lon="-6.109355">
        <ele>1027.0</ele>
        <time>2012-06-14T08:41:16Z</time>
      </trkpt>
      <trkpt lat="43.20392" lon="-6.109358">
        <ele>1027.0</ele>
        <time>2012-06-14T08:41:18Z</time>
      </trkpt>
      <trkpt lat="43.203769" lon="-6.109366">
        <ele>1027.0</ele>
        <time>2012-06-14T08:41:22Z</time>
      </trkpt>
      <trkpt lat="43.203616" lon="-6.109379">
        <ele>1027.0</ele>
        <time>2012-06-14T08:41:26Z</time>
      </trkpt>
      <trkpt lat="43.203378" lon="-6.109416">
        <ele>1028.0</ele>
        <time>2012-06-14T08:41:32Z</time>
      </trkpt>
      <trkpt lat="43.203217" lon="-6.109448">
        <ele>1028.0</ele>
        <time>2012-06-14T08:41:36Z</time>
      </trkpt>
      <trkpt lat="43.203064" lon="-6.109492">
        <ele>1028.0</ele>
        <time>2012-06-14T08:41:40Z</time>
      </trkpt>
      <trkpt lat="43.20294" lon="-6.109568">
        <ele>1029.0</ele>
        <time>2012-06-14T08:41:44Z</time>
      </trkpt>
      <trkpt lat="43.202874" lon="-6.109655">
        <ele>1029.0</ele>
        <time>2012-06-14T08:41:47Z</time>
      </trkpt>
      <trkpt lat="43.202811" lon="-6.109749">
        <ele>1029.0</ele>
        <time>2012-06-14T08:41:50Z</time>
      </trkpt>
      <trkpt lat="43.202583" lon="-6.109815">
        <ele>1030.0</ele>
        <time>2012-06-14T08:41:59Z</time>
      </trkpt>
      <trkpt lat="43.202504" lon="-6.109825">
        <ele>1030.0</ele>
        <time>2012-06-14T08:42:02Z</time>
      </trkpt>
      <trkpt lat="43.202357" lon="-6.109843">
        <ele>1031.0</ele>
        <time>2012-06-14T08:42:08Z</time>
      </trkpt>
      <trkpt lat="43.202287" lon="-6.10985">
        <ele>1031.0</ele>
        <time>2012-06-14T08:42:11Z</time>
      </trkpt>
      <trkpt lat="43.202201" lon="-6.109842">
        <ele>1032.0</ele>
        <time>2012-06-14T08:42:14Z</time>
      </trkpt>
      <trkpt lat="43.202066" lon="-6.109887">
        <ele>1032.0</ele>
        <time>2012-06-14T08:42:18Z</time>
      </trkpt>
      <trkpt lat="43.202006" lon="-6.109942">
        <ele>1032.0</ele>
        <time>2012-06-14T08:42:20Z</time>
      </trkpt>
      <trkpt lat="43.201882" lon="-6.110206">
        <ele>1036.0</ele>
        <time>2012-06-14T08:42:27Z</time>
      </trkpt>
      <trkpt lat="43.201874" lon="-6.110632">
        <ele>1038.0</ele>
        <time>2012-06-14T08:42:32Z</time>
      </trkpt>
      <trkpt lat="43.201852" lon="-6.110814">
        <ele>1040.0</ele>
        <time>2012-06-14T08:42:34Z</time>
      </trkpt>
      <trkpt lat="43.201746" lon="-6.111116">
        <ele>1041.0</ele>
        <time>2012-06-14T08:42:38Z</time>
      </trkpt>
      <trkpt lat="43.201512" lon="-6.111392">
        <ele>1043.0</ele>
        <time>2012-06-14T08:42:44Z</time>
      </trkpt>
      <trkpt lat="43.201325" lon="-6.111455">
        <ele>1043.0</ele>
        <time>2012-06-14T08:42:48Z</time>
      </trkpt>
      <trkpt lat="43.201229" lon="-6.111452">
        <ele>1043.0</ele>
        <time>2012-06-14T08:42:50Z</time>
      </trkpt>
      <trkpt lat="43.20104" lon="-6.111402">
        <ele>1044.0</ele>
        <time>2012-06-14T08:42:54Z</time>
      </trkpt>
      <trkpt lat="43.200768" lon="-6.111316">
        <ele>1044.0</ele>
        <time>2012-06-14T08:43:00Z</time>
      </trkpt>
      <trkpt lat="43.200679" lon="-6.111292">
        <ele>1045.0</ele>
        <time>2012-06-14T08:43:02Z</time>
      </trkpt>
      <trkpt lat="43.200409" lon="-6.111242">
        <ele>1045.0</ele>
        <time>2012-06-14T08:43:08Z</time>
      </trkpt>
      <trkpt lat="43.20023" lon="-6.11123">
        <ele>1046.0</ele>
        <time>2012-06-14T08:43:12Z</time>
      </trkpt>
      <trkpt lat="43.200047" lon="-6.111213">
        <ele>1047.0</ele>
        <time>2012-06-14T08:43:16Z</time>
      </trkpt>
      <trkpt lat="43.199955" lon="-6.111203">
        <ele>1047.0</ele>
        <time>2012-06-14T08:43:18Z</time>
      </trkpt>
      <trkpt lat="43.199686" lon="-6.111193">
        <ele>1047.0</ele>
        <time>2012-06-14T08:43:24Z</time>
      </trkpt>
      <trkpt lat="43.1995" lon="-6.111247">
        <ele>1047.0</ele>
        <time>2012-06-14T08:43:28Z</time>
      </trkpt>
      <trkpt lat="43.19924" lon="-6.11166">
        <ele>1047.0</ele>
        <time>2012-06-14T08:43:35Z</time>
      </trkpt>
      <trkpt lat="43.199223" lon="-6.112138">
        <ele>1047.0</ele>
        <time>2012-06-14T08:43:40Z</time>
      </trkpt>
      <trkpt lat="43.199356" lon="-6.112489">
        <ele>1047.0</ele>
        <time>2012-06-14T08:43:44Z</time>
      </trkpt>
      <trkpt lat="43.199554" lon="-6.112857">
        <ele>1047.0</ele>
        <time>2012-06-14T08:43:48Z</time>
      </trkpt>
      <trkpt lat="43.199775" lon="-6.113222">
        <ele>1046.0</ele>
        <time>2012-06-14T08:43:52Z</time>
      </trkpt>
      <trkpt lat="43.200062" lon="-6.113522">
        <ele>1046.0</ele>
        <time>2012-06-14T08:43:56Z</time>
      </trkpt>
      <trkpt lat="43.200376" lon="-6.11377">
        <ele>1046.0</ele>
        <time>2012-06-14T08:44:00Z</time>
      </trkpt>
      <trkpt lat="43.200681" lon="-6.114034">
        <ele>1046.0</ele>
        <time>2012-06-14T08:44:04Z</time>
      </trkpt>
      <trkpt lat="43.200782" lon="-6.114391">
        <ele>1047.0</ele>
        <time>2012-06-14T08:44:08Z</time>
      </trkpt>
      <trkpt lat="43.200667" lon="-6.114677">
        <ele>1047.0</ele>
        <time>2012-06-14T08:44:12Z</time>
      </trkpt>
      <trkpt lat="43.200442" lon="-6.114851">
        <ele>1046.0</ele>
        <time>2012-06-14T08:44:16Z</time>
      </trkpt>
      <trkpt lat="43.200187" lon="-6.114955">
        <ele>1045.0</ele>
        <time>2012-06-14T08:44:20Z</time>
      </trkpt>
      <trkpt lat="43.20006" lon="-6.114994">
        <ele>1045.0</ele>
        <time>2012-06-14T08:44:22Z</time>
      </trkpt>
      <trkpt lat="43.199881" lon="-6.115038">
        <ele>1044.0</ele>
        <time>2012-06-14T08:44:25Z</time>
      </trkpt>
      <trkpt lat="43.199536" lon="-6.115015">
        <ele>1044.0</ele>
        <time>2012-06-14T08:44:31Z</time>
      </trkpt>
      <trkpt lat="43.199213" lon="-6.114937">
        <ele>1044.0</ele>
        <time>2012-06-14T08:44:36Z</time>
      </trkpt>
      <trkpt lat="43.198902" lon="-6.114888">
        <ele>1044.0</ele>
        <time>2012-06-14T08:44:40Z</time>
      </trkpt>
      <trkpt lat="43.19856" lon="-6.114875">
        <ele>1043.0</ele>
        <time>2012-06-14T08:44:44Z</time>
      </trkpt>
      <trkpt lat="43.198196" lon="-6.114753">
        <ele>1043.0</ele>
        <time>2012-06-14T08:44:48Z</time>
      </trkpt>
      <trkpt lat="43.197854" lon="-6.114535">
        <ele>1042.0</ele>
        <time>2012-06-14T08:44:52Z</time>
      </trkpt>
      <trkpt lat="43.197549" lon="-6.114366">
        <ele>1042.0</ele>
        <time>2012-06-14T08:44:56Z</time>
      </trkpt>
      <trkpt lat="43.197255" lon="-6.114294">
        <ele>1042.0</ele>
        <time>2012-06-14T08:45:00Z</time>
      </trkpt>
      <trkpt lat="43.196986" lon="-6.11438">
        <ele>1043.0</ele>
        <time>2012-06-14T08:45:04Z</time>
      </trkpt>
      <trkpt lat="43.196806" lon="-6.11463">
        <ele>1043.0</ele>
        <time>2012-06-14T08:45:08Z</time>
      </trkpt>
      <trkpt lat="43.196623" lon="-6.114745">
        <ele>1043.0</ele>
        <time>2012-06-14T08:45:11Z</time>
      </trkpt>
      <trkpt lat="43.196391" lon="-6.114725">
        <ele>1042.0</ele>
        <time>2012-06-14T08:45:15Z</time>
      </trkpt>
      <trkpt lat="43.196174" lon="-6.114523">
        <ele>1042.0</ele>
        <time>2012-06-14T08:45:19Z</time>
      </trkpt>
      <trkpt lat="43.195857" lon="-6.11417">
        <ele>1043.0</ele>
        <time>2012-06-14T08:45:24Z</time>
      </trkpt>
      <trkpt lat="43.195542" lon="-6.114023">
        <ele>1043.0</ele>
        <time>2012-06-14T08:45:28Z</time>
      </trkpt>
      <trkpt lat="43.195137" lon="-6.114001">
        <ele>1043.0</ele>
        <time>2012-06-14T08:45:32Z</time>
      </trkpt>
      <trkpt lat="43.194806" lon="-6.114115">
        <ele>1041.0</ele>
        <time>2012-06-14T08:45:36Z</time>
      </trkpt>
      <trkpt lat="43.1945" lon="-6.114227">
        <ele>1040.0</ele>
        <time>2012-06-14T08:45:40Z</time>
      </trkpt>
      <trkpt lat="43.194351" lon="-6.114223">
        <ele>1040.0</ele>
        <time>2012-06-14T08:45:43Z</time>
      </trkpt>
      <trkpt lat="43.194303" lon="-6.114163">
        <ele>1041.0</ele>
        <time>2012-06-14T08:45:46Z</time>
      </trkpt>
      <trkpt lat="43.194226" lon="-6.114039">
        <ele>1041.0</ele>
        <time>2012-06-14T08:45:52Z</time>
      </trkpt>
      <trkpt lat="43.193861" lon="-6.114091">
        <ele>1044.0</ele>
        <time>2012-06-14T08:45:59Z</time>
      </trkpt>
      <trkpt lat="43.193597" lon="-6.114077">
        <ele>1044.0</ele>
        <time>2012-06-14T08:46:02Z</time>
      </trkpt>
      <trkpt lat="43.193564" lon="-6.114194">
        <ele>1043.0</ele>
        <time>2012-06-14T08:46:06Z</time>
      </trkpt>
      <trkpt lat="43.193402" lon="-6.114256">
        <ele>1041.0</ele>
        <time>2012-06-14T08:46:11Z</time>
      </trkpt>
      <trkpt lat="43.193346" lon="-6.114427">
        <ele>1040.0</ele>
        <time>2012-06-14T08:46:15Z</time>
      </trkpt>
      <trkpt lat="43.193466" lon="-6.114919">
        <ele>1038.0</ele>
        <time>2012-06-14T08:46:20Z</time>
      </trkpt>
      <trkpt lat="43.193408" lon="-6.115454">
        <ele>1037.0</ele>
        <time>2012-06-14T08:46:24Z</time>
      </trkpt>
      <trkpt lat="43.193185" lon="-6.115948">
        <ele>1037.0</ele>
        <time>2012-06-14T08:46:28Z</time>
      </trkpt>
      <trkpt lat="43.192826" lon="-6.116125">
        <ele>1037.0</ele>
        <time>2012-06-14T08:46:32Z</time>
      </trkpt>
      <trkpt lat="43.192577" lon="-6.116296">
        <ele>1034.0</ele>
        <time>2012-06-14T08:46:36Z</time>
      </trkpt>
      <trkpt lat="43.192544" lon="-6.116668">
        <ele>1032.0</ele>
        <time>2012-06-14T08:46:40Z</time>
      </trkpt>
      <trkpt lat="43.192512" lon="-6.11711">
        <ele>1031.0</ele>
        <time>2012-06-14T08:46:44Z</time>
      </trkpt>
      <trkpt lat="43.192475" lon="-6.117593">
        <ele>1030.0</ele>
        <time>2012-06-14T08:46:48Z</time>
      </trkpt>
      <trkpt lat="43.192383" lon="-6.118029">
        <ele>1029.0</ele>
        <time>2012-06-14T08:46:52Z</time>
      </trkpt>
      <trkpt lat="43.192352" lon="-6.118283">
        <ele>1028.0</ele>
        <time>2012-06-14T08:46:55Z</time>
      </trkpt>
      <trkpt lat="43.192095" lon="-6.118453">
        <ele>1028.0</ele>
        <time>2012-06-14T08:47:00Z</time>
      </trkpt>
      <trkpt lat="43.191938" lon="-6.118525">
        <ele>1018.0</ele>
        <time>2012-06-14T08:47:04Z</time>
      </trkpt>
      <trkpt lat="43.191812" lon="-6.118079">
        <ele>1003.0</ele>
        <time>2012-06-14T08:47:12Z</time>
      </trkpt>
      <trkpt lat="43.191932" lon="-6.117787">
        <ele>1001.0</ele>
        <time>2012-06-14T08:47:15Z</time>
      </trkpt>
      <trkpt lat="43.192049" lon="-6.117452">
        <ele>999.0</ele>
        <time>2012-06-14T08:47:19Z</time>
      </trkpt>
      <trkpt lat="43.192119" lon="-6.117056">
        <ele>997.0</ele>
        <time>2012-06-14T08:47:24Z</time>
      </trkpt>
      <trkpt lat="43.191969" lon="-6.116405">
        <ele>996.0</ele>
        <time>2012-06-14T08:47:28Z</time>
      </trkpt>
      <trkpt lat="43.19186" lon="-6.115836">
        <ele>995.0</ele>
        <time>2012-06-14T08:47:32Z</time>
      </trkpt>
      <trkpt lat="43.192105" lon="-6.115577">
        <ele>988.0</ele>
        <time>2012-06-14T08:47:36Z</time>
      </trkpt>
      <trkpt lat="43.192236" lon="-6.115317">
        <ele>983.0</ele>
        <time>2012-06-14T08:47:39Z</time>
      </trkpt>
      <trkpt lat="43.192275" lon="-6.115217">
        <ele>981.0</ele>
        <time>2012-06-14T08:47:42Z</time>
      </trkpt>
      <trkpt lat="43.192062" lon="-6.115087">
        <ele>980.0</ele>
        <time>2012-06-14T08:47:48Z</time>
      </trkpt>
      <trkpt lat="43.191647" lon="-6.114777">
        <ele>979.0</ele>
        <time>2012-06-14T08:47:51Z</time>
      </trkpt>
      <trkpt lat="43.191068" lon="-6.114296">
        <ele>978.0</ele>
        <time>2012-06-14T08:47:56Z</time>
      </trkpt>
      <trkpt lat="43.190787" lon="-6.113762">
        <ele>976.0</ele>
        <time>2012-06-14T08:48:00Z</time>
      </trkpt>
      <trkpt lat="43.190578" lon="-6.113242">
        <ele>974.0</ele>
        <time>2012-06-14T08:48:04Z</time>
      </trkpt>
      <trkpt lat="43.190327" lon="-6.112766">
        <ele>972.0</ele>
        <time>2012-06-14T08:48:08Z</time>
      </trkpt>
      <trkpt lat="43.189994" lon="-6.112385">
        <ele>969.0</ele>
        <time>2012-06-14T08:48:12Z</time>
      </trkpt>
      <trkpt lat="43.189557" lon="-6.112118">
        <ele>965.0</ele>
        <time>2012-06-14T08:48:16Z</time>
      </trkpt>
      <trkpt lat="43.18919" lon="-6.111696">
        <ele>963.0</ele>
        <time>2012-06-14T08:48:20Z</time>
      </trkpt>
      <trkpt lat="43.189002" lon="-6.111159">
        <ele>962.0</ele>
        <time>2012-06-14T08:48:24Z</time>
      </trkpt>
      <trkpt lat="43.188919" lon="-6.11077">
        <ele>962.0</ele>
        <time>2012-06-14T08:48:27Z</time>
      </trkpt>
      <trkpt lat="43.189095" lon="-6.110491">
        <ele>956.0</ele>
        <time>2012-06-14T08:48:32Z</time>
      </trkpt>
      <trkpt lat="43.189329" lon="-6.110417">
        <ele>949.0</ele>
        <time>2012-06-14T08:48:35Z</time>
      </trkpt>
      <trkpt lat="43.18988" lon="-6.110361">
        <ele>942.0</ele>
        <time>2012-06-14T08:48:40Z</time>
      </trkpt>
      <trkpt lat="43.19021" lon="-6.110239">
        <ele>940.0</ele>
        <time>2012-06-14T08:48:43Z</time>
      </trkpt>
      <trkpt lat="43.190661" lon="-6.110063">
        <ele>938.0</ele>
        <time>2012-06-14T08:48:48Z</time>
      </trkpt>
      <trkpt lat="43.190983" lon="-6.1099">
        <ele>938.0</ele>
        <time>2012-06-14T08:48:52Z</time>
      </trkpt>
      <trkpt lat="43.191275" lon="-6.109752">
        <ele>939.0</ele>
        <time>2012-06-14T08:48:56Z</time>
      </trkpt>
      <trkpt lat="43.191564" lon="-6.10967">
        <ele>938.0</ele>
        <time>2012-06-14T08:49:00Z</time>
      </trkpt>
      <trkpt lat="43.191786" lon="-6.109613">
        <ele>938.0</ele>
        <time>2012-06-14T08:49:03Z</time>
      </trkpt>
      <trkpt lat="43.191941" lon="-6.109704">
        <ele>940.0</ele>
        <time>2012-06-14T08:49:07Z</time>
      </trkpt>
      <trkpt lat="43.19192" lon="-6.109963">
        <ele>941.0</ele>
        <time>2012-06-14T08:49:11Z</time>
      </trkpt>
      <trkpt lat="43.191682" lon="-6.110246">
        <ele>942.0</ele>
        <time>2012-06-14T08:49:16Z</time>
      </trkpt>
      <trkpt lat="43.191181" lon="-6.109985">
        <ele>944.0</ele>
        <time>2012-06-14T08:49:20Z</time>
      </trkpt>
      <trkpt lat="43.190783" lon="-6.109509">
        <ele>944.0</ele>
        <time>2012-06-14T08:49:24Z</time>
      </trkpt>
      <trkpt lat="43.190334" lon="-6.109106">
        <ele>942.0</ele>
        <time>2012-06-14T08:49:28Z</time>
      </trkpt>
      <trkpt lat="43.189721" lon="-6.108741">
        <ele>940.0</ele>
        <time>2012-06-14T08:49:32Z</time>
      </trkpt>
      <trkpt lat="43.189083" lon="-6.108381">
        <ele>938.0</ele>
        <time>2012-06-14T08:49:36Z</time>
      </trkpt>
      <trkpt lat="43.188712" lon="-6.108118">
        <ele>938.0</ele>
        <time>2012-06-14T08:49:39Z</time>
      </trkpt>
      <trkpt lat="43.188376" lon="-6.107651">
        <ele>936.0</ele>
        <time>2012-06-14T08:49:43Z</time>
      </trkpt>
      <trkpt lat="43.187704" lon="-6.107005">
        <ele>923.0</ele>
        <time>2012-06-14T08:49:52Z</time>
      </trkpt>
      <trkpt lat="43.187296" lon="-6.106883">
        <ele>912.0</ele>
        <time>2012-06-14T08:49:56Z</time>
      </trkpt>
      <trkpt lat="43.186898" lon="-6.1069">
        <ele>904.0</ele>
        <time>2012-06-14T08:50:00Z</time>
      </trkpt>
      <trkpt lat="43.186713" lon="-6.106895">
        <ele>901.0</ele>
        <time>2012-06-14T08:50:02Z</time>
      </trkpt>
      <trkpt lat="43.186472" lon="-6.106936">
        <ele>869.0</ele>
        <time>2012-06-14T08:50:07Z</time>
      </trkpt>
      <trkpt lat="43.186151" lon="-6.106746">
        <ele>848.0</ele>
        <time>2012-06-14T08:50:12Z</time>
      </trkpt>
      <trkpt lat="43.185807" lon="-6.106598">
        <ele>841.0</ele>
        <time>2012-06-14T08:50:16Z</time>
      </trkpt>
      <trkpt lat="43.185429" lon="-6.106444">
        <ele>837.0</ele>
        <time>2012-06-14T08:50:20Z</time>
      </trkpt>
      <trkpt lat="43.185072" lon="-6.106254">
        <ele>835.0</ele>
        <time>2012-06-14T08:50:24Z</time>
      </trkpt>
      <trkpt lat="43.184737" lon="-6.106082">
        <ele>832.0</ele>
        <time>2012-06-14T08:50:28Z</time>
      </trkpt>
      <trkpt lat="43.18432" lon="-6.106003">
        <ele>827.0</ele>
        <time>2012-06-14T08:50:32Z</time>
      </trkpt>
      <trkpt lat="43.183871" lon="-6.106081">
        <ele>824.0</ele>
        <time>2012-06-14T08:50:36Z</time>
      </trkpt>
      <trkpt lat="43.183513" lon="-6.106062">
        <ele>819.0</ele>
        <time>2012-06-14T08:50:40Z</time>
      </trkpt>
      <trkpt lat="43.183138" lon="-6.105865">
        <ele>811.0</ele>
        <time>2012-06-14T08:50:44Z</time>
      </trkpt>
      <trkpt lat="43.182735" lon="-6.105692">
        <ele>806.0</ele>
        <time>2012-06-14T08:50:48Z</time>
      </trkpt>
      <trkpt lat="43.18243" lon="-6.105792">
        <ele>794.0</ele>
        <time>2012-06-14T08:50:52Z</time>
      </trkpt>
      <trkpt lat="43.18214" lon="-6.105692">
        <ele>785.0</ele>
        <time>2012-06-14T08:50:56Z</time>
      </trkpt>
      <trkpt lat="43.18185" lon="-6.105473">
        <ele>778.0</ele>
        <time>2012-06-14T08:51:00Z</time>
      </trkpt>
      <trkpt lat="43.181434" lon="-6.105239">
        <ele>770.0</ele>
        <time>2012-06-14T08:51:04Z</time>
      </trkpt>
      <trkpt lat="43.181105" lon="-6.105035">
        <ele>763.0</ele>
        <time>2012-06-14T08:51:08Z</time>
      </trkpt>
      <trkpt lat="43.18088" lon="-6.104841">
        <ele>757.0</ele>
        <time>2012-06-14T08:51:12Z</time>
      </trkpt>
      <trkpt lat="43.180661" lon="-6.104917">
        <ele>753.0</ele>
        <time>2012-06-14T08:51:16Z</time>
      </trkpt>
      <trkpt lat="43.180718" lon="-6.10526">
        <ele>751.0</ele>
        <time>2012-06-14T08:51:20Z</time>
      </trkpt>
      <trkpt lat="43.180918" lon="-6.10562">
        <ele>749.0</ele>
        <time>2012-06-14T08:51:24Z</time>
      </trkpt>
      <trkpt lat="43.181141" lon="-6.105998">
        <ele>747.0</ele>
        <time>2012-06-14T08:51:28Z</time>
      </trkpt>
      <trkpt lat="43.181375" lon="-6.106352">
        <ele>746.0</ele>
        <time>2012-06-14T08:51:32Z</time>
      </trkpt>
      <trkpt lat="43.181643" lon="-6.106627">
        <ele>744.0</ele>
        <time>2012-06-14T08:51:36Z</time>
      </trkpt>
      <trkpt lat="43.181909" lon="-6.106845">
        <ele>744.0</ele>
        <time>2012-06-14T08:51:40Z</time>
      </trkpt>
      <trkpt lat="43.182158" lon="-6.107062">
        <ele>744.0</ele>
        <time>2012-06-14T08:51:44Z</time>
      </trkpt>
      <trkpt lat="43.182263" lon="-6.107199">
        <ele>744.0</ele>
        <time>2012-06-14T08:51:46Z</time>
      </trkpt>
      <trkpt lat="43.182419" lon="-6.107793">
        <ele>744.0</ele>
        <time>2012-06-14T08:51:52Z</time>
      </trkpt>
      <trkpt lat="43.182447" lon="-6.108254">
        <ele>744.0</ele>
        <time>2012-06-14T08:51:56Z</time>
      </trkpt>
      <trkpt lat="43.182357" lon="-6.108761">
        <ele>745.0</ele>
        <time>2012-06-14T08:52:00Z</time>
      </trkpt>
      <trkpt lat="43.182179" lon="-6.109236">
        <ele>746.0</ele>
        <time>2012-06-14T08:52:04Z</time>
      </trkpt>
      <trkpt lat="43.181982" lon="-6.109513">
        <ele>747.0</ele>
        <time>2012-06-14T08:52:08Z</time>
      </trkpt>
      <trkpt lat="43.181686" lon="-6.109427">
        <ele>744.0</ele>
        <time>2012-06-14T08:52:12Z</time>
      </trkpt>
      <trkpt lat="43.18155" lon="-6.109272">
        <ele>736.0</ele>
        <time>2012-06-14T08:52:15Z</time>
      </trkpt>
      <trkpt lat="43.18162" lon="-6.10882">
        <ele>727.0</ele>
        <time>2012-06-14T08:52:20Z</time>
      </trkpt>
      <trkpt lat="43.181819" lon="-6.108459">
        <ele>722.0</ele>
        <time>2012-06-14T08:52:24Z</time>
      </trkpt>
      <trkpt lat="43.181904" lon="-6.108088">
        <ele>719.0</ele>
        <time>2012-06-14T08:52:28Z</time>
      </trkpt>
      <trkpt lat="43.181832" lon="-6.10773">
        <ele>718.0</ele>
        <time>2012-06-14T08:52:32Z</time>
      </trkpt>
      <trkpt lat="43.181768" lon="-6.107653">
        <ele>718.0</ele>
        <time>2012-06-14T08:52:33Z</time>
      </trkpt>
      <trkpt lat="43.181179" lon="-6.107635">
        <ele>717.0</ele>
        <time>2012-06-14T08:52:40Z</time>
      </trkpt>
      <trkpt lat="43.180991" lon="-6.107643">
        <ele>717.0</ele>
        <time>2012-06-14T08:52:43Z</time>
      </trkpt>
      <trkpt lat="43.180636" lon="-6.107453">
        <ele>717.0</ele>
        <time>2012-06-14T08:52:48Z</time>
      </trkpt>
      <trkpt lat="43.180238" lon="-6.107306">
        <ele>718.0</ele>
        <time>2012-06-14T08:52:52Z</time>
      </trkpt>
      <trkpt lat="43.179775" lon="-6.107224">
        <ele>715.0</ele>
        <time>2012-06-14T08:52:56Z</time>
      </trkpt>
      <trkpt lat="43.179374" lon="-6.107276">
        <ele>712.0</ele>
        <time>2012-06-14T08:53:00Z</time>
      </trkpt>
      <trkpt lat="43.179025" lon="-6.10738">
        <ele>709.0</ele>
        <time>2012-06-14T08:53:04Z</time>
      </trkpt>
      <trkpt lat="43.178689" lon="-6.107344">
        <ele>705.0</ele>
        <time>2012-06-14T08:53:08Z</time>
      </trkpt>
      <trkpt lat="43.178416" lon="-6.107219">
        <ele>701.0</ele>
        <time>2012-06-14T08:53:12Z</time>
      </trkpt>
      <trkpt lat="43.178338" lon="-6.107036">
        <ele>689.0</ele>
        <time>2012-06-14T08:53:16Z</time>
      </trkpt>
      <trkpt lat="43.178209" lon="-6.106711">
        <ele>680.0</ele>
        <time>2012-06-14T08:53:20Z</time>
      </trkpt>
      <trkpt lat="43.177963" lon="-6.106335">
        <ele>675.0</ele>
        <time>2012-06-14T08:53:24Z</time>
      </trkpt>
      <trkpt lat="43.177605" lon="-6.106059">
        <ele>670.0</ele>
        <time>2012-06-14T08:53:28Z</time>
      </trkpt>
      <trkpt lat="43.177163" lon="-6.105804">
        <ele>664.0</ele>
        <time>2012-06-14T08:53:32Z</time>
      </trkpt>
      <trkpt lat="43.176746" lon="-6.105595">
        <ele>661.0</ele>
        <time>2012-06-14T08:53:36Z</time>
      </trkpt>
      <trkpt lat="43.176383" lon="-6.105407">
        <ele>659.0</ele>
        <time>2012-06-14T08:53:40Z</time>
      </trkpt>
      <trkpt lat="43.176011" lon="-6.10528">
        <ele>658.0</ele>
        <time>2012-06-14T08:53:44Z</time>
      </trkpt>
      <trkpt lat="43.175649" lon="-6.105086">
        <ele>658.0</ele>
        <time>2012-06-14T08:53:48Z</time>
      </trkpt>
      <trkpt lat="43.175303" lon="-6.104877">
        <ele>657.0</ele>
        <time>2012-06-14T08:53:52Z</time>
      </trkpt>
      <trkpt lat="43.174991" lon="-6.10474">
        <ele>656.0</ele>
        <time>2012-06-14T08:53:56Z</time>
      </trkpt>
      <trkpt lat="43.174925" lon="-6.104423">
        <ele>654.0</ele>
        <time>2012-06-14T08:54:00Z</time>
      </trkpt>
      <trkpt lat="43.174976" lon="-6.103934">
        <ele>651.0</ele>
        <time>2012-06-14T08:54:04Z</time>
      </trkpt>
      <trkpt lat="43.174898" lon="-6.103406">
        <ele>648.0</ele>
        <time>2012-06-14T08:54:08Z</time>
      </trkpt>
      <trkpt lat="43.174838" lon="-6.102899">
        <ele>646.0</ele>
        <time>2012-06-14T08:54:12Z</time>
      </trkpt>
      <trkpt lat="43.174549" lon="-6.102554">
        <ele>644.0</ele>
        <time>2012-06-14T08:54:16Z</time>
      </trkpt>
      <trkpt lat="43.174163" lon="-6.102315">
        <ele>641.0</ele>
        <time>2012-06-14T08:54:20Z</time>
      </trkpt>
      <trkpt lat="43.173748" lon="-6.102305">
        <ele>634.0</ele>
        <time>2012-06-14T08:54:24Z</time>
      </trkpt>
      <trkpt lat="43.173393" lon="-6.102369">
        <ele>630.0</ele>
        <time>2012-06-14T08:54:28Z</time>
      </trkpt>
      <trkpt lat="43.173106" lon="-6.102183">
        <ele>627.0</ele>
        <time>2012-06-14T08:54:32Z</time>
      </trkpt>
      <trkpt lat="43.172899" lon="-6.101853">
        <ele>623.0</ele>
        <time>2012-06-14T08:54:36Z</time>
      </trkpt>
      <trkpt lat="43.172755" lon="-6.101409">
        <ele>620.0</ele>
        <time>2012-06-14T08:54:40Z</time>
      </trkpt>
      <trkpt lat="43.172657" lon="-6.100913">
        <ele>618.0</ele>
        <time>2012-06-14T08:54:44Z</time>
      </trkpt>
      <trkpt lat="43.172542" lon="-6.100528">
        <ele>617.0</ele>
        <time>2012-06-14T08:54:47Z</time>
      </trkpt>
      <trkpt lat="43.172249" lon="-6.099952">
        <ele>611.0</ele>
        <time>2012-06-14T08:54:52Z</time>
      </trkpt>
      <trkpt lat="43.172198" lon="-6.099543">
        <ele>599.0</ele>
        <time>2012-06-14T08:54:56Z</time>
      </trkpt>
      <trkpt lat="43.172334" lon="-6.099157">
        <ele>592.0</ele>
        <time>2012-06-14T08:55:00Z</time>
      </trkpt>
      <trkpt lat="43.172487" lon="-6.098741">
        <ele>586.0</ele>
        <time>2012-06-14T08:55:04Z</time>
      </trkpt>
      <trkpt lat="43.172557" lon="-6.098339">
        <ele>582.0</ele>
        <time>2012-06-14T08:55:08Z</time>
      </trkpt>
      <trkpt lat="43.172289" lon="-6.098061">
        <ele>579.0</ele>
        <time>2012-06-14T08:55:12Z</time>
      </trkpt>
      <trkpt lat="43.171865" lon="-6.098233">
        <ele>574.0</ele>
        <time>2012-06-14T08:55:16Z</time>
      </trkpt>
      <trkpt lat="43.171475" lon="-6.098332">
        <ele>569.0</ele>
        <time>2012-06-14T08:55:20Z</time>
      </trkpt>
      <trkpt lat="43.171094" lon="-6.0983">
        <ele>566.0</ele>
        <time>2012-06-14T08:55:24Z</time>
      </trkpt>
      <trkpt lat="43.17068" lon="-6.098363">
        <ele>562.0</ele>
        <time>2012-06-14T08:55:28Z</time>
      </trkpt>
      <trkpt lat="43.170375" lon="-6.098553">
        <ele>556.0</ele>
        <time>2012-06-14T08:55:32Z</time>
      </trkpt>
      <trkpt lat="43.170112" lon="-6.09886">
        <ele>550.0</ele>
        <time>2012-06-14T08:55:36Z</time>
      </trkpt>
      <trkpt lat="43.170011" lon="-6.099225">
        <ele>546.0</ele>
        <time>2012-06-14T08:55:40Z</time>
      </trkpt>
      <trkpt lat="43.169979" lon="-6.099587">
        <ele>543.0</ele>
        <time>2012-06-14T08:55:44Z</time>
      </trkpt>
      <trkpt lat="43.169809" lon="-6.099615">
        <ele>540.0</ele>
        <time>2012-06-14T08:55:48Z</time>
      </trkpt>
      <trkpt lat="43.169739" lon="-6.099137">
        <ele>537.0</ele>
        <time>2012-06-14T08:55:52Z</time>
      </trkpt>
      <trkpt lat="43.169827" lon="-6.09871">
        <ele>535.0</ele>
        <time>2012-06-14T08:55:56Z</time>
      </trkpt>
      <trkpt lat="43.169883" lon="-6.098257">
        <ele>530.0</ele>
        <time>2012-06-14T08:56:00Z</time>
      </trkpt>
      <trkpt lat="43.169934" lon="-6.097823">
        <ele>526.0</ele>
        <time>2012-06-14T08:56:04Z</time>
      </trkpt>
      <trkpt lat="43.169893" lon="-6.097589">
        <ele>524.0</ele>
        <time>2012-06-14T08:56:07Z</time>
      </trkpt>
      <trkpt lat="43.169627" lon="-6.097377">
        <ele>522.0</ele>
        <time>2012-06-14T08:56:12Z</time>
      </trkpt>
      <trkpt lat="43.169459" lon="-6.097391">
        <ele>522.0</ele>
        <time>2012-06-14T08:56:15Z</time>
      </trkpt>
      <trkpt lat="43.169216" lon="-6.097271">
        <ele>523.0</ele>
        <time>2012-06-14T08:56:20Z</time>
      </trkpt>
      <trkpt lat="43.169211" lon="-6.097019">
        <ele>522.0</ele>
        <time>2012-06-14T08:56:23Z</time>
      </trkpt>
      <trkpt lat="43.169449" lon="-6.096563">
        <ele>521.0</ele>
        <time>2012-06-14T08:56:28Z</time>
      </trkpt>
      <trkpt lat="43.169497" lon="-6.09623">
        <ele>522.0</ele>
        <time>2012-06-14T08:56:32Z</time>
      </trkpt>
      <trkpt lat="43.169354" lon="-6.096024">
        <ele>523.0</ele>
        <time>2012-06-14T08:56:36Z</time>
      </trkpt>
      <trkpt lat="43.169238" lon="-6.095979">
        <ele>522.0</ele>
        <time>2012-06-14T08:56:38Z</time>
      </trkpt>
      <trkpt lat="43.16888" lon="-6.09575">
        <ele>519.0</ele>
        <time>2012-06-14T08:56:44Z</time>
      </trkpt>
      <trkpt lat="43.168651" lon="-6.09559">
        <ele>517.0</ele>
        <time>2012-06-14T08:56:48Z</time>
      </trkpt>
      <trkpt lat="43.168449" lon="-6.09552">
        <ele>516.0</ele>
        <time>2012-06-14T08:56:52Z</time>
      </trkpt>
      <trkpt lat="43.168248" lon="-6.095486">
        <ele>515.0</ele>
        <time>2012-06-14T08:56:56Z</time>
      </trkpt>
      <trkpt lat="43.168038" lon="-6.095457">
        <ele>514.0</ele>
        <time>2012-06-14T08:57:00Z</time>
      </trkpt>
      <trkpt lat="43.167833" lon="-6.095443">
        <ele>514.0</ele>
        <time>2012-06-14T08:57:04Z</time>
      </trkpt>
      <trkpt lat="43.167736" lon="-6.095445">
        <ele>514.0</ele>
        <time>2012-06-14T08:57:06Z</time>
      </trkpt>
      <trkpt lat="43.167462" lon="-6.095469">
        <ele>515.0</ele>
        <time>2012-06-14T08:57:12Z</time>
      </trkpt>
      <trkpt lat="43.167273" lon="-6.095506">
        <ele>515.0</ele>
        <time>2012-06-14T08:57:16Z</time>
      </trkpt>
      <trkpt lat="43.167088" lon="-6.095593">
        <ele>515.0</ele>
        <time>2012-06-14T08:57:20Z</time>
      </trkpt>
      <trkpt lat="43.166811" lon="-6.095994">
        <ele>515.0</ele>
        <time>2012-06-14T08:57:28Z</time>
      </trkpt>
      <trkpt lat="43.166665" lon="-6.0962">
        <ele>515.0</ele>
        <time>2012-06-14T08:57:32Z</time>
      </trkpt>
      <trkpt lat="43.166461" lon="-6.096329">
        <ele>514.0</ele>
        <time>2012-06-14T08:57:36Z</time>
      </trkpt>
      <trkpt lat="43.16625" lon="-6.09638">
        <ele>515.0</ele>
        <time>2012-06-14T08:57:40Z</time>
      </trkpt>
      <trkpt lat="43.166004" lon="-6.096364">
        <ele>515.0</ele>
        <time>2012-06-14T08:57:44Z</time>
      </trkpt>
      <trkpt lat="43.165772" lon="-6.096391">
        <ele>515.0</ele>
        <time>2012-06-14T08:57:48Z</time>
      </trkpt>
      <trkpt lat="43.165541" lon="-6.096422">
        <ele>515.0</ele>
        <time>2012-06-14T08:57:52Z</time>
      </trkpt>
      <trkpt lat="43.165425" lon="-6.096437">
        <ele>515.0</ele>
        <time>2012-06-14T08:57:54Z</time>
      </trkpt>
      <trkpt lat="43.165071" lon="-6.096624">
        <ele>515.0</ele>
        <time>2012-06-14T08:58:00Z</time>
      </trkpt>
      <trkpt lat="43.164823" lon="-6.09674">
        <ele>516.0</ele>
        <time>2012-06-14T08:58:04Z</time>
      </trkpt>
      <trkpt lat="43.164594" lon="-6.096841">
        <ele>516.0</ele>
        <time>2012-06-14T08:58:08Z</time>
      </trkpt>
      <trkpt lat="43.164386" lon="-6.096916">
        <ele>517.0</ele>
        <time>2012-06-14T08:58:12Z</time>
      </trkpt>
      <trkpt lat="43.164208" lon="-6.096943">
        <ele>517.0</ele>
        <time>2012-06-14T08:58:16Z</time>
      </trkpt>
      <trkpt lat="43.164047" lon="-6.09695">
        <ele>517.0</ele>
        <time>2012-06-14T08:58:20Z</time>
      </trkpt>
      <trkpt lat="43.163978" lon="-6.096898">
        <ele>518.0</ele>
        <time>2012-06-14T08:58:23Z</time>
      </trkpt>
      <trkpt lat="43.163861" lon="-6.096699">
        <ele>518.0</ele>
        <time>2012-06-14T08:58:28Z</time>
      </trkpt>
      <trkpt lat="43.163637" lon="-6.096345">
        <ele>520.0</ele>
        <time>2012-06-14T08:58:32Z</time>
      </trkpt>
      <trkpt lat="43.16337" lon="-6.096042">
        <ele>522.0</ele>
        <time>2012-06-14T08:58:36Z</time>
      </trkpt>
      <trkpt lat="43.163144" lon="-6.095855">
        <ele>523.0</ele>
        <time>2012-06-14T08:58:40Z</time>
      </trkpt>
      <trkpt lat="43.162925" lon="-6.09574">
        <ele>523.0</ele>
        <time>2012-06-14T08:58:44Z</time>
      </trkpt>
      <trkpt lat="43.162684" lon="-6.095684">
        <ele>524.0</ele>
        <time>2012-06-14T08:58:48Z</time>
      </trkpt>
      <trkpt lat="43.162456" lon="-6.095784">
        <ele>525.0</ele>
        <time>2012-06-14T08:58:52Z</time>
      </trkpt>
      <trkpt lat="43.162235" lon="-6.096012">
        <ele>527.0</ele>
        <time>2012-06-14T08:58:56Z</time>
      </trkpt>
      <trkpt lat="43.162063" lon="-6.096286">
        <ele>528.0</ele>
        <time>2012-06-14T08:59:00Z</time>
      </trkpt>
      <trkpt lat="43.161926" lon="-6.096581">
        <ele>528.0</ele>
        <time>2012-06-14T08:59:04Z</time>
      </trkpt>
      <trkpt lat="43.161769" lon="-6.096837">
        <ele>528.0</ele>
        <time>2012-06-14T08:59:08Z</time>
      </trkpt>
      <trkpt lat="43.161601" lon="-6.097087">
        <ele>529.0</ele>
        <time>2012-06-14T08:59:12Z</time>
      </trkpt>
      <trkpt lat="43.161444" lon="-6.097326">
        <ele>529.0</ele>
        <time>2012-06-14T08:59:16Z</time>
      </trkpt>
      <trkpt lat="43.161297" lon="-6.097559">
        <ele>529.0</ele>
        <time>2012-06-14T08:59:20Z</time>
      </trkpt>
      <trkpt lat="43.16114" lon="-6.097799">
        <ele>530.0</ele>
        <time>2012-06-14T08:59:24Z</time>
      </trkpt>
      <trkpt lat="43.161057" lon="-6.09792">
        <ele>530.0</ele>
        <time>2012-06-14T08:59:26Z</time>
      </trkpt>
      <trkpt lat="43.160806" lon="-6.098264">
        <ele>532.0</ele>
        <time>2012-06-14T08:59:32Z</time>
      </trkpt>
      <trkpt lat="43.160641" lon="-6.0985">
        <ele>533.0</ele>
        <time>2012-06-14T08:59:36Z</time>
      </trkpt>
      <trkpt lat="43.160485" lon="-6.098756">
        <ele>533.0</ele>
        <time>2012-06-14T08:59:40Z</time>
      </trkpt>
      <trkpt lat="43.160422" lon="-6.098896">
        <ele>533.0</ele>
        <time>2012-06-14T08:59:42Z</time>
      </trkpt>
      <trkpt lat="43.160389" lon="-6.098986">
        <ele>536.0</ele>
        <time>2012-06-14T08:59:46Z</time>
      </trkpt>
      <trkpt lat="43.160174" lon="-6.099376">
        <ele>540.0</ele>
        <time>2012-06-14T08:59:52Z</time>
      </trkpt>
      <trkpt lat="43.160015" lon="-6.099636">
        <ele>540.0</ele>
        <time>2012-06-14T08:59:56Z</time>
      </trkpt>
      <trkpt lat="43.159878" lon="-6.099913">
        <ele>540.0</ele>
        <time>2012-06-14T09:00:00Z</time>
      </trkpt>
      <trkpt lat="43.159734" lon="-6.100548">
        <ele>540.0</ele>
        <time>2012-06-14T09:00:08Z</time>
      </trkpt>
      <trkpt lat="43.159728" lon="-6.100862">
        <ele>539.0</ele>
        <time>2012-06-14T09:00:12Z</time>
      </trkpt>
      <trkpt lat="43.159727" lon="-6.101167">
        <ele>539.0</ele>
        <time>2012-06-14T09:00:16Z</time>
      </trkpt>
      <trkpt lat="43.15972" lon="-6.101318">
        <ele>539.0</ele>
        <time>2012-06-14T09:00:18Z</time>
      </trkpt>
      <trkpt lat="43.159635" lon="-6.101762">
        <ele>540.0</ele>
        <time>2012-06-14T09:00:24Z</time>
      </trkpt>
      <trkpt lat="43.159515" lon="-6.102032">
        <ele>541.0</ele>
        <time>2012-06-14T09:00:28Z</time>
      </trkpt>
      <trkpt lat="43.159443" lon="-6.102156">
        <ele>541.0</ele>
        <time>2012-06-14T09:00:30Z</time>
      </trkpt>
      <trkpt lat="43.159265" lon="-6.102348">
        <ele>542.0</ele>
        <time>2012-06-14T09:00:34Z</time>
      </trkpt>
      <trkpt lat="43.159005" lon="-6.102626">
        <ele>542.0</ele>
        <time>2012-06-14T09:00:40Z</time>
      </trkpt>
      <trkpt lat="43.158879" lon="-6.102864">
        <ele>542.0</ele>
        <time>2012-06-14T09:00:44Z</time>
      </trkpt>
      <trkpt lat="43.158779" lon="-6.103132">
        <ele>542.0</ele>
        <time>2012-06-14T09:00:48Z</time>
      </trkpt>
      <trkpt lat="43.158648" lon="-6.103381">
        <ele>543.0</ele>
        <time>2012-06-14T09:00:52Z</time>
      </trkpt>
      <trkpt lat="43.15847" lon="-6.103596">
        <ele>544.0</ele>
        <time>2012-06-14T09:00:56Z</time>
      </trkpt>
      <trkpt lat="43.158377" lon="-6.103701">
        <ele>544.0</ele>
        <time>2012-06-14T09:00:58Z</time>
      </trkpt>
      <trkpt lat="43.15812" lon="-6.104057">
        <ele>545.0</ele>
        <time>2012-06-14T09:01:04Z</time>
      </trkpt>
      <trkpt lat="43.157986" lon="-6.104345">
        <ele>545.0</ele>
        <time>2012-06-14T09:01:08Z</time>
      </trkpt>
      <trkpt lat="43.157927" lon="-6.1045">
        <ele>545.0</ele>
        <time>2012-06-14T09:01:10Z</time>
      </trkpt>
      <trkpt lat="43.157761" lon="-6.104985">
        <ele>546.0</ele>
        <time>2012-06-14T09:01:16Z</time>
      </trkpt>
      <trkpt lat="43.157684" lon="-6.105224">
        <ele>546.0</ele>
        <time>2012-06-14T09:01:19Z</time>
      </trkpt>
      <trkpt lat="43.157583" lon="-6.105531">
        <ele>546.0</ele>
        <time>2012-06-14T09:01:23Z</time>
      </trkpt>
      <trkpt lat="43.157449" lon="-6.106114">
        <ele>547.0</ele>
        <time>2012-06-14T09:01:31Z</time>
      </trkpt>
      <trkpt lat="43.157451" lon="-6.106251">
        <ele>547.0</ele>
        <time>2012-06-14T09:01:33Z</time>
      </trkpt>
      <trkpt lat="43.157478" lon="-6.106892">
        <ele>551.0</ele>
        <time>2012-06-14T09:01:43Z</time>
      </trkpt>
      <trkpt lat="43.157472" lon="-6.107139">
        <ele>552.0</ele>
        <time>2012-06-14T09:01:47Z</time>
      </trkpt>
      <trkpt lat="43.157464" lon="-6.107391">
        <ele>553.0</ele>
        <time>2012-06-14T09:01:51Z</time>
      </trkpt>
      <trkpt lat="43.157452" lon="-6.107521">
        <ele>553.0</ele>
        <time>2012-06-14T09:01:53Z</time>
      </trkpt>
      <trkpt lat="43.157384" lon="-6.107924">
        <ele>555.0</ele>
        <time>2012-06-14T09:01:59Z</time>
      </trkpt>
      <trkpt lat="43.157399" lon="-6.108531">
        <ele>556.0</ele>
        <time>2012-06-14T09:02:07Z</time>
      </trkpt>
      <trkpt lat="43.157431" lon="-6.108802">
        <ele>556.0</ele>
        <time>2012-06-14T09:02:11Z</time>
      </trkpt>
      <trkpt lat="43.157418" lon="-6.108926">
        <ele>556.0</ele>
        <time>2012-06-14T09:02:13Z</time>
      </trkpt>
      <trkpt lat="43.157418" lon="-6.109291">
        <ele>556.0</ele>
        <time>2012-06-14T09:02:19Z</time>
      </trkpt>
      <trkpt lat="43.157466" lon="-6.1095">
        <ele>557.0</ele>
        <time>2012-06-14T09:02:23Z</time>
      </trkpt>
      <trkpt lat="43.157524" lon="-6.109693">
        <ele>558.0</ele>
        <time>2012-06-14T09:02:27Z</time>
      </trkpt>
      <trkpt lat="43.157553" lon="-6.109885">
        <ele>558.0</ele>
        <time>2012-06-14T09:02:31Z</time>
      </trkpt>
      <trkpt lat="43.157595" lon="-6.110073">
        <ele>560.0</ele>
        <time>2012-06-14T09:02:35Z</time>
      </trkpt>
      <trkpt lat="43.157583" lon="-6.110245">
        <ele>560.0</ele>
        <time>2012-06-14T09:02:39Z</time>
      </trkpt>
      <trkpt lat="43.15755" lon="-6.110427">
        <ele>561.0</ele>
        <time>2012-06-14T09:02:43Z</time>
      </trkpt>
      <trkpt lat="43.157533" lon="-6.110613">
        <ele>561.0</ele>
        <time>2012-06-14T09:02:47Z</time>
      </trkpt>
      <trkpt lat="43.157515" lon="-6.110699">
        <ele>561.0</ele>
        <time>2012-06-14T09:02:49Z</time>
      </trkpt>
      <trkpt lat="43.157448" lon="-6.110982">
        <ele>562.0</ele>
        <time>2012-06-14T09:02:55Z</time>
      </trkpt>
      <trkpt lat="43.157423" lon="-6.111215">
        <ele>562.0</ele>
        <time>2012-06-14T09:02:59Z</time>
      </trkpt>
      <trkpt lat="43.157449" lon="-6.111782">
        <ele>563.0</ele>
        <time>2012-06-14T09:03:07Z</time>
      </trkpt>
      <trkpt lat="43.157444" lon="-6.112098">
        <ele>564.0</ele>
        <time>2012-06-14T09:03:11Z</time>
      </trkpt>
      <trkpt lat="43.157426" lon="-6.112241">
        <ele>565.0</ele>
        <time>2012-06-14T09:03:13Z</time>
      </trkpt>
      <trkpt lat="43.157424" lon="-6.112647">
        <ele>566.0</ele>
        <time>2012-06-14T09:03:19Z</time>
      </trkpt>
      <trkpt lat="43.157455" lon="-6.112907">
        <ele>567.0</ele>
        <time>2012-06-14T09:03:23Z</time>
      </trkpt>
      <trkpt lat="43.157498" lon="-6.113148">
        <ele>567.0</ele>
        <time>2012-06-14T09:03:27Z</time>
      </trkpt>
      <trkpt lat="43.157545" lon="-6.113413">
        <ele>567.0</ele>
        <time>2012-06-14T09:03:31Z</time>
      </trkpt>
      <trkpt lat="43.157566" lon="-6.113701">
        <ele>568.0</ele>
        <time>2012-06-14T09:03:35Z</time>
      </trkpt>
      <trkpt lat="43.157539" lon="-6.113997">
        <ele>569.0</ele>
        <time>2012-06-14T09:03:39Z</time>
      </trkpt>
      <trkpt lat="43.157493" lon="-6.114299">
        <ele>569.0</ele>
        <time>2012-06-14T09:03:43Z</time>
      </trkpt>
      <trkpt lat="43.157467" lon="-6.114451">
        <ele>570.0</ele>
        <time>2012-06-14T09:03:45Z</time>
      </trkpt>
      <trkpt lat="43.157406" lon="-6.114906">
        <ele>571.0</ele>
        <time>2012-06-14T09:03:51Z</time>
      </trkpt>
      <trkpt lat="43.157385" lon="-6.115179">
        <ele>572.0</ele>
        <time>2012-06-14T09:03:55Z</time>
      </trkpt>
      <trkpt lat="43.157363" lon="-6.115431">
        <ele>572.0</ele>
        <time>2012-06-14T09:03:59Z</time>
      </trkpt>
      <trkpt lat="43.157283" lon="-6.115914">
        <ele>574.0</ele>
        <time>2012-06-14T09:04:07Z</time>
      </trkpt>
      <trkpt lat="43.157216" lon="-6.116133">
        <ele>574.0</ele>
        <time>2012-06-14T09:04:11Z</time>
      </trkpt>
      <trkpt lat="43.157156" lon="-6.116351">
        <ele>574.0</ele>
        <time>2012-06-14T09:04:15Z</time>
      </trkpt>
      <trkpt lat="43.157106" lon="-6.116588">
        <ele>574.0</ele>
        <time>2012-06-14T09:04:19Z</time>
      </trkpt>
      <trkpt lat="43.157085" lon="-6.116841">
        <ele>574.0</ele>
        <time>2012-06-14T09:04:23Z</time>
      </trkpt>
      <trkpt lat="43.157099" lon="-6.117095">
        <ele>574.0</ele>
        <time>2012-06-14T09:04:27Z</time>
      </trkpt>
      <trkpt lat="43.157115" lon="-6.117343">
        <ele>574.0</ele>
        <time>2012-06-14T09:04:31Z</time>
      </trkpt>
      <trkpt lat="43.157166" lon="-6.11758">
        <ele>575.0</ele>
        <time>2012-06-14T09:04:35Z</time>
      </trkpt>
      <trkpt lat="43.157187" lon="-6.117808">
        <ele>576.0</ele>
        <time>2012-06-14T09:04:39Z</time>
      </trkpt>
      <trkpt lat="43.157156" lon="-6.118032">
        <ele>577.0</ele>
        <time>2012-06-14T09:04:43Z</time>
      </trkpt>
      <trkpt lat="43.157096" lon="-6.118244">
        <ele>577.0</ele>
        <time>2012-06-14T09:04:47Z</time>
      </trkpt>
      <trkpt lat="43.156984" lon="-6.118661">
        <ele>578.0</ele>
        <time>2012-06-14T09:04:55Z</time>
      </trkpt>
      <trkpt lat="43.156935" lon="-6.118868">
        <ele>579.0</ele>
        <time>2012-06-14T09:04:59Z</time>
      </trkpt>
      <trkpt lat="43.156934" lon="-6.119074">
        <ele>580.0</ele>
        <time>2012-06-14T09:05:03Z</time>
      </trkpt>
      <trkpt lat="43.156935" lon="-6.119277">
        <ele>579.0</ele>
        <time>2012-06-14T09:05:07Z</time>
      </trkpt>
      <trkpt lat="43.156942" lon="-6.119474">
        <ele>579.0</ele>
        <time>2012-06-14T09:05:11Z</time>
      </trkpt>
      <trkpt lat="43.15695" lon="-6.119666">
        <ele>579.0</ele>
        <time>2012-06-14T09:05:15Z</time>
      </trkpt>
      <trkpt lat="43.156958" lon="-6.119861">
        <ele>579.0</ele>
        <time>2012-06-14T09:05:19Z</time>
      </trkpt>
      <trkpt lat="43.15697" lon="-6.120064">
        <ele>580.0</ele>
        <time>2012-06-14T09:05:23Z</time>
      </trkpt>
      <trkpt lat="43.157009" lon="-6.120262">
        <ele>581.0</ele>
        <time>2012-06-14T09:05:27Z</time>
      </trkpt>
      <trkpt lat="43.157045" lon="-6.120458">
        <ele>581.0</ele>
        <time>2012-06-14T09:05:31Z</time>
      </trkpt>
      <trkpt lat="43.157086" lon="-6.120653">
        <ele>582.0</ele>
        <time>2012-06-14T09:05:35Z</time>
      </trkpt>
      <trkpt lat="43.157123" lon="-6.120751">
        <ele>583.0</ele>
        <time>2012-06-14T09:05:37Z</time>
      </trkpt>
      <trkpt lat="43.157263" lon="-6.121048">
        <ele>587.0</ele>
        <time>2012-06-14T09:05:43Z</time>
      </trkpt>
      <trkpt lat="43.157299" lon="-6.121264">
        <ele>588.0</ele>
        <time>2012-06-14T09:05:47Z</time>
      </trkpt>
      <trkpt lat="43.157323" lon="-6.121476">
        <ele>589.0</ele>
        <time>2012-06-14T09:05:51Z</time>
      </trkpt>
      <trkpt lat="43.157299" lon="-6.121686">
        <ele>589.0</ele>
        <time>2012-06-14T09:05:55Z</time>
      </trkpt>
      <trkpt lat="43.157221" lon="-6.121876">
        <ele>590.0</ele>
        <time>2012-06-14T09:05:59Z</time>
      </trkpt>
      <trkpt lat="43.157176" lon="-6.121962">
        <ele>590.0</ele>
        <time>2012-06-14T09:06:01Z</time>
      </trkpt>
      <trkpt lat="43.157012" lon="-6.12219">
        <ele>591.0</ele>
        <time>2012-06-14T09:06:07Z</time>
      </trkpt>
      <trkpt lat="43.156902" lon="-6.122331">
        <ele>591.0</ele>
        <time>2012-06-14T09:06:11Z</time>
      </trkpt>
      <trkpt lat="43.156786" lon="-6.122481">
        <ele>591.0</ele>
        <time>2012-06-14T09:06:15Z</time>
      </trkpt>
      <trkpt lat="43.156664" lon="-6.122623">
        <ele>592.0</ele>
        <time>2012-06-14T09:06:19Z</time>
      </trkpt>
      <trkpt lat="43.156538" lon="-6.122775">
        <ele>592.0</ele>
        <time>2012-06-14T09:06:23Z</time>
      </trkpt>
      <trkpt lat="43.156414" lon="-6.12294">
        <ele>593.0</ele>
        <time>2012-06-14T09:06:27Z</time>
      </trkpt>
      <trkpt lat="43.156326" lon="-6.123122">
        <ele>594.0</ele>
        <time>2012-06-14T09:06:31Z</time>
      </trkpt>
      <trkpt lat="43.156278" lon="-6.123327">
        <ele>596.0</ele>
        <time>2012-06-14T09:06:35Z</time>
      </trkpt>
      <trkpt lat="43.156268" lon="-6.123545">
        <ele>598.0</ele>
        <time>2012-06-14T09:06:39Z</time>
      </trkpt>
      <trkpt lat="43.156269" lon="-6.123653">
        <ele>599.0</ele>
        <time>2012-06-14T09:06:41Z</time>
      </trkpt>
      <trkpt lat="43.156279" lon="-6.12397">
        <ele>603.0</ele>
        <time>2012-06-14T09:06:47Z</time>
      </trkpt>
      <trkpt lat="43.156277" lon="-6.124187">
        <ele>604.0</ele>
        <time>2012-06-14T09:06:51Z</time>
      </trkpt>
      <trkpt lat="43.156252" lon="-6.124624">
        <ele>605.0</ele>
        <time>2012-06-14T09:06:59Z</time>
      </trkpt>
      <trkpt lat="43.156218" lon="-6.124823">
        <ele>606.0</ele>
        <time>2012-06-14T09:07:03Z</time>
      </trkpt>
      <trkpt lat="43.156168" lon="-6.125017">
        <ele>607.0</ele>
        <time>2012-06-14T09:07:07Z</time>
      </trkpt>
      <trkpt lat="43.156094" lon="-6.125199">
        <ele>607.0</ele>
        <time>2012-06-14T09:07:11Z</time>
      </trkpt>
      <trkpt lat="43.15602" lon="-6.125388">
        <ele>607.0</ele>
        <time>2012-06-14T09:07:15Z</time>
      </trkpt>
      <trkpt lat="43.155965" lon="-6.12559">
        <ele>608.0</ele>
        <time>2012-06-14T09:07:19Z</time>
      </trkpt>
      <trkpt lat="43.155937" lon="-6.1258">
        <ele>610.0</ele>
        <time>2012-06-14T09:07:23Z</time>
      </trkpt>
      <trkpt lat="43.155927" lon="-6.126009">
        <ele>612.0</ele>
        <time>2012-06-14T09:07:27Z</time>
      </trkpt>
      <trkpt lat="43.155932" lon="-6.126218">
        <ele>613.0</ele>
        <time>2012-06-14T09:07:31Z</time>
      </trkpt>
      <trkpt lat="43.155895" lon="-6.126536">
        <ele>615.0</ele>
        <time>2012-06-14T09:07:37Z</time>
      </trkpt>
      <trkpt lat="43.15579" lon="-6.126832">
        <ele>618.0</ele>
        <time>2012-06-14T09:07:43Z</time>
      </trkpt>
      <trkpt lat="43.1557" lon="-6.127006">
        <ele>619.0</ele>
        <time>2012-06-14T09:07:47Z</time>
      </trkpt>
      <trkpt lat="43.155633" lon="-6.127187">
        <ele>619.0</ele>
        <time>2012-06-14T09:07:51Z</time>
      </trkpt>
      <trkpt lat="43.155568" lon="-6.127374">
        <ele>620.0</ele>
        <time>2012-06-14T09:07:55Z</time>
      </trkpt>
      <trkpt lat="43.155508" lon="-6.127567">
        <ele>622.0</ele>
        <time>2012-06-14T09:07:59Z</time>
      </trkpt>
      <trkpt lat="43.155454" lon="-6.127759">
        <ele>624.0</ele>
        <time>2012-06-14T09:08:03Z</time>
      </trkpt>
      <trkpt lat="43.155419" lon="-6.127958">
        <ele>626.0</ele>
        <time>2012-06-14T09:08:07Z</time>
      </trkpt>
      <trkpt lat="43.15539" lon="-6.128155">
        <ele>626.0</ele>
        <time>2012-06-14T09:08:11Z</time>
      </trkpt>
      <trkpt lat="43.155329" lon="-6.128555">
        <ele>628.0</ele>
        <time>2012-06-14T09:08:19Z</time>
      </trkpt>
      <trkpt lat="43.155307" lon="-6.128653">
        <ele>629.0</ele>
        <time>2012-06-14T09:08:21Z</time>
      </trkpt>
      <trkpt lat="43.155249" lon="-6.128838">
        <ele>629.0</ele>
        <time>2012-06-14T09:08:25Z</time>
      </trkpt>
      <trkpt lat="43.155166" lon="-6.12911">
        <ele>630.0</ele>
        <time>2012-06-14T09:08:31Z</time>
      </trkpt>
      <trkpt lat="43.155095" lon="-6.12929">
        <ele>630.0</ele>
        <time>2012-06-14T09:08:35Z</time>
      </trkpt>
      <trkpt lat="43.15501" lon="-6.12947">
        <ele>630.0</ele>
        <time>2012-06-14T09:08:39Z</time>
      </trkpt>
      <trkpt lat="43.154925" lon="-6.129647">
        <ele>630.0</ele>
        <time>2012-06-14T09:08:43Z</time>
      </trkpt>
      <trkpt lat="43.154843" lon="-6.129822">
        <ele>630.0</ele>
        <time>2012-06-14T09:08:47Z</time>
      </trkpt>
      <trkpt lat="43.154762" lon="-6.129981">
        <ele>630.0</ele>
        <time>2012-06-14T09:08:51Z</time>
      </trkpt>
      <trkpt lat="43.154678" lon="-6.130138">
        <ele>631.0</ele>
        <time>2012-06-14T09:08:55Z</time>
      </trkpt>
      <trkpt lat="43.154632" lon="-6.130215">
        <ele>631.0</ele>
        <time>2012-06-14T09:08:57Z</time>
      </trkpt>
      <trkpt lat="43.154474" lon="-6.130423">
        <ele>631.0</ele>
        <time>2012-06-14T09:09:03Z</time>
      </trkpt>
      <trkpt lat="43.154418" lon="-6.130488">
        <ele>631.0</ele>
        <time>2012-06-14T09:09:05Z</time>
      </trkpt>
      <trkpt lat="43.154246" lon="-6.130675">
        <ele>632.0</ele>
        <time>2012-06-14T09:09:11Z</time>
      </trkpt>
      <trkpt lat="43.15414" lon="-6.130805">
        <ele>632.0</ele>
        <time>2012-06-14T09:09:15Z</time>
      </trkpt>
      <trkpt lat="43.154032" lon="-6.130945">
        <ele>633.0</ele>
        <time>2012-06-14T09:09:19Z</time>
      </trkpt>
      <trkpt lat="43.153935" lon="-6.131085">
        <ele>634.0</ele>
        <time>2012-06-14T09:09:23Z</time>
      </trkpt>
      <trkpt lat="43.15377" lon="-6.131353">
        <ele>634.0</ele>
        <time>2012-06-14T09:09:31Z</time>
      </trkpt>
      <trkpt lat="43.153654" lon="-6.131535">
        <ele>634.0</ele>
        <time>2012-06-14T09:09:37Z</time>
      </trkpt>
      <trkpt lat="43.153595" lon="-6.131623">
        <ele>634.0</ele>
        <time>2012-06-14T09:09:40Z</time>
      </trkpt>
      <trkpt lat="43.153468" lon="-6.131811">
        <ele>635.0</ele>
        <time>2012-06-14T09:09:46Z</time>
      </trkpt>
      <trkpt lat="43.153356" lon="-6.13196">
        <ele>635.0</ele>
        <time>2012-06-14T09:09:51Z</time>
      </trkpt>
      <trkpt lat="43.153268" lon="-6.132088">
        <ele>635.0</ele>
        <time>2012-06-14T09:09:55Z</time>
      </trkpt>
      <trkpt lat="43.153172" lon="-6.132207">
        <ele>636.0</ele>
        <time>2012-06-14T09:09:59Z</time>
      </trkpt>
      <trkpt lat="43.153125" lon="-6.132268">
        <ele>636.0</ele>
        <time>2012-06-14T09:10:01Z</time>
      </trkpt>
      <trkpt lat="43.15298" lon="-6.132456">
        <ele>636.0</ele>
        <time>2012-06-14T09:10:07Z</time>
      </trkpt>
      <trkpt lat="43.152885" lon="-6.132589">
        <ele>637.0</ele>
        <time>2012-06-14T09:10:11Z</time>
      </trkpt>
      <trkpt lat="43.152789" lon="-6.132734">
        <ele>637.0</ele>
        <time>2012-06-14T09:10:15Z</time>
      </trkpt>
      <trkpt lat="43.152706" lon="-6.132884">
        <ele>637.0</ele>
        <time>2012-06-14T09:10:19Z</time>
      </trkpt>
      <trkpt lat="43.152629" lon="-6.133042">
        <ele>637.0</ele>
        <time>2012-06-14T09:10:23Z</time>
      </trkpt>
      <trkpt lat="43.152606" lon="-6.13314">
        <ele>637.0</ele>
        <time>2012-06-14T09:10:25Z</time>
      </trkpt>
      <trkpt lat="43.152531" lon="-6.133434">
        <ele>638.0</ele>
        <time>2012-06-14T09:10:31Z</time>
      </trkpt>
      <trkpt lat="43.152486" lon="-6.133636">
        <ele>638.0</ele>
        <time>2012-06-14T09:10:35Z</time>
      </trkpt>
      <trkpt lat="43.152445" lon="-6.133839">
        <ele>639.0</ele>
        <time>2012-06-14T09:10:39Z</time>
      </trkpt>
      <trkpt lat="43.152447" lon="-6.134252">
        <ele>640.0</ele>
        <time>2012-06-14T09:10:47Z</time>
      </trkpt>
      <trkpt lat="43.152446" lon="-6.134446">
        <ele>640.0</ele>
        <time>2012-06-14T09:10:51Z</time>
      </trkpt>
      <trkpt lat="43.152444" lon="-6.134635">
        <ele>641.0</ele>
        <time>2012-06-14T09:10:55Z</time>
      </trkpt>
      <trkpt lat="43.152437" lon="-6.13482">
        <ele>642.0</ele>
        <time>2012-06-14T09:10:59Z</time>
      </trkpt>
      <trkpt lat="43.15242" lon="-6.135004">
        <ele>643.0</ele>
        <time>2012-06-14T09:11:03Z</time>
      </trkpt>
      <trkpt lat="43.152396" lon="-6.135189">
        <ele>644.0</ele>
        <time>2012-06-14T09:11:07Z</time>
      </trkpt>
      <trkpt lat="43.152365" lon="-6.135377">
        <ele>645.0</ele>
        <time>2012-06-14T09:11:11Z</time>
      </trkpt>
      <trkpt lat="43.15233" lon="-6.135556">
        <ele>646.0</ele>
        <time>2012-06-14T09:11:15Z</time>
      </trkpt>
      <trkpt lat="43.15231" lon="-6.135642">
        <ele>646.0</ele>
        <time>2012-06-14T09:11:17Z</time>
      </trkpt>
      <trkpt lat="43.152231" lon="-6.135896">
        <ele>648.0</ele>
        <time>2012-06-14T09:11:23Z</time>
      </trkpt>
      <trkpt lat="43.152158" lon="-6.136072">
        <ele>648.0</ele>
        <time>2012-06-14T09:11:27Z</time>
      </trkpt>
      <trkpt lat="43.152024" lon="-6.136328">
        <ele>651.0</ele>
        <time>2012-06-14T09:11:33Z</time>
      </trkpt>
      <trkpt lat="43.15188" lon="-6.136555">
        <ele>652.0</ele>
        <time>2012-06-14T09:11:39Z</time>
      </trkpt>
      <trkpt lat="43.151784" lon="-6.136696">
        <ele>652.0</ele>
        <time>2012-06-14T09:11:43Z</time>
      </trkpt>
      <trkpt lat="43.151689" lon="-6.136837">
        <ele>653.0</ele>
        <time>2012-06-14T09:11:47Z</time>
      </trkpt>
      <trkpt lat="43.15164" lon="-6.136908">
        <ele>653.0</ele>
        <time>2012-06-14T09:11:49Z</time>
      </trkpt>
      <trkpt lat="43.151507" lon="-6.137143">
        <ele>654.0</ele>
        <time>2012-06-14T09:11:55Z</time>
      </trkpt>
      <trkpt lat="43.151425" lon="-6.137319">
        <ele>656.0</ele>
        <time>2012-06-14T09:11:59Z</time>
      </trkpt>
      <trkpt lat="43.151353" lon="-6.137497">
        <ele>657.0</ele>
        <time>2012-06-14T09:12:03Z</time>
      </trkpt>
      <trkpt lat="43.151324" lon="-6.137579">
        <ele>657.0</ele>
        <time>2012-06-14T09:12:05Z</time>
      </trkpt>
      <trkpt lat="43.15124" lon="-6.137843">
        <ele>658.0</ele>
        <time>2012-06-14T09:12:11Z</time>
      </trkpt>
      <trkpt lat="43.151183" lon="-6.138027">
        <ele>659.0</ele>
        <time>2012-06-14T09:12:15Z</time>
      </trkpt>
      <trkpt lat="43.151137" lon="-6.138212">
        <ele>668.0</ele>
        <time>2012-06-14T09:12:19Z</time>
      </trkpt>
      <trkpt lat="43.151015" lon="-6.138571">
        <ele>681.0</ele>
        <time>2012-06-14T09:12:27Z</time>
      </trkpt>
      <trkpt lat="43.150974" lon="-6.138662">
        <ele>685.0</ele>
        <time>2012-06-14T09:12:29Z</time>
      </trkpt>
      <trkpt lat="43.150839" lon="-6.138911">
        <ele>692.0</ele>
        <time>2012-06-14T09:12:35Z</time>
      </trkpt>
      <trkpt lat="43.150789" lon="-6.138983">
        <ele>694.0</ele>
        <time>2012-06-14T09:12:37Z</time>
      </trkpt>
      <trkpt lat="43.150603" lon="-6.139168">
        <ele>697.0</ele>
        <time>2012-06-14T09:12:43Z</time>
      </trkpt>
      <trkpt lat="43.150465" lon="-6.139263">
        <ele>698.0</ele>
        <time>2012-06-14T09:12:47Z</time>
      </trkpt>
      <trkpt lat="43.15034" lon="-6.139381">
        <ele>699.0</ele>
        <time>2012-06-14T09:12:51Z</time>
      </trkpt>
      <trkpt lat="43.150219" lon="-6.139506">
        <ele>699.0</ele>
        <time>2012-06-14T09:12:55Z</time>
      </trkpt>
      <trkpt lat="43.15009" lon="-6.139623">
        <ele>699.0</ele>
        <time>2012-06-14T09:12:59Z</time>
      </trkpt>
      <trkpt lat="43.149962" lon="-6.139741">
        <ele>700.0</ele>
        <time>2012-06-14T09:13:03Z</time>
      </trkpt>
      <trkpt lat="43.149836" lon="-6.139868">
        <ele>700.0</ele>
        <time>2012-06-14T09:13:07Z</time>
      </trkpt>
      <trkpt lat="43.149703" lon="-6.139987">
        <ele>700.0</ele>
        <time>2012-06-14T09:13:11Z</time>
      </trkpt>
      <trkpt lat="43.149573" lon="-6.140092">
        <ele>700.0</ele>
        <time>2012-06-14T09:13:15Z</time>
      </trkpt>
      <trkpt lat="43.149449" lon="-6.140193">
        <ele>701.0</ele>
        <time>2012-06-14T09:13:19Z</time>
      </trkpt>
      <trkpt lat="43.149325" lon="-6.140295">
        <ele>701.0</ele>
        <time>2012-06-14T09:13:23Z</time>
      </trkpt>
      <trkpt lat="43.149197" lon="-6.140387">
        <ele>701.0</ele>
        <time>2012-06-14T09:13:27Z</time>
      </trkpt>
      <trkpt lat="43.149055" lon="-6.140481">
        <ele>701.0</ele>
        <time>2012-06-14T09:13:32Z</time>
      </trkpt>
      <trkpt lat="43.148978" lon="-6.140513">
        <ele>701.0</ele>
        <time>2012-06-14T09:13:42Z</time>
      </trkpt>
      <trkpt lat="43.148978" lon="-6.140513">
        <time>2012-06-14T09:13:53Z</time>
      </trkpt>
    </trkseg>
    <trkseg>
      <trkpt lat="43.148978" lon="-6.140513">
        <time>2012-06-14T09:14:13Z</time>
      </trkpt>
      <trkpt lat="43.148828" lon="-6.140581">
        <ele>702.0</ele>
        <time>2012-06-14T09:14:16Z</time>
      </trkpt>
      <trkpt lat="43.148775" lon="-6.140677">
        <ele>702.0</ele>
        <time>2012-06-14T09:14:19Z</time>
      </trkpt>
      <trkpt lat="43.14867" lon="-6.141092">
        <ele>704.0</ele>
        <time>2012-06-14T09:14:27Z</time>
      </trkpt>
      <trkpt lat="43.148625" lon="-6.14131">
        <ele>705.0</ele>
        <time>2012-06-14T09:14:31Z</time>
      </trkpt>
      <trkpt lat="43.148584" lon="-6.141517">
        <ele>705.0</ele>
        <time>2012-06-14T09:14:35Z</time>
      </trkpt>
      <trkpt lat="43.148531" lon="-6.141702">
        <ele>705.0</ele>
        <time>2012-06-14T09:14:39Z</time>
      </trkpt>
      <trkpt lat="43.148454" lon="-6.141884">
        <ele>705.0</ele>
        <time>2012-06-14T09:14:44Z</time>
      </trkpt>
      <trkpt lat="43.148325" lon="-6.142129">
        <ele>705.0</ele>
        <time>2012-06-14T09:14:51Z</time>
      </trkpt>
      <trkpt lat="43.148245" lon="-6.142275">
        <ele>705.0</ele>
        <time>2012-06-14T09:14:55Z</time>
      </trkpt>
      <trkpt lat="43.148202" lon="-6.142345">
        <ele>705.0</ele>
        <time>2012-06-14T09:14:57Z</time>
      </trkpt>
      <trkpt lat="43.14806" lon="-6.142548">
        <ele>705.0</ele>
        <time>2012-06-14T09:15:03Z</time>
      </trkpt>
      <trkpt lat="43.147971" lon="-6.142674">
        <ele>705.0</ele>
        <time>2012-06-14T09:15:07Z</time>
      </trkpt>
      <trkpt lat="43.147778" lon="-6.142909">
        <ele>705.0</ele>
        <time>2012-06-14T09:15:15Z</time>
      </trkpt>
      <trkpt lat="43.147689" lon="-6.143037">
        <ele>706.0</ele>
        <time>2012-06-14T09:15:19Z</time>
      </trkpt>
      <trkpt lat="43.147647" lon="-6.143107">
        <ele>706.0</ele>
        <time>2012-06-14T09:15:21Z</time>
      </trkpt>
      <trkpt lat="43.147569" lon="-6.14335">
        <ele>706.0</ele>
        <time>2012-06-14T09:15:27Z</time>
      </trkpt>
      <trkpt lat="43.147527" lon="-6.143463">
        <ele>706.0</ele>
        <time>2012-06-14T09:15:30Z</time>
      </trkpt>
      <trkpt lat="43.147527" lon="-6.143463">
        <time>2012-06-14T09:15:41Z</time>
      </trkpt>
    </trkseg>
    <trkseg>
      <trkpt lat="43.147527" lon="-6.143463">
        <time>2012-06-14T09:15:42Z</time>
      </trkpt>
      <trkpt lat="43.147355" lon="-6.143966">
        <ele>707.0</ele>
        <time>2012-06-14T09:15:45Z</time>
      </trkpt>
      <trkpt lat="43.147323" lon="-6.144063">
        <ele>708.0</ele>
        <time>2012-06-14T09:15:48Z</time>
      </trkpt>
      <trkpt lat="43.147294" lon="-6.144162">
        <ele>708.0</ele>
        <time>2012-06-14T09:15:51Z</time>
      </trkpt>
      <trkpt lat="43.147239" lon="-6.144361">
        <ele>709.0</ele>
        <time>2012-06-14T09:15:57Z</time>
      </trkpt>
      <trkpt lat="43.147215" lon="-6.144467">
        <ele>710.0</ele>
        <time>2012-06-14T09:16:00Z</time>
      </trkpt>
      <trkpt lat="43.147194" lon="-6.144577">
        <ele>710.0</ele>
        <time>2012-06-14T09:16:03Z</time>
      </trkpt>
      <trkpt lat="43.147155" lon="-6.144788">
        <ele>711.0</ele>
        <time>2012-06-14T09:16:09Z</time>
      </trkpt>
      <trkpt lat="43.147131" lon="-6.144881">
        <ele>711.0</ele>
        <time>2012-06-14T09:16:12Z</time>
      </trkpt>
      <trkpt lat="43.147108" lon="-6.144971">
        <ele>712.0</ele>
        <time>2012-06-14T09:16:15Z</time>
      </trkpt>
      <trkpt lat="43.147061" lon="-6.14518">
        <ele>712.0</ele>
        <time>2012-06-14T09:16:21Z</time>
      </trkpt>
      <trkpt lat="43.147041" lon="-6.145292">
        <ele>713.0</ele>
        <time>2012-06-14T09:16:24Z</time>
      </trkpt>
      <trkpt lat="43.147045" lon="-6.145415">
        <ele>713.0</ele>
        <time>2012-06-14T09:16:27Z</time>
      </trkpt>
      <trkpt lat="43.147031" lon="-6.145534">
        <ele>713.0</ele>
        <time>2012-06-14T09:16:30Z</time>
      </trkpt>
      <trkpt lat="43.147015" lon="-6.145778">
        <ele>714.0</ele>
        <time>2012-06-14T09:16:36Z</time>
      </trkpt>
      <trkpt lat="43.147005" lon="-6.145898">
        <ele>715.0</ele>
        <time>2012-06-14T09:16:39Z</time>
      </trkpt>
      <trkpt lat="43.146991" lon="-6.146122">
        <ele>716.0</ele>
        <time>2012-06-14T09:16:45Z</time>
      </trkpt>
      <trkpt lat="43.146989" lon="-6.14623">
        <ele>716.0</ele>
        <time>2012-06-14T09:16:48Z</time>
      </trkpt>
      <trkpt lat="43.146998" lon="-6.146334">
        <ele>717.0</ele>
        <time>2012-06-14T09:16:51Z</time>
      </trkpt>
      <trkpt lat="43.147014" lon="-6.14654">
        <ele>718.0</ele>
        <time>2012-06-14T09:16:57Z</time>
      </trkpt>
      <trkpt lat="43.147001" lon="-6.146636">
        <ele>719.0</ele>
        <time>2012-06-14T09:17:00Z</time>
      </trkpt>
      <trkpt lat="43.14699" lon="-6.146735">
        <ele>720.0</ele>
        <time>2012-06-14T09:17:03Z</time>
      </trkpt>
      <trkpt lat="43.14699" lon="-6.146837">
        <ele>720.0</ele>
        <time>2012-06-14T09:17:06Z</time>
      </trkpt>
      <trkpt lat="43.147151" lon="-6.14712">
        <ele>723.0</ele>
        <time>2012-06-14T09:17:13Z</time>
      </trkpt>
      <trkpt lat="43.1473" lon="-6.147329">
        <ele>724.0</ele>
        <time>2012-06-14T09:17:17Z</time>
      </trkpt>
      <trkpt lat="43.147509" lon="-6.14754">
        <ele>725.0</ele>
        <time>2012-06-14T09:17:21Z</time>
      </trkpt>
      <trkpt lat="43.147624" lon="-6.147754">
        <ele>731.0</ele>
        <time>2012-06-14T09:17:25Z</time>
      </trkpt>
      <trkpt lat="43.147817" lon="-6.147911">
        <ele>741.0</ele>
        <time>2012-06-14T09:17:29Z</time>
      </trkpt>
      <trkpt lat="43.148074" lon="-6.148093">
        <ele>745.0</ele>
        <time>2012-06-14T09:17:33Z</time>
      </trkpt>
      <trkpt lat="43.148223" lon="-6.148323">
        <ele>746.0</ele>
        <time>2012-06-14T09:17:37Z</time>
      </trkpt>
      <trkpt lat="43.148376" lon="-6.148597">
        <ele>746.0</ele>
        <time>2012-06-14T09:17:41Z</time>
      </trkpt>
      <trkpt lat="43.148544" lon="-6.148965">
        <ele>745.0</ele>
        <time>2012-06-14T09:17:45Z</time>
      </trkpt>
      <trkpt lat="43.148683" lon="-6.149368">
        <ele>745.0</ele>
        <time>2012-06-14T09:17:49Z</time>
      </trkpt>
      <trkpt lat="43.148783" lon="-6.149747">
        <ele>746.0</ele>
        <time>2012-06-14T09:17:53Z</time>
      </trkpt>
      <trkpt lat="43.148838" lon="-6.150009">
        <ele>746.0</ele>
        <time>2012-06-14T09:17:56Z</time>
      </trkpt>
      <trkpt lat="43.148954" lon="-6.150387">
        <ele>747.0</ele>
        <time>2012-06-14T09:18:01Z</time>
      </trkpt>
      <trkpt lat="43.149082" lon="-6.150639">
        <ele>748.0</ele>
        <time>2012-06-14T09:18:05Z</time>
      </trkpt>
      <trkpt lat="43.149234" lon="-6.150839">
        <ele>748.0</ele>
        <time>2012-06-14T09:18:09Z</time>
      </trkpt>
      <trkpt lat="43.149387" lon="-6.151051">
        <ele>748.0</ele>
        <time>2012-06-14T09:18:13Z</time>
      </trkpt>
      <trkpt lat="43.149505" lon="-6.151304">
        <ele>749.0</ele>
        <time>2012-06-14T09:18:17Z</time>
      </trkpt>
      <trkpt lat="43.149625" lon="-6.151555">
        <ele>753.0</ele>
        <time>2012-06-14T09:18:21Z</time>
      </trkpt>
      <trkpt lat="43.14974" lon="-6.151804">
        <ele>756.0</ele>
        <time>2012-06-14T09:18:25Z</time>
      </trkpt>
      <trkpt lat="43.149851" lon="-6.152061">
        <ele>757.0</ele>
        <time>2012-06-14T09:18:29Z</time>
      </trkpt>
      <trkpt lat="43.149901" lon="-6.152196">
        <ele>757.0</ele>
        <time>2012-06-14T09:18:31Z</time>
      </trkpt>
      <trkpt lat="43.150023" lon="-6.152624">
        <ele>759.0</ele>
        <time>2012-06-14T09:18:37Z</time>
      </trkpt>
      <trkpt lat="43.150089" lon="-6.152925">
        <ele>759.0</ele>
        <time>2012-06-14T09:18:41Z</time>
      </trkpt>
      <trkpt lat="43.150115" lon="-6.153084">
        <ele>760.0</ele>
        <time>2012-06-14T09:18:43Z</time>
      </trkpt>
      <trkpt lat="43.150176" lon="-6.153571">
        <ele>762.0</ele>
        <time>2012-06-14T09:18:49Z</time>
      </trkpt>
      <trkpt lat="43.150208" lon="-6.153872">
        <ele>764.0</ele>
        <time>2012-06-14T09:18:53Z</time>
      </trkpt>
      <trkpt lat="43.150241" lon="-6.154161">
        <ele>765.0</ele>
        <time>2012-06-14T09:18:57Z</time>
      </trkpt>
      <trkpt lat="43.150271" lon="-6.154444">
        <ele>765.0</ele>
        <time>2012-06-14T09:19:01Z</time>
      </trkpt>
      <trkpt lat="43.150278" lon="-6.154581">
        <ele>765.0</ele>
        <time>2012-06-14T09:19:03Z</time>
      </trkpt>
      <trkpt lat="43.150264" lon="-6.154938">
        <ele>765.0</ele>
        <time>2012-06-14T09:19:09Z</time>
      </trkpt>
      <trkpt lat="43.150222" lon="-6.155114">
        <ele>765.0</ele>
        <time>2012-06-14T09:19:13Z</time>
      </trkpt>
      <trkpt lat="43.150218" lon="-6.155202">
        <ele>765.0</ele>
        <time>2012-06-14T09:19:15Z</time>
      </trkpt>
      <trkpt lat="43.150189" lon="-6.155468">
        <ele>765.0</ele>
        <time>2012-06-14T09:19:21Z</time>
      </trkpt>
      <trkpt lat="43.150145" lon="-6.155634">
        <ele>765.0</ele>
        <time>2012-06-14T09:19:25Z</time>
      </trkpt>
      <trkpt lat="43.150128" lon="-6.155719">
        <ele>766.0</ele>
        <time>2012-06-14T09:19:27Z</time>
      </trkpt>
      <trkpt lat="43.15009" lon="-6.155889">
        <ele>766.0</ele>
        <time>2012-06-14T09:19:31Z</time>
      </trkpt>
      <trkpt lat="43.15003" lon="-6.156132">
        <ele>766.0</ele>
        <time>2012-06-14T09:19:37Z</time>
      </trkpt>
      <trkpt lat="43.149995" lon="-6.156245">
        <ele>766.0</ele>
        <time>2012-06-14T09:19:40Z</time>
      </trkpt>
      <trkpt lat="43.149911" lon="-6.156561">
        <ele>767.0</ele>
        <time>2012-06-14T09:19:49Z</time>
      </trkpt>
      <trkpt lat="43.149896" lon="-6.156655">
        <ele>767.0</ele>
        <time>2012-06-14T09:19:52Z</time>
      </trkpt>
      <trkpt lat="43.149876" lon="-6.156834">
        <ele>767.0</ele>
        <time>2012-06-14T09:19:58Z</time>
      </trkpt>
      <trkpt lat="43.149843" lon="-6.157031">
        <ele>768.0</ele>
        <time>2012-06-14T09:20:05Z</time>
      </trkpt>
      <trkpt lat="43.149805" lon="-6.157211">
        <ele>769.0</ele>
        <time>2012-06-14T09:20:11Z</time>
      </trkpt>
      <trkpt lat="43.149753" lon="-6.157386">
        <ele>770.0</ele>
        <time>2012-06-14T09:20:17Z</time>
      </trkpt>
      <trkpt lat="43.149719" lon="-6.157475">
        <ele>770.0</ele>
        <time>2012-06-14T09:20:20Z</time>
      </trkpt>
      <trkpt lat="43.149691" lon="-6.15756">
        <ele>770.0</ele>
        <time>2012-06-14T09:20:23Z</time>
      </trkpt>
      <trkpt lat="43.14962" lon="-6.157828">
        <ele>771.0</ele>
        <time>2012-06-14T09:20:32Z</time>
      </trkpt>
      <trkpt lat="43.149549" lon="-6.158136">
        <ele>772.0</ele>
        <time>2012-06-14T09:20:41Z</time>
      </trkpt>
      <trkpt lat="43.149529" lon="-6.158242">
        <ele>772.0</ele>
        <time>2012-06-14T09:20:44Z</time>
      </trkpt>
      <trkpt lat="43.149509" lon="-6.158341">
        <ele>773.0</ele>
        <time>2012-06-14T09:20:47Z</time>
      </trkpt>
      <trkpt lat="43.149499" lon="-6.158445">
        <ele>773.0</ele>
        <time>2012-06-14T09:20:50Z</time>
      </trkpt>
      <trkpt lat="43.149496" lon="-6.15861">
        <ele>774.0</ele>
        <time>2012-06-14T09:20:55Z</time>
      </trkpt>
      <trkpt lat="43.14947" lon="-6.158787">
        <ele>775.0</ele>
        <time>2012-06-14T09:21:01Z</time>
      </trkpt>
      <trkpt lat="43.149452" lon="-6.159011">
        <ele>776.0</ele>
        <time>2012-06-14T09:21:08Z</time>
      </trkpt>
      <trkpt lat="43.149437" lon="-6.159099">
        <ele>776.0</ele>
        <time>2012-06-14T09:21:11Z</time>
      </trkpt>
      <trkpt lat="43.149405" lon="-6.159276">
        <ele>777.0</ele>
        <time>2012-06-14T09:21:17Z</time>
      </trkpt>
      <trkpt lat="43.149442" lon="-6.159603">
        <ele>778.0</ele>
        <time>2012-06-14T09:21:25Z</time>
      </trkpt>
      <trkpt lat="43.149474" lon="-6.159778">
        <ele>778.0</ele>
        <time>2012-06-14T09:21:29Z</time>
      </trkpt>
      <trkpt lat="43.149424" lon="-6.159988">
        <ele>779.0</ele>
        <time>2012-06-14T09:21:35Z</time>
      </trkpt>
      <trkpt lat="43.149398" lon="-6.160189">
        <ele>780.0</ele>
        <time>2012-06-14T09:21:41Z</time>
      </trkpt>
      <trkpt lat="43.149394" lon="-6.160295">
        <ele>781.0</ele>
        <time>2012-06-14T09:21:44Z</time>
      </trkpt>
      <trkpt lat="43.149376" lon="-6.160398">
        <ele>781.0</ele>
        <time>2012-06-14T09:21:47Z</time>
      </trkpt>
      <trkpt lat="43.14937" lon="-6.160503">
        <ele>782.0</ele>
        <time>2012-06-14T09:21:50Z</time>
      </trkpt>
      <trkpt lat="43.149345" lon="-6.160698">
        <ele>783.0</ele>
        <time>2012-06-14T09:21:56Z</time>
      </trkpt>
      <trkpt lat="43.149335" lon="-6.160795">
        <ele>784.0</ele>
        <time>2012-06-14T09:21:59Z</time>
      </trkpt>
      <trkpt lat="43.149299" lon="-6.160985">
        <ele>785.0</ele>
        <time>2012-06-14T09:22:05Z</time>
      </trkpt>
      <trkpt lat="43.149257" lon="-6.161163">
        <ele>786.0</ele>
        <time>2012-06-14T09:22:11Z</time>
      </trkpt>
      <trkpt lat="43.149214" lon="-6.161344">
        <ele>787.0</ele>
        <time>2012-06-14T09:22:17Z</time>
      </trkpt>
      <trkpt lat="43.149205" lon="-6.161443">
        <ele>787.0</ele>
        <time>2012-06-14T09:22:20Z</time>
      </trkpt>
      <trkpt lat="43.149202" lon="-6.16154">
        <ele>788.0</ele>
        <time>2012-06-14T09:22:23Z</time>
      </trkpt>
      <trkpt lat="43.149192" lon="-6.161736">
        <ele>789.0</ele>
        <time>2012-06-14T09:22:29Z</time>
      </trkpt>
      <trkpt lat="43.149192" lon="-6.161835">
        <ele>789.0</ele>
        <time>2012-06-14T09:22:32Z</time>
      </trkpt>
      <trkpt lat="43.149191" lon="-6.161937">
        <ele>790.0</ele>
        <time>2012-06-14T09:22:35Z</time>
      </trkpt>
      <trkpt lat="43.149169" lon="-6.162126">
        <ele>791.0</ele>
        <time>2012-06-14T09:22:41Z</time>
      </trkpt>
      <trkpt lat="43.149161" lon="-6.162225">
        <ele>792.0</ele>
        <time>2012-06-14T09:22:44Z</time>
      </trkpt>
      <trkpt lat="43.149168" lon="-6.162332">
        <ele>793.0</ele>
        <time>2012-06-14T09:22:47Z</time>
      </trkpt>
      <trkpt lat="43.149175" lon="-6.162536">
        <ele>794.0</ele>
        <time>2012-06-14T09:22:53Z</time>
      </trkpt>
      <trkpt lat="43.149176" lon="-6.162635">
        <ele>795.0</ele>
        <time>2012-06-14T09:22:56Z</time>
      </trkpt>
      <trkpt lat="43.149179" lon="-6.162736">
        <ele>795.0</ele>
        <time>2012-06-14T09:22:59Z</time>
      </trkpt>
      <trkpt lat="43.149172" lon="-6.162936">
        <ele>797.0</ele>
        <time>2012-06-14T09:23:05Z</time>
      </trkpt>
      <trkpt lat="43.149185" lon="-6.163043">
        <ele>798.0</ele>
        <time>2012-06-14T09:23:08Z</time>
      </trkpt>
      <trkpt lat="43.14918" lon="-6.163141">
        <ele>798.0</ele>
        <time>2012-06-14T09:23:11Z</time>
      </trkpt>
      <trkpt lat="43.149153" lon="-6.163333">
        <ele>800.0</ele>
        <time>2012-06-14T09:23:17Z</time>
      </trkpt>
      <trkpt lat="43.149111" lon="-6.163521">
        <ele>801.0</ele>
        <time>2012-06-14T09:23:23Z</time>
      </trkpt>
      <trkpt lat="43.149087" lon="-6.163609">
        <ele>802.0</ele>
        <time>2012-06-14T09:23:26Z</time>
      </trkpt>
      <trkpt lat="43.149051" lon="-6.163784">
        <ele>803.0</ele>
        <time>2012-06-14T09:23:32Z</time>
      </trkpt>
      <trkpt lat="43.149059" lon="-6.163874">
        <ele>803.0</ele>
        <time>2012-06-14T09:23:35Z</time>
      </trkpt>
      <trkpt lat="43.149075" lon="-6.163962">
        <ele>804.0</ele>
        <time>2012-06-14T09:23:38Z</time>
      </trkpt>
      <trkpt lat="43.14907" lon="-6.164186">
        <ele>805.0</ele>
        <time>2012-06-14T09:23:46Z</time>
      </trkpt>
      <trkpt lat="43.149066" lon="-6.164292">
        <ele>806.0</ele>
        <time>2012-06-14T09:23:50Z</time>
      </trkpt>
      <trkpt lat="43.149122" lon="-6.164495">
        <ele>807.0</ele>
        <time>2012-06-14T09:23:57Z</time>
      </trkpt>
      <trkpt lat="43.149143" lon="-6.164587">
        <ele>808.0</ele>
        <time>2012-06-14T09:24:00Z</time>
      </trkpt>
      <trkpt lat="43.149167" lon="-6.164678">
        <ele>808.0</ele>
        <time>2012-06-14T09:24:03Z</time>
      </trkpt>
      <trkpt lat="43.149221" lon="-6.16485">
        <ele>810.0</ele>
        <time>2012-06-14T09:24:09Z</time>
      </trkpt>
      <trkpt lat="43.149259" lon="-6.164932">
        <ele>810.0</ele>
        <time>2012-06-14T09:24:12Z</time>
      </trkpt>
      <trkpt lat="43.149296" lon="-6.165014">
        <ele>811.0</ele>
        <time>2012-06-14T09:24:15Z</time>
      </trkpt>
      <trkpt lat="43.14934" lon="-6.165087">
        <ele>812.0</ele>
        <time>2012-06-14T09:24:18Z</time>
      </trkpt>
      <trkpt lat="43.149378" lon="-6.165178">
        <ele>813.0</ele>
        <time>2012-06-14T09:24:22Z</time>
      </trkpt>
      <trkpt lat="43.149411" lon="-6.165269">
        <ele>814.0</ele>
        <time>2012-06-14T09:24:26Z</time>
      </trkpt>
      <trkpt lat="43.149452" lon="-6.165357">
        <ele>815.0</ele>
        <time>2012-06-14T09:24:30Z</time>
      </trkpt>
      <trkpt lat="43.149499" lon="-6.165442">
        <ele>817.0</ele>
        <time>2012-06-14T09:24:34Z</time>
      </trkpt>
      <trkpt lat="43.149577" lon="-6.165631">
        <ele>819.0</ele>
        <time>2012-06-14T09:24:41Z</time>
      </trkpt>
      <trkpt lat="43.149604" lon="-6.165727">
        <ele>820.0</ele>
        <time>2012-06-14T09:24:44Z</time>
      </trkpt>
      <trkpt lat="43.149623" lon="-6.165826">
        <ele>821.0</ele>
        <time>2012-06-14T09:24:47Z</time>
      </trkpt>
      <trkpt lat="43.149645" lon="-6.16603">
        <ele>822.0</ele>
        <time>2012-06-14T09:24:53Z</time>
      </trkpt>
      <trkpt lat="43.149665" lon="-6.166138">
        <ele>822.0</ele>
        <time>2012-06-14T09:24:56Z</time>
      </trkpt>
      <trkpt lat="43.149685" lon="-6.166242">
        <ele>822.0</ele>
        <time>2012-06-14T09:24:59Z</time>
      </trkpt>
      <trkpt lat="43.149725" lon="-6.166429">
        <ele>823.0</ele>
        <time>2012-06-14T09:25:05Z</time>
      </trkpt>
      <trkpt lat="43.149742" lon="-6.16652">
        <ele>823.0</ele>
        <time>2012-06-14T09:25:08Z</time>
      </trkpt>
      <trkpt lat="43.149757" lon="-6.166615">
        <ele>823.0</ele>
        <time>2012-06-14T09:25:11Z</time>
      </trkpt>
      <trkpt lat="43.149761" lon="-6.166805">
        <ele>824.0</ele>
        <time>2012-06-14T09:25:17Z</time>
      </trkpt>
      <trkpt lat="43.149765" lon="-6.166901">
        <ele>824.0</ele>
        <time>2012-06-14T09:25:20Z</time>
      </trkpt>
      <trkpt lat="43.149774" lon="-6.167001">
        <ele>824.0</ele>
        <time>2012-06-14T09:25:23Z</time>
      </trkpt>
      <trkpt lat="43.149821" lon="-6.167214">
        <ele>824.0</ele>
        <time>2012-06-14T09:25:29Z</time>
      </trkpt>
      <trkpt lat="43.149853" lon="-6.16732">
        <ele>825.0</ele>
        <time>2012-06-14T09:25:32Z</time>
      </trkpt>
      <trkpt lat="43.149888" lon="-6.167416">
        <ele>825.0</ele>
        <time>2012-06-14T09:25:35Z</time>
      </trkpt>
      <trkpt lat="43.149972" lon="-6.16757">
        <ele>825.0</ele>
        <time>2012-06-14T09:25:41Z</time>
      </trkpt>
      <trkpt lat="43.150075" lon="-6.167709">
        <ele>825.0</ele>
        <time>2012-06-14T09:25:48Z</time>
      </trkpt>
      <trkpt lat="43.150226" lon="-6.167799">
        <ele>827.0</ele>
        <time>2012-06-14T09:25:56Z</time>
      </trkpt>
      <trkpt lat="43.150374" lon="-6.167864">
        <ele>828.0</ele>
        <time>2012-06-14T09:26:01Z</time>
      </trkpt>
      <trkpt lat="43.15047" lon="-6.16799">
        <ele>830.0</ele>
        <time>2012-06-14T09:26:07Z</time>
      </trkpt>
      <trkpt lat="43.150557" lon="-6.168151">
        <ele>831.0</ele>
        <time>2012-06-14T09:26:13Z</time>
      </trkpt>
      <trkpt lat="43.150604" lon="-6.168238">
        <ele>831.0</ele>
        <time>2012-06-14T09:26:16Z</time>
      </trkpt>
      <trkpt lat="43.150651" lon="-6.168337">
        <ele>831.0</ele>
        <time>2012-06-14T09:26:19Z</time>
      </trkpt>
      <trkpt lat="43.150748" lon="-6.168511">
        <ele>832.0</ele>
        <time>2012-06-14T09:26:24Z</time>
      </trkpt>
      <trkpt lat="43.150835" lon="-6.168659">
        <ele>833.0</ele>
        <time>2012-06-14T09:26:28Z</time>
      </trkpt>
      <trkpt lat="43.15091" lon="-6.168815">
        <ele>833.0</ele>
        <time>2012-06-14T09:26:32Z</time>
      </trkpt>
      <trkpt lat="43.150966" lon="-6.168983">
        <ele>833.0</ele>
        <time>2012-06-14T09:26:36Z</time>
      </trkpt>
      <trkpt lat="43.151012" lon="-6.169153">
        <ele>833.0</ele>
        <time>2012-06-14T09:26:40Z</time>
      </trkpt>
      <trkpt lat="43.151012" lon="-6.169271">
        <ele>833.0</ele>
        <time>2012-06-14T09:26:43Z</time>
      </trkpt>
      <trkpt lat="43.150889" lon="-6.169407">
        <ele>833.0</ele>
        <time>2012-06-14T09:26:49Z</time>
      </trkpt>
      <trkpt lat="43.150825" lon="-6.169463">
        <ele>833.0</ele>
        <time>2012-06-14T09:26:52Z</time>
      </trkpt>
      <trkpt lat="43.150608" lon="-6.169562">
        <ele>833.0</ele>
        <time>2012-06-14T09:27:01Z</time>
      </trkpt>
      <trkpt lat="43.150534" lon="-6.169598">
        <ele>833.0</ele>
        <time>2012-06-14T09:27:04Z</time>
      </trkpt>
      <trkpt lat="43.150378" lon="-6.169632">
        <ele>833.0</ele>
        <time>2012-06-14T09:27:09Z</time>
      </trkpt>
      <trkpt lat="43.150253" lon="-6.169678">
        <ele>833.0</ele>
        <time>2012-06-14T09:27:13Z</time>
      </trkpt>
      <trkpt lat="43.150193" lon="-6.169705">
        <ele>833.0</ele>
        <time>2012-06-14T09:27:15Z</time>
      </trkpt>
      <trkpt lat="43.150021" lon="-6.169773">
        <ele>833.0</ele>
        <time>2012-06-14T09:27:21Z</time>
      </trkpt>
      <trkpt lat="43.149784" lon="-6.169737">
        <ele>833.0</ele>
        <time>2012-06-14T09:27:29Z</time>
      </trkpt>
      <trkpt lat="43.149697" lon="-6.169736">
        <ele>833.0</ele>
        <time>2012-06-14T09:27:32Z</time>
      </trkpt>
      <trkpt lat="43.149613" lon="-6.169746">
        <ele>833.0</ele>
        <time>2012-06-14T09:27:35Z</time>
      </trkpt>
      <trkpt lat="43.149459" lon="-6.16981">
        <ele>833.0</ele>
        <time>2012-06-14T09:27:41Z</time>
      </trkpt>
      <trkpt lat="43.149394" lon="-6.169862">
        <ele>833.0</ele>
        <time>2012-06-14T09:27:44Z</time>
      </trkpt>
      <trkpt lat="43.149333" lon="-6.169917">
        <ele>834.0</ele>
        <time>2012-06-14T09:27:47Z</time>
      </trkpt>
      <trkpt lat="43.149248" lon="-6.170071">
        <ele>834.0</ele>
        <time>2012-06-14T09:27:53Z</time>
      </trkpt>
      <trkpt lat="43.149225" lon="-6.170163">
        <ele>834.0</ele>
        <time>2012-06-14T09:27:56Z</time>
      </trkpt>
      <trkpt lat="43.149208" lon="-6.170259">
        <ele>834.0</ele>
        <time>2012-06-14T09:27:59Z</time>
      </trkpt>
      <trkpt lat="43.149187" lon="-6.170367">
        <ele>834.0</ele>
        <time>2012-06-14T09:28:03Z</time>
      </trkpt>
      <trkpt lat="43.149161" lon="-6.170456">
        <ele>835.0</ele>
        <time>2012-06-14T09:28:07Z</time>
      </trkpt>
      <trkpt lat="43.149148" lon="-6.170547">
        <ele>835.0</ele>
        <time>2012-06-14T09:28:11Z</time>
      </trkpt>
      <trkpt lat="43.149225" lon="-6.170755">
        <ele>835.0</ele>
        <time>2012-06-14T09:28:17Z</time>
      </trkpt>
      <trkpt lat="43.149265" lon="-6.170829">
        <ele>836.0</ele>
        <time>2012-06-14T09:28:19Z</time>
      </trkpt>
      <trkpt lat="43.149348" lon="-6.17101">
        <ele>836.0</ele>
        <time>2012-06-14T09:28:25Z</time>
      </trkpt>
      <trkpt lat="43.149406" lon="-6.171095">
        <ele>836.0</ele>
        <time>2012-06-14T09:28:28Z</time>
      </trkpt>
      <trkpt lat="43.149507" lon="-6.171216">
        <ele>837.0</ele>
        <time>2012-06-14T09:28:32Z</time>
      </trkpt>
      <trkpt lat="43.149614" lon="-6.171352">
        <ele>837.0</ele>
        <time>2012-06-14T09:28:37Z</time>
      </trkpt>
      <trkpt lat="43.149668" lon="-6.171428">
        <ele>837.0</ele>
        <time>2012-06-14T09:28:40Z</time>
      </trkpt>
      <trkpt lat="43.149705" lon="-6.171505">
        <ele>838.0</ele>
        <time>2012-06-14T09:28:43Z</time>
      </trkpt>
      <trkpt lat="43.149731" lon="-6.171615">
        <ele>838.0</ele>
        <time>2012-06-14T09:28:47Z</time>
      </trkpt>
      <trkpt lat="43.149756" lon="-6.17171">
        <ele>839.0</ele>
        <time>2012-06-14T09:28:50Z</time>
      </trkpt>
      <trkpt lat="43.149792" lon="-6.171907">
        <ele>839.0</ele>
        <time>2012-06-14T09:28:56Z</time>
      </trkpt>
      <trkpt lat="43.14984" lon="-6.172092">
        <ele>839.0</ele>
        <time>2012-06-14T09:29:01Z</time>
      </trkpt>
      <trkpt lat="43.149838" lon="-6.1723">
        <ele>839.0</ele>
        <time>2012-06-14T09:29:08Z</time>
      </trkpt>
      <trkpt lat="43.149822" lon="-6.172386">
        <ele>840.0</ele>
        <time>2012-06-14T09:29:11Z</time>
      </trkpt>
      <trkpt lat="43.149765" lon="-6.172567">
        <ele>840.0</ele>
        <time>2012-06-14T09:29:17Z</time>
      </trkpt>
      <trkpt lat="43.14973" lon="-6.172657">
        <ele>840.0</ele>
        <time>2012-06-14T09:29:20Z</time>
      </trkpt>
      <trkpt lat="43.149696" lon="-6.172747">
        <ele>840.0</ele>
        <time>2012-06-14T09:29:23Z</time>
      </trkpt>
      <trkpt lat="43.149631" lon="-6.172914">
        <ele>840.0</ele>
        <time>2012-06-14T09:29:29Z</time>
      </trkpt>
      <trkpt lat="43.149598" lon="-6.172988">
        <ele>840.0</ele>
        <time>2012-06-14T09:29:32Z</time>
      </trkpt>
      <trkpt lat="43.149568" lon="-6.173091">
        <ele>840.0</ele>
        <time>2012-06-14T09:29:36Z</time>
      </trkpt>
      <trkpt lat="43.149535" lon="-6.173183">
        <ele>841.0</ele>
        <time>2012-06-14T09:29:40Z</time>
      </trkpt>
      <trkpt lat="43.149497" lon="-6.173274">
        <ele>841.0</ele>
        <time>2012-06-14T09:29:44Z</time>
      </trkpt>
      <trkpt lat="43.149447" lon="-6.173352">
        <ele>842.0</ele>
        <time>2012-06-14T09:29:48Z</time>
      </trkpt>
      <trkpt lat="43.149394" lon="-6.173433">
        <ele>842.0</ele>
        <time>2012-06-14T09:29:52Z</time>
      </trkpt>
      <trkpt lat="43.149346" lon="-6.173525">
        <ele>843.0</ele>
        <time>2012-06-14T09:29:56Z</time>
      </trkpt>
      <trkpt lat="43.14931" lon="-6.173598">
        <ele>844.0</ele>
        <time>2012-06-14T09:29:59Z</time>
      </trkpt>
      <trkpt lat="43.149246" lon="-6.173752">
        <ele>845.0</ele>
        <time>2012-06-14T09:30:05Z</time>
      </trkpt>
      <trkpt lat="43.149215" lon="-6.173828">
        <ele>845.0</ele>
        <time>2012-06-14T09:30:08Z</time>
      </trkpt>
      <trkpt lat="43.149183" lon="-6.173904">
        <ele>846.0</ele>
        <time>2012-06-14T09:30:11Z</time>
      </trkpt>
      <trkpt lat="43.149131" lon="-6.17407">
        <ele>847.0</ele>
        <time>2012-06-14T09:30:17Z</time>
      </trkpt>
      <trkpt lat="43.149106" lon="-6.174154">
        <ele>848.0</ele>
        <time>2012-06-14T09:30:20Z</time>
      </trkpt>
      <trkpt lat="43.149079" lon="-6.174236">
        <ele>848.0</ele>
        <time>2012-06-14T09:30:23Z</time>
      </trkpt>
      <trkpt lat="43.149033" lon="-6.174399">
        <ele>850.0</ele>
        <time>2012-06-14T09:30:29Z</time>
      </trkpt>
      <trkpt lat="43.149002" lon="-6.174505">
        <ele>850.0</ele>
        <time>2012-06-14T09:30:33Z</time>
      </trkpt>
      <trkpt lat="43.148976" lon="-6.174605">
        <ele>851.0</ele>
        <time>2012-06-14T09:30:37Z</time>
      </trkpt>
      <trkpt lat="43.148956" lon="-6.174703">
        <ele>852.0</ele>
        <time>2012-06-14T09:30:41Z</time>
      </trkpt>
      <trkpt lat="43.148938" lon="-6.174806">
        <ele>853.0</ele>
        <time>2012-06-14T09:30:45Z</time>
      </trkpt>
      <trkpt lat="43.148923" lon="-6.174913">
        <ele>854.0</ele>
        <time>2012-06-14T09:30:49Z</time>
      </trkpt>
      <trkpt lat="43.148921" lon="-6.175026">
        <ele>854.0</ele>
        <time>2012-06-14T09:30:53Z</time>
      </trkpt>
      <trkpt lat="43.148931" lon="-6.175116">
        <ele>855.0</ele>
        <time>2012-06-14T09:30:56Z</time>
      </trkpt>
      <trkpt lat="43.148964" lon="-6.175215">
        <ele>855.0</ele>
        <time>2012-06-14T09:30:59Z</time>
      </trkpt>
      <trkpt lat="43.149032" lon="-6.17541">
        <ele>856.0</ele>
        <time>2012-06-14T09:31:05Z</time>
      </trkpt>
      <trkpt lat="43.149065" lon="-6.175514">
        <ele>856.0</ele>
        <time>2012-06-14T09:31:08Z</time>
      </trkpt>
      <trkpt lat="43.149094" lon="-6.175616">
        <ele>857.0</ele>
        <time>2012-06-14T09:31:11Z</time>
      </trkpt>
      <trkpt lat="43.149119" lon="-6.17582">
        <ele>858.0</ele>
        <time>2012-06-14T09:31:17Z</time>
      </trkpt>
      <trkpt lat="43.149138" lon="-6.175938">
        <ele>859.0</ele>
        <time>2012-06-14T09:31:20Z</time>
      </trkpt>
      <trkpt lat="43.149183" lon="-6.176154">
        <ele>860.0</ele>
        <time>2012-06-14T09:31:25Z</time>
      </trkpt>
      <trkpt lat="43.149223" lon="-6.176333">
        <ele>861.0</ele>
        <time>2012-06-14T09:31:29Z</time>
      </trkpt>
      <trkpt lat="43.149258" lon="-6.176506">
        <ele>862.0</ele>
        <time>2012-06-14T09:31:33Z</time>
      </trkpt>
      <trkpt lat="43.149295" lon="-6.176682">
        <ele>863.0</ele>
        <time>2012-06-14T09:31:37Z</time>
      </trkpt>
      <trkpt lat="43.14931" lon="-6.176769">
        <ele>864.0</ele>
        <time>2012-06-14T09:31:39Z</time>
      </trkpt>
      <trkpt lat="43.149341" lon="-6.177016">
        <ele>866.0</ele>
        <time>2012-06-14T09:31:45Z</time>
      </trkpt>
      <trkpt lat="43.149389" lon="-6.177185">
        <ele>867.0</ele>
        <time>2012-06-14T09:31:49Z</time>
      </trkpt>
      <trkpt lat="43.149462" lon="-6.17735">
        <ele>868.0</ele>
        <time>2012-06-14T09:31:53Z</time>
      </trkpt>
      <trkpt lat="43.149538" lon="-6.177501">
        <ele>869.0</ele>
        <time>2012-06-14T09:31:57Z</time>
      </trkpt>
      <trkpt lat="43.149585" lon="-6.177606">
        <ele>870.0</ele>
        <time>2012-06-14T09:32:00Z</time>
      </trkpt>
      <trkpt lat="43.149623" lon="-6.177704">
        <ele>871.0</ele>
        <time>2012-06-14T09:32:03Z</time>
      </trkpt>
      <trkpt lat="43.149683" lon="-6.177892">
        <ele>873.0</ele>
        <time>2012-06-14T09:32:09Z</time>
      </trkpt>
      <trkpt lat="43.149728" lon="-6.178077">
        <ele>874.0</ele>
        <time>2012-06-14T09:32:15Z</time>
      </trkpt>
      <trkpt lat="43.149731" lon="-6.178258">
        <ele>876.0</ele>
        <time>2012-06-14T09:32:21Z</time>
      </trkpt>
      <trkpt lat="43.149735" lon="-6.178355">
        <ele>877.0</ele>
        <time>2012-06-14T09:32:24Z</time>
      </trkpt>
      <trkpt lat="43.149742" lon="-6.178453">
        <ele>878.0</ele>
        <time>2012-06-14T09:32:27Z</time>
      </trkpt>
      <trkpt lat="43.14975" lon="-6.178651">
        <ele>880.0</ele>
        <time>2012-06-14T09:32:33Z</time>
      </trkpt>
      <trkpt lat="43.149764" lon="-6.178756">
        <ele>881.0</ele>
        <time>2012-06-14T09:32:36Z</time>
      </trkpt>
      <trkpt lat="43.149774" lon="-6.178858">
        <ele>881.0</ele>
        <time>2012-06-14T09:32:39Z</time>
      </trkpt>
      <trkpt lat="43.149794" lon="-6.179064">
        <ele>883.0</ele>
        <time>2012-06-14T09:32:45Z</time>
      </trkpt>
      <trkpt lat="43.149805" lon="-6.179168">
        <ele>884.0</ele>
        <time>2012-06-14T09:32:48Z</time>
      </trkpt>
      <trkpt lat="43.14982" lon="-6.179266">
        <ele>885.0</ele>
        <time>2012-06-14T09:32:51Z</time>
      </trkpt>
      <trkpt lat="43.149823" lon="-6.179465">
        <ele>887.0</ele>
        <time>2012-06-14T09:32:57Z</time>
      </trkpt>
      <trkpt lat="43.149805" lon="-6.179561">
        <ele>887.0</ele>
        <time>2012-06-14T09:33:00Z</time>
      </trkpt>
      <trkpt lat="43.149779" lon="-6.17965">
        <ele>888.0</ele>
        <time>2012-06-14T09:33:03Z</time>
      </trkpt>
      <trkpt lat="43.149676" lon="-6.179807">
        <ele>890.0</ele>
        <time>2012-06-14T09:33:09Z</time>
      </trkpt>
      <trkpt lat="43.149633" lon="-6.179885">
        <ele>891.0</ele>
        <time>2012-06-14T09:33:12Z</time>
      </trkpt>
      <trkpt lat="43.149528" lon="-6.179939">
        <ele>897.0</ele>
        <time>2012-06-14T09:33:21Z</time>
      </trkpt>
      <trkpt lat="43.149492" lon="-6.179839">
        <ele>900.0</ele>
        <time>2012-06-14T09:33:24Z</time>
      </trkpt>
      <trkpt lat="43.149436" lon="-6.1796">
        <ele>905.0</ele>
        <time>2012-06-14T09:33:28Z</time>
      </trkpt>
      <trkpt lat="43.149416" lon="-6.179496">
        <ele>908.0</ele>
        <time>2012-06-14T09:33:30Z</time>
      </trkpt>
      <trkpt lat="43.149382" lon="-6.179215">
        <ele>916.0</ele>
        <time>2012-06-14T09:33:36Z</time>
      </trkpt>
      <trkpt lat="43.149359" lon="-6.179108">
        <ele>920.0</ele>
        <time>2012-06-14T09:33:39Z</time>
      </trkpt>
      <trkpt lat="43.149282" lon="-6.178926">
        <ele>928.0</ele>
        <time>2012-06-14T09:33:45Z</time>
      </trkpt>
      <trkpt lat="43.149217" lon="-6.178839">
        <ele>931.0</ele>
        <time>2012-06-14T09:33:48Z</time>
      </trkpt>
      <trkpt lat="43.149151" lon="-6.178761">
        <ele>934.0</ele>
        <time>2012-06-14T09:33:51Z</time>
      </trkpt>
      <trkpt lat="43.149012" lon="-6.178653">
        <ele>940.0</ele>
        <time>2012-06-14T09:33:57Z</time>
      </trkpt>
      <trkpt lat="43.148946" lon="-6.178613">
        <ele>942.0</ele>
        <time>2012-06-14T09:34:00Z</time>
      </trkpt>
      <trkpt lat="43.148877" lon="-6.178581">
        <ele>945.0</ele>
        <time>2012-06-14T09:34:03Z</time>
      </trkpt>
      <trkpt lat="43.148747" lon="-6.178524">
        <ele>949.0</ele>
        <time>2012-06-14T09:34:09Z</time>
      </trkpt>
      <trkpt lat="43.148691" lon="-6.178481">
        <ele>951.0</ele>
        <time>2012-06-14T09:34:12Z</time>
      </trkpt>
      <trkpt lat="43.14864" lon="-6.178416">
        <ele>953.0</ele>
        <time>2012-06-14T09:34:15Z</time>
      </trkpt>
      <trkpt lat="43.148558" lon="-6.178226">
        <ele>957.0</ele>
        <time>2012-06-14T09:34:21Z</time>
      </trkpt>
      <trkpt lat="43.148512" lon="-6.178148">
        <ele>959.0</ele>
        <time>2012-06-14T09:34:24Z</time>
      </trkpt>
      <trkpt lat="43.148458" lon="-6.178082">
        <ele>960.0</ele>
        <time>2012-06-14T09:34:27Z</time>
      </trkpt>
      <trkpt lat="43.148317" lon="-6.177975">
        <ele>964.0</ele>
        <time>2012-06-14T09:34:33Z</time>
      </trkpt>
      <trkpt lat="43.148243" lon="-6.177928">
        <ele>965.0</ele>
        <time>2012-06-14T09:34:36Z</time>
      </trkpt>
      <trkpt lat="43.148162" lon="-6.17788">
        <ele>966.0</ele>
        <time>2012-06-14T09:34:39Z</time>
      </trkpt>
      <trkpt lat="43.147995" lon="-6.17781">
        <ele>969.0</ele>
        <time>2012-06-14T09:34:45Z</time>
      </trkpt>
      <trkpt lat="43.147917" lon="-6.17778">
        <ele>970.0</ele>
        <time>2012-06-14T09:34:48Z</time>
      </trkpt>
      <trkpt lat="43.147841" lon="-6.177753">
        <ele>971.0</ele>
        <time>2012-06-14T09:34:51Z</time>
      </trkpt>
      <trkpt lat="43.147694" lon="-6.177708">
        <ele>973.0</ele>
        <time>2012-06-14T09:34:57Z</time>
      </trkpt>
      <trkpt lat="43.147623" lon="-6.177689">
        <ele>974.0</ele>
        <time>2012-06-14T09:35:00Z</time>
      </trkpt>
      <trkpt lat="43.147552" lon="-6.177671">
        <ele>975.0</ele>
        <time>2012-06-14T09:35:03Z</time>
      </trkpt>
      <trkpt lat="43.147411" lon="-6.177656">
        <ele>977.0</ele>
        <time>2012-06-14T09:35:09Z</time>
      </trkpt>
      <trkpt lat="43.147338" lon="-6.177668">
        <ele>978.0</ele>
        <time>2012-06-14T09:35:12Z</time>
      </trkpt>
      <trkpt lat="43.147264" lon="-6.177695">
        <ele>978.0</ele>
        <time>2012-06-14T09:35:15Z</time>
      </trkpt>
      <trkpt lat="43.147131" lon="-6.177781">
        <ele>979.0</ele>
        <time>2012-06-14T09:35:21Z</time>
      </trkpt>
      <trkpt lat="43.147067" lon="-6.177819">
        <ele>979.0</ele>
        <time>2012-06-14T09:35:24Z</time>
      </trkpt>
      <trkpt lat="43.147006" lon="-6.177858">
        <ele>980.0</ele>
        <time>2012-06-14T09:35:27Z</time>
      </trkpt>
      <trkpt lat="43.146887" lon="-6.177933">
        <ele>980.0</ele>
        <time>2012-06-14T09:35:33Z</time>
      </trkpt>
      <trkpt lat="43.146826" lon="-6.177969">
        <ele>980.0</ele>
        <time>2012-06-14T09:35:36Z</time>
      </trkpt>
      <trkpt lat="43.146767" lon="-6.178005">
        <ele>980.0</ele>
        <time>2012-06-14T09:35:39Z</time>
      </trkpt>
      <trkpt lat="43.146644" lon="-6.178069">
        <ele>980.0</ele>
        <time>2012-06-14T09:35:45Z</time>
      </trkpt>
      <trkpt lat="43.146582" lon="-6.178094">
        <ele>980.0</ele>
        <time>2012-06-14T09:35:48Z</time>
      </trkpt>
      <trkpt lat="43.146502" lon="-6.178125">
        <ele>980.0</ele>
        <time>2012-06-14T09:35:52Z</time>
      </trkpt>
      <trkpt lat="43.146429" lon="-6.178144">
        <ele>980.0</ele>
        <time>2012-06-14T09:35:56Z</time>
      </trkpt>
      <trkpt lat="43.146356" lon="-6.17816">
        <ele>979.0</ele>
        <time>2012-06-14T09:36:00Z</time>
      </trkpt>
      <trkpt lat="43.146284" lon="-6.178191">
        <ele>979.0</ele>
        <time>2012-06-14T09:36:04Z</time>
      </trkpt>
      <trkpt lat="43.146215" lon="-6.178237">
        <ele>979.0</ele>
        <time>2012-06-14T09:36:08Z</time>
      </trkpt>
      <trkpt lat="43.146147" lon="-6.178295">
        <ele>979.0</ele>
        <time>2012-06-14T09:36:12Z</time>
      </trkpt>
      <trkpt lat="43.146009" lon="-6.178374">
        <ele>979.0</ele>
        <time>2012-06-14T09:36:19Z</time>
      </trkpt>
      <trkpt lat="43.145865" lon="-6.178435">
        <ele>980.0</ele>
        <time>2012-06-14T09:36:25Z</time>
      </trkpt>
      <trkpt lat="43.145719" lon="-6.178487">
        <ele>981.0</ele>
        <time>2012-06-14T09:36:33Z</time>
      </trkpt>
      <trkpt lat="43.145644" lon="-6.178493">
        <ele>982.0</ele>
        <time>2012-06-14T09:36:37Z</time>
      </trkpt>
      <trkpt lat="43.14557" lon="-6.178518">
        <ele>982.0</ele>
        <time>2012-06-14T09:36:41Z</time>
      </trkpt>
      <trkpt lat="43.14549" lon="-6.178548">
        <ele>983.0</ele>
        <time>2012-06-14T09:36:45Z</time>
      </trkpt>
      <trkpt lat="43.145429" lon="-6.17858">
        <ele>984.0</ele>
        <time>2012-06-14T09:36:48Z</time>
      </trkpt>
      <trkpt lat="43.145373" lon="-6.178626">
        <ele>984.0</ele>
        <time>2012-06-14T09:36:51Z</time>
      </trkpt>
      <trkpt lat="43.145317" lon="-6.178673">
        <ele>985.0</ele>
        <time>2012-06-14T09:36:54Z</time>
      </trkpt>
      <trkpt lat="43.145196" lon="-6.178736">
        <ele>986.0</ele>
        <time>2012-06-14T09:37:00Z</time>
      </trkpt>
      <trkpt lat="43.145133" lon="-6.178768">
        <ele>987.0</ele>
        <time>2012-06-14T09:37:03Z</time>
      </trkpt>
      <trkpt lat="43.145008" lon="-6.178854">
        <ele>987.0</ele>
        <time>2012-06-14T09:37:09Z</time>
      </trkpt>
      <trkpt lat="43.144951" lon="-6.178913">
        <ele>987.0</ele>
        <time>2012-06-14T09:37:12Z</time>
      </trkpt>
      <trkpt lat="43.144899" lon="-6.178977">
        <ele>987.0</ele>
        <time>2012-06-14T09:37:15Z</time>
      </trkpt>
      <trkpt lat="43.144786" lon="-6.179102">
        <ele>988.0</ele>
        <time>2012-06-14T09:37:21Z</time>
      </trkpt>
      <trkpt lat="43.144729" lon="-6.179167">
        <ele>988.0</ele>
        <time>2012-06-14T09:37:24Z</time>
      </trkpt>
      <trkpt lat="43.144582" lon="-6.179373">
        <ele>988.0</ele>
        <time>2012-06-14T09:37:33Z</time>
      </trkpt>
      <trkpt lat="43.144542" lon="-6.179443">
        <ele>989.0</ele>
        <time>2012-06-14T09:37:36Z</time>
      </trkpt>
      <trkpt lat="43.144489" lon="-6.179527">
        <ele>989.0</ele>
        <time>2012-06-14T09:37:40Z</time>
      </trkpt>
      <trkpt lat="43.144431" lon="-6.179603">
        <ele>989.0</ele>
        <time>2012-06-14T09:37:44Z</time>
      </trkpt>
      <trkpt lat="43.144372" lon="-6.179676">
        <ele>989.0</ele>
        <time>2012-06-14T09:37:48Z</time>
      </trkpt>
      <trkpt lat="43.144243" lon="-6.179871">
        <ele>991.0</ele>
        <time>2012-06-14T09:37:57Z</time>
      </trkpt>
      <trkpt lat="43.144201" lon="-6.17994">
        <ele>991.0</ele>
        <time>2012-06-14T09:38:00Z</time>
      </trkpt>
      <trkpt lat="43.144153" lon="-6.180001">
        <ele>992.0</ele>
        <time>2012-06-14T09:38:03Z</time>
      </trkpt>
      <trkpt lat="43.144108" lon="-6.180063">
        <ele>992.0</ele>
        <time>2012-06-14T09:38:06Z</time>
      </trkpt>
      <trkpt lat="43.144053" lon="-6.180147">
        <ele>992.0</ele>
        <time>2012-06-14T09:38:10Z</time>
      </trkpt>
      <trkpt lat="43.144002" lon="-6.180235">
        <ele>992.0</ele>
        <time>2012-06-14T09:38:14Z</time>
      </trkpt>
      <trkpt lat="43.143898" lon="-6.180409">
        <ele>993.0</ele>
        <time>2012-06-14T09:38:22Z</time>
      </trkpt>
      <trkpt lat="43.143845" lon="-6.180495">
        <ele>993.0</ele>
        <time>2012-06-14T09:38:26Z</time>
      </trkpt>
      <trkpt lat="43.143794" lon="-6.180579">
        <ele>993.0</ele>
        <time>2012-06-14T09:38:30Z</time>
      </trkpt>
      <trkpt lat="43.143746" lon="-6.180666">
        <ele>994.0</ele>
        <time>2012-06-14T09:38:34Z</time>
      </trkpt>
      <trkpt lat="43.1437" lon="-6.180758">
        <ele>994.0</ele>
        <time>2012-06-14T09:38:38Z</time>
      </trkpt>
      <trkpt lat="43.143669" lon="-6.18086">
        <ele>994.0</ele>
        <time>2012-06-14T09:38:42Z</time>
      </trkpt>
      <trkpt lat="43.143629" lon="-6.181065">
        <ele>995.0</ele>
        <time>2012-06-14T09:38:49Z</time>
      </trkpt>
      <trkpt lat="43.143605" lon="-6.181158">
        <ele>995.0</ele>
        <time>2012-06-14T09:38:52Z</time>
      </trkpt>
      <trkpt lat="43.143565" lon="-6.181237">
        <ele>996.0</ele>
        <time>2012-06-14T09:38:55Z</time>
      </trkpt>
      <trkpt lat="43.143463" lon="-6.18138">
        <ele>997.0</ele>
        <time>2012-06-14T09:39:01Z</time>
      </trkpt>
      <trkpt lat="43.143394" lon="-6.181437">
        <ele>998.0</ele>
        <time>2012-06-14T09:39:04Z</time>
      </trkpt>
      <trkpt lat="43.143318" lon="-6.181498">
        <ele>998.0</ele>
        <time>2012-06-14T09:39:07Z</time>
      </trkpt>
      <trkpt lat="43.143177" lon="-6.181635">
        <ele>999.0</ele>
        <time>2012-06-14T09:39:13Z</time>
      </trkpt>
      <trkpt lat="43.14311" lon="-6.181707">
        <ele>999.0</ele>
        <time>2012-06-14T09:39:16Z</time>
      </trkpt>
      <trkpt lat="43.143042" lon="-6.181779">
        <ele>1000.0</ele>
        <time>2012-06-14T09:39:19Z</time>
      </trkpt>
      <trkpt lat="43.142917" lon="-6.181891">
        <ele>1000.0</ele>
        <time>2012-06-14T09:39:24Z</time>
      </trkpt>
      <trkpt lat="43.142722" lon="-6.181986">
        <ele>1001.0</ele>
        <time>2012-06-14T09:39:30Z</time>
      </trkpt>
      <trkpt lat="43.142664" lon="-6.182019">
        <ele>1001.0</ele>
        <time>2012-06-14T09:39:32Z</time>
      </trkpt>
      <trkpt lat="43.142542" lon="-6.18197">
        <ele>1002.0</ele>
        <time>2012-06-14T09:39:38Z</time>
      </trkpt>
      <trkpt lat="43.142492" lon="-6.18189">
        <ele>1003.0</ele>
        <time>2012-06-14T09:39:41Z</time>
      </trkpt>
      <trkpt lat="43.142423" lon="-6.181827">
        <ele>1003.0</ele>
        <time>2012-06-14T09:39:45Z</time>
      </trkpt>
      <trkpt lat="43.142362" lon="-6.181786">
        <ele>1004.0</ele>
        <time>2012-06-14T09:39:49Z</time>
      </trkpt>
      <trkpt lat="43.142292" lon="-6.181794">
        <ele>1005.0</ele>
        <time>2012-06-14T09:39:53Z</time>
      </trkpt>
      <trkpt lat="43.142214" lon="-6.181813">
        <ele>1005.0</ele>
        <time>2012-06-14T09:39:57Z</time>
      </trkpt>
      <trkpt lat="43.142051" lon="-6.181826">
        <ele>1006.0</ele>
        <time>2012-06-14T09:40:05Z</time>
      </trkpt>
      <trkpt lat="43.141984" lon="-6.18185">
        <ele>1007.0</ele>
        <time>2012-06-14T09:40:08Z</time>
      </trkpt>
      <trkpt lat="43.141765" lon="-6.181979">
        <ele>1010.0</ele>
        <time>2012-06-14T09:40:17Z</time>
      </trkpt>
      <trkpt lat="43.141681" lon="-6.182032">
        <ele>1011.0</ele>
        <time>2012-06-14T09:40:20Z</time>
      </trkpt>
      <trkpt lat="43.141603" lon="-6.182082">
        <ele>1012.0</ele>
        <time>2012-06-14T09:40:23Z</time>
      </trkpt>
      <trkpt lat="43.141467" lon="-6.182154">
        <ele>1014.0</ele>
        <time>2012-06-14T09:40:29Z</time>
      </trkpt>
      <trkpt lat="43.141404" lon="-6.18213">
        <ele>1015.0</ele>
        <time>2012-06-14T09:40:33Z</time>
      </trkpt>
      <trkpt lat="43.141334" lon="-6.182147">
        <ele>1016.0</ele>
        <time>2012-06-14T09:40:39Z</time>
      </trkpt>
      <trkpt lat="43.1413" lon="-6.18222">
        <ele>1017.0</ele>
        <time>2012-06-14T09:40:49Z</time>
      </trkpt>
      <trkpt lat="43.141399" lon="-6.18235">
        <ele>1016.0</ele>
        <time>2012-06-14T09:40:52Z</time>
      </trkpt>
      <trkpt lat="43.141713" lon="-6.182505">
        <ele>1016.0</ele>
        <time>2012-06-14T09:40:57Z</time>
      </trkpt>
      <trkpt lat="43.141921" lon="-6.182425">
        <ele>1016.0</ele>
        <time>2012-06-14T09:41:01Z</time>
      </trkpt>
      <trkpt lat="43.142142" lon="-6.18231">
        <ele>1016.0</ele>
        <time>2012-06-14T09:41:05Z</time>
      </trkpt>
      <trkpt lat="43.142355" lon="-6.182157">
        <ele>1015.0</ele>
        <time>2012-06-14T09:41:09Z</time>
      </trkpt>
      <trkpt lat="43.142536" lon="-6.181987">
        <ele>1014.0</ele>
        <time>2012-06-14T09:41:13Z</time>
      </trkpt>
      <trkpt lat="43.142666" lon="-6.181879">
        <ele>1013.0</ele>
        <time>2012-06-14T09:41:17Z</time>
      </trkpt>
      <trkpt lat="43.142725" lon="-6.181831">
        <ele>1013.0</ele>
        <time>2012-06-14T09:41:19Z</time>
      </trkpt>
      <trkpt lat="43.142871" lon="-6.181712">
        <ele>1011.0</ele>
        <time>2012-06-14T09:41:25Z</time>
      </trkpt>
      <trkpt lat="43.142939" lon="-6.181666">
        <ele>1011.0</ele>
        <time>2012-06-14T09:41:28Z</time>
      </trkpt>
      <trkpt lat="43.143008" lon="-6.181623">
        <ele>1010.0</ele>
        <time>2012-06-14T09:41:31Z</time>
      </trkpt>
      <trkpt lat="43.143141" lon="-6.181549">
        <ele>1009.0</ele>
        <time>2012-06-14T09:41:37Z</time>
      </trkpt>
      <trkpt lat="43.143206" lon="-6.181515">
        <ele>1008.0</ele>
        <time>2012-06-14T09:41:40Z</time>
      </trkpt>
      <trkpt lat="43.143349" lon="-6.181472">
        <ele>1006.0</ele>
        <time>2012-06-14T09:41:47Z</time>
      </trkpt>
      <trkpt lat="43.143433" lon="-6.181458">
        <ele>1006.0</ele>
        <time>2012-06-14T09:41:51Z</time>
      </trkpt>
      <trkpt lat="43.143515" lon="-6.181447">
        <ele>1005.0</ele>
        <time>2012-06-14T09:41:55Z</time>
      </trkpt>
      <trkpt lat="43.143595" lon="-6.181446">
        <ele>1004.0</ele>
        <time>2012-06-14T09:41:59Z</time>
      </trkpt>
      <trkpt lat="43.143731" lon="-6.181482">
        <ele>1004.0</ele>
        <time>2012-06-14T09:42:05Z</time>
      </trkpt>
      <trkpt lat="43.14381" lon="-6.181494">
        <ele>1003.0</ele>
        <time>2012-06-14T09:42:09Z</time>
      </trkpt>
      <trkpt lat="43.143892" lon="-6.181508">
        <ele>1002.0</ele>
        <time>2012-06-14T09:42:13Z</time>
      </trkpt>
      <trkpt lat="43.143892" lon="-6.181508">
        <time>2012-06-14T09:42:24Z</time>
      </trkpt>
    </trkseg>
    <trkseg>
      <trkpt lat="43.143892" lon="-6.181508">
        <time>2012-06-14T09:42:25Z</time>
      </trkpt>
      <trkpt lat="43.144175" lon="-6.181631">
        <ele>1001.0</ele>
        <time>2012-06-14T09:42:29Z</time>
      </trkpt>
      <trkpt lat="43.144302" lon="-6.181719">
        <ele>1001.0</ele>
        <time>2012-06-14T09:42:34Z</time>
      </trkpt>
      <trkpt lat="43.144442" lon="-6.181764">
        <ele>1001.0</ele>
        <time>2012-06-14T09:42:38Z</time>
      </trkpt>
      <trkpt lat="43.144508" lon="-6.181769">
        <ele>1001.0</ele>
        <time>2012-06-14T09:42:40Z</time>
      </trkpt>
      <trkpt lat="43.144678" lon="-6.181766">
        <ele>1001.0</ele>
        <time>2012-06-14T09:42:46Z</time>
      </trkpt>
      <trkpt lat="43.144741" lon="-6.181833">
        <ele>1001.0</ele>
        <time>2012-06-14T09:42:50Z</time>
      </trkpt>
      <trkpt lat="43.1447" lon="-6.182097">
        <ele>1001.0</ele>
        <time>2012-06-14T09:42:54Z</time>
      </trkpt>
      <trkpt lat="43.144617" lon="-6.182381">
        <ele>1001.0</ele>
        <time>2012-06-14T09:42:58Z</time>
      </trkpt>
      <trkpt lat="43.144481" lon="-6.182559">
        <ele>1002.0</ele>
        <time>2012-06-14T09:43:02Z</time>
      </trkpt>
      <trkpt lat="43.144332" lon="-6.182683">
        <ele>1003.0</ele>
        <time>2012-06-14T09:43:06Z</time>
      </trkpt>
      <trkpt lat="43.144157" lon="-6.182829">
        <ele>1005.0</ele>
        <time>2012-06-14T09:43:10Z</time>
      </trkpt>
      <trkpt lat="43.144098" lon="-6.182886">
        <ele>1006.0</ele>
        <time>2012-06-14T09:43:12Z</time>
      </trkpt>
      <trkpt lat="43.143914" lon="-6.18304">
        <ele>1008.0</ele>
        <time>2012-06-14T09:43:18Z</time>
      </trkpt>
      <trkpt lat="43.143747" lon="-6.183087">
        <ele>1009.0</ele>
        <time>2012-06-14T09:43:22Z</time>
      </trkpt>
      <trkpt lat="43.143581" lon="-6.183124">
        <ele>1010.0</ele>
        <time>2012-06-14T09:43:26Z</time>
      </trkpt>
      <trkpt lat="43.143424" lon="-6.183155">
        <ele>1012.0</ele>
        <time>2012-06-14T09:43:30Z</time>
      </trkpt>
      <trkpt lat="43.143287" lon="-6.183198">
        <ele>1013.0</ele>
        <time>2012-06-14T09:43:34Z</time>
      </trkpt>
      <trkpt lat="43.143224" lon="-6.183218">
        <ele>1014.0</ele>
        <time>2012-06-14T09:43:36Z</time>
      </trkpt>
      <trkpt lat="43.143067" lon="-6.18319">
        <ele>1016.0</ele>
        <time>2012-06-14T09:43:42Z</time>
      </trkpt>
      <trkpt lat="43.143052" lon="-6.183104">
        <ele>1017.0</ele>
        <time>2012-06-14T09:43:44Z</time>
      </trkpt>
      <trkpt lat="43.14303" lon="-6.182984">
        <ele>1019.0</ele>
        <time>2012-06-14T09:43:47Z</time>
      </trkpt>
      <trkpt lat="43.142978" lon="-6.182933">
        <ele>1020.0</ele>
        <time>2012-06-14T09:43:51Z</time>
      </trkpt>
      <trkpt lat="43.142948" lon="-6.182824">
        <ele>1021.0</ele>
        <time>2012-06-14T09:43:55Z</time>
      </trkpt>
      <trkpt lat="43.142918" lon="-6.182733">
        <ele>1021.0</ele>
        <time>2012-06-14T09:43:59Z</time>
      </trkpt>
      <trkpt lat="43.142853" lon="-6.182764">
        <ele>1021.0</ele>
        <time>2012-06-14T09:44:08Z</time>
      </trkpt>
      <trkpt lat="43.142824" lon="-6.182845">
        <ele>1020.0</ele>
        <time>2012-06-14T09:44:13Z</time>
      </trkpt>
      <trkpt lat="43.142812" lon="-6.182942">
        <ele>1019.0</ele>
        <time>2012-06-14T09:44:17Z</time>
      </trkpt>
      <trkpt lat="43.142807" lon="-6.183032">
        <ele>1020.0</ele>
        <time>2012-06-14T09:44:20Z</time>
      </trkpt>
      <trkpt lat="43.142798" lon="-6.183217">
        <ele>1021.0</ele>
        <time>2012-06-14T09:44:26Z</time>
      </trkpt>
      <trkpt lat="43.142807" lon="-6.183336">
        <ele>1022.0</ele>
        <time>2012-06-14T09:44:29Z</time>
      </trkpt>
      <trkpt lat="43.14279" lon="-6.183433">
        <ele>1024.0</ele>
        <time>2012-06-14T09:44:32Z</time>
      </trkpt>
      <trkpt lat="43.142702" lon="-6.183613">
        <ele>1028.0</ele>
        <time>2012-06-14T09:44:38Z</time>
      </trkpt>
      <trkpt lat="43.14264" lon="-6.183681">
        <ele>1031.0</ele>
        <time>2012-06-14T09:44:41Z</time>
      </trkpt>
      <trkpt lat="43.142579" lon="-6.183744">
        <ele>1033.0</ele>
        <time>2012-06-14T09:44:44Z</time>
      </trkpt>
      <trkpt lat="43.14244" lon="-6.183892">
        <ele>1038.0</ele>
        <time>2012-06-14T09:44:50Z</time>
      </trkpt>
      <trkpt lat="43.142345" lon="-6.184019">
        <ele>1040.0</ele>
        <time>2012-06-14T09:44:54Z</time>
      </trkpt>
      <trkpt lat="43.142279" lon="-6.18409">
        <ele>1041.0</ele>
        <time>2012-06-14T09:44:57Z</time>
      </trkpt>
      <trkpt lat="43.142211" lon="-6.184156">
        <ele>1043.0</ele>
        <time>2012-06-14T09:45:00Z</time>
      </trkpt>
      <trkpt lat="43.14206" lon="-6.184302">
        <ele>1044.0</ele>
        <time>2012-06-14T09:45:06Z</time>
      </trkpt>
      <trkpt lat="43.141816" lon="-6.184548">
        <ele>1046.0</ele>
        <time>2012-06-14T09:45:17Z</time>
      </trkpt>
      <trkpt lat="43.141755" lon="-6.184598">
        <ele>1047.0</ele>
        <time>2012-06-14T09:45:20Z</time>
      </trkpt>
      <trkpt lat="43.141664" lon="-6.18466">
        <ele>1047.0</ele>
        <time>2012-06-14T09:45:24Z</time>
      </trkpt>
      <trkpt lat="43.141538" lon="-6.184701">
        <ele>1048.0</ele>
        <time>2012-06-14T09:45:30Z</time>
      </trkpt>
      <trkpt lat="43.141462" lon="-6.184656">
        <ele>1050.0</ele>
        <time>2012-06-14T09:45:34Z</time>
      </trkpt>
      <trkpt lat="43.141413" lon="-6.18457">
        <ele>1052.0</ele>
        <time>2012-06-14T09:45:37Z</time>
      </trkpt>
      <trkpt lat="43.141348" lon="-6.184504">
        <ele>1054.0</ele>
        <time>2012-06-14T09:45:41Z</time>
      </trkpt>
      <trkpt lat="43.141281" lon="-6.18444">
        <ele>1057.0</ele>
        <time>2012-06-14T09:45:45Z</time>
      </trkpt>
      <trkpt lat="43.141226" lon="-6.184393">
        <ele>1058.0</ele>
        <time>2012-06-14T09:45:48Z</time>
      </trkpt>
      <trkpt lat="43.141154" lon="-6.184341">
        <ele>1060.0</ele>
        <time>2012-06-14T09:45:52Z</time>
      </trkpt>
      <trkpt lat="43.141082" lon="-6.184304">
        <ele>1061.0</ele>
        <time>2012-06-14T09:45:56Z</time>
      </trkpt>
      <trkpt lat="43.141009" lon="-6.184265">
        <ele>1063.0</ele>
        <time>2012-06-14T09:46:00Z</time>
      </trkpt>
      <trkpt lat="43.140933" lon="-6.184234">
        <ele>1064.0</ele>
        <time>2012-06-14T09:46:04Z</time>
      </trkpt>
      <trkpt lat="43.140885" lon="-6.184161">
        <ele>1066.0</ele>
        <time>2012-06-14T09:46:08Z</time>
      </trkpt>
      <trkpt lat="43.140824" lon="-6.184133">
        <ele>1068.0</ele>
        <time>2012-06-14T09:46:12Z</time>
      </trkpt>
      <trkpt lat="43.140798" lon="-6.184049">
        <ele>1072.0</ele>
        <time>2012-06-14T09:46:16Z</time>
      </trkpt>
      <trkpt lat="43.140768" lon="-6.183958">
        <ele>1076.0</ele>
        <time>2012-06-14T09:46:21Z</time>
      </trkpt>
      <trkpt lat="43.140717" lon="-6.183905">
        <ele>1081.0</ele>
        <time>2012-06-14T09:46:28Z</time>
      </trkpt>
      <trkpt lat="43.140654" lon="-6.183926">
        <ele>1086.0</ele>
        <time>2012-06-14T09:46:36Z</time>
      </trkpt>
      <trkpt lat="43.140622" lon="-6.184007">
        <ele>1089.0</ele>
        <time>2012-06-14T09:46:42Z</time>
      </trkpt>
      <trkpt lat="43.140588" lon="-6.184095">
        <ele>1092.0</ele>
        <time>2012-06-14T09:46:48Z</time>
      </trkpt>
      <trkpt lat="43.140537" lon="-6.184168">
        <ele>1093.0</ele>
        <time>2012-06-14T09:46:53Z</time>
      </trkpt>
      <trkpt lat="43.140533" lon="-6.184268">
        <ele>1092.0</ele>
        <time>2012-06-14T09:46:57Z</time>
      </trkpt>
      <trkpt lat="43.140546" lon="-6.184379">
        <ele>1091.0</ele>
        <time>2012-06-14T09:47:01Z</time>
      </trkpt>
      <trkpt lat="43.14058" lon="-6.184471">
        <ele>1089.0</ele>
        <time>2012-06-14T09:47:04Z</time>
      </trkpt>
      <trkpt lat="43.140649" lon="-6.184689">
        <ele>1086.0</ele>
        <time>2012-06-14T09:47:10Z</time>
      </trkpt>
      <trkpt lat="43.140677" lon="-6.184783">
        <ele>1084.0</ele>
        <time>2012-06-14T09:47:13Z</time>
      </trkpt>
      <trkpt lat="43.140703" lon="-6.184877">
        <ele>1082.0</ele>
        <time>2012-06-14T09:47:16Z</time>
      </trkpt>
      <trkpt lat="43.140726" lon="-6.184968">
        <ele>1080.0</ele>
        <time>2012-06-14T09:47:19Z</time>
      </trkpt>
      <trkpt lat="43.140743" lon="-6.185078">
        <ele>1077.0</ele>
        <time>2012-06-14T09:47:23Z</time>
      </trkpt>
      <trkpt lat="43.140755" lon="-6.185187">
        <ele>1075.0</ele>
        <time>2012-06-14T09:47:27Z</time>
      </trkpt>
      <trkpt lat="43.140762" lon="-6.185301">
        <ele>1072.0</ele>
        <time>2012-06-14T09:47:31Z</time>
      </trkpt>
      <trkpt lat="43.140751" lon="-6.185409">
        <ele>1070.0</ele>
        <time>2012-06-14T09:47:35Z</time>
      </trkpt>
      <trkpt lat="43.140638" lon="-6.185547">
        <ele>1073.0</ele>
        <time>2012-06-14T09:47:42Z</time>
      </trkpt>
      <trkpt lat="43.140588" lon="-6.185601">
        <ele>1075.0</ele>
        <time>2012-06-14T09:47:45Z</time>
      </trkpt>
      <trkpt lat="43.140543" lon="-6.185697">
        <ele>1081.0</ele>
        <time>2012-06-14T09:47:49Z</time>
      </trkpt>
      <trkpt lat="43.140498" lon="-6.185767">
        <ele>1086.0</ele>
        <time>2012-06-14T09:47:52Z</time>
      </trkpt>
      <trkpt lat="43.140384" lon="-6.185889">
        <ele>1096.0</ele>
        <time>2012-06-14T09:47:58Z</time>
      </trkpt>
      <trkpt lat="43.140321" lon="-6.185945">
        <ele>1101.0</ele>
        <time>2012-06-14T09:48:01Z</time>
      </trkpt>
      <trkpt lat="43.140254" lon="-6.18601">
        <ele>1106.0</ele>
        <time>2012-06-14T09:48:04Z</time>
      </trkpt>
      <trkpt lat="43.140139" lon="-6.186148">
        <ele>1116.0</ele>
        <time>2012-06-14T09:48:10Z</time>
      </trkpt>
      <trkpt lat="43.14009" lon="-6.186206">
        <ele>1121.0</ele>
        <time>2012-06-14T09:48:13Z</time>
      </trkpt>
      <trkpt lat="43.139962" lon="-6.186331">
        <ele>1134.0</ele>
        <time>2012-06-14T09:48:21Z</time>
      </trkpt>
      <trkpt lat="43.139833" lon="-6.186426">
        <ele>1143.0</ele>
        <time>2012-06-14T09:48:29Z</time>
      </trkpt>
      <trkpt lat="43.139767" lon="-6.186489">
        <ele>1146.0</ele>
        <time>2012-06-14T09:48:33Z</time>
      </trkpt>
      <trkpt lat="43.139711" lon="-6.186573">
        <ele>1150.0</ele>
        <time>2012-06-14T09:48:37Z</time>
      </trkpt>
      <trkpt lat="43.139658" lon="-6.186659">
        <ele>1152.0</ele>
        <time>2012-06-14T09:48:41Z</time>
      </trkpt>
      <trkpt lat="43.139609" lon="-6.186739">
        <ele>1154.0</ele>
        <time>2012-06-14T09:48:45Z</time>
      </trkpt>
      <trkpt lat="43.139567" lon="-6.186823">
        <ele>1156.0</ele>
        <time>2012-06-14T09:48:49Z</time>
      </trkpt>
      <trkpt lat="43.139574" lon="-6.186931">
        <ele>1157.0</ele>
        <time>2012-06-14T09:48:52Z</time>
      </trkpt>
      <trkpt lat="43.139614" lon="-6.187164">
        <ele>1159.0</ele>
        <time>2012-06-14T09:48:58Z</time>
      </trkpt>
      <trkpt lat="43.139629" lon="-6.187275">
        <ele>1159.0</ele>
        <time>2012-06-14T09:49:01Z</time>
      </trkpt>
      <trkpt lat="43.13964" lon="-6.18738">
        <ele>1158.0</ele>
        <time>2012-06-14T09:49:04Z</time>
      </trkpt>
      <trkpt lat="43.139644" lon="-6.187571">
        <ele>1157.0</ele>
        <time>2012-06-14T09:49:10Z</time>
      </trkpt>
      <trkpt lat="43.139652" lon="-6.187669">
        <ele>1156.0</ele>
        <time>2012-06-14T09:49:13Z</time>
      </trkpt>
      <trkpt lat="43.139662" lon="-6.187767">
        <ele>1155.0</ele>
        <time>2012-06-14T09:49:16Z</time>
      </trkpt>
      <trkpt lat="43.139684" lon="-6.187972">
        <ele>1152.0</ele>
        <time>2012-06-14T09:49:22Z</time>
      </trkpt>
      <trkpt lat="43.139689" lon="-6.188077">
        <ele>1151.0</ele>
        <time>2012-06-14T09:49:25Z</time>
      </trkpt>
      <trkpt lat="43.139692" lon="-6.188175">
        <ele>1149.0</ele>
        <time>2012-06-14T09:49:28Z</time>
      </trkpt>
      <trkpt lat="43.1397" lon="-6.188374">
        <ele>1145.0</ele>
        <time>2012-06-14T09:49:34Z</time>
      </trkpt>
      <trkpt lat="43.1397" lon="-6.188478">
        <ele>1142.0</ele>
        <time>2012-06-14T09:49:37Z</time>
      </trkpt>
      <trkpt lat="43.139702" lon="-6.188582">
        <ele>1140.0</ele>
        <time>2012-06-14T09:49:40Z</time>
      </trkpt>
      <trkpt lat="43.139701" lon="-6.18878">
        <ele>1136.0</ele>
        <time>2012-06-14T09:49:46Z</time>
      </trkpt>
      <trkpt lat="43.139705" lon="-6.188882">
        <ele>1133.0</ele>
        <time>2012-06-14T09:49:49Z</time>
      </trkpt>
      <trkpt lat="43.139712" lon="-6.188991">
        <ele>1131.0</ele>
        <time>2012-06-14T09:49:52Z</time>
      </trkpt>
      <trkpt lat="43.139742" lon="-6.189221">
        <ele>1127.0</ele>
        <time>2012-06-14T09:49:58Z</time>
      </trkpt>
      <trkpt lat="43.13976" lon="-6.189331">
        <ele>1125.0</ele>
        <time>2012-06-14T09:50:01Z</time>
      </trkpt>
      <trkpt lat="43.13978" lon="-6.189436">
        <ele>1122.0</ele>
        <time>2012-06-14T09:50:04Z</time>
      </trkpt>
      <trkpt lat="43.139812" lon="-6.189636">
        <ele>1118.0</ele>
        <time>2012-06-14T09:50:10Z</time>
      </trkpt>
      <trkpt lat="43.139823" lon="-6.189732">
        <ele>1116.0</ele>
        <time>2012-06-14T09:50:13Z</time>
      </trkpt>
      <trkpt lat="43.139825" lon="-6.18982">
        <ele>1114.0</ele>
        <time>2012-06-14T09:50:16Z</time>
      </trkpt>
      <trkpt lat="43.139828" lon="-6.189909">
        <ele>1113.0</ele>
        <time>2012-06-14T09:50:19Z</time>
      </trkpt>
      <trkpt lat="43.139853" lon="-6.19011">
        <ele>1108.0</ele>
        <time>2012-06-14T09:50:26Z</time>
      </trkpt>
      <trkpt lat="43.139868" lon="-6.190199">
        <ele>1107.0</ele>
        <time>2012-06-14T09:50:29Z</time>
      </trkpt>
      <trkpt lat="43.139884" lon="-6.190289">
        <ele>1105.0</ele>
        <time>2012-06-14T09:50:32Z</time>
      </trkpt>
      <trkpt lat="43.139915" lon="-6.190473">
        <ele>1101.0</ele>
        <time>2012-06-14T09:50:38Z</time>
      </trkpt>
      <trkpt lat="43.139928" lon="-6.190561">
        <ele>1100.0</ele>
        <time>2012-06-14T09:50:41Z</time>
      </trkpt>
      <trkpt lat="43.139944" lon="-6.190646">
        <ele>1098.0</ele>
        <time>2012-06-14T09:50:44Z</time>
      </trkpt>
      <trkpt lat="43.13998" lon="-6.190816">
        <ele>1095.0</ele>
        <time>2012-06-14T09:50:50Z</time>
      </trkpt>
      <trkpt lat="43.139999" lon="-6.190899">
        <ele>1093.0</ele>
        <time>2012-06-14T09:50:53Z</time>
      </trkpt>
      <trkpt lat="43.140021" lon="-6.191004">
        <ele>1092.0</ele>
        <time>2012-06-14T09:50:57Z</time>
      </trkpt>
      <trkpt lat="43.140052" lon="-6.191106">
        <ele>1090.0</ele>
        <time>2012-06-14T09:51:01Z</time>
      </trkpt>
      <trkpt lat="43.140085" lon="-6.19119">
        <ele>1089.0</ele>
        <time>2012-06-14T09:51:05Z</time>
      </trkpt>
      <trkpt lat="43.140115" lon="-6.191282">
        <ele>1089.0</ele>
        <time>2012-06-14T09:51:09Z</time>
      </trkpt>
      <trkpt lat="43.140139" lon="-6.191385">
        <ele>1089.0</ele>
        <time>2012-06-14T09:51:13Z</time>
      </trkpt>
      <trkpt lat="43.140155" lon="-6.191495">
        <ele>1090.0</ele>
        <time>2012-06-14T09:51:17Z</time>
      </trkpt>
      <trkpt lat="43.140178" lon="-6.191604">
        <ele>1090.0</ele>
        <time>2012-06-14T09:51:21Z</time>
      </trkpt>
      <trkpt lat="43.140132" lon="-6.191777">
        <ele>1091.0</ele>
        <time>2012-06-14T09:51:26Z</time>
      </trkpt>
      <trkpt lat="43.140132" lon="-6.191777">
        <time>2012-06-14T09:51:38Z</time>
      </trkpt>
    </trkseg>
    <trkseg>
      <trkpt lat="43.140132" lon="-6.191777">
        <time>2012-06-14T09:51:38Z</time>
      </trkpt>
      <trkpt lat="43.140149" lon="-6.192167">
        <ele>1095.0</ele>
        <time>2012-06-14T09:51:42Z</time>
      </trkpt>
      <trkpt lat="43.140167" lon="-6.192268">
        <ele>1096.0</ele>
        <time>2012-06-14T09:51:46Z</time>
      </trkpt>
      <trkpt lat="43.140171" lon="-6.192365">
        <ele>1096.0</ele>
        <time>2012-06-14T09:51:50Z</time>
      </trkpt>
      <trkpt lat="43.14021" lon="-6.192434">
        <ele>1097.0</ele>
        <time>2012-06-14T09:51:53Z</time>
      </trkpt>
      <trkpt lat="43.140312" lon="-6.192588">
        <ele>1098.0</ele>
        <time>2012-06-14T09:51:58Z</time>
      </trkpt>
      <trkpt lat="43.140469" lon="-6.192735">
        <ele>1098.0</ele>
        <time>2012-06-14T09:52:02Z</time>
      </trkpt>
      <trkpt lat="43.140658" lon="-6.192788">
        <ele>1098.0</ele>
        <time>2012-06-14T09:52:06Z</time>
      </trkpt>
      <trkpt lat="43.140803" lon="-6.192775">
        <ele>1098.0</ele>
        <time>2012-06-14T09:52:11Z</time>
      </trkpt>
      <trkpt lat="43.140869" lon="-6.192743">
        <ele>1098.0</ele>
        <time>2012-06-14T09:52:14Z</time>
      </trkpt>
      <trkpt lat="43.140932" lon="-6.192687">
        <ele>1098.0</ele>
        <time>2012-06-14T09:52:17Z</time>
      </trkpt>
      <trkpt lat="43.141019" lon="-6.192507">
        <ele>1098.0</ele>
        <time>2012-06-14T09:52:22Z</time>
      </trkpt>
      <trkpt lat="43.141109" lon="-6.192225">
        <ele>1098.0</ele>
        <time>2012-06-14T09:52:27Z</time>
      </trkpt>
      <trkpt lat="43.14119" lon="-6.191902">
        <ele>1098.0</ele>
        <time>2012-06-14T09:52:31Z</time>
      </trkpt>
      <trkpt lat="43.141243" lon="-6.191607">
        <ele>1097.0</ele>
        <time>2012-06-14T09:52:35Z</time>
      </trkpt>
      <trkpt lat="43.141287" lon="-6.191349">
        <ele>1097.0</ele>
        <time>2012-06-14T09:52:39Z</time>
      </trkpt>
      <trkpt lat="43.141326" lon="-6.191131">
        <ele>1097.0</ele>
        <time>2012-06-14T09:52:43Z</time>
      </trkpt>
      <trkpt lat="43.141361" lon="-6.190942">
        <ele>1097.0</ele>
        <time>2012-06-14T09:52:47Z</time>
      </trkpt>
      <trkpt lat="43.141376" lon="-6.190858">
        <ele>1097.0</ele>
        <time>2012-06-14T09:52:49Z</time>
      </trkpt>
      <trkpt lat="43.141419" lon="-6.190623">
        <ele>1096.0</ele>
        <time>2012-06-14T09:52:55Z</time>
      </trkpt>
      <trkpt lat="43.141456" lon="-6.190511">
        <ele>1096.0</ele>
        <time>2012-06-14T09:52:58Z</time>
      </trkpt>
      <trkpt lat="43.141493" lon="-6.190397">
        <ele>1096.0</ele>
        <time>2012-06-14T09:53:01Z</time>
      </trkpt>
      <trkpt lat="43.141545" lon="-6.190175">
        <ele>1096.0</ele>
        <time>2012-06-14T09:53:07Z</time>
      </trkpt>
      <trkpt lat="43.141551" lon="-6.190072">
        <ele>1095.0</ele>
        <time>2012-06-14T09:53:10Z</time>
      </trkpt>
      <trkpt lat="43.141538" lon="-6.189988">
        <ele>1095.0</ele>
        <time>2012-06-14T09:53:13Z</time>
      </trkpt>
      <trkpt lat="43.141533" lon="-6.189887">
        <ele>1096.0</ele>
        <time>2012-06-14T09:53:17Z</time>
      </trkpt>
      <trkpt lat="43.141576" lon="-6.189821">
        <ele>1096.0</ele>
        <time>2012-06-14T09:53:21Z</time>
      </trkpt>
      <trkpt lat="43.141652" lon="-6.189819">
        <ele>1097.0</ele>
        <time>2012-06-14T09:53:25Z</time>
      </trkpt>
      <trkpt lat="43.141709" lon="-6.189866">
        <ele>1097.0</ele>
        <time>2012-06-14T09:53:29Z</time>
      </trkpt>
      <trkpt lat="43.141729" lon="-6.190064">
        <ele>1097.0</ele>
        <time>2012-06-14T09:53:35Z</time>
      </trkpt>
      <trkpt lat="43.141684" lon="-6.190294">
        <ele>1097.0</ele>
        <time>2012-06-14T09:53:39Z</time>
      </trkpt>
      <trkpt lat="43.141612" lon="-6.190514">
        <ele>1097.0</ele>
        <time>2012-06-14T09:53:42Z</time>
      </trkpt>
      <trkpt lat="43.141557" lon="-6.190752">
        <ele>1097.0</ele>
        <time>2012-06-14T09:53:46Z</time>
      </trkpt>
      <trkpt lat="43.141562" lon="-6.190947">
        <ele>1097.0</ele>
        <time>2012-06-14T09:53:50Z</time>
      </trkpt>
      <trkpt lat="43.141614" lon="-6.191153">
        <ele>1097.0</ele>
        <time>2012-06-14T09:53:55Z</time>
      </trkpt>
      <trkpt lat="43.141637" lon="-6.191273">
        <ele>1097.0</ele>
        <time>2012-06-14T09:53:58Z</time>
      </trkpt>
      <trkpt lat="43.1416" lon="-6.191469">
        <ele>1097.0</ele>
        <time>2012-06-14T09:54:02Z</time>
      </trkpt>
      <trkpt lat="43.141578" lon="-6.191568">
        <ele>1097.0</ele>
        <time>2012-06-14T09:54:04Z</time>
      </trkpt>
      <trkpt lat="43.141578" lon="-6.191568">
        <time>2012-06-14T09:54:15Z</time>
      </trkpt>
    </trkseg>
    <trkseg>
      <trkpt lat="43.141578" lon="-6.191568">
        <time>2012-06-14T09:55:05Z</time>
      </trkpt>
      <trkpt lat="43.140751" lon="-6.193321">
        <ele>1098.0</ele>
        <time>2012-06-14T09:55:08Z</time>
      </trkpt>
      <trkpt lat="43.14063" lon="-6.193413">
        <ele>1099.0</ele>
        <time>2012-06-14T09:55:12Z</time>
      </trkpt>
      <trkpt lat="43.140469" lon="-6.193338">
        <ele>1100.0</ele>
        <time>2012-06-14T09:55:15Z</time>
      </trkpt>
      <trkpt lat="43.140264" lon="-6.193061">
        <ele>1101.0</ele>
        <time>2012-06-14T09:55:21Z</time>
      </trkpt>
      <trkpt lat="43.140484" lon="-6.193699">
        <ele>1104.0</ele>
        <time>2012-06-14T09:55:29Z</time>
      </trkpt>
      <trkpt lat="43.140484" lon="-6.193699">
        <time>2012-06-14T09:55:33Z</time>
      </trkpt>
    </trkseg>
    <trkseg>
      <trkpt lat="43.140484" lon="-6.193699">
        <time>2012-06-14T09:57:06Z</time>
      </trkpt>
      <trkpt lat="43.140484" lon="-6.193699">
        <time>2012-06-14T09:57:07Z</time>
      </trkpt>
      <trkpt lat="43.140484" lon="-6.193699">
        <time>2012-06-14T09:57:19Z</time>
      </trkpt>
    </trkseg>
    <trkseg>
      <trkpt lat="43.140484" lon="-6.193699">
        <time>2012-06-14T09:57:20Z</time>
      </trkpt>
      <trkpt lat="43.140484" lon="-6.193699">
        <time>2012-06-14T09:57:31Z</time>
      </trkpt>
    </trkseg>
    <trkseg>
      <trkpt lat="43.140484" lon="-6.193699">
        <time>2012-06-14T09:57:37Z</time>
      </trkpt>
      <trkpt lat="43.140771" lon="-6.194091">
        <ele>1113.0</ele>
        <time>2012-06-14T09:57:50Z</time>
      </trkpt>
      <trkpt lat="43.141106" lon="-6.194581">
        <ele>1121.0</ele>
        <time>2012-06-14T09:57:54Z</time>
      </trkpt>
      <trkpt lat="43.14172" lon="-6.195597">
        <ele>1164.0</ele>
        <time>2012-06-14T09:57:58Z</time>
      </trkpt>
      <trkpt lat="43.141925" lon="-6.195909">
        <ele>1183.0</ele>
        <time>2012-06-14T09:58:00Z</time>
      </trkpt>
      <trkpt lat="43.142292" lon="-6.196414">
        <ele>1222.0</ele>
        <time>2012-06-14T09:58:05Z</time>
      </trkpt>
      <trkpt lat="43.142484" lon="-6.197099">
        <ele>1257.0</ele>
        <time>2012-06-14T09:58:10Z</time>
      </trkpt>
      <trkpt lat="43.142585" lon="-6.197703">
        <ele>1270.0</ele>
        <time>2012-06-14T09:58:14Z</time>
      </trkpt>
      <trkpt lat="43.142619" lon="-6.198285">
        <ele>1270.0</ele>
        <time>2012-06-14T09:58:18Z</time>
      </trkpt>
      <trkpt lat="43.14233" lon="-6.198934">
        <ele>1274.0</ele>
        <time>2012-06-14T09:58:22Z</time>
      </trkpt>
      <trkpt lat="43.142075" lon="-6.199412">
        <ele>1278.0</ele>
        <time>2012-06-14T09:58:25Z</time>
      </trkpt>
      <trkpt lat="43.141907" lon="-6.200023">
        <ele>1276.0</ele>
        <time>2012-06-14T09:58:30Z</time>
      </trkpt>
      <trkpt lat="43.141839" lon="-6.200478">
        <ele>1278.0</ele>
        <time>2012-06-14T09:58:34Z</time>
      </trkpt>
      <trkpt lat="43.141772" lon="-6.201039">
        <ele>1276.0</ele>
        <time>2012-06-14T09:58:38Z</time>
      </trkpt>
      <trkpt lat="43.141697" lon="-6.201749">
        <ele>1274.0</ele>
        <time>2012-06-14T09:58:42Z</time>
      </trkpt>
      <trkpt lat="43.141555" lon="-6.202536">
        <ele>1272.0</ele>
        <time>2012-06-14T09:58:46Z</time>
      </trkpt>
      <trkpt lat="43.1414" lon="-6.203335">
        <ele>1274.0</ele>
        <time>2012-06-14T09:58:50Z</time>
      </trkpt>
      <trkpt lat="43.141393" lon="-6.204046">
        <ele>1272.0</ele>
        <time>2012-06-14T09:58:54Z</time>
      </trkpt>
      <trkpt lat="43.141356" lon="-6.204745">
        <ele>1272.0</ele>
        <time>2012-06-14T09:58:58Z</time>
      </trkpt>
      <trkpt lat="43.141108" lon="-6.205344">
        <ele>1274.0</ele>
        <time>2012-06-14T09:59:02Z</time>
      </trkpt>
      <trkpt lat="43.140781" lon="-6.205867">
        <ele>1279.0</ele>
        <time>2012-06-14T09:59:06Z</time>
      </trkpt>
      <trkpt lat="43.14062" lon="-6.206506">
        <ele>1283.0</ele>
        <time>2012-06-14T09:59:10Z</time>
      </trkpt>
      <trkpt lat="43.140677" lon="-6.20704">
        <ele>1285.0</ele>
        <time>2012-06-14T09:59:13Z</time>
      </trkpt>
      <trkpt lat="43.140556" lon="-6.207933">
        <ele>1288.0</ele>
        <time>2012-06-14T09:59:18Z</time>
      </trkpt>
      <trkpt lat="43.140546" lon="-6.208446">
        <ele>1289.0</ele>
        <time>2012-06-14T09:59:22Z</time>
      </trkpt>
      <trkpt lat="43.140803" lon="-6.208894">
        <ele>1288.0</ele>
        <time>2012-06-14T09:59:26Z</time>
      </trkpt>
      <trkpt lat="43.141164" lon="-6.209091">
        <ele>1286.0</ele>
        <time>2012-06-14T09:59:30Z</time>
      </trkpt>
      <trkpt lat="43.141634" lon="-6.208967">
        <ele>1284.0</ele>
        <time>2012-06-14T09:59:34Z</time>
      </trkpt>
      <trkpt lat="43.142168" lon="-6.208801">
        <ele>1282.0</ele>
        <time>2012-06-14T09:59:38Z</time>
      </trkpt>
      <trkpt lat="43.142646" lon="-6.208686">
        <ele>1282.0</ele>
        <time>2012-06-14T09:59:42Z</time>
      </trkpt>
      <trkpt lat="43.142866" lon="-6.208758">
        <ele>1282.0</ele>
        <time>2012-06-14T09:59:44Z</time>
      </trkpt>
      <trkpt lat="43.143225" lon="-6.209146">
        <ele>1283.0</ele>
        <time>2012-06-14T09:59:48Z</time>
      </trkpt>
      <trkpt lat="43.143438" lon="-6.2098">
        <ele>1285.0</ele>
        <time>2012-06-14T09:59:53Z</time>
      </trkpt>
      <trkpt lat="43.143439" lon="-6.210196">
        <ele>1285.0</ele>
        <time>2012-06-14T09:59:56Z</time>
      </trkpt>
      <trkpt lat="43.143587" lon="-6.21093">
        <ele>1287.0</ele>
        <time>2012-06-14T10:00:02Z</time>
      </trkpt>
      <trkpt lat="43.143425" lon="-6.211516">
        <ele>1287.0</ele>
        <time>2012-06-14T10:00:06Z</time>
      </trkpt>
      <trkpt lat="43.143463" lon="-6.21199">
        <ele>1288.0</ele>
        <time>2012-06-14T10:00:10Z</time>
      </trkpt>
      <trkpt lat="43.143306" lon="-6.212381">
        <ele>1284.0</ele>
        <time>2012-06-14T10:00:14Z</time>
      </trkpt>
      <trkpt lat="43.143199" lon="-6.212688">
        <ele>1282.0</ele>
        <time>2012-06-14T10:00:17Z</time>
      </trkpt>
      <trkpt lat="43.143196" lon="-6.213231">
        <ele>1281.0</ele>
        <time>2012-06-14T10:00:22Z</time>
      </trkpt>
      <trkpt lat="43.143337" lon="-6.213565">
        <ele>1281.0</ele>
        <time>2012-06-14T10:00:26Z</time>
      </trkpt>
      <trkpt lat="43.143508" lon="-6.213844">
        <ele>1283.0</ele>
        <time>2012-06-14T10:00:30Z</time>
      </trkpt>
      <trkpt lat="43.143583" lon="-6.214074">
        <ele>1283.0</ele>
        <time>2012-06-14T10:00:33Z</time>
      </trkpt>
      <trkpt lat="43.143631" lon="-6.214526">
        <ele>1284.0</ele>
        <time>2012-06-14T10:00:38Z</time>
      </trkpt>
      <trkpt lat="43.143697" lon="-6.214887">
        <ele>1283.0</ele>
        <time>2012-06-14T10:00:42Z</time>
      </trkpt>
      <trkpt lat="43.143857" lon="-6.215182">
        <ele>1282.0</ele>
        <time>2012-06-14T10:00:46Z</time>
      </trkpt>
      <trkpt lat="43.144065" lon="-6.215426">
        <ele>1282.0</ele>
        <time>2012-06-14T10:00:50Z</time>
      </trkpt>
      <trkpt lat="43.144301" lon="-6.215706">
        <ele>1281.0</ele>
        <time>2012-06-14T10:00:54Z</time>
      </trkpt>
      <trkpt lat="43.144555" lon="-6.215976">
        <ele>1282.0</ele>
        <time>2012-06-14T10:00:58Z</time>
      </trkpt>
      <trkpt lat="43.144722" lon="-6.216378">
        <ele>1281.0</ele>
        <time>2012-06-14T10:01:02Z</time>
      </trkpt>
      <trkpt lat="43.144869" lon="-6.216892">
        <ele>1278.0</ele>
        <time>2012-06-14T10:01:06Z</time>
      </trkpt>
      <trkpt lat="43.14522" lon="-6.217005">
        <ele>1275.0</ele>
        <time>2012-06-14T10:01:10Z</time>
      </trkpt>
      <trkpt lat="43.145684" lon="-6.2169">
        <ele>1272.0</ele>
        <time>2012-06-14T10:01:14Z</time>
      </trkpt>
      <trkpt lat="43.146237" lon="-6.217046">
        <ele>1270.0</ele>
        <time>2012-06-14T10:01:18Z</time>
      </trkpt>
      <trkpt lat="43.146646" lon="-6.21717">
        <ele>1269.0</ele>
        <time>2012-06-14T10:01:21Z</time>
      </trkpt>
      <trkpt lat="43.14724" lon="-6.217471">
        <ele>1269.0</ele>
        <time>2012-06-14T10:01:26Z</time>
      </trkpt>
      <trkpt lat="43.147556" lon="-6.217645">
        <ele>1268.0</ele>
        <time>2012-06-14T10:01:30Z</time>
      </trkpt>
      <trkpt lat="43.14784" lon="-6.217812">
        <ele>1265.0</ele>
        <time>2012-06-14T10:01:34Z</time>
      </trkpt>
      <trkpt lat="43.148119" lon="-6.217889">
        <ele>1261.0</ele>
        <time>2012-06-14T10:01:38Z</time>
      </trkpt>
      <trkpt lat="43.148227" lon="-6.218281">
        <ele>1257.0</ele>
        <time>2012-06-14T10:01:42Z</time>
      </trkpt>
      <trkpt lat="43.147848" lon="-6.218321">
        <ele>1255.0</ele>
        <time>2012-06-14T10:01:46Z</time>
      </trkpt>
      <trkpt lat="43.147397" lon="-6.218145">
        <ele>1254.0</ele>
        <time>2012-06-14T10:01:50Z</time>
      </trkpt>
      <trkpt lat="43.146926" lon="-6.218136">
        <ele>1253.0</ele>
        <time>2012-06-14T10:01:54Z</time>
      </trkpt>
      <trkpt lat="43.146635" lon="-6.218347">
        <ele>1246.0</ele>
        <time>2012-06-14T10:01:58Z</time>
      </trkpt>
      <trkpt lat="43.146863" lon="-6.218631">
        <ele>1235.0</ele>
        <time>2012-06-14T10:02:02Z</time>
      </trkpt>
      <trkpt lat="43.147294" lon="-6.218711">
        <ele>1231.0</ele>
        <time>2012-06-14T10:02:06Z</time>
      </trkpt>
      <trkpt lat="43.147825" lon="-6.218824">
        <ele>1230.0</ele>
        <time>2012-06-14T10:02:10Z</time>
      </trkpt>
      <trkpt lat="43.148399" lon="-6.219099">
        <ele>1229.0</ele>
        <time>2012-06-14T10:02:14Z</time>
      </trkpt>
      <trkpt lat="43.148962" lon="-6.219494">
        <ele>1228.0</ele>
        <time>2012-06-14T10:02:18Z</time>
      </trkpt>
      <trkpt lat="43.14943" lon="-6.21979">
        <ele>1226.0</ele>
        <time>2012-06-14T10:02:22Z</time>
      </trkpt>
      <trkpt lat="43.149862" lon="-6.219593">
        <ele>1221.0</ele>
        <time>2012-06-14T10:02:26Z</time>
      </trkpt>
      <trkpt lat="43.150248" lon="-6.219317">
        <ele>1213.0</ele>
        <time>2012-06-14T10:02:30Z</time>
      </trkpt>
      <trkpt lat="43.150614" lon="-6.219326">
        <ele>1211.0</ele>
        <time>2012-06-14T10:02:33Z</time>
      </trkpt>
      <trkpt lat="43.151154" lon="-6.219342">
        <ele>1210.0</ele>
        <time>2012-06-14T10:02:38Z</time>
      </trkpt>
      <trkpt lat="43.151463" lon="-6.218913">
        <ele>1207.0</ele>
        <time>2012-06-14T10:02:42Z</time>
      </trkpt>
      <trkpt lat="43.151844" lon="-6.218566">
        <ele>1204.0</ele>
        <time>2012-06-14T10:02:46Z</time>
      </trkpt>
      <trkpt lat="43.15226" lon="-6.218831">
        <ele>1202.0</ele>
        <time>2012-06-14T10:02:50Z</time>
      </trkpt>
      <trkpt lat="43.152545" lon="-6.219319">
        <ele>1200.0</ele>
        <time>2012-06-14T10:02:54Z</time>
      </trkpt>
      <trkpt lat="43.152496" lon="-6.219891">
        <ele>1199.0</ele>
        <time>2012-06-14T10:02:58Z</time>
      </trkpt>
      <trkpt lat="43.152371" lon="-6.22051">
        <ele>1190.0</ele>
        <time>2012-06-14T10:03:02Z</time>
      </trkpt>
      <trkpt lat="43.15219" lon="-6.221181">
        <ele>1181.0</ele>
        <time>2012-06-14T10:03:06Z</time>
      </trkpt>
      <trkpt lat="43.151988" lon="-6.22191">
        <ele>1155.0</ele>
        <time>2012-06-14T10:03:10Z</time>
      </trkpt>
      <trkpt lat="43.151758" lon="-6.222747">
        <ele>1130.0</ele>
        <time>2012-06-14T10:03:14Z</time>
      </trkpt>
      <trkpt lat="43.151459" lon="-6.223458">
        <ele>1110.0</ele>
        <time>2012-06-14T10:03:18Z</time>
      </trkpt>
      <trkpt lat="43.151037" lon="-6.223936">
        <ele>1094.0</ele>
        <time>2012-06-14T10:03:22Z</time>
      </trkpt>
      <trkpt lat="43.15078" lon="-6.224342">
        <ele>1081.0</ele>
        <time>2012-06-14T10:03:26Z</time>
      </trkpt>
      <trkpt lat="43.150964" lon="-6.224808">
        <ele>1077.0</ele>
        <time>2012-06-14T10:03:30Z</time>
      </trkpt>
      <trkpt lat="43.151325" lon="-6.225278">
        <ele>1075.0</ele>
        <time>2012-06-14T10:03:34Z</time>
      </trkpt>
      <trkpt lat="43.151537" lon="-6.225699">
        <ele>1072.0</ele>
        <time>2012-06-14T10:03:38Z</time>
      </trkpt>
      <trkpt lat="43.151325" lon="-6.225983">
        <ele>1070.0</ele>
        <time>2012-06-14T10:03:42Z</time>
      </trkpt>
      <trkpt lat="43.15092" lon="-6.225861">
        <ele>1068.0</ele>
        <time>2012-06-14T10:03:46Z</time>
      </trkpt>
      <trkpt lat="43.150398" lon="-6.225821">
        <ele>1064.0</ele>
        <time>2012-06-14T10:03:50Z</time>
      </trkpt>
      <trkpt lat="43.149891" lon="-6.225896">
        <ele>1061.0</ele>
        <time>2012-06-14T10:03:54Z</time>
      </trkpt>
      <trkpt lat="43.149416" lon="-6.225857">
        <ele>1059.0</ele>
        <time>2012-06-14T10:03:58Z</time>
      </trkpt>
      <trkpt lat="43.149067" lon="-6.225594">
        <ele>1057.0</ele>
        <time>2012-06-14T10:04:02Z</time>
      </trkpt>
      <trkpt lat="43.148776" lon="-6.225594">
        <ele>1052.0</ele>
        <time>2012-06-14T10:04:06Z</time>
      </trkpt>
      <trkpt lat="43.14855" lon="-6.226158">
        <ele>1033.0</ele>
        <time>2012-06-14T10:04:10Z</time>
      </trkpt>
      <trkpt lat="43.148171" lon="-6.226814">
        <ele>1018.0</ele>
        <time>2012-06-14T10:04:14Z</time>
      </trkpt>
      <trkpt lat="43.14781" lon="-6.22743">
        <ele>1009.0</ele>
        <time>2012-06-14T10:04:18Z</time>
      </trkpt>
      <trkpt lat="43.147329" lon="-6.227576">
        <ele>1005.0</ele>
        <time>2012-06-14T10:04:22Z</time>
      </trkpt>
      <trkpt lat="43.147139" lon="-6.228026">
        <ele>1004.0</ele>
        <time>2012-06-14T10:04:26Z</time>
      </trkpt>
      <trkpt lat="43.147083" lon="-6.228628">
        <ele>1000.0</ele>
        <time>2012-06-14T10:04:30Z</time>
      </trkpt>
      <trkpt lat="43.147364" lon="-6.22915">
        <ele>996.0</ele>
        <time>2012-06-14T10:04:34Z</time>
      </trkpt>
      <trkpt lat="43.147671" lon="-6.229618">
        <ele>994.0</ele>
        <time>2012-06-14T10:04:38Z</time>
      </trkpt>
      <trkpt lat="43.147805" lon="-6.230181">
        <ele>995.0</ele>
        <time>2012-06-14T10:04:42Z</time>
      </trkpt>
      <trkpt lat="43.147978" lon="-6.230771">
        <ele>996.0</ele>
        <time>2012-06-14T10:04:46Z</time>
      </trkpt>
      <trkpt lat="43.148301" lon="-6.231249">
        <ele>996.0</ele>
        <time>2012-06-14T10:04:50Z</time>
      </trkpt>
      <trkpt lat="43.148625" lon="-6.231696">
        <ele>995.0</ele>
        <time>2012-06-14T10:04:54Z</time>
      </trkpt>
      <trkpt lat="43.148943" lon="-6.232137">
        <ele>994.0</ele>
        <time>2012-06-14T10:04:58Z</time>
      </trkpt>
      <trkpt lat="43.149306" lon="-6.232461">
        <ele>992.0</ele>
        <time>2012-06-14T10:05:02Z</time>
      </trkpt>
      <trkpt lat="43.149664" lon="-6.232729">
        <ele>990.0</ele>
        <time>2012-06-14T10:05:06Z</time>
      </trkpt>
      <trkpt lat="43.14998" lon="-6.233061">
        <ele>986.0</ele>
        <time>2012-06-14T10:05:10Z</time>
      </trkpt>
      <trkpt lat="43.150244" lon="-6.233462">
        <ele>983.0</ele>
        <time>2012-06-14T10:05:14Z</time>
      </trkpt>
      <trkpt lat="43.150467" lon="-6.233838">
        <ele>981.0</ele>
        <time>2012-06-14T10:05:18Z</time>
      </trkpt>
      <trkpt lat="43.150592" lon="-6.234054">
        <ele>980.0</ele>
        <time>2012-06-14T10:05:21Z</time>
      </trkpt>
      <trkpt lat="43.150743" lon="-6.234257">
        <ele>979.0</ele>
        <time>2012-06-14T10:05:25Z</time>
      </trkpt>
      <trkpt lat="43.150884" lon="-6.234373">
        <ele>979.0</ele>
        <time>2012-06-14T10:05:29Z</time>
      </trkpt>
      <trkpt lat="43.151005" lon="-6.234477">
        <ele>980.0</ele>
        <time>2012-06-14T10:05:33Z</time>
      </trkpt>
      <trkpt lat="43.151126" lon="-6.234597">
        <ele>982.0</ele>
        <time>2012-06-14T10:05:37Z</time>
      </trkpt>
      <trkpt lat="43.151255" lon="-6.234715">
        <ele>982.0</ele>
        <time>2012-06-14T10:05:41Z</time>
      </trkpt>
      <trkpt lat="43.151399" lon="-6.234836">
        <ele>981.0</ele>
        <time>2012-06-14T10:05:45Z</time>
      </trkpt>
      <trkpt lat="43.15157" lon="-6.234964">
        <ele>981.0</ele>
        <time>2012-06-14T10:05:49Z</time>
      </trkpt>
      <trkpt lat="43.151739" lon="-6.235116">
        <ele>980.0</ele>
        <time>2012-06-14T10:05:53Z</time>
      </trkpt>
      <trkpt lat="43.151933" lon="-6.235238">
        <ele>979.0</ele>
        <time>2012-06-14T10:05:57Z</time>
      </trkpt>
      <trkpt lat="43.152096" lon="-6.235361">
        <ele>978.0</ele>
        <time>2012-06-14T10:06:01Z</time>
      </trkpt>
      <trkpt lat="43.15225" lon="-6.235463">
        <ele>977.0</ele>
        <time>2012-06-14T10:06:05Z</time>
      </trkpt>
      <trkpt lat="43.152407" lon="-6.235562">
        <ele>977.0</ele>
        <time>2012-06-14T10:06:09Z</time>
      </trkpt>
      <trkpt lat="43.152614" lon="-6.235595">
        <ele>976.0</ele>
        <time>2012-06-14T10:06:13Z</time>
      </trkpt>
      <trkpt lat="43.152947" lon="-6.235646">
        <ele>974.0</ele>
        <time>2012-06-14T10:06:18Z</time>
      </trkpt>
      <trkpt lat="43.15327" lon="-6.235732">
        <ele>972.0</ele>
        <time>2012-06-14T10:06:22Z</time>
      </trkpt>
      <trkpt lat="43.153571" lon="-6.235894">
        <ele>970.0</ele>
        <time>2012-06-14T10:06:26Z</time>
      </trkpt>
      <trkpt lat="43.153832" lon="-6.236088">
        <ele>967.0</ele>
        <time>2012-06-14T10:06:30Z</time>
      </trkpt>
      <trkpt lat="43.154135" lon="-6.236118">
        <ele>965.0</ele>
        <time>2012-06-14T10:06:34Z</time>
      </trkpt>
      <trkpt lat="43.15439" lon="-6.236039">
        <ele>963.0</ele>
        <time>2012-06-14T10:06:37Z</time>
      </trkpt>
      <trkpt lat="43.154796" lon="-6.236192">
        <ele>962.0</ele>
        <time>2012-06-14T10:06:42Z</time>
      </trkpt>
      <trkpt lat="43.154896" lon="-6.236369">
        <ele>961.0</ele>
        <time>2012-06-14T10:06:44Z</time>
      </trkpt>
      <trkpt lat="43.155129" lon="-6.236894">
        <ele>959.0</ele>
        <time>2012-06-14T10:06:50Z</time>
      </trkpt>
      <trkpt lat="43.155352" lon="-6.237225">
        <ele>958.0</ele>
        <time>2012-06-14T10:06:54Z</time>
      </trkpt>
      <trkpt lat="43.155697" lon="-6.237456">
        <ele>956.0</ele>
        <time>2012-06-14T10:06:58Z</time>
      </trkpt>
      <trkpt lat="43.155919" lon="-6.237796">
        <ele>955.0</ele>
        <time>2012-06-14T10:07:01Z</time>
      </trkpt>
      <trkpt lat="43.156006" lon="-6.238615">
        <ele>958.0</ele>
        <time>2012-06-14T10:07:06Z</time>
      </trkpt>
      <trkpt lat="43.155962" lon="-6.239263">
        <ele>957.0</ele>
        <time>2012-06-14T10:07:10Z</time>
      </trkpt>
      <trkpt lat="43.156073" lon="-6.239765">
        <ele>958.0</ele>
        <time>2012-06-14T10:07:14Z</time>
      </trkpt>
      <trkpt lat="43.156251" lon="-6.240177">
        <ele>957.0</ele>
        <time>2012-06-14T10:07:18Z</time>
      </trkpt>
      <trkpt lat="43.156447" lon="-6.240587">
        <ele>957.0</ele>
        <time>2012-06-14T10:07:22Z</time>
      </trkpt>
      <trkpt lat="43.156697" lon="-6.240994">
        <ele>956.0</ele>
        <time>2012-06-14T10:07:26Z</time>
      </trkpt>
      <trkpt lat="43.15701" lon="-6.24108">
        <ele>954.0</ele>
        <time>2012-06-14T10:07:29Z</time>
      </trkpt>
      <trkpt lat="43.157493" lon="-6.241392">
        <ele>954.0</ele>
        <time>2012-06-14T10:07:34Z</time>
      </trkpt>
      <trkpt lat="43.157539" lon="-6.24201">
        <ele>956.0</ele>
        <time>2012-06-14T10:07:38Z</time>
      </trkpt>
      <trkpt lat="43.157488" lon="-6.242481">
        <ele>956.0</ele>
        <time>2012-06-14T10:07:41Z</time>
      </trkpt>
      <trkpt lat="43.15778" lon="-6.243112">
        <ele>952.0</ele>
        <time>2012-06-14T10:07:46Z</time>
      </trkpt>
      <trkpt lat="43.158046" lon="-6.243634">
        <ele>947.0</ele>
        <time>2012-06-14T10:07:50Z</time>
      </trkpt>
      <trkpt lat="43.158265" lon="-6.244255">
        <ele>945.0</ele>
        <time>2012-06-14T10:07:54Z</time>
      </trkpt>
      <trkpt lat="43.158424" lon="-6.244918">
        <ele>943.0</ele>
        <time>2012-06-14T10:07:58Z</time>
      </trkpt>
      <trkpt lat="43.158168" lon="-6.245485">
        <ele>942.0</ele>
        <time>2012-06-14T10:08:02Z</time>
      </trkpt>
      <trkpt lat="43.157661" lon="-6.245826">
        <ele>939.0</ele>
        <time>2012-06-14T10:08:06Z</time>
      </trkpt>
      <trkpt lat="43.157082" lon="-6.246047">
        <ele>934.0</ele>
        <time>2012-06-14T10:08:10Z</time>
      </trkpt>
      <trkpt lat="43.156497" lon="-6.245944">
        <ele>930.0</ele>
        <time>2012-06-14T10:08:14Z</time>
      </trkpt>
      <trkpt lat="43.155921" lon="-6.245948">
        <ele>929.0</ele>
        <time>2012-06-14T10:08:18Z</time>
      </trkpt>
      <trkpt lat="43.155658" lon="-6.246339">
        <ele>916.0</ele>
        <time>2012-06-14T10:08:22Z</time>
      </trkpt>
      <trkpt lat="43.155904" lon="-6.247123">
        <ele>895.0</ele>
        <time>2012-06-14T10:08:26Z</time>
      </trkpt>
      <trkpt lat="43.156245" lon="-6.247874">
        <ele>884.0</ele>
        <time>2012-06-14T10:08:30Z</time>
      </trkpt>
      <trkpt lat="43.156464" lon="-6.248595">
        <ele>876.0</ele>
        <time>2012-06-14T10:08:34Z</time>
      </trkpt>
      <trkpt lat="43.156526" lon="-6.249281">
        <ele>871.0</ele>
        <time>2012-06-14T10:08:38Z</time>
      </trkpt>
      <trkpt lat="43.156441" lon="-6.249839">
        <ele>869.0</ele>
        <time>2012-06-14T10:08:41Z</time>
      </trkpt>
      <trkpt lat="43.156159" lon="-6.250807">
        <ele>867.0</ele>
        <time>2012-06-14T10:08:46Z</time>
      </trkpt>
      <trkpt lat="43.155811" lon="-6.251412">
        <ele>863.0</ele>
        <time>2012-06-14T10:08:50Z</time>
      </trkpt>
      <trkpt lat="43.155775" lon="-6.252135">
        <ele>862.0</ele>
        <time>2012-06-14T10:08:54Z</time>
      </trkpt>
      <trkpt lat="43.156045" lon="-6.252899">
        <ele>852.0</ele>
        <time>2012-06-14T10:08:58Z</time>
      </trkpt>
      <trkpt lat="43.156312" lon="-6.253721">
        <ele>834.0</ele>
        <time>2012-06-14T10:09:02Z</time>
      </trkpt>
      <trkpt lat="43.156438" lon="-6.254374">
        <ele>819.0</ele>
        <time>2012-06-14T10:09:06Z</time>
      </trkpt>
      <trkpt lat="43.156837" lon="-6.254633">
        <ele>809.0</ele>
        <time>2012-06-14T10:09:10Z</time>
      </trkpt>
      <trkpt lat="43.157364" lon="-6.254715">
        <ele>802.0</ele>
        <time>2012-06-14T10:09:14Z</time>
      </trkpt>
      <trkpt lat="43.157946" lon="-6.254849">
        <ele>796.0</ele>
        <time>2012-06-14T10:09:18Z</time>
      </trkpt>
      <trkpt lat="43.158562" lon="-6.255038">
        <ele>792.0</ele>
        <time>2012-06-14T10:09:22Z</time>
      </trkpt>
      <trkpt lat="43.159158" lon="-6.255281">
        <ele>786.0</ele>
        <time>2012-06-14T10:09:26Z</time>
      </trkpt>
      <trkpt lat="43.159692" lon="-6.255751">
        <ele>778.0</ele>
        <time>2012-06-14T10:09:30Z</time>
      </trkpt>
      <trkpt lat="43.160153" lon="-6.256396">
        <ele>766.0</ele>
        <time>2012-06-14T10:09:34Z</time>
      </trkpt>
      <trkpt lat="43.160442" lon="-6.257194">
        <ele>755.0</ele>
        <time>2012-06-14T10:09:38Z</time>
      </trkpt>
      <trkpt lat="43.160607" lon="-6.257959">
        <ele>745.0</ele>
        <time>2012-06-14T10:09:42Z</time>
      </trkpt>
      <trkpt lat="43.160863" lon="-6.258463">
        <ele>737.0</ele>
        <time>2012-06-14T10:09:46Z</time>
      </trkpt>
      <trkpt lat="43.160861" lon="-6.258674">
        <ele>735.0</ele>
        <time>2012-06-14T10:09:48Z</time>
      </trkpt>
      <trkpt lat="43.160318" lon="-6.258444">
        <ele>731.0</ele>
        <time>2012-06-14T10:09:54Z</time>
      </trkpt>
      <trkpt lat="43.159953" lon="-6.257864">
        <ele>729.0</ele>
        <time>2012-06-14T10:09:58Z</time>
      </trkpt>
      <trkpt lat="43.159513" lon="-6.257315">
        <ele>722.0</ele>
        <time>2012-06-14T10:10:02Z</time>
      </trkpt>
      <trkpt lat="43.158956" lon="-6.257014">
        <ele>714.0</ele>
        <time>2012-06-14T10:10:06Z</time>
      </trkpt>
      <trkpt lat="43.158376" lon="-6.256779">
        <ele>710.0</ele>
        <time>2012-06-14T10:10:10Z</time>
      </trkpt>
      <trkpt lat="43.157931" lon="-6.256672">
        <ele>706.0</ele>
        <time>2012-06-14T10:10:14Z</time>
      </trkpt>
      <trkpt lat="43.157782" lon="-6.256939">
        <ele>704.0</ele>
        <time>2012-06-14T10:10:18Z</time>
      </trkpt>
      <trkpt lat="43.158066" lon="-6.257223">
        <ele>702.0</ele>
        <time>2012-06-14T10:10:22Z</time>
      </trkpt>
      <trkpt lat="43.158455" lon="-6.257628">
        <ele>701.0</ele>
        <time>2012-06-14T10:10:26Z</time>
      </trkpt>
      <trkpt lat="43.158884" lon="-6.257952">
        <ele>701.0</ele>
        <time>2012-06-14T10:10:30Z</time>
      </trkpt>
      <trkpt lat="43.159128" lon="-6.258305">
        <ele>700.0</ele>
        <time>2012-06-14T10:10:34Z</time>
      </trkpt>
      <trkpt lat="43.158994" lon="-6.25865">
        <ele>697.0</ele>
        <time>2012-06-14T10:10:38Z</time>
      </trkpt>
      <trkpt lat="43.158492" lon="-6.258348">
        <ele>695.0</ele>
        <time>2012-06-14T10:10:42Z</time>
      </trkpt>
      <trkpt lat="43.158049" lon="-6.25808">
        <ele>695.0</ele>
        <time>2012-06-14T10:10:46Z</time>
      </trkpt>
      <trkpt lat="43.15764" lon="-6.257798">
        <ele>695.0</ele>
        <time>2012-06-14T10:10:50Z</time>
      </trkpt>
      <trkpt lat="43.157179" lon="-6.257831">
        <ele>695.0</ele>
        <time>2012-06-14T10:10:54Z</time>
      </trkpt>
      <trkpt lat="43.156725" lon="-6.257844">
        <ele>695.0</ele>
        <time>2012-06-14T10:10:58Z</time>
      </trkpt>
      <trkpt lat="43.156277" lon="-6.257963">
        <ele>695.0</ele>
        <time>2012-06-14T10:11:02Z</time>
      </trkpt>
      <trkpt lat="43.155876" lon="-6.258396">
        <ele>695.0</ele>
        <time>2012-06-14T10:11:06Z</time>
      </trkpt>
      <trkpt lat="43.155419" lon="-6.258765">
        <ele>694.0</ele>
        <time>2012-06-14T10:11:10Z</time>
      </trkpt>
      <trkpt lat="43.155043" lon="-6.258819">
        <ele>693.0</ele>
        <time>2012-06-14T10:11:14Z</time>
      </trkpt>
      <trkpt lat="43.15498" lon="-6.258996">
        <ele>693.0</ele>
        <time>2012-06-14T10:11:18Z</time>
      </trkpt>
      <trkpt lat="43.155533" lon="-6.259184">
        <ele>692.0</ele>
        <time>2012-06-14T10:11:22Z</time>
      </trkpt>
      <trkpt lat="43.155945" lon="-6.259287">
        <ele>689.0</ele>
        <time>2012-06-14T10:11:26Z</time>
      </trkpt>
      <trkpt lat="43.156076" lon="-6.259522">
        <ele>687.0</ele>
        <time>2012-06-14T10:11:29Z</time>
      </trkpt>
      <trkpt lat="43.156368" lon="-6.259577">
        <ele>682.0</ele>
        <time>2012-06-14T10:11:34Z</time>
      </trkpt>
      <trkpt lat="43.156646" lon="-6.259439">
        <ele>679.0</ele>
        <time>2012-06-14T10:11:38Z</time>
      </trkpt>
      <trkpt lat="43.156959" lon="-6.259471">
        <ele>681.0</ele>
        <time>2012-06-14T10:11:42Z</time>
      </trkpt>
      <trkpt lat="43.157255" lon="-6.259714">
        <ele>683.0</ele>
        <time>2012-06-14T10:11:46Z</time>
      </trkpt>
      <trkpt lat="43.157535" lon="-6.259989">
        <ele>684.0</ele>
        <time>2012-06-14T10:11:50Z</time>
      </trkpt>
      <trkpt lat="43.157807" lon="-6.26028">
        <ele>681.0</ele>
        <time>2012-06-14T10:11:54Z</time>
      </trkpt>
      <trkpt lat="43.158061" lon="-6.260607">
        <ele>680.0</ele>
        <time>2012-06-14T10:11:58Z</time>
      </trkpt>
      <trkpt lat="43.158338" lon="-6.260903">
        <ele>682.0</ele>
        <time>2012-06-14T10:12:02Z</time>
      </trkpt>
      <trkpt lat="43.158631" lon="-6.261187">
        <ele>684.0</ele>
        <time>2012-06-14T10:12:06Z</time>
      </trkpt>
      <trkpt lat="43.158945" lon="-6.261489">
        <ele>686.0</ele>
        <time>2012-06-14T10:12:10Z</time>
      </trkpt>
      <trkpt lat="43.159256" lon="-6.261787">
        <ele>690.0</ele>
        <time>2012-06-14T10:12:14Z</time>
      </trkpt>
      <trkpt lat="43.159547" lon="-6.262146">
        <ele>694.0</ele>
        <time>2012-06-14T10:12:18Z</time>
      </trkpt>
      <trkpt lat="43.159781" lon="-6.262608">
        <ele>694.0</ele>
        <time>2012-06-14T10:12:22Z</time>
      </trkpt>
      <trkpt lat="43.160002" lon="-6.263046">
        <ele>691.0</ele>
        <time>2012-06-14T10:12:26Z</time>
      </trkpt>
      <trkpt lat="43.160219" lon="-6.263414">
        <ele>691.0</ele>
        <time>2012-06-14T10:12:30Z</time>
      </trkpt>
      <trkpt lat="43.160447" lon="-6.263625">
        <ele>693.0</ele>
        <time>2012-06-14T10:12:34Z</time>
      </trkpt>
      <trkpt lat="43.160745" lon="-6.263867">
        <ele>697.0</ele>
        <time>2012-06-14T10:12:38Z</time>
      </trkpt>
      <trkpt lat="43.161033" lon="-6.264191">
        <ele>700.0</ele>
        <time>2012-06-14T10:12:42Z</time>
      </trkpt>
      <trkpt lat="43.161305" lon="-6.264476">
        <ele>702.0</ele>
        <time>2012-06-14T10:12:46Z</time>
      </trkpt>
      <trkpt lat="43.161671" lon="-6.264686">
        <ele>703.0</ele>
        <time>2012-06-14T10:12:50Z</time>
      </trkpt>
      <trkpt lat="43.162029" lon="-6.264683">
        <ele>701.0</ele>
        <time>2012-06-14T10:12:54Z</time>
      </trkpt>
      <trkpt lat="43.162288" lon="-6.264661">
        <ele>697.0</ele>
        <time>2012-06-14T10:12:58Z</time>
      </trkpt>
      <trkpt lat="43.162554" lon="-6.264904">
        <ele>693.0</ele>
        <time>2012-06-14T10:13:02Z</time>
      </trkpt>
      <trkpt lat="43.162836" lon="-6.265142">
        <ele>695.0</ele>
        <time>2012-06-14T10:13:06Z</time>
      </trkpt>
      <trkpt lat="43.163058" lon="-6.265388">
        <ele>697.0</ele>
        <time>2012-06-14T10:13:10Z</time>
      </trkpt>
      <trkpt lat="43.16322" lon="-6.265739">
        <ele>700.0</ele>
        <time>2012-06-14T10:13:14Z</time>
      </trkpt>
      <trkpt lat="43.163332" lon="-6.266164">
        <ele>701.0</ele>
        <time>2012-06-14T10:13:18Z</time>
      </trkpt>
      <trkpt lat="43.163455" lon="-6.266481">
        <ele>700.0</ele>
        <time>2012-06-14T10:13:22Z</time>
      </trkpt>
      <trkpt lat="43.163812" lon="-6.26667">
        <ele>695.0</ele>
        <time>2012-06-14T10:13:26Z</time>
      </trkpt>
      <trkpt lat="43.164103" lon="-6.266749">
        <ele>693.0</ele>
        <time>2012-06-14T10:13:29Z</time>
      </trkpt>
      <trkpt lat="43.164549" lon="-6.266814">
        <ele>691.0</ele>
        <time>2012-06-14T10:13:34Z</time>
      </trkpt>
      <trkpt lat="43.164838" lon="-6.266982">
        <ele>691.0</ele>
        <time>2012-06-14T10:13:38Z</time>
      </trkpt>
      <trkpt lat="43.165115" lon="-6.26726">
        <ele>693.0</ele>
        <time>2012-06-14T10:13:42Z</time>
      </trkpt>
      <trkpt lat="43.165293" lon="-6.267586">
        <ele>692.0</ele>
        <time>2012-06-14T10:13:45Z</time>
      </trkpt>
      <trkpt lat="43.165582" lon="-6.268121">
        <ele>692.0</ele>
        <time>2012-06-14T10:13:50Z</time>
      </trkpt>
      <trkpt lat="43.16575" lon="-6.268421">
        <ele>691.0</ele>
        <time>2012-06-14T10:13:53Z</time>
      </trkpt>
      <trkpt lat="43.165665" lon="-6.268961">
        <ele>696.0</ele>
        <time>2012-06-14T10:13:58Z</time>
      </trkpt>
      <trkpt lat="43.1655" lon="-6.269404">
        <ele>696.0</ele>
        <time>2012-06-14T10:14:02Z</time>
      </trkpt>
      <trkpt lat="43.165517" lon="-6.26978">
        <ele>691.0</ele>
        <time>2012-06-14T10:14:06Z</time>
      </trkpt>
      <trkpt lat="43.165549" lon="-6.270075">
        <ele>688.0</ele>
        <time>2012-06-14T10:14:09Z</time>
      </trkpt>
      <trkpt lat="43.165607" lon="-6.270521">
        <ele>678.0</ele>
        <time>2012-06-14T10:14:14Z</time>
      </trkpt>
      <trkpt lat="43.165677" lon="-6.270844">
        <ele>669.0</ele>
        <time>2012-06-14T10:14:18Z</time>
      </trkpt>
      <trkpt lat="43.165778" lon="-6.271101">
        <ele>662.0</ele>
        <time>2012-06-14T10:14:22Z</time>
      </trkpt>
      <trkpt lat="43.165929" lon="-6.271362">
        <ele>657.0</ele>
        <time>2012-06-14T10:14:26Z</time>
      </trkpt>
      <trkpt lat="43.166236" lon="-6.271586">
        <ele>656.0</ele>
        <time>2012-06-14T10:14:30Z</time>
      </trkpt>
      <trkpt lat="43.166679" lon="-6.271953">
        <ele>661.0</ele>
        <time>2012-06-14T10:14:34Z</time>
      </trkpt>
      <trkpt lat="43.167075" lon="-6.272428">
        <ele>646.0</ele>
        <time>2012-06-14T10:14:38Z</time>
      </trkpt>
      <trkpt lat="43.167354" lon="-6.272961">
        <ele>622.0</ele>
        <time>2012-06-14T10:14:42Z</time>
      </trkpt>
      <trkpt lat="43.167501" lon="-6.273486">
        <ele>613.0</ele>
        <time>2012-06-14T10:14:46Z</time>
      </trkpt>
      <trkpt lat="43.167635" lon="-6.273965">
        <ele>614.0</ele>
        <time>2012-06-14T10:14:50Z</time>
      </trkpt>
      <trkpt lat="43.167801" lon="-6.274232">
        <ele>617.0</ele>
        <time>2012-06-14T10:14:53Z</time>
      </trkpt>
      <trkpt lat="43.168045" lon="-6.274581">
        <ele>621.0</ele>
        <time>2012-06-14T10:14:58Z</time>
      </trkpt>
      <trkpt lat="43.168198" lon="-6.275012">
        <ele>624.0</ele>
        <time>2012-06-14T10:15:02Z</time>
      </trkpt>
      <trkpt lat="43.168207" lon="-6.275463">
        <ele>619.0</ele>
        <time>2012-06-14T10:15:06Z</time>
      </trkpt>
      <trkpt lat="43.168219" lon="-6.275885">
        <ele>613.0</ele>
        <time>2012-06-14T10:15:10Z</time>
      </trkpt>
      <trkpt lat="43.168325" lon="-6.276311">
        <ele>604.0</ele>
        <time>2012-06-14T10:15:14Z</time>
      </trkpt>
      <trkpt lat="43.168382" lon="-6.276732">
        <ele>599.0</ele>
        <time>2012-06-14T10:15:18Z</time>
      </trkpt>
      <trkpt lat="43.168441" lon="-6.276986">
        <ele>598.0</ele>
        <time>2012-06-14T10:15:21Z</time>
      </trkpt>
      <trkpt lat="43.168517" lon="-6.277287">
        <ele>599.0</ele>
        <time>2012-06-14T10:15:25Z</time>
      </trkpt>
      <trkpt lat="43.16857" lon="-6.277595">
        <ele>599.0</ele>
        <time>2012-06-14T10:15:29Z</time>
      </trkpt>
      <trkpt lat="43.168724" lon="-6.278113">
        <ele>607.0</ele>
        <time>2012-06-14T10:15:34Z</time>
      </trkpt>
      <trkpt lat="43.168785" lon="-6.278596">
        <ele>610.0</ele>
        <time>2012-06-14T10:15:38Z</time>
      </trkpt>
      <trkpt lat="43.168811" lon="-6.279132">
        <ele>610.0</ele>
        <time>2012-06-14T10:15:42Z</time>
      </trkpt>
      <trkpt lat="43.168856" lon="-6.279615">
        <ele>610.0</ele>
        <time>2012-06-14T10:15:46Z</time>
      </trkpt>
      <trkpt lat="43.168921" lon="-6.280071">
        <ele>611.0</ele>
        <time>2012-06-14T10:15:50Z</time>
      </trkpt>
      <trkpt lat="43.169025" lon="-6.280516">
        <ele>610.0</ele>
        <time>2012-06-14T10:15:54Z</time>
      </trkpt>
      <trkpt lat="43.169186" lon="-6.280937">
        <ele>609.0</ele>
        <time>2012-06-14T10:15:58Z</time>
      </trkpt>
      <trkpt lat="43.16939" lon="-6.281348">
        <ele>608.0</ele>
        <time>2012-06-14T10:16:02Z</time>
      </trkpt>
      <trkpt lat="43.169604" lon="-6.281761">
        <ele>610.0</ele>
        <time>2012-06-14T10:16:06Z</time>
      </trkpt>
      <trkpt lat="43.169815" lon="-6.282201">
        <ele>612.0</ele>
        <time>2012-06-14T10:16:10Z</time>
      </trkpt>
      <trkpt lat="43.169992" lon="-6.282679">
        <ele>610.0</ele>
        <time>2012-06-14T10:16:14Z</time>
      </trkpt>
      <trkpt lat="43.170132" lon="-6.283169">
        <ele>607.0</ele>
        <time>2012-06-14T10:16:18Z</time>
      </trkpt>
      <trkpt lat="43.170217" lon="-6.283688">
        <ele>604.0</ele>
        <time>2012-06-14T10:16:22Z</time>
      </trkpt>
      <trkpt lat="43.17029" lon="-6.284203">
        <ele>604.0</ele>
        <time>2012-06-14T10:16:26Z</time>
      </trkpt>
      <trkpt lat="43.170226" lon="-6.284691">
        <ele>602.0</ele>
        <time>2012-06-14T10:16:30Z</time>
      </trkpt>
      <trkpt lat="43.170047" lon="-6.285112">
        <ele>601.0</ele>
        <time>2012-06-14T10:16:34Z</time>
      </trkpt>
      <trkpt lat="43.169833" lon="-6.28553">
        <ele>600.0</ele>
        <time>2012-06-14T10:16:38Z</time>
      </trkpt>
      <trkpt lat="43.16959" lon="-6.285926">
        <ele>600.0</ele>
        <time>2012-06-14T10:16:42Z</time>
      </trkpt>
      <trkpt lat="43.169363" lon="-6.286298">
        <ele>602.0</ele>
        <time>2012-06-14T10:16:46Z</time>
      </trkpt>
      <trkpt lat="43.169048" lon="-6.28662">
        <ele>602.0</ele>
        <time>2012-06-14T10:16:50Z</time>
      </trkpt>
      <trkpt lat="43.168824" lon="-6.28693">
        <ele>602.0</ele>
        <time>2012-06-14T10:16:54Z</time>
      </trkpt>
      <trkpt lat="43.16867" lon="-6.287287">
        <ele>599.0</ele>
        <time>2012-06-14T10:16:58Z</time>
      </trkpt>
      <trkpt lat="43.168561" lon="-6.287681">
        <ele>598.0</ele>
        <time>2012-06-14T10:17:02Z</time>
      </trkpt>
      <trkpt lat="43.168476" lon="-6.288066">
        <ele>597.0</ele>
        <time>2012-06-14T10:17:06Z</time>
      </trkpt>
      <trkpt lat="43.168611" lon="-6.28858">
        <ele>596.0</ele>
        <time>2012-06-14T10:17:10Z</time>
      </trkpt>
      <trkpt lat="43.168675" lon="-6.288828">
        <ele>595.0</ele>
        <time>2012-06-14T10:17:12Z</time>
      </trkpt>
      <trkpt lat="43.168702" lon="-6.289458">
        <ele>590.0</ele>
        <time>2012-06-14T10:17:18Z</time>
      </trkpt>
      <trkpt lat="43.168716" lon="-6.289852">
        <ele>586.0</ele>
        <time>2012-06-14T10:17:22Z</time>
      </trkpt>
      <trkpt lat="43.16875" lon="-6.290222">
        <ele>583.0</ele>
        <time>2012-06-14T10:17:26Z</time>
      </trkpt>
      <trkpt lat="43.16879" lon="-6.290475">
        <ele>583.0</ele>
        <time>2012-06-14T10:17:29Z</time>
      </trkpt>
      <trkpt lat="43.168852" lon="-6.290787">
        <ele>584.0</ele>
        <time>2012-06-14T10:17:33Z</time>
      </trkpt>
      <trkpt lat="43.168925" lon="-6.291099">
        <ele>584.0</ele>
        <time>2012-06-14T10:17:37Z</time>
      </trkpt>
      <trkpt lat="43.169009" lon="-6.29152">
        <ele>585.0</ele>
        <time>2012-06-14T10:17:42Z</time>
      </trkpt>
      <trkpt lat="43.169045" lon="-6.291924">
        <ele>585.0</ele>
        <time>2012-06-14T10:17:46Z</time>
      </trkpt>
      <trkpt lat="43.169091" lon="-6.292362">
        <ele>584.0</ele>
        <time>2012-06-14T10:17:50Z</time>
      </trkpt>
      <trkpt lat="43.169187" lon="-6.292814">
        <ele>581.0</ele>
        <time>2012-06-14T10:17:54Z</time>
      </trkpt>
      <trkpt lat="43.169324" lon="-6.293241">
        <ele>581.0</ele>
        <time>2012-06-14T10:17:58Z</time>
      </trkpt>
      <trkpt lat="43.16948" lon="-6.293655">
        <ele>578.0</ele>
        <time>2012-06-14T10:18:02Z</time>
      </trkpt>
      <trkpt lat="43.169671" lon="-6.293975">
        <ele>575.0</ele>
        <time>2012-06-14T10:18:06Z</time>
      </trkpt>
      <trkpt lat="43.170039" lon="-6.294236">
        <ele>575.0</ele>
        <time>2012-06-14T10:18:10Z</time>
      </trkpt>
      <trkpt lat="43.1703" lon="-6.294404">
        <ele>574.0</ele>
        <time>2012-06-14T10:18:14Z</time>
      </trkpt>
      <trkpt lat="43.170603" lon="-6.294554">
        <ele>572.0</ele>
        <time>2012-06-14T10:18:18Z</time>
      </trkpt>
      <trkpt lat="43.170921" lon="-6.29474">
        <ele>572.0</ele>
        <time>2012-06-14T10:18:22Z</time>
      </trkpt>
      <trkpt lat="43.171216" lon="-6.294974">
        <ele>575.0</ele>
        <time>2012-06-14T10:18:26Z</time>
      </trkpt>
      <trkpt lat="43.171495" lon="-6.295227">
        <ele>577.0</ele>
        <time>2012-06-14T10:18:30Z</time>
      </trkpt>
      <trkpt lat="43.171766" lon="-6.295468">
        <ele>578.0</ele>
        <time>2012-06-14T10:18:34Z</time>
      </trkpt>
      <trkpt lat="43.172033" lon="-6.295705">
        <ele>578.0</ele>
        <time>2012-06-14T10:18:38Z</time>
      </trkpt>
      <trkpt lat="43.172296" lon="-6.296061">
        <ele>580.0</ele>
        <time>2012-06-14T10:18:42Z</time>
      </trkpt>
      <trkpt lat="43.172578" lon="-6.296435">
        <ele>581.0</ele>
        <time>2012-06-14T10:18:46Z</time>
      </trkpt>
      <trkpt lat="43.172872" lon="-6.296778">
        <ele>585.0</ele>
        <time>2012-06-14T10:18:50Z</time>
      </trkpt>
      <trkpt lat="43.173153" lon="-6.297113">
        <ele>587.0</ele>
        <time>2012-06-14T10:18:54Z</time>
      </trkpt>
      <trkpt lat="43.173507" lon="-6.297309">
        <ele>587.0</ele>
        <time>2012-06-14T10:18:58Z</time>
      </trkpt>
      <trkpt lat="43.173916" lon="-6.297398">
        <ele>587.0</ele>
        <time>2012-06-14T10:19:02Z</time>
      </trkpt>
      <trkpt lat="43.174259" lon="-6.297527">
        <ele>586.0</ele>
        <time>2012-06-14T10:19:06Z</time>
      </trkpt>
      <trkpt lat="43.174617" lon="-6.298046">
        <ele>589.0</ele>
        <time>2012-06-14T10:19:10Z</time>
      </trkpt>
      <trkpt lat="43.17469" lon="-6.298536">
        <ele>590.0</ele>
        <time>2012-06-14T10:19:14Z</time>
      </trkpt>
      <trkpt lat="43.174806" lon="-6.298892">
        <ele>589.0</ele>
        <time>2012-06-14T10:19:18Z</time>
      </trkpt>
      <trkpt lat="43.174944" lon="-6.299249">
        <ele>590.0</ele>
        <time>2012-06-14T10:19:22Z</time>
      </trkpt>
      <trkpt lat="43.175074" lon="-6.299682">
        <ele>588.0</ele>
        <time>2012-06-14T10:19:26Z</time>
      </trkpt>
      <trkpt lat="43.175223" lon="-6.300124">
        <ele>586.0</ele>
        <time>2012-06-14T10:19:30Z</time>
      </trkpt>
      <trkpt lat="43.175484" lon="-6.300407">
        <ele>580.0</ele>
        <time>2012-06-14T10:19:34Z</time>
      </trkpt>
      <trkpt lat="43.175598" lon="-6.300366">
        <ele>577.0</ele>
        <time>2012-06-14T10:19:38Z</time>
      </trkpt>
      <trkpt lat="43.175887" lon="-6.300303">
        <ele>573.0</ele>
        <time>2012-06-14T10:19:42Z</time>
      </trkpt>
      <trkpt lat="43.176169" lon="-6.300077">
        <ele>565.0</ele>
        <time>2012-06-14T10:19:46Z</time>
      </trkpt>
      <trkpt lat="43.176425" lon="-6.299739">
        <ele>558.0</ele>
        <time>2012-06-14T10:19:50Z</time>
      </trkpt>
      <trkpt lat="43.176648" lon="-6.299327">
        <ele>552.0</ele>
        <time>2012-06-14T10:19:54Z</time>
      </trkpt>
      <trkpt lat="43.176886" lon="-6.29888">
        <ele>547.0</ele>
        <time>2012-06-14T10:19:58Z</time>
      </trkpt>
      <trkpt lat="43.177068" lon="-6.298536">
        <ele>545.0</ele>
        <time>2012-06-14T10:20:01Z</time>
      </trkpt>
      <trkpt lat="43.177474" lon="-6.298088">
        <ele>545.0</ele>
        <time>2012-06-14T10:20:06Z</time>
      </trkpt>
      <trkpt lat="43.177799" lon="-6.297779">
        <ele>547.0</ele>
        <time>2012-06-14T10:20:10Z</time>
      </trkpt>
      <trkpt lat="43.178205" lon="-6.297444">
        <ele>548.0</ele>
        <time>2012-06-14T10:20:15Z</time>
      </trkpt>
      <trkpt lat="43.178455" lon="-6.297284">
        <ele>548.0</ele>
        <time>2012-06-14T10:20:18Z</time>
      </trkpt>
      <trkpt lat="43.178767" lon="-6.297101">
        <ele>550.0</ele>
        <time>2012-06-14T10:20:22Z</time>
      </trkpt>
      <trkpt lat="43.179074" lon="-6.296936">
        <ele>552.0</ele>
        <time>2012-06-14T10:20:26Z</time>
      </trkpt>
      <trkpt lat="43.179408" lon="-6.296816">
        <ele>552.0</ele>
        <time>2012-06-14T10:20:30Z</time>
      </trkpt>
      <trkpt lat="43.179746" lon="-6.29671">
        <ele>550.0</ele>
        <time>2012-06-14T10:20:34Z</time>
      </trkpt>
      <trkpt lat="43.180092" lon="-6.296688">
        <ele>548.0</ele>
        <time>2012-06-14T10:20:38Z</time>
      </trkpt>
      <trkpt lat="43.180435" lon="-6.296794">
        <ele>549.0</ele>
        <time>2012-06-14T10:20:42Z</time>
      </trkpt>
      <trkpt lat="43.180785" lon="-6.296707">
        <ele>548.0</ele>
        <time>2012-06-14T10:20:46Z</time>
      </trkpt>
      <trkpt lat="43.181008" lon="-6.296441">
        <ele>547.0</ele>
        <time>2012-06-14T10:20:49Z</time>
      </trkpt>
      <trkpt lat="43.181114" lon="-6.295597">
        <ele>536.0</ele>
        <time>2012-06-14T10:20:55Z</time>
      </trkpt>
      <trkpt lat="43.181092" lon="-6.295173">
        <ele>532.0</ele>
        <time>2012-06-14T10:20:58Z</time>
      </trkpt>
      <trkpt lat="43.181038" lon="-6.294658">
        <ele>529.0</ele>
        <time>2012-06-14T10:21:02Z</time>
      </trkpt>
      <trkpt lat="43.180976" lon="-6.294214">
        <ele>528.0</ele>
        <time>2012-06-14T10:21:06Z</time>
      </trkpt>
      <trkpt lat="43.180905" lon="-6.293826">
        <ele>524.0</ele>
        <time>2012-06-14T10:21:10Z</time>
      </trkpt>
      <trkpt lat="43.180833" lon="-6.293347">
        <ele>518.0</ele>
        <time>2012-06-14T10:21:15Z</time>
      </trkpt>
      <trkpt lat="43.180828" lon="-6.293047">
        <ele>517.0</ele>
        <time>2012-06-14T10:21:18Z</time>
      </trkpt>
      <trkpt lat="43.180864" lon="-6.292637">
        <ele>515.0</ele>
        <time>2012-06-14T10:21:22Z</time>
      </trkpt>
      <trkpt lat="43.180983" lon="-6.292224">
        <ele>514.0</ele>
        <time>2012-06-14T10:21:26Z</time>
      </trkpt>
      <trkpt lat="43.181103" lon="-6.291926">
        <ele>515.0</ele>
        <time>2012-06-14T10:21:29Z</time>
      </trkpt>
      <trkpt lat="43.181373" lon="-6.291346">
        <ele>516.0</ele>
        <time>2012-06-14T10:21:35Z</time>
      </trkpt>
      <trkpt lat="43.181527" lon="-6.291054">
        <ele>516.0</ele>
        <time>2012-06-14T10:21:38Z</time>
      </trkpt>
      <trkpt lat="43.181723" lon="-6.290654">
        <ele>514.0</ele>
        <time>2012-06-14T10:21:42Z</time>
      </trkpt>
      <trkpt lat="43.181901" lon="-6.290246">
        <ele>511.0</ele>
        <time>2012-06-14T10:21:46Z</time>
      </trkpt>
      <trkpt lat="43.182054" lon="-6.289822">
        <ele>506.0</ele>
        <time>2012-06-14T10:21:50Z</time>
      </trkpt>
      <trkpt lat="43.182252" lon="-6.289427">
        <ele>503.0</ele>
        <time>2012-06-14T10:21:54Z</time>
      </trkpt>
      <trkpt lat="43.18244" lon="-6.289135">
        <ele>502.0</ele>
        <time>2012-06-14T10:21:57Z</time>
      </trkpt>
      <trkpt lat="43.182677" lon="-6.288402">
        <ele>499.0</ele>
        <time>2012-06-14T10:22:03Z</time>
      </trkpt>
      <trkpt lat="43.182697" lon="-6.288014">
        <ele>496.0</ele>
        <time>2012-06-14T10:22:06Z</time>
      </trkpt>
      <trkpt lat="43.182683" lon="-6.287516">
        <ele>491.0</ele>
        <time>2012-06-14T10:22:10Z</time>
      </trkpt>
      <trkpt lat="43.182661" lon="-6.28691">
        <ele>485.0</ele>
        <time>2012-06-14T10:22:15Z</time>
      </trkpt>
      <trkpt lat="43.182706" lon="-6.286452">
        <ele>482.0</ele>
        <time>2012-06-14T10:22:19Z</time>
      </trkpt>
      <trkpt lat="43.182833" lon="-6.286021">
        <ele>479.0</ele>
        <time>2012-06-14T10:22:23Z</time>
      </trkpt>
      <trkpt lat="43.18297" lon="-6.285727">
        <ele>478.0</ele>
        <time>2012-06-14T10:22:26Z</time>
      </trkpt>
      <trkpt lat="43.183553" lon="-6.285032">
        <ele>476.0</ele>
        <time>2012-06-14T10:22:35Z</time>
      </trkpt>
      <trkpt lat="43.183697" lon="-6.284911">
        <ele>476.0</ele>
        <time>2012-06-14T10:22:37Z</time>
      </trkpt>
      <trkpt lat="43.184067" lon="-6.284628">
        <ele>475.0</ele>
        <time>2012-06-14T10:22:42Z</time>
      </trkpt>
      <trkpt lat="43.18428" lon="-6.284431">
        <ele>475.0</ele>
        <time>2012-06-14T10:22:45Z</time>
      </trkpt>
      <trkpt lat="43.184538" lon="-6.283919">
        <ele>476.0</ele>
        <time>2012-06-14T10:22:50Z</time>
      </trkpt>
      <trkpt lat="43.184703" lon="-6.283483">
        <ele>476.0</ele>
        <time>2012-06-14T10:22:54Z</time>
      </trkpt>
      <trkpt lat="43.184894" lon="-6.283055">
        <ele>477.0</ele>
        <time>2012-06-14T10:22:58Z</time>
      </trkpt>
      <trkpt lat="43.185072" lon="-6.282636">
        <ele>478.0</ele>
        <time>2012-06-14T10:23:02Z</time>
      </trkpt>
      <trkpt lat="43.185215" lon="-6.282209">
        <ele>479.0</ele>
        <time>2012-06-14T10:23:06Z</time>
      </trkpt>
      <trkpt lat="43.18544" lon="-6.281863">
        <ele>479.0</ele>
        <time>2012-06-14T10:23:10Z</time>
      </trkpt>
      <trkpt lat="43.185715" lon="-6.28156">
        <ele>480.0</ele>
        <time>2012-06-14T10:23:14Z</time>
      </trkpt>
      <trkpt lat="43.186011" lon="-6.281303">
        <ele>480.0</ele>
        <time>2012-06-14T10:23:18Z</time>
      </trkpt>
      <trkpt lat="43.186248" lon="-6.280984">
        <ele>480.0</ele>
        <time>2012-06-14T10:23:22Z</time>
      </trkpt>
      <trkpt lat="43.18646" lon="-6.280662">
        <ele>481.0</ele>
        <time>2012-06-14T10:23:26Z</time>
      </trkpt>
      <trkpt lat="43.186689" lon="-6.280358">
        <ele>483.0</ele>
        <time>2012-06-14T10:23:30Z</time>
      </trkpt>
      <trkpt lat="43.186902" lon="-6.280034">
        <ele>483.0</ele>
        <time>2012-06-14T10:23:34Z</time>
      </trkpt>
      <trkpt lat="43.187058" lon="-6.279816">
        <ele>483.0</ele>
        <time>2012-06-14T10:23:37Z</time>
      </trkpt>
      <trkpt lat="43.187253" lon="-6.27966">
        <ele>482.0</ele>
        <time>2012-06-14T10:23:40Z</time>
      </trkpt>
      <trkpt lat="43.187728" lon="-6.279567">
        <ele>482.0</ele>
        <time>2012-06-14T10:23:46Z</time>
      </trkpt>
      <trkpt lat="43.188051" lon="-6.27956">
        <ele>481.0</ele>
        <time>2012-06-14T10:23:50Z</time>
      </trkpt>
      <trkpt lat="43.188205" lon="-6.279547">
        <ele>481.0</ele>
        <time>2012-06-14T10:23:52Z</time>
      </trkpt>
      <trkpt lat="43.188669" lon="-6.279423">
        <ele>480.0</ele>
        <time>2012-06-14T10:23:58Z</time>
      </trkpt>
      <trkpt lat="43.18896" lon="-6.27923">
        <ele>479.0</ele>
        <time>2012-06-14T10:24:02Z</time>
      </trkpt>
      <trkpt lat="43.189224" lon="-6.278989">
        <ele>478.0</ele>
        <time>2012-06-14T10:24:06Z</time>
      </trkpt>
      <trkpt lat="43.189458" lon="-6.278701">
        <ele>478.0</ele>
        <time>2012-06-14T10:24:10Z</time>
      </trkpt>
      <trkpt lat="43.18967" lon="-6.278395">
        <ele>478.0</ele>
        <time>2012-06-14T10:24:14Z</time>
      </trkpt>
      <trkpt lat="43.189933" lon="-6.278182">
        <ele>479.0</ele>
        <time>2012-06-14T10:24:18Z</time>
      </trkpt>
      <trkpt lat="43.19024" lon="-6.278042">
        <ele>478.0</ele>
        <time>2012-06-14T10:24:22Z</time>
      </trkpt>
      <trkpt lat="43.190545" lon="-6.277917">
        <ele>478.0</ele>
        <time>2012-06-14T10:24:26Z</time>
      </trkpt>
      <trkpt lat="43.190861" lon="-6.277808">
        <ele>478.0</ele>
        <time>2012-06-14T10:24:30Z</time>
      </trkpt>
      <trkpt lat="43.191167" lon="-6.277654">
        <ele>478.0</ele>
        <time>2012-06-14T10:24:34Z</time>
      </trkpt>
      <trkpt lat="43.191461" lon="-6.277423">
        <ele>478.0</ele>
        <time>2012-06-14T10:24:38Z</time>
      </trkpt>
      <trkpt lat="43.191659" lon="-6.277197">
        <ele>478.0</ele>
        <time>2012-06-14T10:24:41Z</time>
      </trkpt>
      <trkpt lat="43.191932" lon="-6.276726">
        <ele>478.0</ele>
        <time>2012-06-14T10:24:46Z</time>
      </trkpt>
      <trkpt lat="43.192027" lon="-6.276498">
        <ele>478.0</ele>
        <time>2012-06-14T10:24:48Z</time>
      </trkpt>
      <trkpt lat="43.192218" lon="-6.275726">
        <ele>479.0</ele>
        <time>2012-06-14T10:24:54Z</time>
      </trkpt>
      <trkpt lat="43.192314" lon="-6.275195">
        <ele>478.0</ele>
        <time>2012-06-14T10:24:58Z</time>
      </trkpt>
      <trkpt lat="43.192439" lon="-6.274695">
        <ele>478.0</ele>
        <time>2012-06-14T10:25:02Z</time>
      </trkpt>
      <trkpt lat="43.192605" lon="-6.274198">
        <ele>478.0</ele>
        <time>2012-06-14T10:25:06Z</time>
      </trkpt>
      <trkpt lat="43.19274" lon="-6.273667">
        <ele>477.0</ele>
        <time>2012-06-14T10:25:10Z</time>
      </trkpt>
      <trkpt lat="43.192851" lon="-6.273127">
        <ele>477.0</ele>
        <time>2012-06-14T10:25:14Z</time>
      </trkpt>
      <trkpt lat="43.193004" lon="-6.272612">
        <ele>477.0</ele>
        <time>2012-06-14T10:25:18Z</time>
      </trkpt>
      <trkpt lat="43.193211" lon="-6.272153">
        <ele>478.0</ele>
        <time>2012-06-14T10:25:22Z</time>
      </trkpt>
      <trkpt lat="43.193329" lon="-6.27194">
        <ele>477.0</ele>
        <time>2012-06-14T10:25:24Z</time>
      </trkpt>
      <trkpt lat="43.193559" lon="-6.271507">
        <ele>477.0</ele>
        <time>2012-06-14T10:25:28Z</time>
      </trkpt>
      <trkpt lat="43.193904" lon="-6.270877">
        <ele>476.0</ele>
        <time>2012-06-14T10:25:34Z</time>
      </trkpt>
      <trkpt lat="43.194167" lon="-6.270512">
        <ele>477.0</ele>
        <time>2012-06-14T10:25:38Z</time>
      </trkpt>
      <trkpt lat="43.194461" lon="-6.270202">
        <ele>476.0</ele>
        <time>2012-06-14T10:25:42Z</time>
      </trkpt>
      <trkpt lat="43.194776" lon="-6.269972">
        <ele>475.0</ele>
        <time>2012-06-14T10:25:46Z</time>
      </trkpt>
      <trkpt lat="43.195124" lon="-6.269757">
        <ele>475.0</ele>
        <time>2012-06-14T10:25:50Z</time>
      </trkpt>
      <trkpt lat="43.195469" lon="-6.269612">
        <ele>475.0</ele>
        <time>2012-06-14T10:25:54Z</time>
      </trkpt>
      <trkpt lat="43.195639" lon="-6.269561">
        <ele>475.0</ele>
        <time>2012-06-14T10:25:56Z</time>
      </trkpt>
      <trkpt lat="43.196082" lon="-6.269443">
        <ele>474.0</ele>
        <time>2012-06-14T10:26:01Z</time>
      </trkpt>
      <trkpt lat="43.19652" lon="-6.269331">
        <ele>474.0</ele>
        <time>2012-06-14T10:26:06Z</time>
      </trkpt>
      <trkpt lat="43.196877" lon="-6.269274">
        <ele>474.0</ele>
        <time>2012-06-14T10:26:10Z</time>
      </trkpt>
      <trkpt lat="43.19722" lon="-6.269274">
        <ele>474.0</ele>
        <time>2012-06-14T10:26:14Z</time>
      </trkpt>
      <trkpt lat="43.197552" lon="-6.26928">
        <ele>474.0</ele>
        <time>2012-06-14T10:26:18Z</time>
      </trkpt>
      <trkpt lat="43.197872" lon="-6.269279">
        <ele>474.0</ele>
        <time>2012-06-14T10:26:22Z</time>
      </trkpt>
      <trkpt lat="43.198185" lon="-6.26927">
        <ele>474.0</ele>
        <time>2012-06-14T10:26:26Z</time>
      </trkpt>
      <trkpt lat="43.198489" lon="-6.269297">
        <ele>474.0</ele>
        <time>2012-06-14T10:26:30Z</time>
      </trkpt>
      <trkpt lat="43.198804" lon="-6.269328">
        <ele>474.0</ele>
        <time>2012-06-14T10:26:34Z</time>
      </trkpt>
      <trkpt lat="43.199143" lon="-6.269358">
        <ele>474.0</ele>
        <time>2012-06-14T10:26:38Z</time>
      </trkpt>
      <trkpt lat="43.199479" lon="-6.269417">
        <ele>474.0</ele>
        <time>2012-06-14T10:26:42Z</time>
      </trkpt>
      <trkpt lat="43.199802" lon="-6.26951">
        <ele>473.0</ele>
        <time>2012-06-14T10:26:46Z</time>
      </trkpt>
      <trkpt lat="43.20012" lon="-6.269562">
        <ele>473.0</ele>
        <time>2012-06-14T10:26:50Z</time>
      </trkpt>
      <trkpt lat="43.20028" lon="-6.269546">
        <ele>473.0</ele>
        <time>2012-06-14T10:26:52Z</time>
      </trkpt>
      <trkpt lat="43.200704" lon="-6.269244">
        <ele>472.0</ele>
        <time>2012-06-14T10:26:58Z</time>
      </trkpt>
      <trkpt lat="43.200978" lon="-6.268965">
        <ele>472.0</ele>
        <time>2012-06-14T10:27:02Z</time>
      </trkpt>
      <trkpt lat="43.201325" lon="-6.268817">
        <ele>473.0</ele>
        <time>2012-06-14T10:27:06Z</time>
      </trkpt>
      <trkpt lat="43.201508" lon="-6.268799">
        <ele>473.0</ele>
        <time>2012-06-14T10:27:08Z</time>
      </trkpt>
      <trkpt lat="43.202052" lon="-6.268822">
        <ele>476.0</ele>
        <time>2012-06-14T10:27:14Z</time>
      </trkpt>
      <trkpt lat="43.202419" lon="-6.268812">
        <ele>477.0</ele>
        <time>2012-06-14T10:27:18Z</time>
      </trkpt>
      <trkpt lat="43.202789" lon="-6.268824">
        <ele>477.0</ele>
        <time>2012-06-14T10:27:22Z</time>
      </trkpt>
      <trkpt lat="43.203119" lon="-6.269001">
        <ele>477.0</ele>
        <time>2012-06-14T10:27:26Z</time>
      </trkpt>
      <trkpt lat="43.203439" lon="-6.269155">
        <ele>476.0</ele>
        <time>2012-06-14T10:27:30Z</time>
      </trkpt>
      <trkpt lat="43.203768" lon="-6.269075">
        <ele>476.0</ele>
        <time>2012-06-14T10:27:34Z</time>
      </trkpt>
      <trkpt lat="43.203992" lon="-6.268913">
        <ele>476.0</ele>
        <time>2012-06-14T10:27:37Z</time>
      </trkpt>
      <trkpt lat="43.204391" lon="-6.268687">
        <ele>476.0</ele>
        <time>2012-06-14T10:27:42Z</time>
      </trkpt>
      <trkpt lat="43.204753" lon="-6.268659">
        <ele>476.0</ele>
        <time>2012-06-14T10:27:46Z</time>
      </trkpt>
      <trkpt lat="43.205104" lon="-6.268734">
        <ele>477.0</ele>
        <time>2012-06-14T10:27:50Z</time>
      </trkpt>
      <trkpt lat="43.205454" lon="-6.268822">
        <ele>476.0</ele>
        <time>2012-06-14T10:27:54Z</time>
      </trkpt>
      <trkpt lat="43.2058" lon="-6.268914">
        <ele>476.0</ele>
        <time>2012-06-14T10:27:58Z</time>
      </trkpt>
      <trkpt lat="43.206137" lon="-6.26902">
        <ele>476.0</ele>
        <time>2012-06-14T10:28:02Z</time>
      </trkpt>
      <trkpt lat="43.20647" lon="-6.269072">
        <ele>476.0</ele>
        <time>2012-06-14T10:28:06Z</time>
      </trkpt>
      <trkpt lat="43.206783" lon="-6.268928">
        <ele>476.0</ele>
        <time>2012-06-14T10:28:10Z</time>
      </trkpt>
      <trkpt lat="43.206937" lon="-6.26882">
        <ele>477.0</ele>
        <time>2012-06-14T10:28:12Z</time>
      </trkpt>
      <trkpt lat="43.207403" lon="-6.268533">
        <ele>477.0</ele>
        <time>2012-06-14T10:28:18Z</time>
      </trkpt>
      <trkpt lat="43.207737" lon="-6.268381">
        <ele>477.0</ele>
        <time>2012-06-14T10:28:22Z</time>
      </trkpt>
      <trkpt lat="43.208053" lon="-6.268151">
        <ele>477.0</ele>
        <time>2012-06-14T10:28:26Z</time>
      </trkpt>
      <trkpt lat="43.208333" lon="-6.267854">
        <ele>476.0</ele>
        <time>2012-06-14T10:28:30Z</time>
      </trkpt>
      <trkpt lat="43.208468" lon="-6.267708">
        <ele>477.0</ele>
        <time>2012-06-14T10:28:32Z</time>
      </trkpt>
      <trkpt lat="43.208871" lon="-6.267254">
        <ele>477.0</ele>
        <time>2012-06-14T10:28:38Z</time>
      </trkpt>
      <trkpt lat="43.208998" lon="-6.267084">
        <ele>477.0</ele>
        <time>2012-06-14T10:28:40Z</time>
      </trkpt>
      <trkpt lat="43.209431" lon="-6.266605">
        <ele>477.0</ele>
        <time>2012-06-14T10:28:46Z</time>
      </trkpt>
      <trkpt lat="43.209601" lon="-6.266484">
        <ele>477.0</ele>
        <time>2012-06-14T10:28:48Z</time>
      </trkpt>
      <trkpt lat="43.210154" lon="-6.266149">
        <ele>476.0</ele>
        <time>2012-06-14T10:28:54Z</time>
      </trkpt>
      <trkpt lat="43.210525" lon="-6.26592">
        <ele>475.0</ele>
        <time>2012-06-14T10:28:58Z</time>
      </trkpt>
      <trkpt lat="43.210798" lon="-6.265526">
        <ele>475.0</ele>
        <time>2012-06-14T10:29:02Z</time>
      </trkpt>
      <trkpt lat="43.211037" lon="-6.265103">
        <ele>474.0</ele>
        <time>2012-06-14T10:29:06Z</time>
      </trkpt>
      <trkpt lat="43.211389" lon="-6.264862">
        <ele>472.0</ele>
        <time>2012-06-14T10:29:10Z</time>
      </trkpt>
      <trkpt lat="43.211774" lon="-6.264846">
        <ele>471.0</ele>
        <time>2012-06-14T10:29:14Z</time>
      </trkpt>
      <trkpt lat="43.212124" lon="-6.264988">
        <ele>470.0</ele>
        <time>2012-06-14T10:29:18Z</time>
      </trkpt>
      <trkpt lat="43.212462" lon="-6.265105">
        <ele>469.0</ele>
        <time>2012-06-14T10:29:22Z</time>
      </trkpt>
      <trkpt lat="43.212792" lon="-6.265076">
        <ele>469.0</ele>
        <time>2012-06-14T10:29:26Z</time>
      </trkpt>
      <trkpt lat="43.213108" lon="-6.264989">
        <ele>468.0</ele>
        <time>2012-06-14T10:29:30Z</time>
      </trkpt>
      <trkpt lat="43.213413" lon="-6.264775">
        <ele>468.0</ele>
        <time>2012-06-14T10:29:34Z</time>
      </trkpt>
      <trkpt lat="43.213723" lon="-6.264543">
        <ele>468.0</ele>
        <time>2012-06-14T10:29:38Z</time>
      </trkpt>
      <trkpt lat="43.214033" lon="-6.264275">
        <ele>468.0</ele>
        <time>2012-06-14T10:29:42Z</time>
      </trkpt>
      <trkpt lat="43.21433" lon="-6.26397">
        <ele>468.0</ele>
        <time>2012-06-14T10:29:46Z</time>
      </trkpt>
      <trkpt lat="43.21455" lon="-6.263734">
        <ele>468.0</ele>
        <time>2012-06-14T10:29:49Z</time>
      </trkpt>
      <trkpt lat="43.214904" lon="-6.263329">
        <ele>468.0</ele>
        <time>2012-06-14T10:29:54Z</time>
      </trkpt>
      <trkpt lat="43.215159" lon="-6.262983">
        <ele>466.0</ele>
        <time>2012-06-14T10:29:58Z</time>
      </trkpt>
      <trkpt lat="43.215392" lon="-6.262624">
        <ele>466.0</ele>
        <time>2012-06-14T10:30:02Z</time>
      </trkpt>
      <trkpt lat="43.21562" lon="-6.262274">
        <ele>464.0</ele>
        <time>2012-06-14T10:30:06Z</time>
      </trkpt>
      <trkpt lat="43.215852" lon="-6.261922">
        <ele>462.0</ele>
        <time>2012-06-14T10:30:10Z</time>
      </trkpt>
      <trkpt lat="43.216117" lon="-6.261611">
        <ele>461.0</ele>
        <time>2012-06-14T10:30:14Z</time>
      </trkpt>
      <trkpt lat="43.2164" lon="-6.261339">
        <ele>460.0</ele>
        <time>2012-06-14T10:30:18Z</time>
      </trkpt>
      <trkpt lat="43.216689" lon="-6.261072">
        <ele>460.0</ele>
        <time>2012-06-14T10:30:22Z</time>
      </trkpt>
      <trkpt lat="43.216996" lon="-6.260772">
        <ele>460.0</ele>
        <time>2012-06-14T10:30:26Z</time>
      </trkpt>
      <trkpt lat="43.217318" lon="-6.260451">
        <ele>459.0</ele>
        <time>2012-06-14T10:30:30Z</time>
      </trkpt>
      <trkpt lat="43.21756" lon="-6.26003">
        <ele>459.0</ele>
        <time>2012-06-14T10:30:34Z</time>
      </trkpt>
      <trkpt lat="43.217656" lon="-6.259534">
        <ele>460.0</ele>
        <time>2012-06-14T10:30:38Z</time>
      </trkpt>
      <trkpt lat="43.217687" lon="-6.259043">
        <ele>461.0</ele>
        <time>2012-06-14T10:30:42Z</time>
      </trkpt>
      <trkpt lat="43.217673" lon="-6.258543">
        <ele>460.0</ele>
        <time>2012-06-14T10:30:46Z</time>
      </trkpt>
      <trkpt lat="43.217532" lon="-6.258073">
        <ele>460.0</ele>
        <time>2012-06-14T10:30:50Z</time>
      </trkpt>
      <trkpt lat="43.217411" lon="-6.257627">
        <ele>460.0</ele>
        <time>2012-06-14T10:30:54Z</time>
      </trkpt>
      <trkpt lat="43.217368" lon="-6.257169">
        <ele>460.0</ele>
        <time>2012-06-14T10:30:58Z</time>
      </trkpt>
      <trkpt lat="43.217361" lon="-6.256712">
        <ele>459.0</ele>
        <time>2012-06-14T10:31:02Z</time>
      </trkpt>
      <trkpt lat="43.21746" lon="-6.256289">
        <ele>458.0</ele>
        <time>2012-06-14T10:31:06Z</time>
      </trkpt>
      <trkpt lat="43.217661" lon="-6.255919">
        <ele>457.0</ele>
        <time>2012-06-14T10:31:10Z</time>
      </trkpt>
      <trkpt lat="43.217907" lon="-6.255612">
        <ele>456.0</ele>
        <time>2012-06-14T10:31:14Z</time>
      </trkpt>
      <trkpt lat="43.218168" lon="-6.255321">
        <ele>453.0</ele>
        <time>2012-06-14T10:31:18Z</time>
      </trkpt>
      <trkpt lat="43.218397" lon="-6.255127">
        <ele>452.0</ele>
        <time>2012-06-14T10:31:21Z</time>
      </trkpt>
      <trkpt lat="43.218793" lon="-6.254793">
        <ele>452.0</ele>
        <time>2012-06-14T10:31:26Z</time>
      </trkpt>
      <trkpt lat="43.219083" lon="-6.254506">
        <ele>452.0</ele>
        <time>2012-06-14T10:31:30Z</time>
      </trkpt>
      <trkpt lat="43.21931" lon="-6.254172">
        <ele>453.0</ele>
        <time>2012-06-14T10:31:34Z</time>
      </trkpt>
      <trkpt lat="43.219388" lon="-6.253981">
        <ele>453.0</ele>
        <time>2012-06-14T10:31:36Z</time>
      </trkpt>
      <trkpt lat="43.219417" lon="-6.253365">
        <ele>452.0</ele>
        <time>2012-06-14T10:31:42Z</time>
      </trkpt>
      <trkpt lat="43.219407" lon="-6.253113">
        <ele>451.0</ele>
        <time>2012-06-14T10:31:45Z</time>
      </trkpt>
      <trkpt lat="43.21959" lon="-6.252388">
        <ele>448.0</ele>
        <time>2012-06-14T10:31:54Z</time>
      </trkpt>
      <trkpt lat="43.219649" lon="-6.251943">
        <ele>450.0</ele>
        <time>2012-06-14T10:31:58Z</time>
      </trkpt>
      <trkpt lat="43.21975" lon="-6.251542">
        <ele>450.0</ele>
        <time>2012-06-14T10:32:02Z</time>
      </trkpt>
      <trkpt lat="43.219828" lon="-6.251253">
        <ele>449.0</ele>
        <time>2012-06-14T10:32:05Z</time>
      </trkpt>
      <trkpt lat="43.219903" lon="-6.250697">
        <ele>443.0</ele>
        <time>2012-06-14T10:32:10Z</time>
      </trkpt>
      <trkpt lat="43.219941" lon="-6.250252">
        <ele>437.0</ele>
        <time>2012-06-14T10:32:14Z</time>
      </trkpt>
      <trkpt lat="43.219956" lon="-6.249824">
        <ele>434.0</ele>
        <time>2012-06-14T10:32:18Z</time>
      </trkpt>
      <trkpt lat="43.21997" lon="-6.249424">
        <ele>431.0</ele>
        <time>2012-06-14T10:32:22Z</time>
      </trkpt>
      <trkpt lat="43.220015" lon="-6.249039">
        <ele>429.0</ele>
        <time>2012-06-14T10:32:26Z</time>
      </trkpt>
      <trkpt lat="43.220159" lon="-6.248688">
        <ele>428.0</ele>
        <time>2012-06-14T10:32:30Z</time>
      </trkpt>
      <trkpt lat="43.22037" lon="-6.248393">
        <ele>426.0</ele>
        <time>2012-06-14T10:32:34Z</time>
      </trkpt>
      <trkpt lat="43.220536" lon="-6.248056">
        <ele>426.0</ele>
        <time>2012-06-14T10:32:38Z</time>
      </trkpt>
      <trkpt lat="43.220637" lon="-6.247669">
        <ele>427.0</ele>
        <time>2012-06-14T10:32:42Z</time>
      </trkpt>
      <trkpt lat="43.220658" lon="-6.247219">
        <ele>428.0</ele>
        <time>2012-06-14T10:32:46Z</time>
      </trkpt>
      <trkpt lat="43.220608" lon="-6.24674">
        <ele>427.0</ele>
        <time>2012-06-14T10:32:50Z</time>
      </trkpt>
      <trkpt lat="43.220563" lon="-6.246279">
        <ele>427.0</ele>
        <time>2012-06-14T10:32:54Z</time>
      </trkpt>
      <trkpt lat="43.220622" lon="-6.245832">
        <ele>425.0</ele>
        <time>2012-06-14T10:32:58Z</time>
      </trkpt>
      <trkpt lat="43.220752" lon="-6.245375">
        <ele>421.0</ele>
        <time>2012-06-14T10:33:02Z</time>
      </trkpt>
      <trkpt lat="43.221168" lon="-6.245174">
        <ele>418.0</ele>
        <time>2012-06-14T10:33:06Z</time>
      </trkpt>
      <trkpt lat="43.221532" lon="-6.244977">
        <ele>416.0</ele>
        <time>2012-06-14T10:33:10Z</time>
      </trkpt>
      <trkpt lat="43.221843" lon="-6.244731">
        <ele>415.0</ele>
        <time>2012-06-14T10:33:14Z</time>
      </trkpt>
      <trkpt lat="43.222118" lon="-6.244451">
        <ele>415.0</ele>
        <time>2012-06-14T10:33:18Z</time>
      </trkpt>
      <trkpt lat="43.222385" lon="-6.244157">
        <ele>414.0</ele>
        <time>2012-06-14T10:33:22Z</time>
      </trkpt>
      <trkpt lat="43.222647" lon="-6.243846">
        <ele>413.0</ele>
        <time>2012-06-14T10:33:26Z</time>
      </trkpt>
      <trkpt lat="43.222894" lon="-6.243511">
        <ele>412.0</ele>
        <time>2012-06-14T10:33:30Z</time>
      </trkpt>
      <trkpt lat="43.223086" lon="-6.243128">
        <ele>412.0</ele>
        <time>2012-06-14T10:33:34Z</time>
      </trkpt>
      <trkpt lat="43.223202" lon="-6.242702">
        <ele>412.0</ele>
        <time>2012-06-14T10:33:38Z</time>
      </trkpt>
      <trkpt lat="43.223281" lon="-6.24226">
        <ele>410.0</ele>
        <time>2012-06-14T10:33:42Z</time>
      </trkpt>
      <trkpt lat="43.223387" lon="-6.241827">
        <ele>409.0</ele>
        <time>2012-06-14T10:33:46Z</time>
      </trkpt>
      <trkpt lat="43.223543" lon="-6.241406">
        <ele>408.0</ele>
        <time>2012-06-14T10:33:50Z</time>
      </trkpt>
      <trkpt lat="43.223724" lon="-6.241032">
        <ele>408.0</ele>
        <time>2012-06-14T10:33:54Z</time>
      </trkpt>
      <trkpt lat="43.223938" lon="-6.240734">
        <ele>408.0</ele>
        <time>2012-06-14T10:33:58Z</time>
      </trkpt>
      <trkpt lat="43.224227" lon="-6.240508">
        <ele>408.0</ele>
        <time>2012-06-14T10:34:02Z</time>
      </trkpt>
      <trkpt lat="43.224513" lon="-6.240263">
        <ele>407.0</ele>
        <time>2012-06-14T10:34:06Z</time>
      </trkpt>
      <trkpt lat="43.224782" lon="-6.239976">
        <ele>405.0</ele>
        <time>2012-06-14T10:34:10Z</time>
      </trkpt>
      <trkpt lat="43.225068" lon="-6.239718">
        <ele>405.0</ele>
        <time>2012-06-14T10:34:14Z</time>
      </trkpt>
      <trkpt lat="43.225478" lon="-6.239659">
        <ele>404.0</ele>
        <time>2012-06-14T10:34:18Z</time>
      </trkpt>
      <trkpt lat="43.225801" lon="-6.239439">
        <ele>403.0</ele>
        <time>2012-06-14T10:34:22Z</time>
      </trkpt>
      <trkpt lat="43.226052" lon="-6.239102">
        <ele>403.0</ele>
        <time>2012-06-14T10:34:26Z</time>
      </trkpt>
      <trkpt lat="43.226286" lon="-6.238765">
        <ele>403.0</ele>
        <time>2012-06-14T10:34:30Z</time>
      </trkpt>
      <trkpt lat="43.226517" lon="-6.238441">
        <ele>403.0</ele>
        <time>2012-06-14T10:34:34Z</time>
      </trkpt>
      <trkpt lat="43.226748" lon="-6.238125">
        <ele>403.0</ele>
        <time>2012-06-14T10:34:38Z</time>
      </trkpt>
      <trkpt lat="43.226986" lon="-6.237827">
        <ele>403.0</ele>
        <time>2012-06-14T10:34:42Z</time>
      </trkpt>
      <trkpt lat="43.227261" lon="-6.237591">
        <ele>403.0</ele>
        <time>2012-06-14T10:34:46Z</time>
      </trkpt>
      <trkpt lat="43.22758" lon="-6.237427">
        <ele>403.0</ele>
        <time>2012-06-14T10:34:50Z</time>
      </trkpt>
      <trkpt lat="43.227931" lon="-6.237363">
        <ele>404.0</ele>
        <time>2012-06-14T10:34:54Z</time>
      </trkpt>
      <trkpt lat="43.22829" lon="-6.237394">
        <ele>405.0</ele>
        <time>2012-06-14T10:34:58Z</time>
      </trkpt>
      <trkpt lat="43.228638" lon="-6.237542">
        <ele>406.0</ele>
        <time>2012-06-14T10:35:02Z</time>
      </trkpt>
      <trkpt lat="43.228955" lon="-6.237781">
        <ele>405.0</ele>
        <time>2012-06-14T10:35:06Z</time>
      </trkpt>
      <trkpt lat="43.229284" lon="-6.237958">
        <ele>405.0</ele>
        <time>2012-06-14T10:35:10Z</time>
      </trkpt>
      <trkpt lat="43.229537" lon="-6.238079">
        <ele>404.0</ele>
        <time>2012-06-14T10:35:13Z</time>
      </trkpt>
      <trkpt lat="43.229948" lon="-6.238419">
        <ele>404.0</ele>
        <time>2012-06-14T10:35:18Z</time>
      </trkpt>
      <trkpt lat="43.23026" lon="-6.238835">
        <ele>405.0</ele>
        <time>2012-06-14T10:35:22Z</time>
      </trkpt>
      <trkpt lat="43.230552" lon="-6.239183">
        <ele>406.0</ele>
        <time>2012-06-14T10:35:26Z</time>
      </trkpt>
      <trkpt lat="43.230855" lon="-6.239484">
        <ele>408.0</ele>
        <time>2012-06-14T10:35:30Z</time>
      </trkpt>
      <trkpt lat="43.231163" lon="-6.239669">
        <ele>408.0</ele>
        <time>2012-06-14T10:35:34Z</time>
      </trkpt>
      <trkpt lat="43.231348" lon="-6.239738">
        <ele>409.0</ele>
        <time>2012-06-14T10:35:37Z</time>
      </trkpt>
      <trkpt lat="43.231635" lon="-6.239499">
        <ele>407.0</ele>
        <time>2012-06-14T10:35:42Z</time>
      </trkpt>
      <trkpt lat="43.23193" lon="-6.239209">
        <ele>406.0</ele>
        <time>2012-06-14T10:35:46Z</time>
      </trkpt>
      <trkpt lat="43.232222" lon="-6.238928">
        <ele>405.0</ele>
        <time>2012-06-14T10:35:50Z</time>
      </trkpt>
      <trkpt lat="43.232526" lon="-6.238656">
        <ele>405.0</ele>
        <time>2012-06-14T10:35:54Z</time>
      </trkpt>
      <trkpt lat="43.232753" lon="-6.238244">
        <ele>405.0</ele>
        <time>2012-06-14T10:35:58Z</time>
      </trkpt>
      <trkpt lat="43.232908" lon="-6.237779">
        <ele>404.0</ele>
        <time>2012-06-14T10:36:02Z</time>
      </trkpt>
      <trkpt lat="43.233029" lon="-6.2373">
        <ele>402.0</ele>
        <time>2012-06-14T10:36:06Z</time>
      </trkpt>
      <trkpt lat="43.233242" lon="-6.2369">
        <ele>400.0</ele>
        <time>2012-06-14T10:36:10Z</time>
      </trkpt>
      <trkpt lat="43.233545" lon="-6.236657">
        <ele>398.0</ele>
        <time>2012-06-14T10:36:14Z</time>
      </trkpt>
      <trkpt lat="43.233795" lon="-6.236539">
        <ele>398.0</ele>
        <time>2012-06-14T10:36:17Z</time>
      </trkpt>
      <trkpt lat="43.234224" lon="-6.236555">
        <ele>399.0</ele>
        <time>2012-06-14T10:36:22Z</time>
      </trkpt>
      <trkpt lat="43.234549" lon="-6.236668">
        <ele>399.0</ele>
        <time>2012-06-14T10:36:26Z</time>
      </trkpt>
      <trkpt lat="43.234872" lon="-6.236766">
        <ele>399.0</ele>
        <time>2012-06-14T10:36:30Z</time>
      </trkpt>
      <trkpt lat="43.235203" lon="-6.236826">
        <ele>398.0</ele>
        <time>2012-06-14T10:36:34Z</time>
      </trkpt>
      <trkpt lat="43.235368" lon="-6.236851">
        <ele>398.0</ele>
        <time>2012-06-14T10:36:36Z</time>
      </trkpt>
      <trkpt lat="43.235873" lon="-6.236965">
        <ele>399.0</ele>
        <time>2012-06-14T10:36:42Z</time>
      </trkpt>
      <trkpt lat="43.236213" lon="-6.237036">
        <ele>399.0</ele>
        <time>2012-06-14T10:36:46Z</time>
      </trkpt>
      <trkpt lat="43.236294" lon="-6.237055">
        <ele>399.0</ele>
        <time>2012-06-14T10:36:48Z</time>
      </trkpt>
      <trkpt lat="43.236294" lon="-6.237055">
        <time>2012-06-14T10:37:00Z</time>
      </trkpt>
    </trkseg>
    <trkseg>
      <trkpt lat="43.236294" lon="-6.237055">
        <time>2012-06-14T10:39:42Z</time>
      </trkpt>
      <trkpt lat="43.236577" lon="-6.237107">
        <ele>395.0</ele>
        <time>2012-06-14T10:39:45Z</time>
      </trkpt>
      <trkpt lat="43.236775" lon="-6.237105">
        <ele>395.0</ele>
        <time>2012-06-14T10:39:48Z</time>
      </trkpt>
      <trkpt lat="43.237094" lon="-6.237089">
        <ele>395.0</ele>
        <time>2012-06-14T10:39:53Z</time>
      </trkpt>
      <trkpt lat="43.237408" lon="-6.237074">
        <ele>395.0</ele>
        <time>2012-06-14T10:39:57Z</time>
      </trkpt>
      <trkpt lat="43.237687" lon="-6.237078">
        <ele>394.0</ele>
        <time>2012-06-14T10:40:01Z</time>
      </trkpt>
      <trkpt lat="43.237953" lon="-6.23715">
        <ele>395.0</ele>
        <time>2012-06-14T10:40:05Z</time>
      </trkpt>
      <trkpt lat="43.238214" lon="-6.23721">
        <ele>396.0</ele>
        <time>2012-06-14T10:40:09Z</time>
      </trkpt>
      <trkpt lat="43.238489" lon="-6.237038">
        <ele>398.0</ele>
        <time>2012-06-14T10:40:13Z</time>
      </trkpt>
      <trkpt lat="43.238812" lon="-6.236824">
        <ele>400.0</ele>
        <time>2012-06-14T10:40:17Z</time>
      </trkpt>
      <trkpt lat="43.239123" lon="-6.236635">
        <ele>401.0</ele>
        <time>2012-06-14T10:40:21Z</time>
      </trkpt>
      <trkpt lat="43.239448" lon="-6.236399">
        <ele>401.0</ele>
        <time>2012-06-14T10:40:25Z</time>
      </trkpt>
      <trkpt lat="43.239691" lon="-6.236232">
        <ele>401.0</ele>
        <time>2012-06-14T10:40:28Z</time>
      </trkpt>
      <trkpt lat="43.240105" lon="-6.236018">
        <ele>400.0</ele>
        <time>2012-06-14T10:40:33Z</time>
      </trkpt>
      <trkpt lat="43.240435" lon="-6.235899">
        <ele>400.0</ele>
        <time>2012-06-14T10:40:37Z</time>
      </trkpt>
      <trkpt lat="43.240761" lon="-6.235798">
        <ele>400.0</ele>
        <time>2012-06-14T10:40:41Z</time>
      </trkpt>
      <trkpt lat="43.241086" lon="-6.235711">
        <ele>400.0</ele>
        <time>2012-06-14T10:40:45Z</time>
      </trkpt>
      <trkpt lat="43.241424" lon="-6.235621">
        <ele>399.0</ele>
        <time>2012-06-14T10:40:49Z</time>
      </trkpt>
      <trkpt lat="43.241765" lon="-6.235483">
        <ele>399.0</ele>
        <time>2012-06-14T10:40:53Z</time>
      </trkpt>
      <trkpt lat="43.242077" lon="-6.235115">
        <ele>398.0</ele>
        <time>2012-06-14T10:40:57Z</time>
      </trkpt>
      <trkpt lat="43.242285" lon="-6.234629">
        <ele>397.0</ele>
        <time>2012-06-14T10:41:01Z</time>
      </trkpt>
      <trkpt lat="43.24243" lon="-6.234237">
        <ele>396.0</ele>
        <time>2012-06-14T10:41:05Z</time>
      </trkpt>
      <trkpt lat="43.242583" lon="-6.234023">
        <ele>395.0</ele>
        <time>2012-06-14T10:41:08Z</time>
      </trkpt>
      <trkpt lat="43.242846" lon="-6.233781">
        <ele>395.0</ele>
        <time>2012-06-14T10:41:12Z</time>
      </trkpt>
      <trkpt lat="43.243181" lon="-6.233592">
        <ele>395.0</ele>
        <time>2012-06-14T10:41:16Z</time>
      </trkpt>
      <trkpt lat="43.243542" lon="-6.233264">
        <ele>395.0</ele>
        <time>2012-06-14T10:41:21Z</time>
      </trkpt>
      <trkpt lat="43.243588" lon="-6.232698">
        <ele>392.0</ele>
        <time>2012-06-14T10:41:25Z</time>
      </trkpt>
      <trkpt lat="43.243597" lon="-6.232296">
        <ele>392.0</ele>
        <time>2012-06-14T10:41:28Z</time>
      </trkpt>
      <trkpt lat="43.243691" lon="-6.231779">
        <ele>392.0</ele>
        <time>2012-06-14T10:41:33Z</time>
      </trkpt>
      <trkpt lat="43.243767" lon="-6.231513">
        <ele>393.0</ele>
        <time>2012-06-14T10:41:36Z</time>
      </trkpt>
      <trkpt lat="43.243912" lon="-6.231092">
        <ele>393.0</ele>
        <time>2012-06-14T10:41:41Z</time>
      </trkpt>
      <trkpt lat="43.243995" lon="-6.230836">
        <ele>394.0</ele>
        <time>2012-06-14T10:41:45Z</time>
      </trkpt>
      <trkpt lat="43.243843" lon="-6.23122">
        <ele>394.0</ele>
        <time>2012-06-14T10:41:56Z</time>
      </trkpt>
      <trkpt lat="43.243591" lon="-6.231577">
        <ele>394.0</ele>
        <time>2012-06-14T10:42:01Z</time>
      </trkpt>
      <trkpt lat="43.243363" lon="-6.23183">
        <ele>394.0</ele>
        <time>2012-06-14T10:42:05Z</time>
      </trkpt>
      <trkpt lat="43.243108" lon="-6.232065">
        <ele>395.0</ele>
        <time>2012-06-14T10:42:09Z</time>
      </trkpt>
      <trkpt lat="43.242867" lon="-6.232246">
        <ele>395.0</ele>
        <time>2012-06-14T10:42:13Z</time>
      </trkpt>
      <trkpt lat="43.242638" lon="-6.232413">
        <ele>395.0</ele>
        <time>2012-06-14T10:42:17Z</time>
      </trkpt>
      <trkpt lat="43.242529" lon="-6.232483">
        <ele>395.0</ele>
        <time>2012-06-14T10:42:19Z</time>
      </trkpt>
      <trkpt lat="43.242219" lon="-6.232675">
        <ele>396.0</ele>
        <time>2012-06-14T10:42:25Z</time>
      </trkpt>
      <trkpt lat="43.242021" lon="-6.232782">
        <ele>396.0</ele>
        <time>2012-06-14T10:42:29Z</time>
      </trkpt>
      <trkpt lat="43.241836" lon="-6.232889">
        <ele>396.0</ele>
        <time>2012-06-14T10:42:33Z</time>
      </trkpt>
      <trkpt lat="43.241661" lon="-6.233008">
        <ele>396.0</ele>
        <time>2012-06-14T10:42:37Z</time>
      </trkpt>
      <trkpt lat="43.241495" lon="-6.233125">
        <ele>396.0</ele>
        <time>2012-06-14T10:42:41Z</time>
      </trkpt>
      <trkpt lat="43.241338" lon="-6.233238">
        <ele>396.0</ele>
        <time>2012-06-14T10:42:45Z</time>
      </trkpt>
      <trkpt lat="43.241183" lon="-6.233343">
        <ele>397.0</ele>
        <time>2012-06-14T10:42:49Z</time>
      </trkpt>
      <trkpt lat="43.241034" lon="-6.233436">
        <ele>397.0</ele>
        <time>2012-06-14T10:42:53Z</time>
      </trkpt>
      <trkpt lat="43.240894" lon="-6.233522">
        <ele>397.0</ele>
        <time>2012-06-14T10:42:57Z</time>
      </trkpt>
      <trkpt lat="43.240758" lon="-6.233604">
        <ele>397.0</ele>
        <time>2012-06-14T10:43:01Z</time>
      </trkpt>
      <trkpt lat="43.240627" lon="-6.233679">
        <ele>397.0</ele>
        <time>2012-06-14T10:43:05Z</time>
      </trkpt>
      <trkpt lat="43.240499" lon="-6.233729">
        <ele>397.0</ele>
        <time>2012-06-14T10:43:09Z</time>
      </trkpt>
      <trkpt lat="43.240369" lon="-6.233749">
        <ele>397.0</ele>
        <time>2012-06-14T10:43:13Z</time>
      </trkpt>
      <trkpt lat="43.240239" lon="-6.233745">
        <ele>397.0</ele>
        <time>2012-06-14T10:43:17Z</time>
      </trkpt>
      <trkpt lat="43.240147" lon="-6.233746">
        <ele>397.0</ele>
        <time>2012-06-14T10:43:20Z</time>
      </trkpt>
      <trkpt lat="43.240059" lon="-6.233751">
        <ele>397.0</ele>
        <time>2012-06-14T10:43:23Z</time>
      </trkpt>
      <trkpt lat="43.239888" lon="-6.23378">
        <ele>397.0</ele>
        <time>2012-06-14T10:43:29Z</time>
      </trkpt>
      <trkpt lat="43.239803" lon="-6.233801">
        <ele>397.0</ele>
        <time>2012-06-14T10:43:32Z</time>
      </trkpt>
      <trkpt lat="43.239718" lon="-6.233823">
        <ele>397.0</ele>
        <time>2012-06-14T10:43:35Z</time>
      </trkpt>
      <trkpt lat="43.239546" lon="-6.233871">
        <ele>397.0</ele>
        <time>2012-06-14T10:43:41Z</time>
      </trkpt>
      <trkpt lat="43.239456" lon="-6.23389">
        <ele>397.0</ele>
        <time>2012-06-14T10:43:44Z</time>
      </trkpt>
      <trkpt lat="43.239366" lon="-6.233905">
        <ele>397.0</ele>
        <time>2012-06-14T10:43:47Z</time>
      </trkpt>
      <trkpt lat="43.23921" lon="-6.233936">
        <ele>397.0</ele>
        <time>2012-06-14T10:43:52Z</time>
      </trkpt>
      <trkpt lat="43.239075" lon="-6.233985">
        <ele>397.0</ele>
        <time>2012-06-14T10:43:56Z</time>
      </trkpt>
      <trkpt lat="43.238936" lon="-6.234052">
        <ele>397.0</ele>
        <time>2012-06-14T10:44:00Z</time>
      </trkpt>
      <trkpt lat="43.238789" lon="-6.234117">
        <ele>397.0</ele>
        <time>2012-06-14T10:44:04Z</time>
      </trkpt>
      <trkpt lat="43.238645" lon="-6.234175">
        <ele>397.0</ele>
        <time>2012-06-14T10:44:08Z</time>
      </trkpt>
      <trkpt lat="43.238515" lon="-6.234229">
        <ele>397.0</ele>
        <time>2012-06-14T10:44:13Z</time>
      </trkpt>
      <trkpt lat="43.238374" lon="-6.234214">
        <ele>397.0</ele>
        <time>2012-06-14T10:44:20Z</time>
      </trkpt>
      <trkpt lat="43.238319" lon="-6.234163">
        <ele>397.0</ele>
        <time>2012-06-14T10:44:24Z</time>
      </trkpt>
      <trkpt lat="43.238309" lon="-6.234068">
        <ele>398.0</ele>
        <time>2012-06-14T10:44:27Z</time>
      </trkpt>
      <trkpt lat="43.23827" lon="-6.233861">
        <ele>398.0</ele>
        <time>2012-06-14T10:44:33Z</time>
      </trkpt>
      <trkpt lat="43.238251" lon="-6.233752">
        <ele>399.0</ele>
        <time>2012-06-14T10:44:36Z</time>
      </trkpt>
      <trkpt lat="43.238233" lon="-6.233648">
        <ele>399.0</ele>
        <time>2012-06-14T10:44:39Z</time>
      </trkpt>
      <trkpt lat="43.238238" lon="-6.233561">
        <ele>399.0</ele>
        <time>2012-06-14T10:44:42Z</time>
      </trkpt>
      <trkpt lat="43.238256" lon="-6.233461">
        <ele>400.0</ele>
        <time>2012-06-14T10:44:46Z</time>
      </trkpt>
      <trkpt lat="43.238274" lon="-6.233362">
        <ele>400.0</ele>
        <time>2012-06-14T10:44:50Z</time>
      </trkpt>
      <trkpt lat="43.238288" lon="-6.233267">
        <ele>400.0</ele>
        <time>2012-06-14T10:44:54Z</time>
      </trkpt>
      <trkpt lat="43.238279" lon="-6.23317">
        <ele>401.0</ele>
        <time>2012-06-14T10:44:58Z</time>
      </trkpt>
      <trkpt lat="43.238244" lon="-6.233078">
        <ele>401.0</ele>
        <time>2012-06-14T10:45:02Z</time>
      </trkpt>
      <trkpt lat="43.238193" lon="-6.232895">
        <ele>402.0</ele>
        <time>2012-06-14T10:45:09Z</time>
      </trkpt>
      <trkpt lat="43.238195" lon="-6.232803">
        <ele>402.0</ele>
        <time>2012-06-14T10:45:12Z</time>
      </trkpt>
      <trkpt lat="43.238256" lon="-6.232731">
        <ele>402.0</ele>
        <time>2012-06-14T10:45:15Z</time>
      </trkpt>
      <trkpt lat="43.238374" lon="-6.232579">
        <ele>403.0</ele>
        <time>2012-06-14T10:45:21Z</time>
      </trkpt>
      <trkpt lat="43.238403" lon="-6.232481">
        <ele>403.0</ele>
        <time>2012-06-14T10:45:24Z</time>
      </trkpt>
      <trkpt lat="43.23841" lon="-6.232374">
        <ele>403.0</ele>
        <time>2012-06-14T10:45:27Z</time>
      </trkpt>
      <trkpt lat="43.238408" lon="-6.232172">
        <ele>403.0</ele>
        <time>2012-06-14T10:45:33Z</time>
      </trkpt>
      <trkpt lat="43.238407" lon="-6.232073">
        <ele>403.0</ele>
        <time>2012-06-14T10:45:36Z</time>
      </trkpt>
      <trkpt lat="43.23841" lon="-6.231974">
        <ele>404.0</ele>
        <time>2012-06-14T10:45:39Z</time>
      </trkpt>
      <trkpt lat="43.238406" lon="-6.231765">
        <ele>404.0</ele>
        <time>2012-06-14T10:45:45Z</time>
      </trkpt>
      <trkpt lat="43.238358" lon="-6.231586">
        <ele>404.0</ele>
        <time>2012-06-14T10:45:49Z</time>
      </trkpt>
      <trkpt lat="43.238313" lon="-6.231404">
        <ele>404.0</ele>
        <time>2012-06-14T10:45:53Z</time>
      </trkpt>
      <trkpt lat="43.238302" lon="-6.231319">
        <ele>404.0</ele>
        <time>2012-06-14T10:45:55Z</time>
      </trkpt>
      <trkpt lat="43.238256" lon="-6.231086">
        <ele>405.0</ele>
        <time>2012-06-14T10:46:01Z</time>
      </trkpt>
      <trkpt lat="43.238189" lon="-6.231027">
        <ele>405.0</ele>
        <time>2012-06-14T10:46:03Z</time>
      </trkpt>
      <trkpt lat="43.237985" lon="-6.230895">
        <ele>405.0</ele>
        <time>2012-06-14T10:46:09Z</time>
      </trkpt>
      <trkpt lat="43.237818" lon="-6.230894">
        <ele>406.0</ele>
        <time>2012-06-14T10:46:13Z</time>
      </trkpt>
      <trkpt lat="43.237596" lon="-6.230767">
        <ele>406.0</ele>
        <time>2012-06-14T10:46:21Z</time>
      </trkpt>
      <trkpt lat="43.237433" lon="-6.230701">
        <ele>406.0</ele>
        <time>2012-06-14T10:46:27Z</time>
      </trkpt>
      <trkpt lat="43.237326" lon="-6.230848">
        <ele>406.0</ele>
        <time>2012-06-14T10:46:32Z</time>
      </trkpt>
      <trkpt lat="43.237291" lon="-6.230945">
        <ele>406.0</ele>
        <time>2012-06-14T10:46:34Z</time>
      </trkpt>
      <trkpt lat="43.23724" lon="-6.231283">
        <ele>406.0</ele>
        <time>2012-06-14T10:46:40Z</time>
      </trkpt>
      <trkpt lat="43.237273" lon="-6.231585">
        <ele>406.0</ele>
        <time>2012-06-14T10:46:44Z</time>
      </trkpt>
      <trkpt lat="43.237421" lon="-6.231962">
        <ele>406.0</ele>
        <time>2012-06-14T10:46:49Z</time>
      </trkpt>
      <trkpt lat="43.237624" lon="-6.232225">
        <ele>406.0</ele>
        <time>2012-06-14T10:46:53Z</time>
      </trkpt>
      <trkpt lat="43.23786" lon="-6.232464">
        <ele>406.0</ele>
        <time>2012-06-14T10:46:57Z</time>
      </trkpt>
      <trkpt lat="43.238166" lon="-6.232721">
        <ele>406.0</ele>
        <time>2012-06-14T10:47:01Z</time>
      </trkpt>
      <trkpt lat="43.238375" lon="-6.232996">
        <ele>406.0</ele>
        <time>2012-06-14T10:47:05Z</time>
      </trkpt>
      <trkpt lat="43.238495" lon="-6.233187">
        <ele>406.0</ele>
        <time>2012-06-14T10:47:08Z</time>
      </trkpt>
      <trkpt lat="43.238653" lon="-6.233404">
        <ele>406.0</ele>
        <time>2012-06-14T10:47:12Z</time>
      </trkpt>
      <trkpt lat="43.238806" lon="-6.233472">
        <ele>407.0</ele>
        <time>2012-06-14T10:47:16Z</time>
      </trkpt>
      <trkpt lat="43.238888" lon="-6.233444">
        <ele>407.0</ele>
        <time>2012-06-14T10:47:18Z</time>
      </trkpt>
      <trkpt lat="43.23905" lon="-6.233303">
        <ele>408.0</ele>
        <time>2012-06-14T10:47:22Z</time>
      </trkpt>
      <trkpt lat="43.239267" lon="-6.233118">
        <ele>410.0</ele>
        <time>2012-06-14T10:47:28Z</time>
      </trkpt>
      <trkpt lat="43.239391" lon="-6.233026">
        <ele>410.0</ele>
        <time>2012-06-14T10:47:32Z</time>
      </trkpt>
      <trkpt lat="43.23951" lon="-6.232933">
        <ele>411.0</ele>
        <time>2012-06-14T10:47:36Z</time>
      </trkpt>
      <trkpt lat="43.239632" lon="-6.232843">
        <ele>412.0</ele>
        <time>2012-06-14T10:47:40Z</time>
      </trkpt>
      <trkpt lat="43.239759" lon="-6.232759">
        <ele>412.0</ele>
        <time>2012-06-14T10:47:44Z</time>
      </trkpt>
      <trkpt lat="43.239883" lon="-6.232684">
        <ele>412.0</ele>
        <time>2012-06-14T10:47:48Z</time>
      </trkpt>
      <trkpt lat="43.240002" lon="-6.232613">
        <ele>412.0</ele>
        <time>2012-06-14T10:47:52Z</time>
      </trkpt>
      <trkpt lat="43.240085" lon="-6.232563">
        <ele>412.0</ele>
        <time>2012-06-14T10:47:55Z</time>
      </trkpt>
      <trkpt lat="43.240246" lon="-6.232485">
        <ele>413.0</ele>
        <time>2012-06-14T10:48:01Z</time>
      </trkpt>
      <trkpt lat="43.240323" lon="-6.232447">
        <ele>413.0</ele>
        <time>2012-06-14T10:48:04Z</time>
      </trkpt>
      <trkpt lat="43.240399" lon="-6.2324">
        <ele>413.0</ele>
        <time>2012-06-14T10:48:07Z</time>
      </trkpt>
      <trkpt lat="43.240556" lon="-6.232291">
        <ele>413.0</ele>
        <time>2012-06-14T10:48:13Z</time>
      </trkpt>
      <trkpt lat="43.240668" lon="-6.232204">
        <ele>413.0</ele>
        <time>2012-06-14T10:48:17Z</time>
      </trkpt>
      <trkpt lat="43.240752" lon="-6.232147">
        <ele>413.0</ele>
        <time>2012-06-14T10:48:20Z</time>
      </trkpt>
      <trkpt lat="43.240868" lon="-6.232075">
        <ele>414.0</ele>
        <time>2012-06-14T10:48:24Z</time>
      </trkpt>
      <trkpt lat="43.240985" lon="-6.232008">
        <ele>414.0</ele>
        <time>2012-06-14T10:48:28Z</time>
      </trkpt>
      <trkpt lat="43.241105" lon="-6.231943">
        <ele>414.0</ele>
        <time>2012-06-14T10:48:32Z</time>
      </trkpt>
      <trkpt lat="43.241225" lon="-6.231878">
        <ele>414.0</ele>
        <time>2012-06-14T10:48:36Z</time>
      </trkpt>
      <trkpt lat="43.241342" lon="-6.231814">
        <ele>414.0</ele>
        <time>2012-06-14T10:48:40Z</time>
      </trkpt>
      <trkpt lat="43.241429" lon="-6.231767">
        <ele>414.0</ele>
        <time>2012-06-14T10:48:43Z</time>
      </trkpt>
      <trkpt lat="43.241577" lon="-6.231691">
        <ele>414.0</ele>
        <time>2012-06-14T10:48:48Z</time>
      </trkpt>
      <trkpt lat="43.241722" lon="-6.231611">
        <ele>414.0</ele>
        <time>2012-06-14T10:48:53Z</time>
      </trkpt>
      <trkpt lat="43.241807" lon="-6.231563">
        <ele>414.0</ele>
        <time>2012-06-14T10:48:56Z</time>
      </trkpt>
      <trkpt lat="43.241895" lon="-6.231516">
        <ele>414.0</ele>
        <time>2012-06-14T10:48:59Z</time>
      </trkpt>
      <trkpt lat="43.242038" lon="-6.231419">
        <ele>414.0</ele>
        <time>2012-06-14T10:49:04Z</time>
      </trkpt>
      <trkpt lat="43.242154" lon="-6.231328">
        <ele>413.0</ele>
        <time>2012-06-14T10:49:08Z</time>
      </trkpt>
      <trkpt lat="43.242268" lon="-6.231238">
        <ele>413.0</ele>
        <time>2012-06-14T10:49:12Z</time>
      </trkpt>
      <trkpt lat="43.242393" lon="-6.231111">
        <ele>413.0</ele>
        <time>2012-06-14T10:49:17Z</time>
      </trkpt>
      <trkpt lat="43.242448" lon="-6.231033">
        <ele>413.0</ele>
        <time>2012-06-14T10:49:20Z</time>
      </trkpt>
      <trkpt lat="43.242487" lon="-6.230947">
        <ele>413.0</ele>
        <time>2012-06-14T10:49:23Z</time>
      </trkpt>
      <trkpt lat="43.242482" lon="-6.230742">
        <ele>413.0</ele>
        <time>2012-06-14T10:49:28Z</time>
      </trkpt>
      <trkpt lat="43.242443" lon="-6.230565">
        <ele>412.0</ele>
        <time>2012-06-14T10:49:32Z</time>
      </trkpt>
      <trkpt lat="43.242414" lon="-6.230446">
        <ele>412.0</ele>
        <time>2012-06-14T10:49:35Z</time>
      </trkpt>
      <trkpt lat="43.24236" lon="-6.230243">
        <ele>412.0</ele>
        <time>2012-06-14T10:49:40Z</time>
      </trkpt>
      <trkpt lat="43.242302" lon="-6.230065">
        <ele>412.0</ele>
        <time>2012-06-14T10:49:44Z</time>
      </trkpt>
      <trkpt lat="43.24224" lon="-6.229884">
        <ele>412.0</ele>
        <time>2012-06-14T10:49:48Z</time>
      </trkpt>
      <trkpt lat="43.242179" lon="-6.229666">
        <ele>413.0</ele>
        <time>2012-06-14T10:49:53Z</time>
      </trkpt>
      <trkpt lat="43.242108" lon="-6.229478">
        <ele>413.0</ele>
        <time>2012-06-14T10:49:57Z</time>
      </trkpt>
      <trkpt lat="43.242086" lon="-6.229362">
        <ele>413.0</ele>
        <time>2012-06-14T10:50:00Z</time>
      </trkpt>
      <trkpt lat="43.242082" lon="-6.229257">
        <ele>413.0</ele>
        <time>2012-06-14T10:50:03Z</time>
      </trkpt>
      <trkpt lat="43.242107" lon="-6.229068">
        <ele>414.0</ele>
        <time>2012-06-14T10:50:09Z</time>
      </trkpt>
      <trkpt lat="43.242131" lon="-6.228976">
        <ele>415.0</ele>
        <time>2012-06-14T10:50:12Z</time>
      </trkpt>
      <trkpt lat="43.242176" lon="-6.228913">
        <ele>415.0</ele>
        <time>2012-06-14T10:50:15Z</time>
      </trkpt>
      <trkpt lat="43.242353" lon="-6.228741">
        <ele>417.0</ele>
        <time>2012-06-14T10:50:25Z</time>
      </trkpt>
      <trkpt lat="43.24241" lon="-6.228663">
        <ele>417.0</ele>
        <time>2012-06-14T10:50:28Z</time>
      </trkpt>
      <trkpt lat="43.242468" lon="-6.228586">
        <ele>418.0</ele>
        <time>2012-06-14T10:50:31Z</time>
      </trkpt>
      <trkpt lat="43.242577" lon="-6.228432">
        <ele>419.0</ele>
        <time>2012-06-14T10:50:37Z</time>
      </trkpt>
      <trkpt lat="43.242631" lon="-6.228362">
        <ele>419.0</ele>
        <time>2012-06-14T10:50:40Z</time>
      </trkpt>
      <trkpt lat="43.242799" lon="-6.228185">
        <ele>420.0</ele>
        <time>2012-06-14T10:50:49Z</time>
      </trkpt>
      <trkpt lat="43.242856" lon="-6.228119">
        <ele>421.0</ele>
        <time>2012-06-14T10:50:52Z</time>
      </trkpt>
      <trkpt lat="43.242917" lon="-6.228055">
        <ele>421.0</ele>
        <time>2012-06-14T10:50:55Z</time>
      </trkpt>
      <trkpt lat="43.242973" lon="-6.227978">
        <ele>422.0</ele>
        <time>2012-06-14T10:50:58Z</time>
      </trkpt>
      <trkpt lat="43.243083" lon="-6.22782">
        <ele>423.0</ele>
        <time>2012-06-14T10:51:04Z</time>
      </trkpt>
      <trkpt lat="43.24314" lon="-6.227738">
        <ele>424.0</ele>
        <time>2012-06-14T10:51:07Z</time>
      </trkpt>
      <trkpt lat="43.243255" lon="-6.227571">
        <ele>425.0</ele>
        <time>2012-06-14T10:51:13Z</time>
      </trkpt>
      <trkpt lat="43.243313" lon="-6.227499">
        <ele>426.0</ele>
        <time>2012-06-14T10:51:16Z</time>
      </trkpt>
      <trkpt lat="43.24337" lon="-6.227433">
        <ele>426.0</ele>
        <time>2012-06-14T10:51:19Z</time>
      </trkpt>
      <trkpt lat="43.243486" lon="-6.227339">
        <ele>427.0</ele>
        <time>2012-06-14T10:51:25Z</time>
      </trkpt>
      <trkpt lat="43.24356" lon="-6.227288">
        <ele>427.0</ele>
        <time>2012-06-14T10:51:29Z</time>
      </trkpt>
      <trkpt lat="43.243623" lon="-6.227268">
        <ele>427.0</ele>
        <time>2012-06-14T10:51:32Z</time>
      </trkpt>
      <trkpt lat="43.24377" lon="-6.227299">
        <ele>428.0</ele>
        <time>2012-06-14T10:51:37Z</time>
      </trkpt>
      <trkpt lat="43.243933" lon="-6.227411">
        <ele>428.0</ele>
        <time>2012-06-14T10:51:41Z</time>
      </trkpt>
      <trkpt lat="43.24409" lon="-6.22754">
        <ele>428.0</ele>
        <time>2012-06-14T10:51:44Z</time>
      </trkpt>
      <trkpt lat="43.244293" lon="-6.227697">
        <ele>429.0</ele>
        <time>2012-06-14T10:51:48Z</time>
      </trkpt>
      <trkpt lat="43.244461" lon="-6.227815">
        <ele>429.0</ele>
        <time>2012-06-14T10:51:52Z</time>
      </trkpt>
      <trkpt lat="43.244606" lon="-6.227888">
        <ele>429.0</ele>
        <time>2012-06-14T10:51:56Z</time>
      </trkpt>
      <trkpt lat="43.244734" lon="-6.227951">
        <ele>429.0</ele>
        <time>2012-06-14T10:52:00Z</time>
      </trkpt>
      <trkpt lat="43.244823" lon="-6.227968">
        <ele>430.0</ele>
        <time>2012-06-14T10:52:03Z</time>
      </trkpt>
      <trkpt lat="43.244982" lon="-6.227925">
        <ele>430.0</ele>
        <time>2012-06-14T10:52:09Z</time>
      </trkpt>
      <trkpt lat="43.245057" lon="-6.227872">
        <ele>431.0</ele>
        <time>2012-06-14T10:52:12Z</time>
      </trkpt>
      <trkpt lat="43.245133" lon="-6.227818">
        <ele>431.0</ele>
        <time>2012-06-14T10:52:15Z</time>
      </trkpt>
      <trkpt lat="43.245284" lon="-6.227729">
        <ele>432.0</ele>
        <time>2012-06-14T10:52:21Z</time>
      </trkpt>
      <trkpt lat="43.245358" lon="-6.227677">
        <ele>432.0</ele>
        <time>2012-06-14T10:52:24Z</time>
      </trkpt>
      <trkpt lat="43.245575" lon="-6.227492">
        <ele>433.0</ele>
        <time>2012-06-14T10:52:33Z</time>
      </trkpt>
      <trkpt lat="43.245645" lon="-6.227427">
        <ele>433.0</ele>
        <time>2012-06-14T10:52:36Z</time>
      </trkpt>
      <trkpt lat="43.245822" lon="-6.227216">
        <ele>434.0</ele>
        <time>2012-06-14T10:52:45Z</time>
      </trkpt>
      <trkpt lat="43.245873" lon="-6.227141">
        <ele>435.0</ele>
        <time>2012-06-14T10:52:48Z</time>
      </trkpt>
      <trkpt lat="43.245925" lon="-6.227068">
        <ele>435.0</ele>
        <time>2012-06-14T10:52:51Z</time>
      </trkpt>
      <trkpt lat="43.246034" lon="-6.226931">
        <ele>436.0</ele>
        <time>2012-06-14T10:52:57Z</time>
      </trkpt>
      <trkpt lat="43.246097" lon="-6.226867">
        <ele>437.0</ele>
        <time>2012-06-14T10:53:00Z</time>
      </trkpt>
      <trkpt lat="43.246163" lon="-6.226804">
        <ele>437.0</ele>
        <time>2012-06-14T10:53:03Z</time>
      </trkpt>
      <trkpt lat="43.246284" lon="-6.226678">
        <ele>438.0</ele>
        <time>2012-06-14T10:53:09Z</time>
      </trkpt>
      <trkpt lat="43.246348" lon="-6.226624">
        <ele>439.0</ele>
        <time>2012-06-14T10:53:12Z</time>
      </trkpt>
      <trkpt lat="43.24641" lon="-6.226564">
        <ele>439.0</ele>
        <time>2012-06-14T10:53:15Z</time>
      </trkpt>
      <trkpt lat="43.246532" lon="-6.226422">
        <ele>440.0</ele>
        <time>2012-06-14T10:53:21Z</time>
      </trkpt>
      <trkpt lat="43.246593" lon="-6.226361">
        <ele>441.0</ele>
        <time>2012-06-14T10:53:24Z</time>
      </trkpt>
      <trkpt lat="43.246656" lon="-6.226309">
        <ele>441.0</ele>
        <time>2012-06-14T10:53:27Z</time>
      </trkpt>
      <trkpt lat="43.246718" lon="-6.226259">
        <ele>442.0</ele>
        <time>2012-06-14T10:53:30Z</time>
      </trkpt>
      <trkpt lat="43.246842" lon="-6.226153">
        <ele>443.0</ele>
        <time>2012-06-14T10:53:36Z</time>
      </trkpt>
      <trkpt lat="43.246908" lon="-6.226101">
        <ele>444.0</ele>
        <time>2012-06-14T10:53:39Z</time>
      </trkpt>
      <trkpt lat="43.247041" lon="-6.225996">
        <ele>445.0</ele>
        <time>2012-06-14T10:53:45Z</time>
      </trkpt>
      <trkpt lat="43.247107" lon="-6.225941">
        <ele>446.0</ele>
        <time>2012-06-14T10:53:48Z</time>
      </trkpt>
      <trkpt lat="43.247149" lon="-6.225867">
        <ele>447.0</ele>
        <time>2012-06-14T10:53:51Z</time>
      </trkpt>
      <trkpt lat="43.247237" lon="-6.225716">
        <ele>448.0</ele>
        <time>2012-06-14T10:53:57Z</time>
      </trkpt>
      <trkpt lat="43.247285" lon="-6.22564">
        <ele>449.0</ele>
        <time>2012-06-14T10:54:00Z</time>
      </trkpt>
      <trkpt lat="43.247335" lon="-6.225554">
        <ele>450.0</ele>
        <time>2012-06-14T10:54:03Z</time>
      </trkpt>
      <trkpt lat="43.247333" lon="-6.22533">
        <ele>452.0</ele>
        <time>2012-06-14T10:54:08Z</time>
      </trkpt>
      <trkpt lat="43.247307" lon="-6.225142">
        <ele>454.0</ele>
        <time>2012-06-14T10:54:12Z</time>
      </trkpt>
      <trkpt lat="43.247308" lon="-6.22502">
        <ele>455.0</ele>
        <time>2012-06-14T10:54:15Z</time>
      </trkpt>
      <trkpt lat="43.247326" lon="-6.224912">
        <ele>456.0</ele>
        <time>2012-06-14T10:54:18Z</time>
      </trkpt>
      <trkpt lat="43.24741" lon="-6.224739">
        <ele>459.0</ele>
        <time>2012-06-14T10:54:24Z</time>
      </trkpt>
      <trkpt lat="43.247457" lon="-6.224657">
        <ele>460.0</ele>
        <time>2012-06-14T10:54:27Z</time>
      </trkpt>
      <trkpt lat="43.247545" lon="-6.224483">
        <ele>462.0</ele>
        <time>2012-06-14T10:54:33Z</time>
      </trkpt>
      <trkpt lat="43.247602" lon="-6.224408">
        <ele>463.0</ele>
        <time>2012-06-14T10:54:36Z</time>
      </trkpt>
      <trkpt lat="43.247825" lon="-6.224216">
        <ele>465.0</ele>
        <time>2012-06-14T10:54:45Z</time>
      </trkpt>
      <trkpt lat="43.247972" lon="-6.224085">
        <ele>466.0</ele>
        <time>2012-06-14T10:54:51Z</time>
      </trkpt>
      <trkpt lat="43.248119" lon="-6.223984">
        <ele>468.0</ele>
        <time>2012-06-14T10:54:57Z</time>
      </trkpt>
      <trkpt lat="43.248195" lon="-6.223946">
        <ele>470.0</ele>
        <time>2012-06-14T10:55:00Z</time>
      </trkpt>
      <trkpt lat="43.248278" lon="-6.223928">
        <ele>471.0</ele>
        <time>2012-06-14T10:55:03Z</time>
      </trkpt>
      <trkpt lat="43.248454" lon="-6.223918">
        <ele>474.0</ele>
        <time>2012-06-14T10:55:09Z</time>
      </trkpt>
      <trkpt lat="43.248538" lon="-6.223902">
        <ele>475.0</ele>
        <time>2012-06-14T10:55:12Z</time>
      </trkpt>
      <trkpt lat="43.248619" lon="-6.223886">
        <ele>477.0</ele>
        <time>2012-06-14T10:55:15Z</time>
      </trkpt>
      <trkpt lat="43.2487" lon="-6.223867">
        <ele>478.0</ele>
        <time>2012-06-14T10:55:18Z</time>
      </trkpt>
      <trkpt lat="43.248917" lon="-6.223847">
        <ele>482.0</ele>
        <time>2012-06-14T10:55:25Z</time>
      </trkpt>
      <trkpt lat="43.249082" lon="-6.223772">
        <ele>484.0</ele>
        <time>2012-06-14T10:55:31Z</time>
      </trkpt>
      <trkpt lat="43.249227" lon="-6.223711">
        <ele>487.0</ele>
        <time>2012-06-14T10:55:37Z</time>
      </trkpt>
      <trkpt lat="43.249275" lon="-6.223636">
        <ele>489.0</ele>
        <time>2012-06-14T10:55:40Z</time>
      </trkpt>
      <trkpt lat="43.249314" lon="-6.223559">
        <ele>491.0</ele>
        <time>2012-06-14T10:55:43Z</time>
      </trkpt>
      <trkpt lat="43.249345" lon="-6.223357">
        <ele>494.0</ele>
        <time>2012-06-14T10:55:49Z</time>
      </trkpt>
      <trkpt lat="43.24936" lon="-6.223262">
        <ele>495.0</ele>
        <time>2012-06-14T10:55:52Z</time>
      </trkpt>
      <trkpt lat="43.249384" lon="-6.223174">
        <ele>496.0</ele>
        <time>2012-06-14T10:55:55Z</time>
      </trkpt>
      <trkpt lat="43.249406" lon="-6.223088">
        <ele>497.0</ele>
        <time>2012-06-14T10:55:58Z</time>
      </trkpt>
      <trkpt lat="43.249442" lon="-6.222997">
        <ele>498.0</ele>
        <time>2012-06-14T10:56:02Z</time>
      </trkpt>
      <trkpt lat="43.249489" lon="-6.222928">
        <ele>499.0</ele>
        <time>2012-06-14T10:56:06Z</time>
      </trkpt>
      <trkpt lat="43.249554" lon="-6.222888">
        <ele>499.0</ele>
        <time>2012-06-14T10:56:11Z</time>
      </trkpt>
      <trkpt lat="43.249621" lon="-6.22287">
        <ele>500.0</ele>
        <time>2012-06-14T10:56:16Z</time>
      </trkpt>
      <trkpt lat="43.249694" lon="-6.222858">
        <ele>500.0</ele>
        <time>2012-06-14T10:56:21Z</time>
      </trkpt>
      <trkpt lat="43.249763" lon="-6.222835">
        <ele>500.0</ele>
        <time>2012-06-14T10:56:26Z</time>
      </trkpt>
      <trkpt lat="43.249901" lon="-6.222806">
        <ele>501.0</ele>
        <time>2012-06-14T10:56:33Z</time>
      </trkpt>
      <trkpt lat="43.250062" lon="-6.222819">
        <ele>501.0</ele>
        <time>2012-06-14T10:56:39Z</time>
      </trkpt>
      <trkpt lat="43.250221" lon="-6.222842">
        <ele>501.0</ele>
        <time>2012-06-14T10:56:44Z</time>
      </trkpt>
      <trkpt lat="43.250482" lon="-6.222988">
        <ele>502.0</ele>
        <time>2012-06-14T10:56:49Z</time>
      </trkpt>
      <trkpt lat="43.250823" lon="-6.223248">
        <ele>502.0</ele>
        <time>2012-06-14T10:56:53Z</time>
      </trkpt>
      <trkpt lat="43.251038" lon="-6.223395">
        <ele>502.0</ele>
        <time>2012-06-14T10:56:56Z</time>
      </trkpt>
      <trkpt lat="43.251227" lon="-6.223472">
        <ele>502.0</ele>
        <time>2012-06-14T10:57:00Z</time>
      </trkpt>
      <trkpt lat="43.251301" lon="-6.223494">
        <ele>502.0</ele>
        <time>2012-06-14T10:57:02Z</time>
      </trkpt>
      <trkpt lat="43.251495" lon="-6.223513">
        <ele>503.0</ele>
        <time>2012-06-14T10:57:08Z</time>
      </trkpt>
      <trkpt lat="43.251586" lon="-6.223503">
        <ele>503.0</ele>
        <time>2012-06-14T10:57:11Z</time>
      </trkpt>
      <trkpt lat="43.251755" lon="-6.223498">
        <ele>503.0</ele>
        <time>2012-06-14T10:57:17Z</time>
      </trkpt>
      <trkpt lat="43.251842" lon="-6.223472">
        <ele>503.0</ele>
        <time>2012-06-14T10:57:20Z</time>
      </trkpt>
      <trkpt lat="43.252087" lon="-6.2234">
        <ele>504.0</ele>
        <time>2012-06-14T10:57:29Z</time>
      </trkpt>
      <trkpt lat="43.252165" lon="-6.223385">
        <ele>505.0</ele>
        <time>2012-06-14T10:57:32Z</time>
      </trkpt>
      <trkpt lat="43.252245" lon="-6.223369">
        <ele>505.0</ele>
        <time>2012-06-14T10:57:35Z</time>
      </trkpt>
      <trkpt lat="43.25242" lon="-6.223354">
        <ele>506.0</ele>
        <time>2012-06-14T10:57:41Z</time>
      </trkpt>
      <trkpt lat="43.252551" lon="-6.223341">
        <ele>507.0</ele>
        <time>2012-06-14T10:57:45Z</time>
      </trkpt>
      <trkpt lat="43.252805" lon="-6.223261">
        <ele>508.0</ele>
        <time>2012-06-14T10:57:53Z</time>
      </trkpt>
      <trkpt lat="43.252862" lon="-6.223225">
        <ele>508.0</ele>
        <time>2012-06-14T10:57:55Z</time>
      </trkpt>
      <trkpt lat="43.252923" lon="-6.223138">
        <ele>509.0</ele>
        <time>2012-06-14T10:57:58Z</time>
      </trkpt>
      <trkpt lat="43.25299" lon="-6.222915">
        <ele>513.0</ele>
        <time>2012-06-14T10:58:04Z</time>
      </trkpt>
      <trkpt lat="43.252998" lon="-6.222719">
        <ele>515.0</ele>
        <time>2012-06-14T10:58:08Z</time>
      </trkpt>
      <trkpt lat="43.253019" lon="-6.222538">
        <ele>517.0</ele>
        <time>2012-06-14T10:58:12Z</time>
      </trkpt>
      <trkpt lat="43.253048" lon="-6.222419">
        <ele>519.0</ele>
        <time>2012-06-14T10:58:15Z</time>
      </trkpt>
      <trkpt lat="43.253088" lon="-6.222324">
        <ele>520.0</ele>
        <time>2012-06-14T10:58:18Z</time>
      </trkpt>
      <trkpt lat="43.25319" lon="-6.222187">
        <ele>521.0</ele>
        <time>2012-06-14T10:58:24Z</time>
      </trkpt>
      <trkpt lat="43.25319" lon="-6.22207">
        <ele>522.0</ele>
        <time>2012-06-14T10:58:27Z</time>
      </trkpt>
      <trkpt lat="43.253159" lon="-6.221876">
        <ele>522.0</ele>
        <time>2012-06-14T10:58:33Z</time>
      </trkpt>
      <trkpt lat="43.253147" lon="-6.221775">
        <ele>522.0</ele>
        <time>2012-06-14T10:58:37Z</time>
      </trkpt>
      <trkpt lat="43.253136" lon="-6.221682">
        <ele>522.0</ele>
        <time>2012-06-14T10:58:41Z</time>
      </trkpt>
      <trkpt lat="43.253129" lon="-6.221589">
        <ele>522.0</ele>
        <time>2012-06-14T10:58:45Z</time>
      </trkpt>
      <trkpt lat="43.253202" lon="-6.221402">
        <ele>521.0</ele>
        <time>2012-06-14T10:58:54Z</time>
      </trkpt>
      <trkpt lat="43.25331" lon="-6.221281">
        <ele>521.0</ele>
        <time>2012-06-14T10:59:00Z</time>
      </trkpt>
      <trkpt lat="43.253365" lon="-6.22122">
        <ele>521.0</ele>
        <time>2012-06-14T10:59:03Z</time>
      </trkpt>
      <trkpt lat="43.253511" lon="-6.221128">
        <ele>520.0</ele>
        <time>2012-06-14T10:59:09Z</time>
      </trkpt>
      <trkpt lat="43.253603" lon="-6.221105">
        <ele>520.0</ele>
        <time>2012-06-14T10:59:12Z</time>
      </trkpt>
      <trkpt lat="43.253694" lon="-6.221086">
        <ele>520.0</ele>
        <time>2012-06-14T10:59:15Z</time>
      </trkpt>
      <trkpt lat="43.253875" lon="-6.22104">
        <ele>520.0</ele>
        <time>2012-06-14T10:59:21Z</time>
      </trkpt>
      <trkpt lat="43.254057" lon="-6.221065">
        <ele>519.0</ele>
        <time>2012-06-14T10:59:27Z</time>
      </trkpt>
      <trkpt lat="43.254147" lon="-6.221084">
        <ele>519.0</ele>
        <time>2012-06-14T10:59:31Z</time>
      </trkpt>
      <trkpt lat="43.254327" lon="-6.221079">
        <ele>520.0</ele>
        <time>2012-06-14T10:59:36Z</time>
      </trkpt>
      <trkpt lat="43.254392" lon="-6.221076">
        <ele>520.0</ele>
        <time>2012-06-14T10:59:39Z</time>
      </trkpt>
      <trkpt lat="43.254553" lon="-6.221056">
        <ele>520.0</ele>
        <time>2012-06-14T10:59:45Z</time>
      </trkpt>
      <trkpt lat="43.254637" lon="-6.221053">
        <ele>519.0</ele>
        <time>2012-06-14T10:59:48Z</time>
      </trkpt>
      <trkpt lat="43.25472" lon="-6.221039">
        <ele>519.0</ele>
        <time>2012-06-14T10:59:51Z</time>
      </trkpt>
      <trkpt lat="43.254886" lon="-6.220971">
        <ele>519.0</ele>
        <time>2012-06-14T10:59:57Z</time>
      </trkpt>
      <trkpt lat="43.254973" lon="-6.220934">
        <ele>519.0</ele>
        <time>2012-06-14T11:00:00Z</time>
      </trkpt>
      <trkpt lat="43.255237" lon="-6.220869">
        <ele>519.0</ele>
        <time>2012-06-14T11:00:05Z</time>
      </trkpt>
      <trkpt lat="43.255484" lon="-6.220854">
        <ele>518.0</ele>
        <time>2012-06-14T11:00:09Z</time>
      </trkpt>
      <trkpt lat="43.255766" lon="-6.22077">
        <ele>519.0</ele>
        <time>2012-06-14T11:00:13Z</time>
      </trkpt>
      <trkpt lat="43.256039" lon="-6.220667">
        <ele>519.0</ele>
        <time>2012-06-14T11:00:17Z</time>
      </trkpt>
      <trkpt lat="43.256252" lon="-6.220603">
        <ele>519.0</ele>
        <time>2012-06-14T11:00:21Z</time>
      </trkpt>
      <trkpt lat="43.256349" lon="-6.220586">
        <ele>519.0</ele>
        <time>2012-06-14T11:00:23Z</time>
      </trkpt>
      <trkpt lat="43.256691" lon="-6.220506">
        <ele>522.0</ele>
        <time>2012-06-14T11:00:31Z</time>
      </trkpt>
      <trkpt lat="43.256898" lon="-6.220336">
        <ele>527.0</ele>
        <time>2012-06-14T11:00:37Z</time>
      </trkpt>
      <trkpt lat="43.256913" lon="-6.22014">
        <ele>530.0</ele>
        <time>2012-06-14T11:00:41Z</time>
      </trkpt>
      <trkpt lat="43.256907" lon="-6.219956">
        <ele>533.0</ele>
        <time>2012-06-14T11:00:45Z</time>
      </trkpt>
      <trkpt lat="43.256919" lon="-6.219781">
        <ele>537.0</ele>
        <time>2012-06-14T11:00:49Z</time>
      </trkpt>
      <trkpt lat="43.25694" lon="-6.219669">
        <ele>538.0</ele>
        <time>2012-06-14T11:00:52Z</time>
      </trkpt>
      <trkpt lat="43.256958" lon="-6.219562">
        <ele>539.0</ele>
        <time>2012-06-14T11:00:55Z</time>
      </trkpt>
      <trkpt lat="43.256916" lon="-6.219669">
        <ele>543.0</ele>
        <time>2012-06-14T11:01:01Z</time>
      </trkpt>
      <trkpt lat="43.256881" lon="-6.21975">
        <ele>546.0</ele>
        <time>2012-06-14T11:01:05Z</time>
      </trkpt>
      <trkpt lat="43.256816" lon="-6.219759">
        <ele>552.0</ele>
        <time>2012-06-14T11:01:11Z</time>
      </trkpt>
      <trkpt lat="43.256728" lon="-6.219615">
        <ele>557.0</ele>
        <time>2012-06-14T11:01:17Z</time>
      </trkpt>
      <trkpt lat="43.256696" lon="-6.21952">
        <ele>559.0</ele>
        <time>2012-06-14T11:01:20Z</time>
      </trkpt>
      <trkpt lat="43.256668" lon="-6.219426">
        <ele>561.0</ele>
        <time>2012-06-14T11:01:23Z</time>
      </trkpt>
      <trkpt lat="43.256631" lon="-6.219332">
        <ele>563.0</ele>
        <time>2012-06-14T11:01:26Z</time>
      </trkpt>
      <trkpt lat="43.256558" lon="-6.219166">
        <ele>566.0</ele>
        <time>2012-06-14T11:01:32Z</time>
      </trkpt>
      <trkpt lat="43.256507" lon="-6.219098">
        <ele>568.0</ele>
        <time>2012-06-14T11:01:35Z</time>
      </trkpt>
      <trkpt lat="43.256438" lon="-6.219049">
        <ele>570.0</ele>
        <time>2012-06-14T11:01:39Z</time>
      </trkpt>
      <trkpt lat="43.25638" lon="-6.219005">
        <ele>572.0</ele>
        <time>2012-06-14T11:01:44Z</time>
      </trkpt>
      <trkpt lat="43.256315" lon="-6.218973">
        <ele>574.0</ele>
        <time>2012-06-14T11:01:48Z</time>
      </trkpt>
      <trkpt lat="43.256252" lon="-6.218948">
        <ele>576.0</ele>
        <time>2012-06-14T11:01:51Z</time>
      </trkpt>
      <trkpt lat="43.256189" lon="-6.218906">
        <ele>577.0</ele>
        <time>2012-06-14T11:01:54Z</time>
      </trkpt>
      <trkpt lat="43.256075" lon="-6.218791">
        <ele>578.0</ele>
        <time>2012-06-14T11:02:00Z</time>
      </trkpt>
      <trkpt lat="43.256022" lon="-6.218725">
        <ele>579.0</ele>
        <time>2012-06-14T11:02:03Z</time>
      </trkpt>
      <trkpt lat="43.255916" lon="-6.218579">
        <ele>579.0</ele>
        <time>2012-06-14T11:02:09Z</time>
      </trkpt>
      <trkpt lat="43.255858" lon="-6.218511">
        <ele>578.0</ele>
        <time>2012-06-14T11:02:12Z</time>
      </trkpt>
      <trkpt lat="43.255781" lon="-6.218479">
        <ele>578.0</ele>
        <time>2012-06-14T11:02:15Z</time>
      </trkpt>
      <trkpt lat="43.255641" lon="-6.218418">
        <ele>577.0</ele>
        <time>2012-06-14T11:02:21Z</time>
      </trkpt>
      <trkpt lat="43.255577" lon="-6.218374">
        <ele>576.0</ele>
        <time>2012-06-14T11:02:24Z</time>
      </trkpt>
      <trkpt lat="43.255428" lon="-6.218307">
        <ele>575.0</ele>
        <time>2012-06-14T11:02:30Z</time>
      </trkpt>
      <trkpt lat="43.255302" lon="-6.218236">
        <ele>573.0</ele>
        <time>2012-06-14T11:02:36Z</time>
      </trkpt>
      <trkpt lat="43.255238" lon="-6.218222">
        <ele>573.0</ele>
        <time>2012-06-14T11:02:39Z</time>
      </trkpt>
      <trkpt lat="43.255169" lon="-6.2182">
        <ele>572.0</ele>
        <time>2012-06-14T11:02:43Z</time>
      </trkpt>
      <trkpt lat="43.25508" lon="-6.218191">
        <ele>571.0</ele>
        <time>2012-06-14T11:02:48Z</time>
      </trkpt>
      <trkpt lat="43.255015" lon="-6.218186">
        <ele>571.0</ele>
        <time>2012-06-14T11:02:51Z</time>
      </trkpt>
      <trkpt lat="43.254884" lon="-6.218187">
        <ele>570.0</ele>
        <time>2012-06-14T11:02:57Z</time>
      </trkpt>
      <trkpt lat="43.254812" lon="-6.218193">
        <ele>569.0</ele>
        <time>2012-06-14T11:03:00Z</time>
      </trkpt>
      <trkpt lat="43.254652" lon="-6.218228">
        <ele>568.0</ele>
        <time>2012-06-14T11:03:06Z</time>
      </trkpt>
      <trkpt lat="43.254572" lon="-6.218237">
        <ele>567.0</ele>
        <time>2012-06-14T11:03:09Z</time>
      </trkpt>
      <trkpt lat="43.254493" lon="-6.218255">
        <ele>566.0</ele>
        <time>2012-06-14T11:03:12Z</time>
      </trkpt>
      <trkpt lat="43.254343" lon="-6.218274">
        <ele>564.0</ele>
        <time>2012-06-14T11:03:18Z</time>
      </trkpt>
      <trkpt lat="43.254272" lon="-6.218287">
        <ele>564.0</ele>
        <time>2012-06-14T11:03:21Z</time>
      </trkpt>
      <trkpt lat="43.2542" lon="-6.218288">
        <ele>563.0</ele>
        <time>2012-06-14T11:03:24Z</time>
      </trkpt>
      <trkpt lat="43.254044" lon="-6.218273">
        <ele>561.0</ele>
        <time>2012-06-14T11:03:30Z</time>
      </trkpt>
      <trkpt lat="43.253952" lon="-6.218253">
        <ele>560.0</ele>
        <time>2012-06-14T11:03:33Z</time>
      </trkpt>
      <trkpt lat="43.253888" lon="-6.218238">
        <ele>559.0</ele>
        <time>2012-06-14T11:03:35Z</time>
      </trkpt>
      <trkpt lat="43.253746" lon="-6.21819">
        <ele>558.0</ele>
        <time>2012-06-14T11:03:40Z</time>
      </trkpt>
      <trkpt lat="43.253677" lon="-6.218161">
        <ele>557.0</ele>
        <time>2012-06-14T11:03:43Z</time>
      </trkpt>
      <trkpt lat="43.253551" lon="-6.218109">
        <ele>556.0</ele>
        <time>2012-06-14T11:03:49Z</time>
      </trkpt>
      <trkpt lat="43.253487" lon="-6.218087">
        <ele>556.0</ele>
        <time>2012-06-14T11:03:52Z</time>
      </trkpt>
      <trkpt lat="43.253419" lon="-6.218086">
        <ele>555.0</ele>
        <time>2012-06-14T11:03:55Z</time>
      </trkpt>
      <trkpt lat="43.253283" lon="-6.218134">
        <ele>554.0</ele>
        <time>2012-06-14T11:04:01Z</time>
      </trkpt>
      <trkpt lat="43.253214" lon="-6.21817">
        <ele>553.0</ele>
        <time>2012-06-14T11:04:04Z</time>
      </trkpt>
      <trkpt lat="43.253151" lon="-6.218197">
        <ele>553.0</ele>
        <time>2012-06-14T11:04:07Z</time>
      </trkpt>
      <trkpt lat="43.253077" lon="-6.218239">
        <ele>551.0</ele>
        <time>2012-06-14T11:04:11Z</time>
      </trkpt>
      <trkpt lat="43.253" lon="-6.218281">
        <ele>550.0</ele>
        <time>2012-06-14T11:04:15Z</time>
      </trkpt>
      <trkpt lat="43.252931" lon="-6.218321">
        <ele>549.0</ele>
        <time>2012-06-14T11:04:19Z</time>
      </trkpt>
      <trkpt lat="43.252881" lon="-6.218383">
        <ele>549.0</ele>
        <time>2012-06-14T11:04:24Z</time>
      </trkpt>
      <trkpt lat="43.252734" lon="-6.218381">
        <ele>551.0</ele>
        <time>2012-06-14T11:04:34Z</time>
      </trkpt>
      <trkpt lat="43.252657" lon="-6.218398">
        <ele>551.0</ele>
        <time>2012-06-14T11:04:38Z</time>
      </trkpt>
      <trkpt lat="43.252589" lon="-6.218447">
        <ele>550.0</ele>
        <time>2012-06-14T11:04:42Z</time>
      </trkpt>
      <trkpt lat="43.252517" lon="-6.218482">
        <ele>550.0</ele>
        <time>2012-06-14T11:04:46Z</time>
      </trkpt>
      <trkpt lat="43.252451" lon="-6.218511">
        <ele>549.0</ele>
        <time>2012-06-14T11:04:50Z</time>
      </trkpt>
      <trkpt lat="43.252319" lon="-6.218578">
        <ele>547.0</ele>
        <time>2012-06-14T11:04:57Z</time>
      </trkpt>
      <trkpt lat="43.252253" lon="-6.218606">
        <ele>546.0</ele>
        <time>2012-06-14T11:05:00Z</time>
      </trkpt>
      <trkpt lat="43.252182" lon="-6.218624">
        <ele>545.0</ele>
        <time>2012-06-14T11:05:03Z</time>
      </trkpt>
      <trkpt lat="43.252026" lon="-6.218641">
        <ele>543.0</ele>
        <time>2012-06-14T11:05:09Z</time>
      </trkpt>
      <trkpt lat="43.251951" lon="-6.218662">
        <ele>543.0</ele>
        <time>2012-06-14T11:05:12Z</time>
      </trkpt>
      <trkpt lat="43.251875" lon="-6.218687">
        <ele>542.0</ele>
        <time>2012-06-14T11:05:15Z</time>
      </trkpt>
      <trkpt lat="43.251715" lon="-6.218747">
        <ele>540.0</ele>
        <time>2012-06-14T11:05:21Z</time>
      </trkpt>
      <trkpt lat="43.251635" lon="-6.218788">
        <ele>539.0</ele>
        <time>2012-06-14T11:05:24Z</time>
      </trkpt>
      <trkpt lat="43.251553" lon="-6.218829">
        <ele>538.0</ele>
        <time>2012-06-14T11:05:27Z</time>
      </trkpt>
      <trkpt lat="43.251389" lon="-6.218937">
        <ele>537.0</ele>
        <time>2012-06-14T11:05:33Z</time>
      </trkpt>
      <trkpt lat="43.251306" lon="-6.218996">
        <ele>536.0</ele>
        <time>2012-06-14T11:05:36Z</time>
      </trkpt>
      <trkpt lat="43.251224" lon="-6.219041">
        <ele>535.0</ele>
        <time>2012-06-14T11:05:39Z</time>
      </trkpt>
      <trkpt lat="43.251056" lon="-6.219144">
        <ele>534.0</ele>
        <time>2012-06-14T11:05:45Z</time>
      </trkpt>
      <trkpt lat="43.251" lon="-6.219189">
        <ele>534.0</ele>
        <time>2012-06-14T11:05:47Z</time>
      </trkpt>
      <trkpt lat="43.250828" lon="-6.219283">
        <ele>533.0</ele>
        <time>2012-06-14T11:05:53Z</time>
      </trkpt>
      <trkpt lat="43.250738" lon="-6.219316">
        <ele>532.0</ele>
        <time>2012-06-14T11:05:56Z</time>
      </trkpt>
      <trkpt lat="43.250648" lon="-6.219344">
        <ele>532.0</ele>
        <time>2012-06-14T11:05:59Z</time>
      </trkpt>
      <trkpt lat="43.250493" lon="-6.219403">
        <ele>531.0</ele>
        <time>2012-06-14T11:06:04Z</time>
      </trkpt>
      <trkpt lat="43.250305" lon="-6.21946">
        <ele>531.0</ele>
        <time>2012-06-14T11:06:09Z</time>
      </trkpt>
      <trkpt lat="43.250178" lon="-6.219505">
        <ele>531.0</ele>
        <time>2012-06-14T11:06:13Z</time>
      </trkpt>
      <trkpt lat="43.250049" lon="-6.219548">
        <ele>530.0</ele>
        <time>2012-06-14T11:06:17Z</time>
      </trkpt>
      <trkpt lat="43.24992" lon="-6.219598">
        <ele>530.0</ele>
        <time>2012-06-14T11:06:21Z</time>
      </trkpt>
      <trkpt lat="43.24979" lon="-6.219663">
        <ele>530.0</ele>
        <time>2012-06-14T11:06:25Z</time>
      </trkpt>
      <trkpt lat="43.249664" lon="-6.219723">
        <ele>529.0</ele>
        <time>2012-06-14T11:06:29Z</time>
      </trkpt>
      <trkpt lat="43.249541" lon="-6.219779">
        <ele>529.0</ele>
        <time>2012-06-14T11:06:33Z</time>
      </trkpt>
      <trkpt lat="43.249432" lon="-6.219913">
        <ele>530.0</ele>
        <time>2012-06-14T11:06:37Z</time>
      </trkpt>
      <trkpt lat="43.249323" lon="-6.220071">
        <ele>531.0</ele>
        <time>2012-06-14T11:06:41Z</time>
      </trkpt>
      <trkpt lat="43.249199" lon="-6.220172">
        <ele>532.0</ele>
        <time>2012-06-14T11:06:45Z</time>
      </trkpt>
      <trkpt lat="43.24907" lon="-6.220238">
        <ele>532.0</ele>
        <time>2012-06-14T11:06:49Z</time>
      </trkpt>
      <trkpt lat="43.248819" lon="-6.220254">
        <ele>534.0</ele>
        <time>2012-06-14T11:06:57Z</time>
      </trkpt>
      <trkpt lat="43.248693" lon="-6.220239">
        <ele>534.0</ele>
        <time>2012-06-14T11:07:01Z</time>
      </trkpt>
      <trkpt lat="43.248633" lon="-6.220188">
        <ele>534.0</ele>
        <time>2012-06-14T11:07:03Z</time>
      </trkpt>
      <trkpt lat="43.248441" lon="-6.219854">
        <ele>538.0</ele>
        <time>2012-06-14T11:07:12Z</time>
      </trkpt>
      <trkpt lat="43.248235" lon="-6.219578">
        <ele>554.0</ele>
        <time>2012-06-14T11:07:17Z</time>
      </trkpt>
      <trkpt lat="43.248042" lon="-6.219417">
        <ele>563.0</ele>
        <time>2012-06-14T11:07:21Z</time>
      </trkpt>
      <trkpt lat="43.247838" lon="-6.219342">
        <ele>566.0</ele>
        <time>2012-06-14T11:07:25Z</time>
      </trkpt>
      <trkpt lat="43.247655" lon="-6.219371">
        <ele>568.0</ele>
        <time>2012-06-14T11:07:29Z</time>
      </trkpt>
      <trkpt lat="43.247479" lon="-6.219458">
        <ele>564.0</ele>
        <time>2012-06-14T11:07:33Z</time>
      </trkpt>
      <trkpt lat="43.247313" lon="-6.219578">
        <ele>560.0</ele>
        <time>2012-06-14T11:07:37Z</time>
      </trkpt>
      <trkpt lat="43.247155" lon="-6.219696">
        <ele>558.0</ele>
        <time>2012-06-14T11:07:41Z</time>
      </trkpt>
      <trkpt lat="43.246993" lon="-6.219808">
        <ele>556.0</ele>
        <time>2012-06-14T11:07:45Z</time>
      </trkpt>
      <trkpt lat="43.246814" lon="-6.219887">
        <ele>553.0</ele>
        <time>2012-06-14T11:07:49Z</time>
      </trkpt>
      <trkpt lat="43.24672" lon="-6.219907">
        <ele>551.0</ele>
        <time>2012-06-14T11:07:51Z</time>
      </trkpt>
      <trkpt lat="43.246394" lon="-6.219917">
        <ele>555.0</ele>
        <time>2012-06-14T11:07:57Z</time>
      </trkpt>
      <trkpt lat="43.246167" lon="-6.219961">
        <ele>562.0</ele>
        <time>2012-06-14T11:08:01Z</time>
      </trkpt>
      <trkpt lat="43.245952" lon="-6.220037">
        <ele>570.0</ele>
        <time>2012-06-14T11:08:05Z</time>
      </trkpt>
      <trkpt lat="43.245774" lon="-6.220137">
        <ele>576.0</ele>
        <time>2012-06-14T11:08:09Z</time>
      </trkpt>
      <trkpt lat="43.245615" lon="-6.220194">
        <ele>578.0</ele>
        <time>2012-06-14T11:08:13Z</time>
      </trkpt>
      <trkpt lat="43.245535" lon="-6.22021">
        <ele>578.0</ele>
        <time>2012-06-14T11:08:15Z</time>
      </trkpt>
      <trkpt lat="43.245335" lon="-6.220243">
        <ele>578.0</ele>
        <time>2012-06-14T11:08:21Z</time>
      </trkpt>
      <trkpt lat="43.245267" lon="-6.220247">
        <ele>578.0</ele>
        <time>2012-06-14T11:08:23Z</time>
      </trkpt>
      <trkpt lat="43.245063" lon="-6.220257">
        <ele>578.0</ele>
        <time>2012-06-14T11:08:29Z</time>
      </trkpt>
      <trkpt lat="43.244934" lon="-6.220238">
        <ele>579.0</ele>
        <time>2012-06-14T11:08:33Z</time>
      </trkpt>
      <trkpt lat="43.244841" lon="-6.220234">
        <ele>579.0</ele>
        <time>2012-06-14T11:08:36Z</time>
      </trkpt>
      <trkpt lat="43.244686" lon="-6.22023">
        <ele>579.0</ele>
        <time>2012-06-14T11:08:41Z</time>
      </trkpt>
      <trkpt lat="43.244602" lon="-6.220241">
        <ele>580.0</ele>
        <time>2012-06-14T11:08:44Z</time>
      </trkpt>
      <trkpt lat="43.244519" lon="-6.220234">
        <ele>580.0</ele>
        <time>2012-06-14T11:08:47Z</time>
      </trkpt>
      <trkpt lat="43.244364" lon="-6.220262">
        <ele>581.0</ele>
        <time>2012-06-14T11:08:53Z</time>
      </trkpt>
      <trkpt lat="43.244222" lon="-6.220323">
        <ele>584.0</ele>
        <time>2012-06-14T11:08:59Z</time>
      </trkpt>
      <trkpt lat="43.244097" lon="-6.220399">
        <ele>587.0</ele>
        <time>2012-06-14T11:09:05Z</time>
      </trkpt>
      <trkpt lat="43.244039" lon="-6.220365">
        <ele>589.0</ele>
        <time>2012-06-14T11:09:08Z</time>
      </trkpt>
      <trkpt lat="43.243915" lon="-6.220049">
        <ele>594.0</ele>
        <time>2012-06-14T11:09:13Z</time>
      </trkpt>
      <trkpt lat="43.243837" lon="-6.219757">
        <ele>614.0</ele>
        <time>2012-06-14T11:09:17Z</time>
      </trkpt>
      <trkpt lat="43.243833" lon="-6.219425">
        <ele>629.0</ele>
        <time>2012-06-14T11:09:21Z</time>
      </trkpt>
      <trkpt lat="43.243791" lon="-6.219166">
        <ele>630.0</ele>
        <time>2012-06-14T11:09:25Z</time>
      </trkpt>
      <trkpt lat="43.243731" lon="-6.219081">
        <ele>630.0</ele>
        <time>2012-06-14T11:09:28Z</time>
      </trkpt>
      <trkpt lat="43.243669" lon="-6.219015">
        <ele>629.0</ele>
        <time>2012-06-14T11:09:31Z</time>
      </trkpt>
      <trkpt lat="43.243544" lon="-6.218942">
        <ele>627.0</ele>
        <time>2012-06-14T11:09:37Z</time>
      </trkpt>
      <trkpt lat="43.243475" lon="-6.218908">
        <ele>627.0</ele>
        <time>2012-06-14T11:09:40Z</time>
      </trkpt>
      <trkpt lat="43.243411" lon="-6.218863">
        <ele>627.0</ele>
        <time>2012-06-14T11:09:43Z</time>
      </trkpt>
      <trkpt lat="43.243411" lon="-6.218863">
        <time>2012-06-14T11:09:55Z</time>
      </trkpt>
    </trkseg>
    <trkseg>
      <trkpt lat="43.243411" lon="-6.218863">
        <time>2012-06-14T11:09:56Z</time>
      </trkpt>
      <trkpt lat="43.243103" lon="-6.21869">
        <ele>624.0</ele>
        <time>2012-06-14T11:10:01Z</time>
      </trkpt>
      <trkpt lat="43.243038" lon="-6.218702">
        <ele>623.0</ele>
        <time>2012-06-14T11:10:06Z</time>
      </trkpt>
      <trkpt lat="43.24298" lon="-6.218743">
        <ele>621.0</ele>
        <time>2012-06-14T11:10:11Z</time>
      </trkpt>
      <trkpt lat="43.242912" lon="-6.218805">
        <ele>619.0</ele>
        <time>2012-06-14T11:10:15Z</time>
      </trkpt>
      <trkpt lat="43.242843" lon="-6.21886">
        <ele>618.0</ele>
        <time>2012-06-14T11:10:18Z</time>
      </trkpt>
      <trkpt lat="43.242765" lon="-6.218896">
        <ele>617.0</ele>
        <time>2012-06-14T11:10:21Z</time>
      </trkpt>
      <trkpt lat="43.24254" lon="-6.218892">
        <ele>614.0</ele>
        <time>2012-06-14T11:10:30Z</time>
      </trkpt>
      <trkpt lat="43.242469" lon="-6.218855">
        <ele>614.0</ele>
        <time>2012-06-14T11:10:33Z</time>
      </trkpt>
      <trkpt lat="43.242379" lon="-6.218811">
        <ele>613.0</ele>
        <time>2012-06-14T11:10:37Z</time>
      </trkpt>
      <trkpt lat="43.242134" lon="-6.218692">
        <ele>613.0</ele>
        <time>2012-06-14T11:10:46Z</time>
      </trkpt>
      <trkpt lat="43.241992" lon="-6.218615">
        <ele>614.0</ele>
        <time>2012-06-14T11:10:51Z</time>
      </trkpt>
      <trkpt lat="43.24187" lon="-6.218547">
        <ele>614.0</ele>
        <time>2012-06-14T11:10:55Z</time>
      </trkpt>
      <trkpt lat="43.24175" lon="-6.218462">
        <ele>615.0</ele>
        <time>2012-06-14T11:10:59Z</time>
      </trkpt>
      <trkpt lat="43.24158" lon="-6.218308">
        <ele>616.0</ele>
        <time>2012-06-14T11:11:05Z</time>
      </trkpt>
      <trkpt lat="43.24145" lon="-6.218201">
        <ele>617.0</ele>
        <time>2012-06-14T11:11:11Z</time>
      </trkpt>
      <trkpt lat="43.241252" lon="-6.218058">
        <ele>620.0</ele>
        <time>2012-06-14T11:11:21Z</time>
      </trkpt>
      <trkpt lat="43.241252" lon="-6.218058">
        <time>2012-06-14T11:11:32Z</time>
      </trkpt>
    </trkseg>
    <trkseg>
      <trkpt lat="43.241252" lon="-6.218058">
        <time>2012-06-14T11:11:37Z</time>
      </trkpt>
      <trkpt lat="43.240906" lon="-6.217654">
        <ele>626.0</ele>
        <time>2012-06-14T11:11:42Z</time>
      </trkpt>
      <trkpt lat="43.240833" lon="-6.217552">
        <ele>628.0</ele>
        <time>2012-06-14T11:11:46Z</time>
      </trkpt>
      <trkpt lat="43.240713" lon="-6.217278">
        <ele>630.0</ele>
        <time>2012-06-14T11:11:51Z</time>
      </trkpt>
      <trkpt lat="43.240824" lon="-6.21703">
        <ele>633.0</ele>
        <time>2012-06-14T11:11:55Z</time>
      </trkpt>
      <trkpt lat="43.240978" lon="-6.216804">
        <ele>635.0</ele>
        <time>2012-06-14T11:11:59Z</time>
      </trkpt>
      <trkpt lat="43.241122" lon="-6.216586">
        <ele>638.0</ele>
        <time>2012-06-14T11:12:03Z</time>
      </trkpt>
      <trkpt lat="43.24125" lon="-6.216364">
        <ele>640.0</ele>
        <time>2012-06-14T11:12:07Z</time>
      </trkpt>
      <trkpt lat="43.241351" lon="-6.216165">
        <ele>643.0</ele>
        <time>2012-06-14T11:12:11Z</time>
      </trkpt>
      <trkpt lat="43.241419" lon="-6.215994">
        <ele>644.0</ele>
        <time>2012-06-14T11:12:15Z</time>
      </trkpt>
      <trkpt lat="43.241521" lon="-6.215717">
        <ele>647.0</ele>
        <time>2012-06-14T11:12:23Z</time>
      </trkpt>
      <trkpt lat="43.241522" lon="-6.215538">
        <ele>647.0</ele>
        <time>2012-06-14T11:12:27Z</time>
      </trkpt>
      <trkpt lat="43.241515" lon="-6.215414">
        <ele>648.0</ele>
        <time>2012-06-14T11:12:30Z</time>
      </trkpt>
      <trkpt lat="43.24148" lon="-6.215202">
        <ele>649.0</ele>
        <time>2012-06-14T11:12:36Z</time>
      </trkpt>
      <trkpt lat="43.24145" lon="-6.215111">
        <ele>649.0</ele>
        <time>2012-06-14T11:12:39Z</time>
      </trkpt>
      <trkpt lat="43.241427" lon="-6.215027">
        <ele>650.0</ele>
        <time>2012-06-14T11:12:42Z</time>
      </trkpt>
      <trkpt lat="43.241429" lon="-6.214921">
        <ele>651.0</ele>
        <time>2012-06-14T11:12:46Z</time>
      </trkpt>
      <trkpt lat="43.241434" lon="-6.214821">
        <ele>652.0</ele>
        <time>2012-06-14T11:12:50Z</time>
      </trkpt>
      <trkpt lat="43.241474" lon="-6.21464">
        <ele>654.0</ele>
        <time>2012-06-14T11:12:59Z</time>
      </trkpt>
      <trkpt lat="43.241533" lon="-6.214575">
        <ele>655.0</ele>
        <time>2012-06-14T11:13:03Z</time>
      </trkpt>
      <trkpt lat="43.241598" lon="-6.214536">
        <ele>655.0</ele>
        <time>2012-06-14T11:13:06Z</time>
      </trkpt>
      <trkpt lat="43.241747" lon="-6.214487">
        <ele>655.0</ele>
        <time>2012-06-14T11:13:11Z</time>
      </trkpt>
      <trkpt lat="43.241885" lon="-6.214442">
        <ele>655.0</ele>
        <time>2012-06-14T11:13:15Z</time>
      </trkpt>
      <trkpt lat="43.242026" lon="-6.214394">
        <ele>655.0</ele>
        <time>2012-06-14T11:13:19Z</time>
      </trkpt>
      <trkpt lat="43.242094" lon="-6.21437">
        <ele>655.0</ele>
        <time>2012-06-14T11:13:21Z</time>
      </trkpt>
      <trkpt lat="43.24231" lon="-6.214276">
        <ele>654.0</ele>
        <time>2012-06-14T11:13:28Z</time>
      </trkpt>
      <trkpt lat="43.242393" lon="-6.214228">
        <ele>653.0</ele>
        <time>2012-06-14T11:13:31Z</time>
      </trkpt>
      <trkpt lat="43.242471" lon="-6.214174">
        <ele>652.0</ele>
        <time>2012-06-14T11:13:34Z</time>
      </trkpt>
      <trkpt lat="43.242608" lon="-6.214038">
        <ele>651.0</ele>
        <time>2012-06-14T11:13:40Z</time>
      </trkpt>
      <trkpt lat="43.242677" lon="-6.213966">
        <ele>650.0</ele>
        <time>2012-06-14T11:13:43Z</time>
      </trkpt>
      <trkpt lat="43.242753" lon="-6.213896">
        <ele>649.0</ele>
        <time>2012-06-14T11:13:46Z</time>
      </trkpt>
      <trkpt lat="43.242828" lon="-6.213825">
        <ele>648.0</ele>
        <time>2012-06-14T11:13:49Z</time>
      </trkpt>
      <trkpt lat="43.242973" lon="-6.213689">
        <ele>647.0</ele>
        <time>2012-06-14T11:13:55Z</time>
      </trkpt>
      <trkpt lat="43.243153" lon="-6.213469">
        <ele>644.0</ele>
        <time>2012-06-14T11:14:04Z</time>
      </trkpt>
      <trkpt lat="43.243208" lon="-6.213395">
        <ele>644.0</ele>
        <time>2012-06-14T11:14:07Z</time>
      </trkpt>
      <trkpt lat="43.243257" lon="-6.213314">
        <ele>643.0</ele>
        <time>2012-06-14T11:14:10Z</time>
      </trkpt>
      <trkpt lat="43.243304" lon="-6.213224">
        <ele>642.0</ele>
        <time>2012-06-14T11:14:13Z</time>
      </trkpt>
      <trkpt lat="43.243371" lon="-6.213036">
        <ele>642.0</ele>
        <time>2012-06-14T11:14:19Z</time>
      </trkpt>
      <trkpt lat="43.243397" lon="-6.212937">
        <ele>642.0</ele>
        <time>2012-06-14T11:14:22Z</time>
      </trkpt>
      <trkpt lat="43.243417" lon="-6.21271">
        <ele>642.0</ele>
        <time>2012-06-14T11:14:28Z</time>
      </trkpt>
      <trkpt lat="43.243407" lon="-6.212588">
        <ele>643.0</ele>
        <time>2012-06-14T11:14:31Z</time>
      </trkpt>
      <trkpt lat="43.243343" lon="-6.212391">
        <ele>645.0</ele>
        <time>2012-06-14T11:14:36Z</time>
      </trkpt>
      <trkpt lat="43.243255" lon="-6.212238">
        <ele>648.0</ele>
        <time>2012-06-14T11:14:40Z</time>
      </trkpt>
      <trkpt lat="43.243124" lon="-6.21209">
        <ele>653.0</ele>
        <time>2012-06-14T11:14:44Z</time>
      </trkpt>
      <trkpt lat="43.242973" lon="-6.211938">
        <ele>658.0</ele>
        <time>2012-06-14T11:14:48Z</time>
      </trkpt>
      <trkpt lat="43.24286" lon="-6.211794">
        <ele>664.0</ele>
        <time>2012-06-14T11:14:52Z</time>
      </trkpt>
      <trkpt lat="43.242815" lon="-6.211696">
        <ele>667.0</ele>
        <time>2012-06-14T11:14:55Z</time>
      </trkpt>
      <trkpt lat="43.242778" lon="-6.21161">
        <ele>671.0</ele>
        <time>2012-06-14T11:14:58Z</time>
      </trkpt>
      <trkpt lat="43.242749" lon="-6.211506">
        <ele>676.0</ele>
        <time>2012-06-14T11:15:02Z</time>
      </trkpt>
      <trkpt lat="43.242735" lon="-6.211405">
        <ele>680.0</ele>
        <time>2012-06-14T11:15:06Z</time>
      </trkpt>
      <trkpt lat="43.242745" lon="-6.211199">
        <ele>687.0</ele>
        <time>2012-06-14T11:15:14Z</time>
      </trkpt>
      <trkpt lat="43.24275" lon="-6.211107">
        <ele>689.0</ele>
        <time>2012-06-14T11:15:19Z</time>
      </trkpt>
      <trkpt lat="43.242813" lon="-6.211056">
        <ele>691.0</ele>
        <time>2012-06-14T11:15:23Z</time>
      </trkpt>
      <trkpt lat="43.242873" lon="-6.211021">
        <ele>692.0</ele>
        <time>2012-06-14T11:15:26Z</time>
      </trkpt>
      <trkpt lat="43.242957" lon="-6.211044">
        <ele>692.0</ele>
        <time>2012-06-14T11:15:29Z</time>
      </trkpt>
      <trkpt lat="43.243118" lon="-6.211155">
        <ele>693.0</ele>
        <time>2012-06-14T11:15:35Z</time>
      </trkpt>
      <trkpt lat="43.243221" lon="-6.211277">
        <ele>693.0</ele>
        <time>2012-06-14T11:15:39Z</time>
      </trkpt>
      <trkpt lat="43.243316" lon="-6.211415">
        <ele>693.0</ele>
        <time>2012-06-14T11:15:43Z</time>
      </trkpt>
      <trkpt lat="43.243378" lon="-6.211506">
        <ele>692.0</ele>
        <time>2012-06-14T11:15:46Z</time>
      </trkpt>
      <trkpt lat="43.243484" lon="-6.211672">
        <ele>692.0</ele>
        <time>2012-06-14T11:15:52Z</time>
      </trkpt>
      <trkpt lat="43.24353" lon="-6.211769">
        <ele>692.0</ele>
        <time>2012-06-14T11:15:55Z</time>
      </trkpt>
      <trkpt lat="43.243648" lon="-6.212064">
        <ele>692.0</ele>
        <time>2012-06-14T11:16:04Z</time>
      </trkpt>
      <trkpt lat="43.243681" lon="-6.212153">
        <ele>692.0</ele>
        <time>2012-06-14T11:16:07Z</time>
      </trkpt>
      <trkpt lat="43.243711" lon="-6.212265">
        <ele>691.0</ele>
        <time>2012-06-14T11:16:10Z</time>
      </trkpt>
      <trkpt lat="43.243775" lon="-6.212499">
        <ele>691.0</ele>
        <time>2012-06-14T11:16:16Z</time>
      </trkpt>
      <trkpt lat="43.243828" lon="-6.213014">
        <ele>691.0</ele>
        <time>2012-06-14T11:16:24Z</time>
      </trkpt>
      <trkpt lat="43.243834" lon="-6.213272">
        <ele>691.0</ele>
        <time>2012-06-14T11:16:28Z</time>
      </trkpt>
      <trkpt lat="43.24383" lon="-6.213516">
        <ele>691.0</ele>
        <time>2012-06-14T11:16:32Z</time>
      </trkpt>
      <trkpt lat="43.243822" lon="-6.213742">
        <ele>692.0</ele>
        <time>2012-06-14T11:16:36Z</time>
      </trkpt>
      <trkpt lat="43.243816" lon="-6.213951">
        <ele>692.0</ele>
        <time>2012-06-14T11:16:40Z</time>
      </trkpt>
      <trkpt lat="43.243813" lon="-6.21416">
        <ele>692.0</ele>
        <time>2012-06-14T11:16:44Z</time>
      </trkpt>
      <trkpt lat="43.243803" lon="-6.214339">
        <ele>692.0</ele>
        <time>2012-06-14T11:16:48Z</time>
      </trkpt>
      <trkpt lat="43.243756" lon="-6.214524">
        <ele>692.0</ele>
        <time>2012-06-14T11:16:52Z</time>
      </trkpt>
      <trkpt lat="43.243698" lon="-6.214705">
        <ele>692.0</ele>
        <time>2012-06-14T11:16:56Z</time>
      </trkpt>
      <trkpt lat="43.243646" lon="-6.214879">
        <ele>692.0</ele>
        <time>2012-06-14T11:17:00Z</time>
      </trkpt>
      <trkpt lat="43.243631" lon="-6.215051">
        <ele>692.0</ele>
        <time>2012-06-14T11:17:04Z</time>
      </trkpt>
      <trkpt lat="43.243619" lon="-6.215166">
        <ele>693.0</ele>
        <time>2012-06-14T11:17:06Z</time>
      </trkpt>
      <trkpt lat="43.243619" lon="-6.215166">
        <time>2012-06-14T11:17:17Z</time>
      </trkpt>
    </trkseg>
    <trkseg>
      <trkpt lat="43.243619" lon="-6.215166">
        <time>2012-06-14T11:17:18Z</time>
      </trkpt>
      <trkpt lat="43.243591" lon="-6.215069">
        <ele>706.0</ele>
        <time>2012-06-14T11:17:21Z</time>
      </trkpt>
      <trkpt lat="43.243593" lon="-6.214959">
        <ele>710.0</ele>
        <time>2012-06-14T11:17:24Z</time>
      </trkpt>
      <trkpt lat="43.243596" lon="-6.214763">
        <ele>715.0</ele>
        <time>2012-06-14T11:17:29Z</time>
      </trkpt>
      <trkpt lat="43.243581" lon="-6.214641">
        <ele>717.0</ele>
        <time>2012-06-14T11:17:32Z</time>
      </trkpt>
      <trkpt lat="43.243524" lon="-6.21445">
        <ele>718.0</ele>
        <time>2012-06-14T11:17:36Z</time>
      </trkpt>
      <trkpt lat="43.243446" lon="-6.214286">
        <ele>719.0</ele>
        <time>2012-06-14T11:17:40Z</time>
      </trkpt>
      <trkpt lat="43.24339" lon="-6.214194">
        <ele>720.0</ele>
        <time>2012-06-14T11:17:43Z</time>
      </trkpt>
      <trkpt lat="43.24334" lon="-6.214123">
        <ele>720.0</ele>
        <time>2012-06-14T11:17:47Z</time>
      </trkpt>
      <trkpt lat="43.243302" lon="-6.21405">
        <ele>719.0</ele>
        <time>2012-06-14T11:17:54Z</time>
      </trkpt>
      <trkpt lat="43.24336" lon="-6.213998">
        <ele>718.0</ele>
        <time>2012-06-14T11:18:04Z</time>
      </trkpt>
      <trkpt lat="43.243422" lon="-6.213966">
        <ele>717.0</ele>
        <time>2012-06-14T11:18:09Z</time>
      </trkpt>
      <trkpt lat="43.243483" lon="-6.213944">
        <ele>716.0</ele>
        <time>2012-06-14T11:18:13Z</time>
      </trkpt>
      <trkpt lat="43.243548" lon="-6.213912">
        <ele>716.0</ele>
        <time>2012-06-14T11:18:17Z</time>
      </trkpt>
      <trkpt lat="43.243608" lon="-6.213854">
        <ele>715.0</ele>
        <time>2012-06-14T11:18:21Z</time>
      </trkpt>
      <trkpt lat="43.243665" lon="-6.213782">
        <ele>714.0</ele>
        <time>2012-06-14T11:18:25Z</time>
      </trkpt>
      <trkpt lat="43.243714" lon="-6.213706">
        <ele>713.0</ele>
        <time>2012-06-14T11:18:29Z</time>
      </trkpt>
      <trkpt lat="43.24377" lon="-6.213636">
        <ele>713.0</ele>
        <time>2012-06-14T11:18:33Z</time>
      </trkpt>
      <trkpt lat="43.243835" lon="-6.213574">
        <ele>712.0</ele>
        <time>2012-06-14T11:18:37Z</time>
      </trkpt>
      <trkpt lat="43.243888" lon="-6.213526">
        <ele>712.0</ele>
        <time>2012-06-14T11:18:40Z</time>
      </trkpt>
      <trkpt lat="43.243945" lon="-6.213478">
        <ele>711.0</ele>
        <time>2012-06-14T11:18:43Z</time>
      </trkpt>
      <trkpt lat="43.244076" lon="-6.213397">
        <ele>710.0</ele>
        <time>2012-06-14T11:18:49Z</time>
      </trkpt>
      <trkpt lat="43.244142" lon="-6.213358">
        <ele>710.0</ele>
        <time>2012-06-14T11:18:52Z</time>
      </trkpt>
      <trkpt lat="43.244209" lon="-6.213323">
        <ele>709.0</ele>
        <time>2012-06-14T11:18:55Z</time>
      </trkpt>
      <trkpt lat="43.24433" lon="-6.213239">
        <ele>709.0</ele>
        <time>2012-06-14T11:19:01Z</time>
      </trkpt>
      <trkpt lat="43.244391" lon="-6.213175">
        <ele>708.0</ele>
        <time>2012-06-14T11:19:05Z</time>
      </trkpt>
      <trkpt lat="43.244433" lon="-6.213109">
        <ele>708.0</ele>
        <time>2012-06-14T11:19:09Z</time>
      </trkpt>
      <trkpt lat="43.244472" lon="-6.213021">
        <ele>707.0</ele>
        <time>2012-06-14T11:19:14Z</time>
      </trkpt>
      <trkpt lat="43.244507" lon="-6.212932">
        <ele>707.0</ele>
        <time>2012-06-14T11:19:19Z</time>
      </trkpt>
      <trkpt lat="43.244555" lon="-6.212865">
        <ele>707.0</ele>
        <time>2012-06-14T11:19:24Z</time>
      </trkpt>
      <trkpt lat="43.244618" lon="-6.2128">
        <ele>706.0</ele>
        <time>2012-06-14T11:19:29Z</time>
      </trkpt>
      <trkpt lat="43.244676" lon="-6.212745">
        <ele>706.0</ele>
        <time>2012-06-14T11:19:33Z</time>
      </trkpt>
      <trkpt lat="43.24474" lon="-6.212676">
        <ele>706.0</ele>
        <time>2012-06-14T11:19:37Z</time>
      </trkpt>
      <trkpt lat="43.244789" lon="-6.212616">
        <ele>706.0</ele>
        <time>2012-06-14T11:19:40Z</time>
      </trkpt>
      <trkpt lat="43.244849" lon="-6.212538">
        <ele>706.0</ele>
        <time>2012-06-14T11:19:44Z</time>
      </trkpt>
      <trkpt lat="43.244906" lon="-6.212461">
        <ele>706.0</ele>
        <time>2012-06-14T11:19:48Z</time>
      </trkpt>
      <trkpt lat="43.244962" lon="-6.21238">
        <ele>706.0</ele>
        <time>2012-06-14T11:19:52Z</time>
      </trkpt>
      <trkpt lat="43.246131" lon="-6.2102">
        <ele>722.0</ele>
        <time>2012-06-14T11:20:57Z</time>
      </trkpt>
      <trkpt lat="43.245967" lon="-6.209782">
        <ele>723.0</ele>
        <time>2012-06-14T11:21:01Z</time>
      </trkpt>
      <trkpt lat="43.246081" lon="-6.209183">
        <ele>724.0</ele>
        <time>2012-06-14T11:21:05Z</time>
      </trkpt>
      <trkpt lat="43.246253" lon="-6.208673">
        <ele>724.0</ele>
        <time>2012-06-14T11:21:09Z</time>
      </trkpt>
      <trkpt lat="43.24637" lon="-6.208337">
        <ele>724.0</ele>
        <time>2012-06-14T11:21:13Z</time>
      </trkpt>
      <trkpt lat="43.246496" lon="-6.208056">
        <ele>728.0</ele>
        <time>2012-06-14T11:21:17Z</time>
      </trkpt>
      <trkpt lat="43.246608" lon="-6.207786">
        <ele>731.0</ele>
        <time>2012-06-14T11:21:21Z</time>
      </trkpt>
      <trkpt lat="43.246669" lon="-6.207524">
        <ele>734.0</ele>
        <time>2012-06-14T11:21:25Z</time>
      </trkpt>
      <trkpt lat="43.246698" lon="-6.207284">
        <ele>736.0</ele>
        <time>2012-06-14T11:21:29Z</time>
      </trkpt>
      <trkpt lat="43.246717" lon="-6.207049">
        <ele>738.0</ele>
        <time>2012-06-14T11:21:33Z</time>
      </trkpt>
      <trkpt lat="43.24675" lon="-6.206804">
        <ele>742.0</ele>
        <time>2012-06-14T11:21:37Z</time>
      </trkpt>
      <trkpt lat="43.246771" lon="-6.206502">
        <ele>745.0</ele>
        <time>2012-06-14T11:21:41Z</time>
      </trkpt>
      <trkpt lat="43.24673" lon="-6.206145">
        <ele>749.0</ele>
        <time>2012-06-14T11:21:45Z</time>
      </trkpt>
      <trkpt lat="43.246686" lon="-6.205735">
        <ele>754.0</ele>
        <time>2012-06-14T11:21:49Z</time>
      </trkpt>
      <trkpt lat="43.246783" lon="-6.205188">
        <ele>757.0</ele>
        <time>2012-06-14T11:21:53Z</time>
      </trkpt>
      <trkpt lat="43.247022" lon="-6.204749">
        <ele>759.0</ele>
        <time>2012-06-14T11:21:57Z</time>
      </trkpt>
      <trkpt lat="43.247305" lon="-6.20449">
        <ele>759.0</ele>
        <time>2012-06-14T11:22:01Z</time>
      </trkpt>
      <trkpt lat="43.247541" lon="-6.204292">
        <ele>759.0</ele>
        <time>2012-06-14T11:22:05Z</time>
      </trkpt>
      <trkpt lat="43.247827" lon="-6.204157">
        <ele>761.0</ele>
        <time>2012-06-14T11:22:09Z</time>
      </trkpt>
      <trkpt lat="43.248169" lon="-6.204103">
        <ele>763.0</ele>
        <time>2012-06-14T11:22:13Z</time>
      </trkpt>
      <trkpt lat="43.248508" lon="-6.204044">
        <ele>766.0</ele>
        <time>2012-06-14T11:22:17Z</time>
      </trkpt>
      <trkpt lat="43.248882" lon="-6.203964">
        <ele>768.0</ele>
        <time>2012-06-14T11:22:21Z</time>
      </trkpt>
      <trkpt lat="43.249265" lon="-6.203733">
        <ele>768.0</ele>
        <time>2012-06-14T11:22:25Z</time>
      </trkpt>
      <trkpt lat="43.249629" lon="-6.203527">
        <ele>767.0</ele>
        <time>2012-06-14T11:22:29Z</time>
      </trkpt>
      <trkpt lat="43.24993" lon="-6.203414">
        <ele>768.0</ele>
        <time>2012-06-14T11:22:33Z</time>
      </trkpt>
      <trkpt lat="43.250109" lon="-6.203388">
        <ele>770.0</ele>
        <time>2012-06-14T11:22:36Z</time>
      </trkpt>
      <trkpt lat="43.250319" lon="-6.203368">
        <ele>771.0</ele>
        <time>2012-06-14T11:22:40Z</time>
      </trkpt>
      <trkpt lat="43.250514" lon="-6.203325">
        <ele>771.0</ele>
        <time>2012-06-14T11:22:44Z</time>
      </trkpt>
      <trkpt lat="43.250603" lon="-6.203282">
        <ele>771.0</ele>
        <time>2012-06-14T11:22:46Z</time>
      </trkpt>
      <trkpt lat="43.250836" lon="-6.203085">
        <ele>773.0</ele>
        <time>2012-06-14T11:22:52Z</time>
      </trkpt>
      <trkpt lat="43.250966" lon="-6.202904">
        <ele>775.0</ele>
        <time>2012-06-14T11:22:56Z</time>
      </trkpt>
      <trkpt lat="43.251079" lon="-6.202709">
        <ele>776.0</ele>
        <time>2012-06-14T11:23:00Z</time>
      </trkpt>
      <trkpt lat="43.251182" lon="-6.202501">
        <ele>777.0</ele>
        <time>2012-06-14T11:23:04Z</time>
      </trkpt>
      <trkpt lat="43.25129" lon="-6.202295">
        <ele>779.0</ele>
        <time>2012-06-14T11:23:08Z</time>
      </trkpt>
      <trkpt lat="43.251433" lon="-6.202085">
        <ele>780.0</ele>
        <time>2012-06-14T11:23:12Z</time>
      </trkpt>
      <trkpt lat="43.251623" lon="-6.201897">
        <ele>781.0</ele>
        <time>2012-06-14T11:23:16Z</time>
      </trkpt>
      <trkpt lat="43.251912" lon="-6.201724">
        <ele>780.0</ele>
        <time>2012-06-14T11:23:21Z</time>
      </trkpt>
      <trkpt lat="43.252152" lon="-6.201567">
        <ele>780.0</ele>
        <time>2012-06-14T11:23:25Z</time>
      </trkpt>
      <trkpt lat="43.252325" lon="-6.201438">
        <ele>781.0</ele>
        <time>2012-06-14T11:23:28Z</time>
      </trkpt>
      <trkpt lat="43.252723" lon="-6.201347">
        <ele>782.0</ele>
        <time>2012-06-14T11:23:33Z</time>
      </trkpt>
      <trkpt lat="43.253085" lon="-6.201085">
        <ele>782.0</ele>
        <time>2012-06-14T11:23:37Z</time>
      </trkpt>
      <trkpt lat="43.253501" lon="-6.20079">
        <ele>781.0</ele>
        <time>2012-06-14T11:23:41Z</time>
      </trkpt>
      <trkpt lat="43.25397" lon="-6.200767">
        <ele>782.0</ele>
        <time>2012-06-14T11:23:45Z</time>
      </trkpt>
      <trkpt lat="43.254394" lon="-6.201024">
        <ele>783.0</ele>
        <time>2012-06-14T11:23:49Z</time>
      </trkpt>
      <trkpt lat="43.254774" lon="-6.201143">
        <ele>783.0</ele>
        <time>2012-06-14T11:23:53Z</time>
      </trkpt>
      <trkpt lat="43.255077" lon="-6.200993">
        <ele>783.0</ele>
        <time>2012-06-14T11:23:57Z</time>
      </trkpt>
      <trkpt lat="43.255334" lon="-6.200803">
        <ele>783.0</ele>
        <time>2012-06-14T11:24:01Z</time>
      </trkpt>
      <trkpt lat="43.255609" lon="-6.200761">
        <ele>783.0</ele>
        <time>2012-06-14T11:24:05Z</time>
      </trkpt>
      <trkpt lat="43.255789" lon="-6.200882">
        <ele>783.0</ele>
        <time>2012-06-14T11:24:08Z</time>
      </trkpt>
      <trkpt lat="43.255973" lon="-6.201054">
        <ele>783.0</ele>
        <time>2012-06-14T11:24:12Z</time>
      </trkpt>
      <trkpt lat="43.256135" lon="-6.201225">
        <ele>783.0</ele>
        <time>2012-06-14T11:24:16Z</time>
      </trkpt>
      <trkpt lat="43.256304" lon="-6.201402">
        <ele>783.0</ele>
        <time>2012-06-14T11:24:20Z</time>
      </trkpt>
      <trkpt lat="43.256487" lon="-6.201577">
        <ele>783.0</ele>
        <time>2012-06-14T11:24:24Z</time>
      </trkpt>
      <trkpt lat="43.25668" lon="-6.201763">
        <ele>783.0</ele>
        <time>2012-06-14T11:24:28Z</time>
      </trkpt>
      <trkpt lat="43.256877" lon="-6.201951">
        <ele>783.0</ele>
        <time>2012-06-14T11:24:32Z</time>
      </trkpt>
      <trkpt lat="43.257077" lon="-6.202142">
        <ele>784.0</ele>
        <time>2012-06-14T11:24:36Z</time>
      </trkpt>
      <trkpt lat="43.257265" lon="-6.202312">
        <ele>784.0</ele>
        <time>2012-06-14T11:24:40Z</time>
      </trkpt>
      <trkpt lat="43.257445" lon="-6.202444">
        <ele>784.0</ele>
        <time>2012-06-14T11:24:44Z</time>
      </trkpt>
      <trkpt lat="43.257602" lon="-6.202515">
        <ele>784.0</ele>
        <time>2012-06-14T11:24:48Z</time>
      </trkpt>
      <trkpt lat="43.25775" lon="-6.202524">
        <ele>784.0</ele>
        <time>2012-06-14T11:24:52Z</time>
      </trkpt>
      <trkpt lat="43.257899" lon="-6.202473">
        <ele>785.0</ele>
        <time>2012-06-14T11:24:56Z</time>
      </trkpt>
      <trkpt lat="43.25805" lon="-6.202392">
        <ele>786.0</ele>
        <time>2012-06-14T11:25:00Z</time>
      </trkpt>
      <trkpt lat="43.258161" lon="-6.202063">
        <ele>789.0</ele>
        <time>2012-06-14T11:25:05Z</time>
      </trkpt>
      <trkpt lat="43.258178" lon="-6.201672">
        <ele>794.0</ele>
        <time>2012-06-14T11:25:09Z</time>
      </trkpt>
      <trkpt lat="43.258404" lon="-6.20124">
        <ele>796.0</ele>
        <time>2012-06-14T11:25:13Z</time>
      </trkpt>
      <trkpt lat="43.258813" lon="-6.200801">
        <ele>797.0</ele>
        <time>2012-06-14T11:25:17Z</time>
      </trkpt>
      <trkpt lat="43.259202" lon="-6.200482">
        <ele>798.0</ele>
        <time>2012-06-14T11:25:21Z</time>
      </trkpt>
      <trkpt lat="43.259662" lon="-6.200232">
        <ele>800.0</ele>
        <time>2012-06-14T11:25:25Z</time>
      </trkpt>
      <trkpt lat="43.25996" lon="-6.199966">
        <ele>800.0</ele>
        <time>2012-06-14T11:25:28Z</time>
      </trkpt>
      <trkpt lat="43.260153" lon="-6.199346">
        <ele>801.0</ele>
        <time>2012-06-14T11:25:33Z</time>
      </trkpt>
      <trkpt lat="43.260168" lon="-6.198722">
        <ele>802.0</ele>
        <time>2012-06-14T11:25:37Z</time>
      </trkpt>
      <trkpt lat="43.260295" lon="-6.198224">
        <ele>803.0</ele>
        <time>2012-06-14T11:25:40Z</time>
      </trkpt>
      <trkpt lat="43.260608" lon="-6.197574">
        <ele>803.0</ele>
        <time>2012-06-14T11:25:45Z</time>
      </trkpt>
      <trkpt lat="43.260901" lon="-6.197244">
        <ele>803.0</ele>
        <time>2012-06-14T11:25:49Z</time>
      </trkpt>
      <trkpt lat="43.261175" lon="-6.196946">
        <ele>804.0</ele>
        <time>2012-06-14T11:25:53Z</time>
      </trkpt>
      <trkpt lat="43.261396" lon="-6.196705">
        <ele>807.0</ele>
        <time>2012-06-14T11:25:57Z</time>
      </trkpt>
      <trkpt lat="43.261594" lon="-6.196486">
        <ele>810.0</ele>
        <time>2012-06-14T11:26:01Z</time>
      </trkpt>
      <trkpt lat="43.261798" lon="-6.196251">
        <ele>814.0</ele>
        <time>2012-06-14T11:26:05Z</time>
      </trkpt>
      <trkpt lat="43.262211" lon="-6.196046">
        <ele>819.0</ele>
        <time>2012-06-14T11:26:09Z</time>
      </trkpt>
      <trkpt lat="43.262533" lon="-6.195784">
        <ele>824.0</ele>
        <time>2012-06-14T11:26:13Z</time>
      </trkpt>
      <trkpt lat="43.262673" lon="-6.195478">
        <ele>826.0</ele>
        <time>2012-06-14T11:26:17Z</time>
      </trkpt>
      <trkpt lat="43.262764" lon="-6.195344">
        <ele>827.0</ele>
        <time>2012-06-14T11:26:19Z</time>
      </trkpt>
      <trkpt lat="43.262886" lon="-6.195161">
        <ele>828.0</ele>
        <time>2012-06-14T11:26:22Z</time>
      </trkpt>
      <trkpt lat="43.263089" lon="-6.194867">
        <ele>832.0</ele>
        <time>2012-06-14T11:26:28Z</time>
      </trkpt>
      <trkpt lat="43.263175" lon="-6.194691">
        <ele>833.0</ele>
        <time>2012-06-14T11:26:32Z</time>
      </trkpt>
      <trkpt lat="43.2632" lon="-6.194473">
        <ele>835.0</ele>
        <time>2012-06-14T11:26:36Z</time>
      </trkpt>
      <trkpt lat="43.263215" lon="-6.194262">
        <ele>842.0</ele>
        <time>2012-06-14T11:26:40Z</time>
      </trkpt>
      <trkpt lat="43.263371" lon="-6.194102">
        <ele>845.0</ele>
        <time>2012-06-14T11:26:44Z</time>
      </trkpt>
      <trkpt lat="43.263602" lon="-6.194036">
        <ele>847.0</ele>
        <time>2012-06-14T11:26:48Z</time>
      </trkpt>
      <trkpt lat="43.263801" lon="-6.19397">
        <ele>846.0</ele>
        <time>2012-06-14T11:26:52Z</time>
      </trkpt>
      <trkpt lat="43.264007" lon="-6.193911">
        <ele>846.0</ele>
        <time>2012-06-14T11:26:56Z</time>
      </trkpt>
      <trkpt lat="43.264315" lon="-6.193865">
        <ele>848.0</ele>
        <time>2012-06-14T11:27:01Z</time>
      </trkpt>
      <trkpt lat="43.26442" lon="-6.193828">
        <ele>850.0</ele>
        <time>2012-06-14T11:27:05Z</time>
      </trkpt>
      <trkpt lat="43.264497" lon="-6.193832">
        <ele>850.0</ele>
        <time>2012-06-14T11:27:08Z</time>
      </trkpt>
      <trkpt lat="43.264576" lon="-6.193811">
        <ele>853.0</ele>
        <time>2012-06-14T11:27:10Z</time>
      </trkpt>
      <trkpt lat="43.264827" lon="-6.193669">
        <ele>859.0</ele>
        <time>2012-06-14T11:27:16Z</time>
      </trkpt>
      <trkpt lat="43.264997" lon="-6.193585">
        <ele>860.0</ele>
        <time>2012-06-14T11:27:20Z</time>
      </trkpt>
      <trkpt lat="43.265199" lon="-6.193451">
        <ele>862.0</ele>
        <time>2012-06-14T11:27:24Z</time>
      </trkpt>
      <trkpt lat="43.265398" lon="-6.193306">
        <ele>864.0</ele>
        <time>2012-06-14T11:27:28Z</time>
      </trkpt>
      <trkpt lat="43.265683" lon="-6.193121">
        <ele>866.0</ele>
        <time>2012-06-14T11:27:33Z</time>
      </trkpt>
      <trkpt lat="43.265924" lon="-6.192945">
        <ele>868.0</ele>
        <time>2012-06-14T11:27:37Z</time>
      </trkpt>
      <trkpt lat="43.266151" lon="-6.192725">
        <ele>869.0</ele>
        <time>2012-06-14T11:27:41Z</time>
      </trkpt>
      <trkpt lat="43.266354" lon="-6.192539">
        <ele>870.0</ele>
        <time>2012-06-14T11:27:45Z</time>
      </trkpt>
      <trkpt lat="43.266563" lon="-6.192389">
        <ele>871.0</ele>
        <time>2012-06-14T11:27:49Z</time>
      </trkpt>
      <trkpt lat="43.266769" lon="-6.192286">
        <ele>873.0</ele>
        <time>2012-06-14T11:27:53Z</time>
      </trkpt>
      <trkpt lat="43.266964" lon="-6.19225">
        <ele>874.0</ele>
        <time>2012-06-14T11:27:57Z</time>
      </trkpt>
      <trkpt lat="43.267165" lon="-6.192266">
        <ele>874.0</ele>
        <time>2012-06-14T11:28:01Z</time>
      </trkpt>
      <trkpt lat="43.267354" lon="-6.192326">
        <ele>874.0</ele>
        <time>2012-06-14T11:28:05Z</time>
      </trkpt>
      <trkpt lat="43.267688" lon="-6.192544">
        <ele>876.0</ele>
        <time>2012-06-14T11:28:13Z</time>
      </trkpt>
      <trkpt lat="43.267861" lon="-6.192635">
        <ele>878.0</ele>
        <time>2012-06-14T11:28:17Z</time>
      </trkpt>
      <trkpt lat="43.268089" lon="-6.192624">
        <ele>882.0</ele>
        <time>2012-06-14T11:28:21Z</time>
      </trkpt>
      <trkpt lat="43.268312" lon="-6.192525">
        <ele>884.0</ele>
        <time>2012-06-14T11:28:25Z</time>
      </trkpt>
      <trkpt lat="43.2685" lon="-6.1924">
        <ele>885.0</ele>
        <time>2012-06-14T11:28:29Z</time>
      </trkpt>
      <trkpt lat="43.268673" lon="-6.19229">
        <ele>887.0</ele>
        <time>2012-06-14T11:28:33Z</time>
      </trkpt>
      <trkpt lat="43.268884" lon="-6.192278">
        <ele>887.0</ele>
        <time>2012-06-14T11:28:37Z</time>
      </trkpt>
      <trkpt lat="43.269172" lon="-6.192309">
        <ele>888.0</ele>
        <time>2012-06-14T11:28:41Z</time>
      </trkpt>
      <trkpt lat="43.2695" lon="-6.192297">
        <ele>889.0</ele>
        <time>2012-06-14T11:28:45Z</time>
      </trkpt>
      <trkpt lat="43.269841" lon="-6.192269">
        <ele>888.0</ele>
        <time>2012-06-14T11:28:49Z</time>
      </trkpt>
      <trkpt lat="43.270163" lon="-6.192242">
        <ele>888.0</ele>
        <time>2012-06-14T11:28:53Z</time>
      </trkpt>
      <trkpt lat="43.270443" lon="-6.192385">
        <ele>888.0</ele>
        <time>2012-06-14T11:28:57Z</time>
      </trkpt>
      <trkpt lat="43.27068" lon="-6.192594">
        <ele>888.0</ele>
        <time>2012-06-14T11:29:01Z</time>
      </trkpt>
      <trkpt lat="43.270931" lon="-6.192702">
        <ele>888.0</ele>
        <time>2012-06-14T11:29:05Z</time>
      </trkpt>
      <trkpt lat="43.27122" lon="-6.192789">
        <ele>888.0</ele>
        <time>2012-06-14T11:29:09Z</time>
      </trkpt>
      <trkpt lat="43.271576" lon="-6.192743">
        <ele>887.0</ele>
        <time>2012-06-14T11:29:13Z</time>
      </trkpt>
      <trkpt lat="43.271992" lon="-6.192618">
        <ele>886.0</ele>
        <time>2012-06-14T11:29:17Z</time>
      </trkpt>
      <trkpt lat="43.272427" lon="-6.192626">
        <ele>884.0</ele>
        <time>2012-06-14T11:29:21Z</time>
      </trkpt>
      <trkpt lat="43.272818" lon="-6.192715">
        <ele>884.0</ele>
        <time>2012-06-14T11:29:25Z</time>
      </trkpt>
      <trkpt lat="43.27316" lon="-6.192793">
        <ele>883.0</ele>
        <time>2012-06-14T11:29:29Z</time>
      </trkpt>
      <trkpt lat="43.273463" lon="-6.192838">
        <ele>882.0</ele>
        <time>2012-06-14T11:29:33Z</time>
      </trkpt>
      <trkpt lat="43.273745" lon="-6.192898">
        <ele>882.0</ele>
        <time>2012-06-14T11:29:37Z</time>
      </trkpt>
      <trkpt lat="43.274008" lon="-6.192969">
        <ele>881.0</ele>
        <time>2012-06-14T11:29:41Z</time>
      </trkpt>
      <trkpt lat="43.274194" lon="-6.192982">
        <ele>881.0</ele>
        <time>2012-06-14T11:29:44Z</time>
      </trkpt>
      <trkpt lat="43.274427" lon="-6.192955">
        <ele>881.0</ele>
        <time>2012-06-14T11:29:48Z</time>
      </trkpt>
      <trkpt lat="43.274741" lon="-6.192934">
        <ele>880.0</ele>
        <time>2012-06-14T11:29:53Z</time>
      </trkpt>
      <trkpt lat="43.275037" lon="-6.192916">
        <ele>880.0</ele>
        <time>2012-06-14T11:29:57Z</time>
      </trkpt>
      <trkpt lat="43.275352" lon="-6.192863">
        <ele>879.0</ele>
        <time>2012-06-14T11:30:01Z</time>
      </trkpt>
      <trkpt lat="43.275667" lon="-6.192783">
        <ele>878.0</ele>
        <time>2012-06-14T11:30:05Z</time>
      </trkpt>
      <trkpt lat="43.275995" lon="-6.192758">
        <ele>878.0</ele>
        <time>2012-06-14T11:30:09Z</time>
      </trkpt>
      <trkpt lat="43.276306" lon="-6.192847">
        <ele>878.0</ele>
        <time>2012-06-14T11:30:13Z</time>
      </trkpt>
      <trkpt lat="43.276589" lon="-6.192918">
        <ele>878.0</ele>
        <time>2012-06-14T11:30:17Z</time>
      </trkpt>
      <trkpt lat="43.27684" lon="-6.192917">
        <ele>877.0</ele>
        <time>2012-06-14T11:30:21Z</time>
      </trkpt>
      <trkpt lat="43.27703" lon="-6.192917">
        <ele>877.0</ele>
        <time>2012-06-14T11:30:25Z</time>
      </trkpt>
      <trkpt lat="43.277205" lon="-6.19292">
        <ele>876.0</ele>
        <time>2012-06-14T11:30:29Z</time>
      </trkpt>
      <trkpt lat="43.27737" lon="-6.193007">
        <ele>876.0</ele>
        <time>2012-06-14T11:30:33Z</time>
      </trkpt>
      <trkpt lat="43.277561" lon="-6.193175">
        <ele>877.0</ele>
        <time>2012-06-14T11:30:37Z</time>
      </trkpt>
      <trkpt lat="43.277758" lon="-6.193421">
        <ele>878.0</ele>
        <time>2012-06-14T11:30:41Z</time>
      </trkpt>
      <trkpt lat="43.277906" lon="-6.193764">
        <ele>879.0</ele>
        <time>2012-06-14T11:30:45Z</time>
      </trkpt>
      <trkpt lat="43.277957" lon="-6.194202">
        <ele>878.0</ele>
        <time>2012-06-14T11:30:49Z</time>
      </trkpt>
      <trkpt lat="43.278093" lon="-6.194601">
        <ele>878.0</ele>
        <time>2012-06-14T11:30:53Z</time>
      </trkpt>
      <trkpt lat="43.278364" lon="-6.194818">
        <ele>879.0</ele>
        <time>2012-06-14T11:30:57Z</time>
      </trkpt>
      <trkpt lat="43.278669" lon="-6.194733">
        <ele>879.0</ele>
        <time>2012-06-14T11:31:01Z</time>
      </trkpt>
      <trkpt lat="43.278961" lon="-6.194518">
        <ele>879.0</ele>
        <time>2012-06-14T11:31:05Z</time>
      </trkpt>
      <trkpt lat="43.279209" lon="-6.194189">
        <ele>878.0</ele>
        <time>2012-06-14T11:31:09Z</time>
      </trkpt>
      <trkpt lat="43.279485" lon="-6.193928">
        <ele>877.0</ele>
        <time>2012-06-14T11:31:13Z</time>
      </trkpt>
      <trkpt lat="43.279845" lon="-6.193839">
        <ele>875.0</ele>
        <time>2012-06-14T11:31:17Z</time>
      </trkpt>
      <trkpt lat="43.280208" lon="-6.193751">
        <ele>873.0</ele>
        <time>2012-06-14T11:31:21Z</time>
      </trkpt>
      <trkpt lat="43.280418" lon="-6.193515">
        <ele>872.0</ele>
        <time>2012-06-14T11:31:24Z</time>
      </trkpt>
      <trkpt lat="43.280649" lon="-6.192997">
        <ele>870.0</ele>
        <time>2012-06-14T11:31:29Z</time>
      </trkpt>
      <trkpt lat="43.280705" lon="-6.192512">
        <ele>869.0</ele>
        <time>2012-06-14T11:31:33Z</time>
      </trkpt>
      <trkpt lat="43.280787" lon="-6.192051">
        <ele>867.0</ele>
        <time>2012-06-14T11:31:37Z</time>
      </trkpt>
      <trkpt lat="43.280936" lon="-6.191626">
        <ele>866.0</ele>
        <time>2012-06-14T11:31:41Z</time>
      </trkpt>
      <trkpt lat="43.281083" lon="-6.191157">
        <ele>865.0</ele>
        <time>2012-06-14T11:31:45Z</time>
      </trkpt>
      <trkpt lat="43.281077" lon="-6.190609">
        <ele>863.0</ele>
        <time>2012-06-14T11:31:49Z</time>
      </trkpt>
      <trkpt lat="43.281023" lon="-6.190137">
        <ele>861.0</ele>
        <time>2012-06-14T11:31:53Z</time>
      </trkpt>
      <trkpt lat="43.28121" lon="-6.189912">
        <ele>860.0</ele>
        <time>2012-06-14T11:31:57Z</time>
      </trkpt>
      <trkpt lat="43.281355" lon="-6.189662">
        <ele>860.0</ele>
        <time>2012-06-14T11:32:01Z</time>
      </trkpt>
      <trkpt lat="43.281453" lon="-6.18937">
        <ele>860.0</ele>
        <time>2012-06-14T11:32:05Z</time>
      </trkpt>
      <trkpt lat="43.281635" lon="-6.189319">
        <ele>860.0</ele>
        <time>2012-06-14T11:32:09Z</time>
      </trkpt>
      <trkpt lat="43.281843" lon="-6.189377">
        <ele>861.0</ele>
        <time>2012-06-14T11:32:13Z</time>
      </trkpt>
      <trkpt lat="43.282079" lon="-6.189433">
        <ele>862.0</ele>
        <time>2012-06-14T11:32:17Z</time>
      </trkpt>
      <trkpt lat="43.28235" lon="-6.189558">
        <ele>863.0</ele>
        <time>2012-06-14T11:32:21Z</time>
      </trkpt>
      <trkpt lat="43.282671" lon="-6.189666">
        <ele>862.0</ele>
        <time>2012-06-14T11:32:25Z</time>
      </trkpt>
      <trkpt lat="43.282871" lon="-6.190009">
        <ele>862.0</ele>
        <time>2012-06-14T11:32:29Z</time>
      </trkpt>
      <trkpt lat="43.283164" lon="-6.190344">
        <ele>861.0</ele>
        <time>2012-06-14T11:32:33Z</time>
      </trkpt>
      <trkpt lat="43.28348" lon="-6.190613">
        <ele>861.0</ele>
        <time>2012-06-14T11:32:37Z</time>
      </trkpt>
      <trkpt lat="43.283795" lon="-6.190913">
        <ele>861.0</ele>
        <time>2012-06-14T11:32:41Z</time>
      </trkpt>
      <trkpt lat="43.284145" lon="-6.191288">
        <ele>860.0</ele>
        <time>2012-06-14T11:32:45Z</time>
      </trkpt>
      <trkpt lat="43.284465" lon="-6.191748">
        <ele>857.0</ele>
        <time>2012-06-14T11:32:49Z</time>
      </trkpt>
      <trkpt lat="43.284778" lon="-6.192238">
        <ele>854.0</ele>
        <time>2012-06-14T11:32:53Z</time>
      </trkpt>
      <trkpt lat="43.285123" lon="-6.19244">
        <ele>851.0</ele>
        <time>2012-06-14T11:32:57Z</time>
      </trkpt>
      <trkpt lat="43.285482" lon="-6.192459">
        <ele>848.0</ele>
        <time>2012-06-14T11:33:01Z</time>
      </trkpt>
      <trkpt lat="43.285776" lon="-6.192746">
        <ele>846.0</ele>
        <time>2012-06-14T11:33:05Z</time>
      </trkpt>
      <trkpt lat="43.286154" lon="-6.193003">
        <ele>843.0</ele>
        <time>2012-06-14T11:33:09Z</time>
      </trkpt>
      <trkpt lat="43.286628" lon="-6.193094">
        <ele>840.0</ele>
        <time>2012-06-14T11:33:13Z</time>
      </trkpt>
      <trkpt lat="43.287119" lon="-6.193145">
        <ele>835.0</ele>
        <time>2012-06-14T11:33:17Z</time>
      </trkpt>
      <trkpt lat="43.287584" lon="-6.193253">
        <ele>828.0</ele>
        <time>2012-06-14T11:33:21Z</time>
      </trkpt>
      <trkpt lat="43.288029" lon="-6.193345">
        <ele>821.0</ele>
        <time>2012-06-14T11:33:25Z</time>
      </trkpt>
      <trkpt lat="43.288487" lon="-6.193468">
        <ele>814.0</ele>
        <time>2012-06-14T11:33:29Z</time>
      </trkpt>
      <trkpt lat="43.289013" lon="-6.193554">
        <ele>807.0</ele>
        <time>2012-06-14T11:33:33Z</time>
      </trkpt>
      <trkpt lat="43.28953" lon="-6.193523">
        <ele>802.0</ele>
        <time>2012-06-14T11:33:37Z</time>
      </trkpt>
      <trkpt lat="43.290032" lon="-6.193574">
        <ele>796.0</ele>
        <time>2012-06-14T11:33:41Z</time>
      </trkpt>
      <trkpt lat="43.290562" lon="-6.193662">
        <ele>791.0</ele>
        <time>2012-06-14T11:33:45Z</time>
      </trkpt>
      <trkpt lat="43.291107" lon="-6.193811">
        <ele>784.0</ele>
        <time>2012-06-14T11:33:49Z</time>
      </trkpt>
      <trkpt lat="43.291569" lon="-6.194007">
        <ele>778.0</ele>
        <time>2012-06-14T11:33:53Z</time>
      </trkpt>
      <trkpt lat="43.291992" lon="-6.194434">
        <ele>771.0</ele>
        <time>2012-06-14T11:33:57Z</time>
      </trkpt>
      <trkpt lat="43.292371" lon="-6.194751">
        <ele>767.0</ele>
        <time>2012-06-14T11:34:00Z</time>
      </trkpt>
      <trkpt lat="43.292758" lon="-6.195012">
        <ele>765.0</ele>
        <time>2012-06-14T11:34:03Z</time>
      </trkpt>
      <trkpt lat="43.293308" lon="-6.195746">
        <ele>759.0</ele>
        <time>2012-06-14T11:34:09Z</time>
      </trkpt>
      <trkpt lat="43.293635" lon="-6.196294">
        <ele>751.0</ele>
        <time>2012-06-14T11:34:13Z</time>
      </trkpt>
      <trkpt lat="43.294042" lon="-6.196727">
        <ele>745.0</ele>
        <time>2012-06-14T11:34:17Z</time>
      </trkpt>
      <trkpt lat="43.294469" lon="-6.197027">
        <ele>739.0</ele>
        <time>2012-06-14T11:34:21Z</time>
      </trkpt>
      <trkpt lat="43.294927" lon="-6.197188">
        <ele>735.0</ele>
        <time>2012-06-14T11:34:25Z</time>
      </trkpt>
      <trkpt lat="43.295433" lon="-6.197215">
        <ele>732.0</ele>
        <time>2012-06-14T11:34:29Z</time>
      </trkpt>
      <trkpt lat="43.295933" lon="-6.197153">
        <ele>728.0</ele>
        <time>2012-06-14T11:34:33Z</time>
      </trkpt>
      <trkpt lat="43.296377" lon="-6.196978">
        <ele>723.0</ele>
        <time>2012-06-14T11:34:37Z</time>
      </trkpt>
      <trkpt lat="43.296761" lon="-6.196758">
        <ele>720.0</ele>
        <time>2012-06-14T11:34:41Z</time>
      </trkpt>
      <trkpt lat="43.297061" lon="-6.19657">
        <ele>719.0</ele>
        <time>2012-06-14T11:34:45Z</time>
      </trkpt>
      <trkpt lat="43.297266" lon="-6.196591">
        <ele>717.0</ele>
        <time>2012-06-14T11:34:49Z</time>
      </trkpt>
      <trkpt lat="43.297422" lon="-6.196687">
        <ele>715.0</ele>
        <time>2012-06-14T11:34:53Z</time>
      </trkpt>
      <trkpt lat="43.297552" lon="-6.196858">
        <ele>713.0</ele>
        <time>2012-06-14T11:34:57Z</time>
      </trkpt>
      <trkpt lat="43.297688" lon="-6.197036">
        <ele>711.0</ele>
        <time>2012-06-14T11:35:01Z</time>
      </trkpt>
      <trkpt lat="43.297827" lon="-6.197254">
        <ele>710.0</ele>
        <time>2012-06-14T11:35:05Z</time>
      </trkpt>
      <trkpt lat="43.297956" lon="-6.197488">
        <ele>709.0</ele>
        <time>2012-06-14T11:35:09Z</time>
      </trkpt>
      <trkpt lat="43.298061" lon="-6.197689">
        <ele>709.0</ele>
        <time>2012-06-14T11:35:13Z</time>
      </trkpt>
      <trkpt lat="43.298181" lon="-6.197893">
        <ele>708.0</ele>
        <time>2012-06-14T11:35:17Z</time>
      </trkpt>
      <trkpt lat="43.29834" lon="-6.198078">
        <ele>707.0</ele>
        <time>2012-06-14T11:35:21Z</time>
      </trkpt>
      <trkpt lat="43.298558" lon="-6.198203">
        <ele>706.0</ele>
        <time>2012-06-14T11:35:25Z</time>
      </trkpt>
      <trkpt lat="43.298832" lon="-6.198307">
        <ele>706.0</ele>
        <time>2012-06-14T11:35:29Z</time>
      </trkpt>
      <trkpt lat="43.299075" lon="-6.198567">
        <ele>705.0</ele>
        <time>2012-06-14T11:35:33Z</time>
      </trkpt>
      <trkpt lat="43.299273" lon="-6.198878">
        <ele>705.0</ele>
        <time>2012-06-14T11:35:37Z</time>
      </trkpt>
      <trkpt lat="43.299467" lon="-6.199176">
        <ele>705.0</ele>
        <time>2012-06-14T11:35:41Z</time>
      </trkpt>
      <trkpt lat="43.299666" lon="-6.199428">
        <ele>705.0</ele>
        <time>2012-06-14T11:35:45Z</time>
      </trkpt>
      <trkpt lat="43.299903" lon="-6.19961">
        <ele>706.0</ele>
        <time>2012-06-14T11:35:49Z</time>
      </trkpt>
      <trkpt lat="43.300175" lon="-6.199706">
        <ele>707.0</ele>
        <time>2012-06-14T11:35:53Z</time>
      </trkpt>
      <trkpt lat="43.300468" lon="-6.199762">
        <ele>707.0</ele>
        <time>2012-06-14T11:35:57Z</time>
      </trkpt>
      <trkpt lat="43.300776" lon="-6.199778">
        <ele>707.0</ele>
        <time>2012-06-14T11:36:01Z</time>
      </trkpt>
      <trkpt lat="43.301083" lon="-6.199767">
        <ele>707.0</ele>
        <time>2012-06-14T11:36:05Z</time>
      </trkpt>
      <trkpt lat="43.301394" lon="-6.199662">
        <ele>706.0</ele>
        <time>2012-06-14T11:36:09Z</time>
      </trkpt>
      <trkpt lat="43.301667" lon="-6.19948">
        <ele>706.0</ele>
        <time>2012-06-14T11:36:13Z</time>
      </trkpt>
      <trkpt lat="43.301942" lon="-6.199273">
        <ele>707.0</ele>
        <time>2012-06-14T11:36:17Z</time>
      </trkpt>
      <trkpt lat="43.302281" lon="-6.199242">
        <ele>707.0</ele>
        <time>2012-06-14T11:36:21Z</time>
      </trkpt>
      <trkpt lat="43.302601" lon="-6.199364">
        <ele>706.0</ele>
        <time>2012-06-14T11:36:25Z</time>
      </trkpt>
      <trkpt lat="43.302917" lon="-6.199459">
        <ele>705.0</ele>
        <time>2012-06-14T11:36:29Z</time>
      </trkpt>
      <trkpt lat="43.303232" lon="-6.199376">
        <ele>703.0</ele>
        <time>2012-06-14T11:36:33Z</time>
      </trkpt>
      <trkpt lat="43.303466" lon="-6.199224">
        <ele>702.0</ele>
        <time>2012-06-14T11:36:37Z</time>
      </trkpt>
      <trkpt lat="43.303638" lon="-6.199226">
        <ele>701.0</ele>
        <time>2012-06-14T11:36:41Z</time>
      </trkpt>
      <trkpt lat="43.303711" lon="-6.199268">
        <ele>701.0</ele>
        <time>2012-06-14T11:36:43Z</time>
      </trkpt>
      <trkpt lat="43.303837" lon="-6.199037">
        <ele>700.0</ele>
        <time>2012-06-14T11:36:49Z</time>
      </trkpt>
      <trkpt lat="43.304007" lon="-6.198657">
        <ele>700.0</ele>
        <time>2012-06-14T11:36:53Z</time>
      </trkpt>
      <trkpt lat="43.304169" lon="-6.198483">
        <ele>699.0</ele>
        <time>2012-06-14T11:36:55Z</time>
      </trkpt>
      <trkpt lat="43.304518" lon="-6.197805">
        <ele>698.0</ele>
        <time>2012-06-14T11:37:00Z</time>
      </trkpt>
      <trkpt lat="43.304853" lon="-6.197121">
        <ele>696.0</ele>
        <time>2012-06-14T11:37:05Z</time>
      </trkpt>
      <trkpt lat="43.305192" lon="-6.19668">
        <ele>695.0</ele>
        <time>2012-06-14T11:37:09Z</time>
      </trkpt>
      <trkpt lat="43.305541" lon="-6.196257">
        <ele>692.0</ele>
        <time>2012-06-14T11:37:13Z</time>
      </trkpt>
      <trkpt lat="43.305796" lon="-6.195624">
        <ele>686.0</ele>
        <time>2012-06-14T11:37:17Z</time>
      </trkpt>
      <trkpt lat="43.306049" lon="-6.194925">
        <ele>682.0</ele>
        <time>2012-06-14T11:37:21Z</time>
      </trkpt>
      <trkpt lat="43.306305" lon="-6.194246">
        <ele>679.0</ele>
        <time>2012-06-14T11:37:25Z</time>
      </trkpt>
      <trkpt lat="43.30651" lon="-6.193556">
        <ele>677.0</ele>
        <time>2012-06-14T11:37:29Z</time>
      </trkpt>
      <trkpt lat="43.306742" lon="-6.192951">
        <ele>675.0</ele>
        <time>2012-06-14T11:37:33Z</time>
      </trkpt>
      <trkpt lat="43.307046" lon="-6.192153">
        <ele>666.0</ele>
        <time>2012-06-14T11:37:37Z</time>
      </trkpt>
      <trkpt lat="43.307347" lon="-6.191368">
        <ele>654.0</ele>
        <time>2012-06-14T11:37:41Z</time>
      </trkpt>
      <trkpt lat="43.307562" lon="-6.190601">
        <ele>641.0</ele>
        <time>2012-06-14T11:37:45Z</time>
      </trkpt>
      <trkpt lat="43.307791" lon="-6.189913">
        <ele>630.0</ele>
        <time>2012-06-14T11:37:49Z</time>
      </trkpt>
      <trkpt lat="43.308104" lon="-6.189318">
        <ele>624.0</ele>
        <time>2012-06-14T11:37:53Z</time>
      </trkpt>
      <trkpt lat="43.308421" lon="-6.18873">
        <ele>620.0</ele>
        <time>2012-06-14T11:37:57Z</time>
      </trkpt>
      <trkpt lat="43.308564" lon="-6.188019">
        <ele>616.0</ele>
        <time>2012-06-14T11:38:01Z</time>
      </trkpt>
      <trkpt lat="43.308569" lon="-6.187386">
        <ele>614.0</ele>
        <time>2012-06-14T11:38:05Z</time>
      </trkpt>
      <trkpt lat="43.308518" lon="-6.186796">
        <ele>613.0</ele>
        <time>2012-06-14T11:38:09Z</time>
      </trkpt>
      <trkpt lat="43.308335" lon="-6.186285">
        <ele>612.0</ele>
        <time>2012-06-14T11:38:13Z</time>
      </trkpt>
      <trkpt lat="43.308029" lon="-6.186043">
        <ele>611.0</ele>
        <time>2012-06-14T11:38:17Z</time>
      </trkpt>
      <trkpt lat="43.307731" lon="-6.185808">
        <ele>611.0</ele>
        <time>2012-06-14T11:38:21Z</time>
      </trkpt>
      <trkpt lat="43.307443" lon="-6.185545">
        <ele>607.0</ele>
        <time>2012-06-14T11:38:25Z</time>
      </trkpt>
      <trkpt lat="43.30725" lon="-6.185044">
        <ele>602.0</ele>
        <time>2012-06-14T11:38:29Z</time>
      </trkpt>
      <trkpt lat="43.307288" lon="-6.184283">
        <ele>600.0</ele>
        <time>2012-06-14T11:38:33Z</time>
      </trkpt>
      <trkpt lat="43.307434" lon="-6.183545">
        <ele>600.0</ele>
        <time>2012-06-14T11:38:37Z</time>
      </trkpt>
      <trkpt lat="43.307501" lon="-6.183125">
        <ele>600.0</ele>
        <time>2012-06-14T11:38:40Z</time>
      </trkpt>
      <trkpt lat="43.307354" lon="-6.18284">
        <ele>600.0</ele>
        <time>2012-06-14T11:38:45Z</time>
      </trkpt>
      <trkpt lat="43.307067" lon="-6.183028">
        <ele>600.0</ele>
        <time>2012-06-14T11:38:49Z</time>
      </trkpt>
      <trkpt lat="43.306668" lon="-6.18322">
        <ele>600.0</ele>
        <time>2012-06-14T11:38:53Z</time>
      </trkpt>
      <trkpt lat="43.306488" lon="-6.18327">
        <ele>600.0</ele>
        <time>2012-06-14T11:38:55Z</time>
      </trkpt>
      <trkpt lat="43.305749" lon="-6.183943">
        <ele>591.0</ele>
        <time>2012-06-14T11:39:01Z</time>
      </trkpt>
      <trkpt lat="43.305195" lon="-6.184177">
        <ele>584.0</ele>
        <time>2012-06-14T11:39:05Z</time>
      </trkpt>
      <trkpt lat="43.304746" lon="-6.184224">
        <ele>579.0</ele>
        <time>2012-06-14T11:39:09Z</time>
      </trkpt>
      <trkpt lat="43.304354" lon="-6.184383">
        <ele>576.0</ele>
        <time>2012-06-14T11:39:13Z</time>
      </trkpt>
      <trkpt lat="43.30397" lon="-6.184527">
        <ele>570.0</ele>
        <time>2012-06-14T11:39:17Z</time>
      </trkpt>
      <trkpt lat="43.303597" lon="-6.184686">
        <ele>563.0</ele>
        <time>2012-06-14T11:39:21Z</time>
      </trkpt>
      <trkpt lat="43.303296" lon="-6.184549">
        <ele>561.0</ele>
        <time>2012-06-14T11:39:25Z</time>
      </trkpt>
      <trkpt lat="43.303176" lon="-6.183963">
        <ele>559.0</ele>
        <time>2012-06-14T11:39:30Z</time>
      </trkpt>
      <trkpt lat="43.303245" lon="-6.183574">
        <ele>559.0</ele>
        <time>2012-06-14T11:39:33Z</time>
      </trkpt>
      <trkpt lat="43.303315" lon="-6.18331">
        <ele>559.0</ele>
        <time>2012-06-14T11:39:35Z</time>
      </trkpt>
      <trkpt lat="43.303495" lon="-6.182729">
        <ele>555.0</ele>
        <time>2012-06-14T11:39:41Z</time>
      </trkpt>
      <trkpt lat="43.303345" lon="-6.18266">
        <ele>552.0</ele>
        <time>2012-06-14T11:39:46Z</time>
      </trkpt>
      <trkpt lat="43.303243" lon="-6.182682">
        <ele>549.0</ele>
        <time>2012-06-14T11:39:48Z</time>
      </trkpt>
      <trkpt lat="43.303134" lon="-6.182733">
        <ele>547.0</ele>
        <time>2012-06-14T11:39:50Z</time>
      </trkpt>
      <trkpt lat="43.30295" lon="-6.182882">
        <ele>545.0</ele>
        <time>2012-06-14T11:39:53Z</time>
      </trkpt>
      <trkpt lat="43.30269" lon="-6.182967">
        <ele>543.0</ele>
        <time>2012-06-14T11:39:56Z</time>
      </trkpt>
      <trkpt lat="43.302384" lon="-6.183023">
        <ele>542.0</ele>
        <time>2012-06-14T11:39:59Z</time>
      </trkpt>
      <trkpt lat="43.30188" lon="-6.183218">
        <ele>540.0</ele>
        <time>2012-06-14T11:40:04Z</time>
      </trkpt>
      <trkpt lat="43.301557" lon="-6.183633">
        <ele>538.0</ele>
        <time>2012-06-14T11:40:08Z</time>
      </trkpt>
      <trkpt lat="43.301265" lon="-6.183973">
        <ele>536.0</ele>
        <time>2012-06-14T11:40:12Z</time>
      </trkpt>
      <trkpt lat="43.301171" lon="-6.183993">
        <ele>536.0</ele>
        <time>2012-06-14T11:40:14Z</time>
      </trkpt>
      <trkpt lat="43.301246" lon="-6.183644">
        <ele>536.0</ele>
        <time>2012-06-14T11:40:20Z</time>
      </trkpt>
      <trkpt lat="43.301384" lon="-6.183256">
        <ele>534.0</ele>
        <time>2012-06-14T11:40:24Z</time>
      </trkpt>
      <trkpt lat="43.30148" lon="-6.18259">
        <ele>531.0</ele>
        <time>2012-06-14T11:40:29Z</time>
      </trkpt>
      <trkpt lat="43.301512" lon="-6.181974">
        <ele>529.0</ele>
        <time>2012-06-14T11:40:33Z</time>
      </trkpt>
      <trkpt lat="43.301657" lon="-6.181383">
        <ele>528.0</ele>
        <time>2012-06-14T11:40:37Z</time>
      </trkpt>
      <trkpt lat="43.301911" lon="-6.180878">
        <ele>526.0</ele>
        <time>2012-06-14T11:40:41Z</time>
      </trkpt>
      <trkpt lat="43.302202" lon="-6.180441">
        <ele>526.0</ele>
        <time>2012-06-14T11:40:45Z</time>
      </trkpt>
      <trkpt lat="43.302489" lon="-6.180197">
        <ele>522.0</ele>
        <time>2012-06-14T11:40:49Z</time>
      </trkpt>
      <trkpt lat="43.302555" lon="-6.179772">
        <ele>517.0</ele>
        <time>2012-06-14T11:40:53Z</time>
      </trkpt>
      <trkpt lat="43.302766" lon="-6.179335">
        <ele>513.0</ele>
        <time>2012-06-14T11:40:57Z</time>
      </trkpt>
      <trkpt lat="43.303097" lon="-6.17897">
        <ele>507.0</ele>
        <time>2012-06-14T11:41:01Z</time>
      </trkpt>
      <trkpt lat="43.303362" lon="-6.178897">
        <ele>501.0</ele>
        <time>2012-06-14T11:41:04Z</time>
      </trkpt>
      <trkpt lat="43.303839" lon="-6.178695">
        <ele>492.0</ele>
        <time>2012-06-14T11:41:09Z</time>
      </trkpt>
      <trkpt lat="43.304051" lon="-6.178391">
        <ele>489.0</ele>
        <time>2012-06-14T11:41:12Z</time>
      </trkpt>
      <trkpt lat="43.304511" lon="-6.178103">
        <ele>486.0</ele>
        <time>2012-06-14T11:41:17Z</time>
      </trkpt>
      <trkpt lat="43.304914" lon="-6.177873">
        <ele>483.0</ele>
        <time>2012-06-14T11:41:21Z</time>
      </trkpt>
      <trkpt lat="43.305369" lon="-6.177716">
        <ele>480.0</ele>
        <time>2012-06-14T11:41:25Z</time>
      </trkpt>
      <trkpt lat="43.305707" lon="-6.177411">
        <ele>476.0</ele>
        <time>2012-06-14T11:41:29Z</time>
      </trkpt>
      <trkpt lat="43.305899" lon="-6.176947">
        <ele>473.0</ele>
        <time>2012-06-14T11:41:33Z</time>
      </trkpt>
      <trkpt lat="43.30607" lon="-6.176439">
        <ele>470.0</ele>
        <time>2012-06-14T11:41:37Z</time>
      </trkpt>
      <trkpt lat="43.3063" lon="-6.176227">
        <ele>468.0</ele>
        <time>2012-06-14T11:41:40Z</time>
      </trkpt>
      <trkpt lat="43.30657" lon="-6.176301">
        <ele>467.0</ele>
        <time>2012-06-14T11:41:43Z</time>
      </trkpt>
      <trkpt lat="43.307146" lon="-6.176373">
        <ele>463.0</ele>
        <time>2012-06-14T11:41:49Z</time>
      </trkpt>
      <trkpt lat="43.307536" lon="-6.176493">
        <ele>462.0</ele>
        <time>2012-06-14T11:41:53Z</time>
      </trkpt>
      <trkpt lat="43.307832" lon="-6.176366">
        <ele>461.0</ele>
        <time>2012-06-14T11:41:57Z</time>
      </trkpt>
      <trkpt lat="43.308066" lon="-6.176036">
        <ele>460.0</ele>
        <time>2012-06-14T11:42:01Z</time>
      </trkpt>
      <trkpt lat="43.308405" lon="-6.175923">
        <ele>460.0</ele>
        <time>2012-06-14T11:42:05Z</time>
      </trkpt>
      <trkpt lat="43.308725" lon="-6.175722">
        <ele>461.0</ele>
        <time>2012-06-14T11:42:09Z</time>
      </trkpt>
      <trkpt lat="43.309049" lon="-6.175534">
        <ele>461.0</ele>
        <time>2012-06-14T11:42:13Z</time>
      </trkpt>
      <trkpt lat="43.309311" lon="-6.175452">
        <ele>461.0</ele>
        <time>2012-06-14T11:42:16Z</time>
      </trkpt>
      <trkpt lat="43.309675" lon="-6.175506">
        <ele>461.0</ele>
        <time>2012-06-14T11:42:20Z</time>
      </trkpt>
      <trkpt lat="43.310068" lon="-6.175833">
        <ele>461.0</ele>
        <time>2012-06-14T11:42:25Z</time>
      </trkpt>
      <trkpt lat="43.310171" lon="-6.176296">
        <ele>461.0</ele>
        <time>2012-06-14T11:42:29Z</time>
      </trkpt>
      <trkpt lat="43.310142" lon="-6.176695">
        <ele>459.0</ele>
        <time>2012-06-14T11:42:33Z</time>
      </trkpt>
      <trkpt lat="43.31019" lon="-6.177037">
        <ele>455.0</ele>
        <time>2012-06-14T11:42:37Z</time>
      </trkpt>
      <trkpt lat="43.310447" lon="-6.176994">
        <ele>454.0</ele>
        <time>2012-06-14T11:42:41Z</time>
      </trkpt>
      <trkpt lat="43.310618" lon="-6.176807">
        <ele>454.0</ele>
        <time>2012-06-14T11:42:44Z</time>
      </trkpt>
      <trkpt lat="43.310892" lon="-6.176401">
        <ele>454.0</ele>
        <time>2012-06-14T11:42:49Z</time>
      </trkpt>
      <trkpt lat="43.311203" lon="-6.176252">
        <ele>455.0</ele>
        <time>2012-06-14T11:42:53Z</time>
      </trkpt>
      <trkpt lat="43.311543" lon="-6.176175">
        <ele>455.0</ele>
        <time>2012-06-14T11:42:57Z</time>
      </trkpt>
      <trkpt lat="43.311812" lon="-6.176203">
        <ele>455.0</ele>
        <time>2012-06-14T11:43:00Z</time>
      </trkpt>
      <trkpt lat="43.312161" lon="-6.176584">
        <ele>456.0</ele>
        <time>2012-06-14T11:43:05Z</time>
      </trkpt>
      <trkpt lat="43.312391" lon="-6.176669">
        <ele>456.0</ele>
        <time>2012-06-14T11:43:08Z</time>
      </trkpt>
      <trkpt lat="43.312657" lon="-6.176452">
        <ele>457.0</ele>
        <time>2012-06-14T11:43:12Z</time>
      </trkpt>
      <trkpt lat="43.312855" lon="-6.175872">
        <ele>457.0</ele>
        <time>2012-06-14T11:43:17Z</time>
      </trkpt>
      <trkpt lat="43.312904" lon="-6.175399">
        <ele>457.0</ele>
        <time>2012-06-14T11:43:21Z</time>
      </trkpt>
      <trkpt lat="43.312941" lon="-6.175099">
        <ele>457.0</ele>
        <time>2012-06-14T11:43:24Z</time>
      </trkpt>
      <trkpt lat="43.313179" lon="-6.175004">
        <ele>457.0</ele>
        <time>2012-06-14T11:43:29Z</time>
      </trkpt>
      <trkpt lat="43.313307" lon="-6.174953">
        <ele>458.0</ele>
        <time>2012-06-14T11:43:31Z</time>
      </trkpt>
      <trkpt lat="43.313397" lon="-6.174375">
        <ele>458.0</ele>
        <time>2012-06-14T11:43:37Z</time>
      </trkpt>
      <trkpt lat="43.313471" lon="-6.173967">
        <ele>458.0</ele>
        <time>2012-06-14T11:43:41Z</time>
      </trkpt>
      <trkpt lat="43.313604" lon="-6.173582">
        <ele>457.0</ele>
        <time>2012-06-14T11:43:45Z</time>
      </trkpt>
      <trkpt lat="43.313838" lon="-6.17325">
        <ele>457.0</ele>
        <time>2012-06-14T11:43:49Z</time>
      </trkpt>
      <trkpt lat="43.314092" lon="-6.172951">
        <ele>457.0</ele>
        <time>2012-06-14T11:43:53Z</time>
      </trkpt>
      <trkpt lat="43.314484" lon="-6.172977">
        <ele>458.0</ele>
        <time>2012-06-14T11:43:57Z</time>
      </trkpt>
      <trkpt lat="43.314658" lon="-6.173208">
        <ele>458.0</ele>
        <time>2012-06-14T11:44:00Z</time>
      </trkpt>
      <trkpt lat="43.314905" lon="-6.172988">
        <ele>458.0</ele>
        <time>2012-06-14T11:44:05Z</time>
      </trkpt>
      <trkpt lat="43.315052" lon="-6.172588">
        <ele>458.0</ele>
        <time>2012-06-14T11:44:09Z</time>
      </trkpt>
      <trkpt lat="43.315299" lon="-6.172265">
        <ele>458.0</ele>
        <time>2012-06-14T11:44:13Z</time>
      </trkpt>
      <trkpt lat="43.315529" lon="-6.17212">
        <ele>459.0</ele>
        <time>2012-06-14T11:44:16Z</time>
      </trkpt>
      <trkpt lat="43.315986" lon="-6.172282">
        <ele>458.0</ele>
        <time>2012-06-14T11:44:21Z</time>
      </trkpt>
      <trkpt lat="43.316175" lon="-6.172274">
        <ele>458.0</ele>
        <time>2012-06-14T11:44:23Z</time>
      </trkpt>
      <trkpt lat="43.316684" lon="-6.171955">
        <ele>457.0</ele>
        <time>2012-06-14T11:44:29Z</time>
      </trkpt>
      <trkpt lat="43.316914" lon="-6.171759">
        <ele>456.0</ele>
        <time>2012-06-14T11:44:32Z</time>
      </trkpt>
      <trkpt lat="43.317212" lon="-6.171484">
        <ele>455.0</ele>
        <time>2012-06-14T11:44:36Z</time>
      </trkpt>
      <trkpt lat="43.317632" lon="-6.171263">
        <ele>452.0</ele>
        <time>2012-06-14T11:44:41Z</time>
      </trkpt>
      <trkpt lat="43.317968" lon="-6.171117">
        <ele>449.0</ele>
        <time>2012-06-14T11:44:45Z</time>
      </trkpt>
      <trkpt lat="43.318322" lon="-6.171097">
        <ele>447.0</ele>
        <time>2012-06-14T11:44:49Z</time>
      </trkpt>
      <trkpt lat="43.31867" lon="-6.170973">
        <ele>445.0</ele>
        <time>2012-06-14T11:44:53Z</time>
      </trkpt>
      <trkpt lat="43.318863" lon="-6.170653">
        <ele>443.0</ele>
        <time>2012-06-14T11:44:57Z</time>
      </trkpt>
      <trkpt lat="43.318787" lon="-6.170233">
        <ele>430.0</ele>
        <time>2012-06-14T11:45:01Z</time>
      </trkpt>
      <trkpt lat="43.318791" lon="-6.169657">
        <ele>412.0</ele>
        <time>2012-06-14T11:45:05Z</time>
      </trkpt>
      <trkpt lat="43.318995" lon="-6.169354">
        <ele>401.0</ele>
        <time>2012-06-14T11:45:09Z</time>
      </trkpt>
      <trkpt lat="43.319228" lon="-6.169202">
        <ele>395.0</ele>
        <time>2012-06-14T11:45:13Z</time>
      </trkpt>
      <trkpt lat="43.319469" lon="-6.169324">
        <ele>391.0</ele>
        <time>2012-06-14T11:45:17Z</time>
      </trkpt>
      <trkpt lat="43.319591" lon="-6.169402">
        <ele>389.0</ele>
        <time>2012-06-14T11:45:19Z</time>
      </trkpt>
      <trkpt lat="43.319958" lon="-6.169475">
        <ele>386.0</ele>
        <time>2012-06-14T11:45:25Z</time>
      </trkpt>
      <trkpt lat="43.320143" lon="-6.169415">
        <ele>386.0</ele>
        <time>2012-06-14T11:45:28Z</time>
      </trkpt>
      <trkpt lat="43.320411" lon="-6.169199">
        <ele>388.0</ele>
        <time>2012-06-14T11:45:33Z</time>
      </trkpt>
      <trkpt lat="43.320527" lon="-6.168802">
        <ele>389.0</ele>
        <time>2012-06-14T11:45:37Z</time>
      </trkpt>
      <trkpt lat="43.32063" lon="-6.168344">
        <ele>390.0</ele>
        <time>2012-06-14T11:45:41Z</time>
      </trkpt>
      <trkpt lat="43.320785" lon="-6.16791">
        <ele>390.0</ele>
        <time>2012-06-14T11:45:45Z</time>
      </trkpt>
      <trkpt lat="43.321024" lon="-6.167541">
        <ele>389.0</ele>
        <time>2012-06-14T11:45:49Z</time>
      </trkpt>
      <trkpt lat="43.321282" lon="-6.167187">
        <ele>389.0</ele>
        <time>2012-06-14T11:45:53Z</time>
      </trkpt>
      <trkpt lat="43.321553" lon="-6.166824">
        <ele>389.0</ele>
        <time>2012-06-14T11:45:57Z</time>
      </trkpt>
      <trkpt lat="43.321786" lon="-6.166393">
        <ele>389.0</ele>
        <time>2012-06-14T11:46:01Z</time>
      </trkpt>
      <trkpt lat="43.321948" lon="-6.165893">
        <ele>388.0</ele>
        <time>2012-06-14T11:46:05Z</time>
      </trkpt>
      <trkpt lat="43.321964" lon="-6.16547">
        <ele>388.0</ele>
        <time>2012-06-14T11:46:08Z</time>
      </trkpt>
      <trkpt lat="43.32194" lon="-6.164965">
        <ele>388.0</ele>
        <time>2012-06-14T11:46:12Z</time>
      </trkpt>
      <trkpt lat="43.321849" lon="-6.16434">
        <ele>389.0</ele>
        <time>2012-06-14T11:46:17Z</time>
      </trkpt>
      <trkpt lat="43.321753" lon="-6.164124">
        <ele>389.0</ele>
        <time>2012-06-14T11:46:19Z</time>
      </trkpt>
      <trkpt lat="43.321391" lon="-6.163517">
        <ele>390.0</ele>
        <time>2012-06-14T11:46:25Z</time>
      </trkpt>
      <trkpt lat="43.321229" lon="-6.163204">
        <ele>390.0</ele>
        <time>2012-06-14T11:46:28Z</time>
      </trkpt>
      <trkpt lat="43.321113" lon="-6.162587">
        <ele>389.0</ele>
        <time>2012-06-14T11:46:33Z</time>
      </trkpt>
      <trkpt lat="43.321273" lon="-6.162077">
        <ele>388.0</ele>
        <time>2012-06-14T11:46:37Z</time>
      </trkpt>
      <trkpt lat="43.321527" lon="-6.161609">
        <ele>388.0</ele>
        <time>2012-06-14T11:46:41Z</time>
      </trkpt>
      <trkpt lat="43.321474" lon="-6.161059">
        <ele>388.0</ele>
        <time>2012-06-14T11:46:45Z</time>
      </trkpt>
      <trkpt lat="43.32135" lon="-6.160547">
        <ele>387.0</ele>
        <time>2012-06-14T11:46:49Z</time>
      </trkpt>
      <trkpt lat="43.321296" lon="-6.160054">
        <ele>384.0</ele>
        <time>2012-06-14T11:46:53Z</time>
      </trkpt>
      <trkpt lat="43.321454" lon="-6.159647">
        <ele>381.0</ele>
        <time>2012-06-14T11:46:57Z</time>
      </trkpt>
      <trkpt lat="43.321752" lon="-6.159419">
        <ele>378.0</ele>
        <time>2012-06-14T11:47:01Z</time>
      </trkpt>
      <trkpt lat="43.322004" lon="-6.159399">
        <ele>376.0</ele>
        <time>2012-06-14T11:47:04Z</time>
      </trkpt>
      <trkpt lat="43.322409" lon="-6.159402">
        <ele>374.0</ele>
        <time>2012-06-14T11:47:09Z</time>
      </trkpt>
      <trkpt lat="43.322617" lon="-6.159222">
        <ele>374.0</ele>
        <time>2012-06-14T11:47:12Z</time>
      </trkpt>
      <trkpt lat="43.322942" lon="-6.158783">
        <ele>375.0</ele>
        <time>2012-06-14T11:47:17Z</time>
      </trkpt>
      <trkpt lat="43.323259" lon="-6.158566">
        <ele>374.0</ele>
        <time>2012-06-14T11:47:21Z</time>
      </trkpt>
      <trkpt lat="43.323559" lon="-6.158357">
        <ele>374.0</ele>
        <time>2012-06-14T11:47:25Z</time>
      </trkpt>
      <trkpt lat="43.323861" lon="-6.158122">
        <ele>373.0</ele>
        <time>2012-06-14T11:47:29Z</time>
      </trkpt>
      <trkpt lat="43.32419" lon="-6.158044">
        <ele>371.0</ele>
        <time>2012-06-14T11:47:33Z</time>
      </trkpt>
      <trkpt lat="43.324537" lon="-6.158015">
        <ele>369.0</ele>
        <time>2012-06-14T11:47:37Z</time>
      </trkpt>
      <trkpt lat="43.324837" lon="-6.157806">
        <ele>369.0</ele>
        <time>2012-06-14T11:47:41Z</time>
      </trkpt>
      <trkpt lat="43.325129" lon="-6.157584">
        <ele>368.0</ele>
        <time>2012-06-14T11:47:45Z</time>
      </trkpt>
      <trkpt lat="43.325492" lon="-6.157498">
        <ele>365.0</ele>
        <time>2012-06-14T11:47:49Z</time>
      </trkpt>
      <trkpt lat="43.325907" lon="-6.157568">
        <ele>360.0</ele>
        <time>2012-06-14T11:47:53Z</time>
      </trkpt>
      <trkpt lat="43.326212" lon="-6.157877">
        <ele>357.0</ele>
        <time>2012-06-14T11:47:57Z</time>
      </trkpt>
      <trkpt lat="43.326381" lon="-6.158285">
        <ele>355.0</ele>
        <time>2012-06-14T11:48:01Z</time>
      </trkpt>
      <trkpt lat="43.326647" lon="-6.158517">
        <ele>354.0</ele>
        <time>2012-06-14T11:48:05Z</time>
      </trkpt>
      <trkpt lat="43.326922" lon="-6.158516">
        <ele>354.0</ele>
        <time>2012-06-14T11:48:09Z</time>
      </trkpt>
      <trkpt lat="43.327157" lon="-6.158157">
        <ele>355.0</ele>
        <time>2012-06-14T11:48:13Z</time>
      </trkpt>
      <trkpt lat="43.327374" lon="-6.157735">
        <ele>356.0</ele>
        <time>2012-06-14T11:48:17Z</time>
      </trkpt>
      <trkpt lat="43.327602" lon="-6.157357">
        <ele>358.0</ele>
        <time>2012-06-14T11:48:21Z</time>
      </trkpt>
      <trkpt lat="43.327839" lon="-6.15698">
        <ele>359.0</ele>
        <time>2012-06-14T11:48:25Z</time>
      </trkpt>
      <trkpt lat="43.328019" lon="-6.156566">
        <ele>359.0</ele>
        <time>2012-06-14T11:48:29Z</time>
      </trkpt>
      <trkpt lat="43.327988" lon="-6.156162">
        <ele>356.0</ele>
        <time>2012-06-14T11:48:33Z</time>
      </trkpt>
      <trkpt lat="43.327918" lon="-6.156046">
        <ele>355.0</ele>
        <time>2012-06-14T11:48:35Z</time>
      </trkpt>
      <trkpt lat="43.327565" lon="-6.15568">
        <ele>354.0</ele>
        <time>2012-06-14T11:48:41Z</time>
      </trkpt>
      <trkpt lat="43.32737" lon="-6.155419">
        <ele>356.0</ele>
        <time>2012-06-14T11:48:45Z</time>
      </trkpt>
      <trkpt lat="43.327442" lon="-6.154964">
        <ele>359.0</ele>
        <time>2012-06-14T11:48:49Z</time>
      </trkpt>
      <trkpt lat="43.327636" lon="-6.154628">
        <ele>358.0</ele>
        <time>2012-06-14T11:48:53Z</time>
      </trkpt>
      <trkpt lat="43.327787" lon="-6.154441">
        <ele>357.0</ele>
        <time>2012-06-14T11:48:56Z</time>
      </trkpt>
      <trkpt lat="43.328302" lon="-6.154315">
        <ele>351.0</ele>
        <time>2012-06-14T11:49:01Z</time>
      </trkpt>
      <trkpt lat="43.328771" lon="-6.154292">
        <ele>345.0</ele>
        <time>2012-06-14T11:49:05Z</time>
      </trkpt>
      <trkpt lat="43.329212" lon="-6.154451">
        <ele>340.0</ele>
        <time>2012-06-14T11:49:09Z</time>
      </trkpt>
      <trkpt lat="43.329408" lon="-6.154884">
        <ele>335.0</ele>
        <time>2012-06-14T11:49:13Z</time>
      </trkpt>
      <trkpt lat="43.329465" lon="-6.155393">
        <ele>331.0</ele>
        <time>2012-06-14T11:49:17Z</time>
      </trkpt>
      <trkpt lat="43.329511" lon="-6.155763">
        <ele>327.0</ele>
        <time>2012-06-14T11:49:20Z</time>
      </trkpt>
      <trkpt lat="43.329767" lon="-6.155998">
        <ele>323.0</ele>
        <time>2012-06-14T11:49:24Z</time>
      </trkpt>
      <trkpt lat="43.330018" lon="-6.155608">
        <ele>319.0</ele>
        <time>2012-06-14T11:49:29Z</time>
      </trkpt>
      <trkpt lat="43.330148" lon="-6.155136">
        <ele>317.0</ele>
        <time>2012-06-14T11:49:33Z</time>
      </trkpt>
      <trkpt lat="43.330255" lon="-6.154634">
        <ele>315.0</ele>
        <time>2012-06-14T11:49:37Z</time>
      </trkpt>
      <trkpt lat="43.330306" lon="-6.154123">
        <ele>314.0</ele>
        <time>2012-06-14T11:49:41Z</time>
      </trkpt>
      <trkpt lat="43.330361" lon="-6.153634">
        <ele>313.0</ele>
        <time>2012-06-14T11:49:45Z</time>
      </trkpt>
      <trkpt lat="43.330725" lon="-6.153619">
        <ele>313.0</ele>
        <time>2012-06-14T11:49:49Z</time>
      </trkpt>
      <trkpt lat="43.330985" lon="-6.153872">
        <ele>313.0</ele>
        <time>2012-06-14T11:49:52Z</time>
      </trkpt>
      <trkpt lat="43.331366" lon="-6.153686">
        <ele>312.0</ele>
        <time>2012-06-14T11:49:57Z</time>
      </trkpt>
      <trkpt lat="43.331512" lon="-6.153227">
        <ele>313.0</ele>
        <time>2012-06-14T11:50:01Z</time>
      </trkpt>
      <trkpt lat="43.331537" lon="-6.1527">
        <ele>313.0</ele>
        <time>2012-06-14T11:50:05Z</time>
      </trkpt>
      <trkpt lat="43.331522" lon="-6.152238">
        <ele>313.0</ele>
        <time>2012-06-14T11:50:09Z</time>
      </trkpt>
      <trkpt lat="43.331577" lon="-6.152186">
        <ele>313.0</ele>
        <time>2012-06-14T11:50:10Z</time>
      </trkpt>
      <trkpt lat="43.332016" lon="-6.152259">
        <ele>311.0</ele>
        <time>2012-06-14T11:50:17Z</time>
      </trkpt>
      <trkpt lat="43.332154" lon="-6.152273">
        <ele>308.0</ele>
        <time>2012-06-14T11:50:19Z</time>
      </trkpt>
      <trkpt lat="43.332587" lon="-6.152426">
        <ele>302.0</ele>
        <time>2012-06-14T11:50:25Z</time>
      </trkpt>
      <trkpt lat="43.332827" lon="-6.152366">
        <ele>301.0</ele>
        <time>2012-06-14T11:50:28Z</time>
      </trkpt>
      <trkpt lat="43.33307" lon="-6.151914">
        <ele>301.0</ele>
        <time>2012-06-14T11:50:33Z</time>
      </trkpt>
      <trkpt lat="43.333208" lon="-6.151528">
        <ele>301.0</ele>
        <time>2012-06-14T11:50:37Z</time>
      </trkpt>
      <trkpt lat="43.333409" lon="-6.151104">
        <ele>301.0</ele>
        <time>2012-06-14T11:50:41Z</time>
      </trkpt>
      <trkpt lat="43.333707" lon="-6.150815">
        <ele>301.0</ele>
        <time>2012-06-14T11:50:45Z</time>
      </trkpt>
      <trkpt lat="43.333961" lon="-6.150552">
        <ele>300.0</ele>
        <time>2012-06-14T11:50:49Z</time>
      </trkpt>
      <trkpt lat="43.33412" lon="-6.150186">
        <ele>301.0</ele>
        <time>2012-06-14T11:50:53Z</time>
      </trkpt>
      <trkpt lat="43.334241" lon="-6.149772">
        <ele>301.0</ele>
        <time>2012-06-14T11:50:57Z</time>
      </trkpt>
      <trkpt lat="43.334335" lon="-6.149327">
        <ele>302.0</ele>
        <time>2012-06-14T11:51:01Z</time>
      </trkpt>
      <trkpt lat="43.334427" lon="-6.148885">
        <ele>303.0</ele>
        <time>2012-06-14T11:51:05Z</time>
      </trkpt>
      <trkpt lat="43.334604" lon="-6.148473">
        <ele>303.0</ele>
        <time>2012-06-14T11:51:09Z</time>
      </trkpt>
      <trkpt lat="43.334799" lon="-6.14807">
        <ele>303.0</ele>
        <time>2012-06-14T11:51:13Z</time>
      </trkpt>
      <trkpt lat="43.334975" lon="-6.147636">
        <ele>301.0</ele>
        <time>2012-06-14T11:51:17Z</time>
      </trkpt>
      <trkpt lat="43.335102" lon="-6.147167">
        <ele>300.0</ele>
        <time>2012-06-14T11:51:21Z</time>
      </trkpt>
      <trkpt lat="43.335083" lon="-6.146669">
        <ele>298.0</ele>
        <time>2012-06-14T11:51:25Z</time>
      </trkpt>
      <trkpt lat="43.33504" lon="-6.146434">
        <ele>297.0</ele>
        <time>2012-06-14T11:51:27Z</time>
      </trkpt>
      <trkpt lat="43.335237" lon="-6.14577">
        <ele>294.0</ele>
        <time>2012-06-14T11:51:33Z</time>
      </trkpt>
      <trkpt lat="43.335368" lon="-6.145329">
        <ele>293.0</ele>
        <time>2012-06-14T11:51:37Z</time>
      </trkpt>
      <trkpt lat="43.335542" lon="-6.144912">
        <ele>292.0</ele>
        <time>2012-06-14T11:51:41Z</time>
      </trkpt>
      <trkpt lat="43.335654" lon="-6.144598">
        <ele>291.0</ele>
        <time>2012-06-14T11:51:44Z</time>
      </trkpt>
      <trkpt lat="43.335755" lon="-6.144039">
        <ele>290.0</ele>
        <time>2012-06-14T11:51:49Z</time>
      </trkpt>
      <trkpt lat="43.335783" lon="-6.143813">
        <ele>290.0</ele>
        <time>2012-06-14T11:51:51Z</time>
      </trkpt>
      <trkpt lat="43.335843" lon="-6.14314">
        <ele>289.0</ele>
        <time>2012-06-14T11:51:57Z</time>
      </trkpt>
      <trkpt lat="43.33585" lon="-6.142912">
        <ele>289.0</ele>
        <time>2012-06-14T11:51:59Z</time>
      </trkpt>
      <trkpt lat="43.335947" lon="-6.142271">
        <ele>289.0</ele>
        <time>2012-06-14T11:52:05Z</time>
      </trkpt>
      <trkpt lat="43.336078" lon="-6.141885">
        <ele>291.0</ele>
        <time>2012-06-14T11:52:09Z</time>
      </trkpt>
      <trkpt lat="43.336225" lon="-6.141517">
        <ele>290.0</ele>
        <time>2012-06-14T11:52:13Z</time>
      </trkpt>
      <trkpt lat="43.336374" lon="-6.141155">
        <ele>290.0</ele>
        <time>2012-06-14T11:52:17Z</time>
      </trkpt>
      <trkpt lat="43.336507" lon="-6.140774">
        <ele>290.0</ele>
        <time>2012-06-14T11:52:21Z</time>
      </trkpt>
      <trkpt lat="43.336552" lon="-6.140345">
        <ele>290.0</ele>
        <time>2012-06-14T11:52:25Z</time>
      </trkpt>
      <trkpt lat="43.33643" lon="-6.139958">
        <ele>290.0</ele>
        <time>2012-06-14T11:52:29Z</time>
      </trkpt>
      <trkpt lat="43.336189" lon="-6.139652">
        <ele>289.0</ele>
        <time>2012-06-14T11:52:33Z</time>
      </trkpt>
      <trkpt lat="43.336021" lon="-6.139382">
        <ele>289.0</ele>
        <time>2012-06-14T11:52:36Z</time>
      </trkpt>
      <trkpt lat="43.335767" lon="-6.138899">
        <ele>289.0</ele>
        <time>2012-06-14T11:52:41Z</time>
      </trkpt>
      <trkpt lat="43.335642" lon="-6.13851">
        <ele>290.0</ele>
        <time>2012-06-14T11:52:45Z</time>
      </trkpt>
      <trkpt lat="43.335691" lon="-6.138207">
        <ele>290.0</ele>
        <time>2012-06-14T11:52:48Z</time>
      </trkpt>
      <trkpt lat="43.335779" lon="-6.137698">
        <ele>290.0</ele>
        <time>2012-06-14T11:52:53Z</time>
      </trkpt>
      <trkpt lat="43.335768" lon="-6.137383">
        <ele>290.0</ele>
        <time>2012-06-14T11:52:56Z</time>
      </trkpt>
      <trkpt lat="43.335735" lon="-6.136875">
        <ele>290.0</ele>
        <time>2012-06-14T11:53:01Z</time>
      </trkpt>
      <trkpt lat="43.335793" lon="-6.136483">
        <ele>291.0</ele>
        <time>2012-06-14T11:53:05Z</time>
      </trkpt>
      <trkpt lat="43.335962" lon="-6.136144">
        <ele>290.0</ele>
        <time>2012-06-14T11:53:09Z</time>
      </trkpt>
      <trkpt lat="43.336197" lon="-6.135952">
        <ele>289.0</ele>
        <time>2012-06-14T11:53:13Z</time>
      </trkpt>
      <trkpt lat="43.336298" lon="-6.13567">
        <ele>289.0</ele>
        <time>2012-06-14T11:53:17Z</time>
      </trkpt>
      <trkpt lat="43.336236" lon="-6.135298">
        <ele>290.0</ele>
        <time>2012-06-14T11:53:21Z</time>
      </trkpt>
      <trkpt lat="43.336268" lon="-6.134878">
        <ele>290.0</ele>
        <time>2012-06-14T11:53:25Z</time>
      </trkpt>
      <trkpt lat="43.336248" lon="-6.134448">
        <ele>291.0</ele>
        <time>2012-06-14T11:53:29Z</time>
      </trkpt>
      <trkpt lat="43.336177" lon="-6.134021">
        <ele>291.0</ele>
        <time>2012-06-14T11:53:33Z</time>
      </trkpt>
      <trkpt lat="43.336153" lon="-6.13382">
        <ele>291.0</ele>
        <time>2012-06-14T11:53:35Z</time>
      </trkpt>
      <trkpt lat="43.336443" lon="-6.133419">
        <ele>291.0</ele>
        <time>2012-06-14T11:53:41Z</time>
      </trkpt>
      <trkpt lat="43.3366" lon="-6.133117">
        <ele>291.0</ele>
        <time>2012-06-14T11:53:45Z</time>
      </trkpt>
      <trkpt lat="43.336639" lon="-6.132918">
        <ele>291.0</ele>
        <time>2012-06-14T11:53:47Z</time>
      </trkpt>
      <trkpt lat="43.336787" lon="-6.132333">
        <ele>291.0</ele>
        <time>2012-06-14T11:53:53Z</time>
      </trkpt>
      <trkpt lat="43.336814" lon="-6.131951">
        <ele>291.0</ele>
        <time>2012-06-14T11:53:57Z</time>
      </trkpt>
      <trkpt lat="43.336733" lon="-6.131672">
        <ele>292.0</ele>
        <time>2012-06-14T11:54:00Z</time>
      </trkpt>
      <trkpt lat="43.336539" lon="-6.131245">
        <ele>294.0</ele>
        <time>2012-06-14T11:54:05Z</time>
      </trkpt>
      <trkpt lat="43.336481" lon="-6.130874">
        <ele>294.0</ele>
        <time>2012-06-14T11:54:09Z</time>
      </trkpt>
      <trkpt lat="43.336591" lon="-6.130611">
        <ele>294.0</ele>
        <time>2012-06-14T11:54:12Z</time>
      </trkpt>
      <trkpt lat="43.336458" lon="-6.130146">
        <ele>293.0</ele>
        <time>2012-06-14T11:54:17Z</time>
      </trkpt>
      <trkpt lat="43.336357" lon="-6.129748">
        <ele>293.0</ele>
        <time>2012-06-14T11:54:21Z</time>
      </trkpt>
      <trkpt lat="43.33632" lon="-6.129328">
        <ele>293.0</ele>
        <time>2012-06-14T11:54:25Z</time>
      </trkpt>
      <trkpt lat="43.336299" lon="-6.12912">
        <ele>293.0</ele>
        <time>2012-06-14T11:54:27Z</time>
      </trkpt>
      <trkpt lat="43.336204" lon="-6.128494">
        <ele>295.0</ele>
        <time>2012-06-14T11:54:33Z</time>
      </trkpt>
      <trkpt lat="43.336124" lon="-6.128104">
        <ele>295.0</ele>
        <time>2012-06-14T11:54:37Z</time>
      </trkpt>
      <trkpt lat="43.336018" lon="-6.127731">
        <ele>294.0</ele>
        <time>2012-06-14T11:54:41Z</time>
      </trkpt>
      <trkpt lat="43.33589" lon="-6.127307">
        <ele>293.0</ele>
        <time>2012-06-14T11:54:45Z</time>
      </trkpt>
      <trkpt lat="43.335644" lon="-6.126863">
        <ele>293.0</ele>
        <time>2012-06-14T11:54:49Z</time>
      </trkpt>
      <trkpt lat="43.335541" lon="-6.126402">
        <ele>292.0</ele>
        <time>2012-06-14T11:54:53Z</time>
      </trkpt>
      <trkpt lat="43.335489" lon="-6.125862">
        <ele>291.0</ele>
        <time>2012-06-14T11:54:57Z</time>
      </trkpt>
      <trkpt lat="43.33536" lon="-6.125298">
        <ele>291.0</ele>
        <time>2012-06-14T11:55:01Z</time>
      </trkpt>
      <trkpt lat="43.335497" lon="-6.124737">
        <ele>289.0</ele>
        <time>2012-06-14T11:55:05Z</time>
      </trkpt>
      <trkpt lat="43.335713" lon="-6.124213">
        <ele>285.0</ele>
        <time>2012-06-14T11:55:09Z</time>
      </trkpt>
      <trkpt lat="43.33589" lon="-6.123618">
        <ele>284.0</ele>
        <time>2012-06-14T11:55:13Z</time>
      </trkpt>
      <trkpt lat="43.335979" lon="-6.122993">
        <ele>283.0</ele>
        <time>2012-06-14T11:55:17Z</time>
      </trkpt>
      <trkpt lat="43.336025" lon="-6.122317">
        <ele>282.0</ele>
        <time>2012-06-14T11:55:21Z</time>
      </trkpt>
      <trkpt lat="43.335895" lon="-6.121719">
        <ele>282.0</ele>
        <time>2012-06-14T11:55:25Z</time>
      </trkpt>
      <trkpt lat="43.335672" lon="-6.12116">
        <ele>283.0</ele>
        <time>2012-06-14T11:55:29Z</time>
      </trkpt>
      <trkpt lat="43.335576" lon="-6.120589">
        <ele>283.0</ele>
        <time>2012-06-14T11:55:33Z</time>
      </trkpt>
      <trkpt lat="43.335522" lon="-6.11998">
        <ele>282.0</ele>
        <time>2012-06-14T11:55:37Z</time>
      </trkpt>
      <trkpt lat="43.335483" lon="-6.119423">
        <ele>282.0</ele>
        <time>2012-06-14T11:55:41Z</time>
      </trkpt>
      <trkpt lat="43.335295" lon="-6.118937">
        <ele>280.0</ele>
        <time>2012-06-14T11:55:45Z</time>
      </trkpt>
      <trkpt lat="43.335083" lon="-6.118482">
        <ele>278.0</ele>
        <time>2012-06-14T11:55:49Z</time>
      </trkpt>
      <trkpt lat="43.335073" lon="-6.118027">
        <ele>276.0</ele>
        <time>2012-06-14T11:55:53Z</time>
      </trkpt>
      <trkpt lat="43.335107" lon="-6.11767">
        <ele>274.0</ele>
        <time>2012-06-14T11:55:57Z</time>
      </trkpt>
      <trkpt lat="43.335105" lon="-6.117317">
        <ele>272.0</ele>
        <time>2012-06-14T11:56:01Z</time>
      </trkpt>
      <trkpt lat="43.335034" lon="-6.116963">
        <ele>271.0</ele>
        <time>2012-06-14T11:56:05Z</time>
      </trkpt>
      <trkpt lat="43.334974" lon="-6.11654">
        <ele>270.0</ele>
        <time>2012-06-14T11:56:09Z</time>
      </trkpt>
      <trkpt lat="43.334949" lon="-6.116172">
        <ele>268.0</ele>
        <time>2012-06-14T11:56:13Z</time>
      </trkpt>
      <trkpt lat="43.335081" lon="-6.115889">
        <ele>267.0</ele>
        <time>2012-06-14T11:56:17Z</time>
      </trkpt>
      <trkpt lat="43.335414" lon="-6.115895">
        <ele>267.0</ele>
        <time>2012-06-14T11:56:21Z</time>
      </trkpt>
      <trkpt lat="43.335739" lon="-6.116027">
        <ele>268.0</ele>
        <time>2012-06-14T11:56:25Z</time>
      </trkpt>
      <trkpt lat="43.335899" lon="-6.116019">
        <ele>268.0</ele>
        <time>2012-06-14T11:56:27Z</time>
      </trkpt>
      <trkpt lat="43.33613" lon="-6.115528">
        <ele>263.0</ele>
        <time>2012-06-14T11:56:32Z</time>
      </trkpt>
      <trkpt lat="43.336321" lon="-6.114955">
        <ele>257.0</ele>
        <time>2012-06-14T11:56:37Z</time>
      </trkpt>
      <trkpt lat="43.336404" lon="-6.11457">
        <ele>251.0</ele>
        <time>2012-06-14T11:56:41Z</time>
      </trkpt>
      <trkpt lat="43.336637" lon="-6.114277">
        <ele>234.0</ele>
        <time>2012-06-14T11:56:45Z</time>
      </trkpt>
      <trkpt lat="43.336788" lon="-6.113884">
        <ele>222.0</ele>
        <time>2012-06-14T11:56:49Z</time>
      </trkpt>
      <trkpt lat="43.336862" lon="-6.113503">
        <ele>217.0</ele>
        <time>2012-06-14T11:56:53Z</time>
      </trkpt>
      <trkpt lat="43.336983" lon="-6.113167">
        <ele>216.0</ele>
        <time>2012-06-14T11:56:57Z</time>
      </trkpt>
      <trkpt lat="43.337189" lon="-6.112921">
        <ele>215.0</ele>
        <time>2012-06-14T11:57:01Z</time>
      </trkpt>
      <trkpt lat="43.3374" lon="-6.11269">
        <ele>213.0</ele>
        <time>2012-06-14T11:57:05Z</time>
      </trkpt>
      <trkpt lat="43.337503" lon="-6.112571">
        <ele>213.0</ele>
        <time>2012-06-14T11:57:07Z</time>
      </trkpt>
      <trkpt lat="43.337739" lon="-6.112263">
        <ele>213.0</ele>
        <time>2012-06-14T11:57:12Z</time>
      </trkpt>
      <trkpt lat="43.337818" lon="-6.112134">
        <ele>213.0</ele>
        <time>2012-06-14T11:57:14Z</time>
      </trkpt>
      <trkpt lat="43.337993" lon="-6.11169">
        <ele>213.0</ele>
        <time>2012-06-14T11:57:20Z</time>
      </trkpt>
      <trkpt lat="43.338023" lon="-6.11153">
        <ele>212.0</ele>
        <time>2012-06-14T11:57:22Z</time>
      </trkpt>
      <trkpt lat="43.338057" lon="-6.110904">
        <ele>209.0</ele>
        <time>2012-06-14T11:57:29Z</time>
      </trkpt>
      <trkpt lat="43.338089" lon="-6.110508">
        <ele>207.0</ele>
        <time>2012-06-14T11:57:33Z</time>
      </trkpt>
      <trkpt lat="43.338194" lon="-6.110134">
        <ele>207.0</ele>
        <time>2012-06-14T11:57:37Z</time>
      </trkpt>
      <trkpt lat="43.338275" lon="-6.109969">
        <ele>206.0</ele>
        <time>2012-06-14T11:57:39Z</time>
      </trkpt>
      <trkpt lat="43.338518" lon="-6.109496">
        <ele>206.0</ele>
        <time>2012-06-14T11:57:45Z</time>
      </trkpt>
      <trkpt lat="43.338677" lon="-6.10918">
        <ele>207.0</ele>
        <time>2012-06-14T11:57:49Z</time>
      </trkpt>
      <trkpt lat="43.338758" lon="-6.109022">
        <ele>206.0</ele>
        <time>2012-06-14T11:57:51Z</time>
      </trkpt>
      <trkpt lat="43.33903" lon="-6.108604">
        <ele>208.0</ele>
        <time>2012-06-14T11:57:57Z</time>
      </trkpt>
      <trkpt lat="43.339283" lon="-6.108411">
        <ele>208.0</ele>
        <time>2012-06-14T11:58:01Z</time>
      </trkpt>
      <trkpt lat="43.339572" lon="-6.108256">
        <ele>208.0</ele>
        <time>2012-06-14T11:58:05Z</time>
      </trkpt>
      <trkpt lat="43.339869" lon="-6.108143">
        <ele>209.0</ele>
        <time>2012-06-14T11:58:09Z</time>
      </trkpt>
      <trkpt lat="43.340183" lon="-6.108061">
        <ele>209.0</ele>
        <time>2012-06-14T11:58:13Z</time>
      </trkpt>
      <trkpt lat="43.340445" lon="-6.107783">
        <ele>211.0</ele>
        <time>2012-06-14T11:58:17Z</time>
      </trkpt>
      <trkpt lat="43.340692" lon="-6.107471">
        <ele>211.0</ele>
        <time>2012-06-14T11:58:21Z</time>
      </trkpt>
      <trkpt lat="43.340948" lon="-6.107154">
        <ele>212.0</ele>
        <time>2012-06-14T11:58:25Z</time>
      </trkpt>
      <trkpt lat="43.341138" lon="-6.106919">
        <ele>212.0</ele>
        <time>2012-06-14T11:58:28Z</time>
      </trkpt>
      <trkpt lat="43.341407" lon="-6.106513">
        <ele>212.0</ele>
        <time>2012-06-14T11:58:33Z</time>
      </trkpt>
      <trkpt lat="43.341584" lon="-6.106187">
        <ele>212.0</ele>
        <time>2012-06-14T11:58:37Z</time>
      </trkpt>
      <trkpt lat="43.341664" lon="-6.105837">
        <ele>211.0</ele>
        <time>2012-06-14T11:58:41Z</time>
      </trkpt>
      <trkpt lat="43.341778" lon="-6.105473">
        <ele>210.0</ele>
        <time>2012-06-14T11:58:45Z</time>
      </trkpt>
      <trkpt lat="43.341877" lon="-6.105061">
        <ele>210.0</ele>
        <time>2012-06-14T11:58:49Z</time>
      </trkpt>
      <trkpt lat="43.341986" lon="-6.10462">
        <ele>209.0</ele>
        <time>2012-06-14T11:58:53Z</time>
      </trkpt>
      <trkpt lat="43.342095" lon="-6.10418">
        <ele>209.0</ele>
        <time>2012-06-14T11:58:57Z</time>
      </trkpt>
      <trkpt lat="43.342191" lon="-6.103723">
        <ele>209.0</ele>
        <time>2012-06-14T11:59:01Z</time>
      </trkpt>
      <trkpt lat="43.342257" lon="-6.103254">
        <ele>209.0</ele>
        <time>2012-06-14T11:59:05Z</time>
      </trkpt>
      <trkpt lat="43.342294" lon="-6.103026">
        <ele>209.0</ele>
        <time>2012-06-14T11:59:07Z</time>
      </trkpt>
      <trkpt lat="43.342416" lon="-6.10233">
        <ele>210.0</ele>
        <time>2012-06-14T11:59:13Z</time>
      </trkpt>
      <trkpt lat="43.342514" lon="-6.101882">
        <ele>211.0</ele>
        <time>2012-06-14T11:59:17Z</time>
      </trkpt>
      <trkpt lat="43.342638" lon="-6.101449">
        <ele>212.0</ele>
        <time>2012-06-14T11:59:21Z</time>
      </trkpt>
      <trkpt lat="43.342815" lon="-6.101034">
        <ele>213.0</ele>
        <time>2012-06-14T11:59:25Z</time>
      </trkpt>
      <trkpt lat="43.342995" lon="-6.100619">
        <ele>213.0</ele>
        <time>2012-06-14T11:59:29Z</time>
      </trkpt>
      <trkpt lat="43.343202" lon="-6.100222">
        <ele>213.0</ele>
        <time>2012-06-14T11:59:33Z</time>
      </trkpt>
      <trkpt lat="43.343361" lon="-6.099935">
        <ele>213.0</ele>
        <time>2012-06-14T11:59:36Z</time>
      </trkpt>
      <trkpt lat="43.343625" lon="-6.099458">
        <ele>213.0</ele>
        <time>2012-06-14T11:59:41Z</time>
      </trkpt>
      <trkpt lat="43.343842" lon="-6.099103">
        <ele>213.0</ele>
        <time>2012-06-14T11:59:45Z</time>
      </trkpt>
      <trkpt lat="43.344057" lon="-6.098756">
        <ele>212.0</ele>
        <time>2012-06-14T11:59:49Z</time>
      </trkpt>
      <trkpt lat="43.344266" lon="-6.098416">
        <ele>212.0</ele>
        <time>2012-06-14T11:59:53Z</time>
      </trkpt>
      <trkpt lat="43.344437" lon="-6.09806">
        <ele>212.0</ele>
        <time>2012-06-14T11:59:57Z</time>
      </trkpt>
      <trkpt lat="43.3446" lon="-6.097683">
        <ele>212.0</ele>
        <time>2012-06-14T12:00:01Z</time>
      </trkpt>
      <trkpt lat="43.34477" lon="-6.09731">
        <ele>212.0</ele>
        <time>2012-06-14T12:00:05Z</time>
      </trkpt>
      <trkpt lat="43.344899" lon="-6.097038">
        <ele>212.0</ele>
        <time>2012-06-14T12:00:08Z</time>
      </trkpt>
      <trkpt lat="43.345107" lon="-6.096565">
        <ele>212.0</ele>
        <time>2012-06-14T12:00:13Z</time>
      </trkpt>
      <trkpt lat="43.345275" lon="-6.096179">
        <ele>210.0</ele>
        <time>2012-06-14T12:00:17Z</time>
      </trkpt>
      <trkpt lat="43.345401" lon="-6.095762">
        <ele>209.0</ele>
        <time>2012-06-14T12:00:21Z</time>
      </trkpt>
      <trkpt lat="43.345399" lon="-6.095316">
        <ele>208.0</ele>
        <time>2012-06-14T12:00:25Z</time>
      </trkpt>
      <trkpt lat="43.345365" lon="-6.094857">
        <ele>206.0</ele>
        <time>2012-06-14T12:00:29Z</time>
      </trkpt>
      <trkpt lat="43.345309" lon="-6.094386">
        <ele>204.0</ele>
        <time>2012-06-14T12:00:33Z</time>
      </trkpt>
      <trkpt lat="43.345255" lon="-6.093905">
        <ele>203.0</ele>
        <time>2012-06-14T12:00:37Z</time>
      </trkpt>
      <trkpt lat="43.345257" lon="-6.093429">
        <ele>202.0</ele>
        <time>2012-06-14T12:00:41Z</time>
      </trkpt>
      <trkpt lat="43.345371" lon="-6.092942">
        <ele>202.0</ele>
        <time>2012-06-14T12:00:45Z</time>
      </trkpt>
      <trkpt lat="43.345536" lon="-6.092465">
        <ele>202.0</ele>
        <time>2012-06-14T12:00:49Z</time>
      </trkpt>
      <trkpt lat="43.345658" lon="-6.091954">
        <ele>202.0</ele>
        <time>2012-06-14T12:00:53Z</time>
      </trkpt>
      <trkpt lat="43.345667" lon="-6.091421">
        <ele>202.0</ele>
        <time>2012-06-14T12:00:57Z</time>
      </trkpt>
      <trkpt lat="43.34564" lon="-6.0909">
        <ele>201.0</ele>
        <time>2012-06-14T12:01:01Z</time>
      </trkpt>
      <trkpt lat="43.345581" lon="-6.090373">
        <ele>200.0</ele>
        <time>2012-06-14T12:01:05Z</time>
      </trkpt>
      <trkpt lat="43.345491" lon="-6.089852">
        <ele>199.0</ele>
        <time>2012-06-14T12:01:09Z</time>
      </trkpt>
      <trkpt lat="43.34548" lon="-6.089394">
        <ele>198.0</ele>
        <time>2012-06-14T12:01:13Z</time>
      </trkpt>
      <trkpt lat="43.345672" lon="-6.089007">
        <ele>197.0</ele>
        <time>2012-06-14T12:01:17Z</time>
      </trkpt>
      <trkpt lat="43.345709" lon="-6.088541">
        <ele>196.0</ele>
        <time>2012-06-14T12:01:21Z</time>
      </trkpt>
      <trkpt lat="43.345733" lon="-6.088093">
        <ele>195.0</ele>
        <time>2012-06-14T12:01:25Z</time>
      </trkpt>
      <trkpt lat="43.3458" lon="-6.087655">
        <ele>193.0</ele>
        <time>2012-06-14T12:01:29Z</time>
      </trkpt>
      <trkpt lat="43.345866" lon="-6.087205">
        <ele>191.0</ele>
        <time>2012-06-14T12:01:33Z</time>
      </trkpt>
      <trkpt lat="43.345925" lon="-6.086758">
        <ele>189.0</ele>
        <time>2012-06-14T12:01:37Z</time>
      </trkpt>
      <trkpt lat="43.345993" lon="-6.086323">
        <ele>187.0</ele>
        <time>2012-06-14T12:01:41Z</time>
      </trkpt>
      <trkpt lat="43.346049" lon="-6.085902">
        <ele>185.0</ele>
        <time>2012-06-14T12:01:45Z</time>
      </trkpt>
      <trkpt lat="43.346112" lon="-6.085488">
        <ele>183.0</ele>
        <time>2012-06-14T12:01:49Z</time>
      </trkpt>
      <trkpt lat="43.346193" lon="-6.085087">
        <ele>182.0</ele>
        <time>2012-06-14T12:01:53Z</time>
      </trkpt>
      <trkpt lat="43.346325" lon="-6.084706">
        <ele>182.0</ele>
        <time>2012-06-14T12:01:57Z</time>
      </trkpt>
      <trkpt lat="43.346398" lon="-6.084516">
        <ele>182.0</ele>
        <time>2012-06-14T12:01:59Z</time>
      </trkpt>
      <trkpt lat="43.346582" lon="-6.083909">
        <ele>182.0</ele>
        <time>2012-06-14T12:02:05Z</time>
      </trkpt>
      <trkpt lat="43.346695" lon="-6.083488">
        <ele>182.0</ele>
        <time>2012-06-14T12:02:09Z</time>
      </trkpt>
      <trkpt lat="43.346853" lon="-6.08309">
        <ele>182.0</ele>
        <time>2012-06-14T12:02:13Z</time>
      </trkpt>
      <trkpt lat="43.347017" lon="-6.082702">
        <ele>183.0</ele>
        <time>2012-06-14T12:02:17Z</time>
      </trkpt>
      <trkpt lat="43.347166" lon="-6.082291">
        <ele>183.0</ele>
        <time>2012-06-14T12:02:21Z</time>
      </trkpt>
      <trkpt lat="43.347278" lon="-6.081872">
        <ele>183.0</ele>
        <time>2012-06-14T12:02:25Z</time>
      </trkpt>
      <trkpt lat="43.347425" lon="-6.081467">
        <ele>183.0</ele>
        <time>2012-06-14T12:02:29Z</time>
      </trkpt>
      <trkpt lat="43.347672" lon="-6.081179">
        <ele>183.0</ele>
        <time>2012-06-14T12:02:33Z</time>
      </trkpt>
      <trkpt lat="43.347872" lon="-6.080994">
        <ele>184.0</ele>
        <time>2012-06-14T12:02:36Z</time>
      </trkpt>
      <trkpt lat="43.348231" lon="-6.080695">
        <ele>185.0</ele>
        <time>2012-06-14T12:02:41Z</time>
      </trkpt>
      <trkpt lat="43.348511" lon="-6.080466">
        <ele>185.0</ele>
        <time>2012-06-14T12:02:45Z</time>
      </trkpt>
      <trkpt lat="43.348766" lon="-6.080204">
        <ele>183.0</ele>
        <time>2012-06-14T12:02:49Z</time>
      </trkpt>
      <trkpt lat="43.349033" lon="-6.07998">
        <ele>181.0</ele>
        <time>2012-06-14T12:02:53Z</time>
      </trkpt>
      <trkpt lat="43.34929" lon="-6.079744">
        <ele>181.0</ele>
        <time>2012-06-14T12:02:57Z</time>
      </trkpt>
      <trkpt lat="43.34949" lon="-6.079559">
        <ele>180.0</ele>
        <time>2012-06-14T12:03:00Z</time>
      </trkpt>
      <trkpt lat="43.349785" lon="-6.079171">
        <ele>179.0</ele>
        <time>2012-06-14T12:03:05Z</time>
      </trkpt>
      <trkpt lat="43.350009" lon="-6.078857">
        <ele>179.0</ele>
        <time>2012-06-14T12:03:09Z</time>
      </trkpt>
      <trkpt lat="43.350249" lon="-6.078562">
        <ele>179.0</ele>
        <time>2012-06-14T12:03:13Z</time>
      </trkpt>
      <trkpt lat="43.350498" lon="-6.078283">
        <ele>178.0</ele>
        <time>2012-06-14T12:03:17Z</time>
      </trkpt>
      <trkpt lat="43.35074" lon="-6.07804">
        <ele>178.0</ele>
        <time>2012-06-14T12:03:21Z</time>
      </trkpt>
      <trkpt lat="43.351034" lon="-6.077932">
        <ele>177.0</ele>
        <time>2012-06-14T12:03:25Z</time>
      </trkpt>
      <trkpt lat="43.351333" lon="-6.077907">
        <ele>178.0</ele>
        <time>2012-06-14T12:03:29Z</time>
      </trkpt>
      <trkpt lat="43.351629" lon="-6.077981">
        <ele>178.0</ele>
        <time>2012-06-14T12:03:33Z</time>
      </trkpt>
      <trkpt lat="43.351821" lon="-6.078146">
        <ele>179.0</ele>
        <time>2012-06-14T12:03:36Z</time>
      </trkpt>
      <trkpt lat="43.352016" lon="-6.078558">
        <ele>179.0</ele>
        <time>2012-06-14T12:03:41Z</time>
      </trkpt>
      <trkpt lat="43.352178" lon="-6.07889">
        <ele>176.0</ele>
        <time>2012-06-14T12:03:45Z</time>
      </trkpt>
      <trkpt lat="43.35247" lon="-6.079039">
        <ele>175.0</ele>
        <time>2012-06-14T12:03:49Z</time>
      </trkpt>
      <trkpt lat="43.352799" lon="-6.079044">
        <ele>174.0</ele>
        <time>2012-06-14T12:03:53Z</time>
      </trkpt>
      <trkpt lat="43.35313" lon="-6.079004">
        <ele>175.0</ele>
        <time>2012-06-14T12:03:57Z</time>
      </trkpt>
      <trkpt lat="43.35346" lon="-6.078923">
        <ele>175.0</ele>
        <time>2012-06-14T12:04:01Z</time>
      </trkpt>
      <trkpt lat="43.353623" lon="-6.078856">
        <ele>175.0</ele>
        <time>2012-06-14T12:04:03Z</time>
      </trkpt>
      <trkpt lat="43.354109" lon="-6.078553">
        <ele>172.0</ele>
        <time>2012-06-14T12:04:09Z</time>
      </trkpt>
      <trkpt lat="43.354406" lon="-6.078279">
        <ele>169.0</ele>
        <time>2012-06-14T12:04:13Z</time>
      </trkpt>
      <trkpt lat="43.354645" lon="-6.077937">
        <ele>167.0</ele>
        <time>2012-06-14T12:04:17Z</time>
      </trkpt>
      <trkpt lat="43.354801" lon="-6.077527">
        <ele>165.0</ele>
        <time>2012-06-14T12:04:21Z</time>
      </trkpt>
      <trkpt lat="43.354926" lon="-6.077123">
        <ele>163.0</ele>
        <time>2012-06-14T12:04:25Z</time>
      </trkpt>
      <trkpt lat="43.355096" lon="-6.076758">
        <ele>162.0</ele>
        <time>2012-06-14T12:04:29Z</time>
      </trkpt>
      <trkpt lat="43.355283" lon="-6.076425">
        <ele>162.0</ele>
        <time>2012-06-14T12:04:33Z</time>
      </trkpt>
      <trkpt lat="43.355434" lon="-6.076055">
        <ele>162.0</ele>
        <time>2012-06-14T12:04:37Z</time>
      </trkpt>
      <trkpt lat="43.355542" lon="-6.075646">
        <ele>161.0</ele>
        <time>2012-06-14T12:04:41Z</time>
      </trkpt>
      <trkpt lat="43.355739" lon="-6.075205">
        <ele>162.0</ele>
        <time>2012-06-14T12:04:46Z</time>
      </trkpt>
      <trkpt lat="43.355898" lon="-6.074976">
        <ele>162.0</ele>
        <time>2012-06-14T12:04:49Z</time>
      </trkpt>
      <trkpt lat="43.356184" lon="-6.074739">
        <ele>163.0</ele>
        <time>2012-06-14T12:04:53Z</time>
      </trkpt>
      <trkpt lat="43.356524" lon="-6.074675">
        <ele>164.0</ele>
        <time>2012-06-14T12:04:57Z</time>
      </trkpt>
      <trkpt lat="43.356852" lon="-6.074594">
        <ele>164.0</ele>
        <time>2012-06-14T12:05:01Z</time>
      </trkpt>
      <trkpt lat="43.357012" lon="-6.074538">
        <ele>164.0</ele>
        <time>2012-06-14T12:05:03Z</time>
      </trkpt>
      <trkpt lat="43.357471" lon="-6.074295">
        <ele>164.0</ele>
        <time>2012-06-14T12:05:09Z</time>
      </trkpt>
      <trkpt lat="43.357754" lon="-6.074069">
        <ele>164.0</ele>
        <time>2012-06-14T12:05:13Z</time>
      </trkpt>
      <trkpt lat="43.358066" lon="-6.073968">
        <ele>165.0</ele>
        <time>2012-06-14T12:05:17Z</time>
      </trkpt>
      <trkpt lat="43.358386" lon="-6.074035">
        <ele>166.0</ele>
        <time>2012-06-14T12:05:21Z</time>
      </trkpt>
      <trkpt lat="43.358719" lon="-6.074006">
        <ele>165.0</ele>
        <time>2012-06-14T12:05:25Z</time>
      </trkpt>
      <trkpt lat="43.359045" lon="-6.0738">
        <ele>164.0</ele>
        <time>2012-06-14T12:05:29Z</time>
      </trkpt>
      <trkpt lat="43.359341" lon="-6.07351">
        <ele>163.0</ele>
        <time>2012-06-14T12:05:33Z</time>
      </trkpt>
      <trkpt lat="43.359546" lon="-6.073253">
        <ele>162.0</ele>
        <time>2012-06-14T12:05:36Z</time>
      </trkpt>
      <trkpt lat="43.359891" lon="-6.072799">
        <ele>161.0</ele>
        <time>2012-06-14T12:05:41Z</time>
      </trkpt>
      <trkpt lat="43.36023" lon="-6.072311">
        <ele>161.0</ele>
        <time>2012-06-14T12:05:46Z</time>
      </trkpt>
      <trkpt lat="43.36052" lon="-6.071905">
        <ele>160.0</ele>
        <time>2012-06-14T12:05:50Z</time>
      </trkpt>
      <trkpt lat="43.36081" lon="-6.071535">
        <ele>159.0</ele>
        <time>2012-06-14T12:05:54Z</time>
      </trkpt>
      <trkpt lat="43.361308" lon="-6.070974">
        <ele>157.0</ele>
        <time>2012-06-14T12:06:01Z</time>
      </trkpt>
      <trkpt lat="43.361374" lon="-6.070898">
        <ele>156.0</ele>
        <time>2012-06-14T12:06:02Z</time>
      </trkpt>
      <trkpt lat="43.361766" lon="-6.070453">
        <ele>155.0</ele>
        <time>2012-06-14T12:06:08Z</time>
      </trkpt>
      <trkpt lat="43.362061" lon="-6.070237">
        <ele>155.0</ele>
        <time>2012-06-14T12:06:12Z</time>
      </trkpt>
      <trkpt lat="43.36237" lon="-6.070112">
        <ele>154.0</ele>
        <time>2012-06-14T12:06:16Z</time>
      </trkpt>
      <trkpt lat="43.362694" lon="-6.070009">
        <ele>153.0</ele>
        <time>2012-06-14T12:06:20Z</time>
      </trkpt>
      <trkpt lat="43.363095" lon="-6.069892">
        <ele>151.0</ele>
        <time>2012-06-14T12:06:25Z</time>
      </trkpt>
      <trkpt lat="43.363408" lon="-6.069779">
        <ele>149.0</ele>
        <time>2012-06-14T12:06:29Z</time>
      </trkpt>
      <trkpt lat="43.363718" lon="-6.069666">
        <ele>148.0</ele>
        <time>2012-06-14T12:06:33Z</time>
      </trkpt>
      <trkpt lat="43.364017" lon="-6.069563">
        <ele>147.0</ele>
        <time>2012-06-14T12:06:37Z</time>
      </trkpt>
      <trkpt lat="43.364237" lon="-6.06948">
        <ele>146.0</ele>
        <time>2012-06-14T12:06:40Z</time>
      </trkpt>
      <trkpt lat="43.364593" lon="-6.069285">
        <ele>145.0</ele>
        <time>2012-06-14T12:06:45Z</time>
      </trkpt>
      <trkpt lat="43.364869" lon="-6.06908">
        <ele>145.0</ele>
        <time>2012-06-14T12:06:49Z</time>
      </trkpt>
      <trkpt lat="43.36516" lon="-6.068918">
        <ele>145.0</ele>
        <time>2012-06-14T12:06:53Z</time>
      </trkpt>
      <trkpt lat="43.365466" lon="-6.068815">
        <ele>145.0</ele>
        <time>2012-06-14T12:06:57Z</time>
      </trkpt>
      <trkpt lat="43.365771" lon="-6.068739">
        <ele>145.0</ele>
        <time>2012-06-14T12:07:01Z</time>
      </trkpt>
      <trkpt lat="43.366087" lon="-6.068667">
        <ele>145.0</ele>
        <time>2012-06-14T12:07:05Z</time>
      </trkpt>
      <trkpt lat="43.366417" lon="-6.068684">
        <ele>146.0</ele>
        <time>2012-06-14T12:07:09Z</time>
      </trkpt>
      <trkpt lat="43.366665" lon="-6.06877">
        <ele>146.0</ele>
        <time>2012-06-14T12:07:12Z</time>
      </trkpt>
      <trkpt lat="43.367085" lon="-6.068916">
        <ele>146.0</ele>
        <time>2012-06-14T12:07:17Z</time>
      </trkpt>
      <trkpt lat="43.367423" lon="-6.069052">
        <ele>145.0</ele>
        <time>2012-06-14T12:07:21Z</time>
      </trkpt>
      <trkpt lat="43.367701" lon="-6.06935">
        <ele>144.0</ele>
        <time>2012-06-14T12:07:25Z</time>
      </trkpt>
      <trkpt lat="43.367892" lon="-6.069732">
        <ele>143.0</ele>
        <time>2012-06-14T12:07:29Z</time>
      </trkpt>
      <trkpt lat="43.367864" lon="-6.070153">
        <ele>141.0</ele>
        <time>2012-06-14T12:07:33Z</time>
      </trkpt>
      <trkpt lat="43.368055" lon="-6.070422">
        <ele>140.0</ele>
        <time>2012-06-14T12:07:37Z</time>
      </trkpt>
      <trkpt lat="43.368244" lon="-6.070549">
        <ele>139.0</ele>
        <time>2012-06-14T12:07:40Z</time>
      </trkpt>
      <trkpt lat="43.368572" lon="-6.070794">
        <ele>139.0</ele>
        <time>2012-06-14T12:07:45Z</time>
      </trkpt>
      <trkpt lat="43.368864" lon="-6.070972">
        <ele>139.0</ele>
        <time>2012-06-14T12:07:49Z</time>
      </trkpt>
      <trkpt lat="43.369195" lon="-6.071071">
        <ele>140.0</ele>
        <time>2012-06-14T12:07:53Z</time>
      </trkpt>
      <trkpt lat="43.369458" lon="-6.071122">
        <ele>140.0</ele>
        <time>2012-06-14T12:07:56Z</time>
      </trkpt>
      <trkpt lat="43.369925" lon="-6.071308">
        <ele>141.0</ele>
        <time>2012-06-14T12:08:01Z</time>
      </trkpt>
      <trkpt lat="43.370304" lon="-6.071451">
        <ele>140.0</ele>
        <time>2012-06-14T12:08:05Z</time>
      </trkpt>
      <trkpt lat="43.370682" lon="-6.071498">
        <ele>139.0</ele>
        <time>2012-06-14T12:08:09Z</time>
      </trkpt>
      <trkpt lat="43.371046" lon="-6.071516">
        <ele>137.0</ele>
        <time>2012-06-14T12:08:13Z</time>
      </trkpt>
      <trkpt lat="43.371416" lon="-6.07155">
        <ele>135.0</ele>
        <time>2012-06-14T12:08:17Z</time>
      </trkpt>
      <trkpt lat="43.37168" lon="-6.07163">
        <ele>134.0</ele>
        <time>2012-06-14T12:08:20Z</time>
      </trkpt>
      <trkpt lat="43.372076" lon="-6.071883">
        <ele>134.0</ele>
        <time>2012-06-14T12:08:25Z</time>
      </trkpt>
      <trkpt lat="43.372363" lon="-6.072145">
        <ele>133.0</ele>
        <time>2012-06-14T12:08:29Z</time>
      </trkpt>
      <trkpt lat="43.372631" lon="-6.072415">
        <ele>133.0</ele>
        <time>2012-06-14T12:08:33Z</time>
      </trkpt>
      <trkpt lat="43.372894" lon="-6.072682">
        <ele>132.0</ele>
        <time>2012-06-14T12:08:37Z</time>
      </trkpt>
      <trkpt lat="43.373194" lon="-6.072862">
        <ele>131.0</ele>
        <time>2012-06-14T12:08:41Z</time>
      </trkpt>
      <trkpt lat="43.373528" lon="-6.072977">
        <ele>130.0</ele>
        <time>2012-06-14T12:08:45Z</time>
      </trkpt>
      <trkpt lat="43.37386" lon="-6.073086">
        <ele>129.0</ele>
        <time>2012-06-14T12:08:49Z</time>
      </trkpt>
      <trkpt lat="43.374186" lon="-6.073201">
        <ele>129.0</ele>
        <time>2012-06-14T12:08:53Z</time>
      </trkpt>
      <trkpt lat="43.374513" lon="-6.073313">
        <ele>129.0</ele>
        <time>2012-06-14T12:08:57Z</time>
      </trkpt>
      <trkpt lat="43.374846" lon="-6.073383">
        <ele>129.0</ele>
        <time>2012-06-14T12:09:01Z</time>
      </trkpt>
      <trkpt lat="43.375163" lon="-6.07332">
        <ele>129.0</ele>
        <time>2012-06-14T12:09:05Z</time>
      </trkpt>
      <trkpt lat="43.37545" lon="-6.073192">
        <ele>129.0</ele>
        <time>2012-06-14T12:09:09Z</time>
      </trkpt>
      <trkpt lat="43.375723" lon="-6.073009">
        <ele>130.0</ele>
        <time>2012-06-14T12:09:13Z</time>
      </trkpt>
      <trkpt lat="43.376004" lon="-6.07285">
        <ele>130.0</ele>
        <time>2012-06-14T12:09:17Z</time>
      </trkpt>
      <trkpt lat="43.376301" lon="-6.072835">
        <ele>130.0</ele>
        <time>2012-06-14T12:09:21Z</time>
      </trkpt>
      <trkpt lat="43.376574" lon="-6.072767">
        <ele>130.0</ele>
        <time>2012-06-14T12:09:25Z</time>
      </trkpt>
      <trkpt lat="43.376639" lon="-6.072743">
        <ele>130.0</ele>
        <time>2012-06-14T12:09:26Z</time>
      </trkpt>
      <trkpt lat="43.377046" lon="-6.072549">
        <ele>131.0</ele>
        <time>2012-06-14T12:09:33Z</time>
      </trkpt>
      <trkpt lat="43.377248" lon="-6.072387">
        <ele>133.0</ele>
        <time>2012-06-14T12:09:37Z</time>
      </trkpt>
      <trkpt lat="43.377454" lon="-6.072251">
        <ele>134.0</ele>
        <time>2012-06-14T12:09:41Z</time>
      </trkpt>
      <trkpt lat="43.377694" lon="-6.07218">
        <ele>135.0</ele>
        <time>2012-06-14T12:09:45Z</time>
      </trkpt>
      <trkpt lat="43.377948" lon="-6.072133">
        <ele>136.0</ele>
        <time>2012-06-14T12:09:49Z</time>
      </trkpt>
      <trkpt lat="43.378207" lon="-6.072083">
        <ele>136.0</ele>
        <time>2012-06-14T12:09:53Z</time>
      </trkpt>
      <trkpt lat="43.378471" lon="-6.072035">
        <ele>137.0</ele>
        <time>2012-06-14T12:09:57Z</time>
      </trkpt>
      <trkpt lat="43.378737" lon="-6.071988">
        <ele>137.0</ele>
        <time>2012-06-14T12:10:01Z</time>
      </trkpt>
      <trkpt lat="43.379006" lon="-6.071923">
        <ele>137.0</ele>
        <time>2012-06-14T12:10:05Z</time>
      </trkpt>
      <trkpt lat="43.379282" lon="-6.07185">
        <ele>136.0</ele>
        <time>2012-06-14T12:10:09Z</time>
      </trkpt>
      <trkpt lat="43.37958" lon="-6.071798">
        <ele>137.0</ele>
        <time>2012-06-14T12:10:13Z</time>
      </trkpt>
      <trkpt lat="43.379895" lon="-6.071744">
        <ele>137.0</ele>
        <time>2012-06-14T12:10:17Z</time>
      </trkpt>
      <trkpt lat="43.380227" lon="-6.071686">
        <ele>136.0</ele>
        <time>2012-06-14T12:10:21Z</time>
      </trkpt>
      <trkpt lat="43.380582" lon="-6.071704">
        <ele>136.0</ele>
        <time>2012-06-14T12:10:25Z</time>
      </trkpt>
      <trkpt lat="43.380952" lon="-6.071771">
        <ele>135.0</ele>
        <time>2012-06-14T12:10:29Z</time>
      </trkpt>
      <trkpt lat="43.381296" lon="-6.071847">
        <ele>135.0</ele>
        <time>2012-06-14T12:10:33Z</time>
      </trkpt>
      <trkpt lat="43.381623" lon="-6.071919">
        <ele>134.0</ele>
        <time>2012-06-14T12:10:37Z</time>
      </trkpt>
      <trkpt lat="43.381936" lon="-6.071938">
        <ele>134.0</ele>
        <time>2012-06-14T12:10:41Z</time>
      </trkpt>
      <trkpt lat="43.382227" lon="-6.071872">
        <ele>133.0</ele>
        <time>2012-06-14T12:10:45Z</time>
      </trkpt>
      <trkpt lat="43.382506" lon="-6.071793">
        <ele>133.0</ele>
        <time>2012-06-14T12:10:49Z</time>
      </trkpt>
      <trkpt lat="43.382766" lon="-6.071754">
        <ele>133.0</ele>
        <time>2012-06-14T12:10:53Z</time>
      </trkpt>
      <trkpt lat="43.383034" lon="-6.071778">
        <ele>133.0</ele>
        <time>2012-06-14T12:10:57Z</time>
      </trkpt>
      <trkpt lat="43.383304" lon="-6.071836">
        <ele>132.0</ele>
        <time>2012-06-14T12:11:01Z</time>
      </trkpt>
      <trkpt lat="43.383572" lon="-6.071951">
        <ele>132.0</ele>
        <time>2012-06-14T12:11:05Z</time>
      </trkpt>
      <trkpt lat="43.383829" lon="-6.072124">
        <ele>132.0</ele>
        <time>2012-06-14T12:11:09Z</time>
      </trkpt>
      <trkpt lat="43.384084" lon="-6.072291">
        <ele>131.0</ele>
        <time>2012-06-14T12:11:13Z</time>
      </trkpt>
      <trkpt lat="43.384327" lon="-6.072456">
        <ele>131.0</ele>
        <time>2012-06-14T12:11:17Z</time>
      </trkpt>
      <trkpt lat="43.384561" lon="-6.072635">
        <ele>131.0</ele>
        <time>2012-06-14T12:11:21Z</time>
      </trkpt>
      <trkpt lat="43.384774" lon="-6.072775">
        <ele>132.0</ele>
        <time>2012-06-14T12:11:25Z</time>
      </trkpt>
      <trkpt lat="43.384881" lon="-6.072844">
        <ele>133.0</ele>
        <time>2012-06-14T12:11:27Z</time>
      </trkpt>
      <trkpt lat="43.385094" lon="-6.072992">
        <ele>132.0</ele>
        <time>2012-06-14T12:11:31Z</time>
      </trkpt>
      <trkpt lat="43.385422" lon="-6.073229">
        <ele>132.0</ele>
        <time>2012-06-14T12:11:37Z</time>
      </trkpt>
      <trkpt lat="43.385644" lon="-6.073383">
        <ele>131.0</ele>
        <time>2012-06-14T12:11:41Z</time>
      </trkpt>
      <trkpt lat="43.385878" lon="-6.07354">
        <ele>131.0</ele>
        <time>2012-06-14T12:11:45Z</time>
      </trkpt>
      <trkpt lat="43.386109" lon="-6.073704">
        <ele>130.0</ele>
        <time>2012-06-14T12:11:49Z</time>
      </trkpt>
      <trkpt lat="43.386342" lon="-6.073853">
        <ele>130.0</ele>
        <time>2012-06-14T12:11:53Z</time>
      </trkpt>
      <trkpt lat="43.386582" lon="-6.074016">
        <ele>130.0</ele>
        <time>2012-06-14T12:11:57Z</time>
      </trkpt>
      <trkpt lat="43.386747" lon="-6.074121">
        <ele>131.0</ele>
        <time>2012-06-14T12:12:00Z</time>
      </trkpt>
      <trkpt lat="43.386938" lon="-6.074225">
        <ele>131.0</ele>
        <time>2012-06-14T12:12:04Z</time>
      </trkpt>
      <trkpt lat="43.38712" lon="-6.074286">
        <ele>131.0</ele>
        <time>2012-06-14T12:12:08Z</time>
      </trkpt>
      <trkpt lat="43.387303" lon="-6.074208">
        <ele>131.0</ele>
        <time>2012-06-14T12:12:12Z</time>
      </trkpt>
      <trkpt lat="43.387543" lon="-6.073951">
        <ele>133.0</ele>
        <time>2012-06-14T12:12:17Z</time>
      </trkpt>
      <trkpt lat="43.387736" lon="-6.07373">
        <ele>133.0</ele>
        <time>2012-06-14T12:12:21Z</time>
      </trkpt>
      <trkpt lat="43.38793" lon="-6.073511">
        <ele>134.0</ele>
        <time>2012-06-14T12:12:25Z</time>
      </trkpt>
      <trkpt lat="43.388194" lon="-6.073077">
        <ele>135.0</ele>
        <time>2012-06-14T12:12:32Z</time>
      </trkpt>
      <trkpt lat="43.38828" lon="-6.072767">
        <ele>135.0</ele>
        <time>2012-06-14T12:12:36Z</time>
      </trkpt>
      <trkpt lat="43.388299" lon="-6.07265">
        <ele>135.0</ele>
        <time>2012-06-14T12:12:38Z</time>
      </trkpt>
      <trkpt lat="43.388299" lon="-6.07265">
        <time>2012-06-14T12:12:49Z</time>
      </trkpt>
    </trkseg>
    <trkseg>
      <trkpt lat="43.388299" lon="-6.07265">
        <time>2012-06-14T12:12:57Z</time>
      </trkpt>
    </trkseg>
  </trk>
</gpx>